<?xml version="1.0" encoding="UTF-8" standalone="no" ?>
<gpx xmlns="http://www.topografix.com/GPX/1/1" xmlns:xsi="http://www.w3.org/2001/XMLSchema-instance" xsi:schemaLocation="http://www.topografix.com/GPX/1/1 http://www.topografix.com/GPX/1/1/gpx.xsd" version="1.1" creator="VisuGPX - https://www.visugpx.com">
  <metadata>
    <name>sortie meze-aumes</name>
    <desc><![CDATA[sortie meze-aumes]]></desc>
  </metadata>
  <trk>
    <name><![CDATA[Tracé actuel: 15 AVR 2012 08:32]]></name>
    <trkseg>
      <trkpt lat="43.43638" lon="3.5967">
        <ele>-17.17</ele>
        <time>2012-04-15T06:32:24Z</time>
      </trkpt>
      <trkpt lat="43.43623" lon="3.59659">
        <ele>5.42</ele>
        <time>2012-04-15T06:35:15Z</time>
      </trkpt>
      <trkpt lat="43.43623" lon="3.59653">
        <ele>6.87</ele>
        <time>2012-04-15T06:54:19Z</time>
      </trkpt>
      <trkpt lat="43.43633" lon="3.59643">
        <ele>11.19</ele>
        <time>2012-04-15T06:56:59Z</time>
      </trkpt>
      <trkpt lat="43.43639" lon="3.59648">
        <ele>10.23</ele>
        <time>2012-04-15T06:57:04Z</time>
      </trkpt>
      <trkpt lat="43.43645" lon="3.59657">
        <ele>9.75</ele>
        <time>2012-04-15T06:57:08Z</time>
      </trkpt>
      <trkpt lat="43.43653" lon="3.59667">
        <ele>9.27</ele>
        <time>2012-04-15T06:57:12Z</time>
      </trkpt>
      <trkpt lat="43.43661" lon="3.59678">
        <ele>9.27</ele>
        <time>2012-04-15T06:57:16Z</time>
      </trkpt>
      <trkpt lat="43.43668" lon="3.59686">
        <ele>8.31</ele>
        <time>2012-04-15T06:57:19Z</time>
      </trkpt>
      <trkpt lat="43.43675" lon="3.59695">
        <ele>8.31</ele>
        <time>2012-04-15T06:57:22Z</time>
      </trkpt>
      <trkpt lat="43.43683" lon="3.59704">
        <ele>8.31</ele>
        <time>2012-04-15T06:57:25Z</time>
      </trkpt>
      <trkpt lat="43.43689" lon="3.59714">
        <ele>7.83</ele>
        <time>2012-04-15T06:57:29Z</time>
      </trkpt>
      <trkpt lat="43.43687" lon="3.59723">
        <ele>11.19</ele>
        <time>2012-04-15T07:03:00Z</time>
      </trkpt>
      <trkpt lat="43.43687" lon="3.59713">
        <ele>12.15</ele>
        <time>2012-04-15T07:03:22Z</time>
      </trkpt>
      <trkpt lat="43.43682" lon="3.59701">
        <ele>13.6</ele>
        <time>2012-04-15T07:03:31Z</time>
      </trkpt>
      <trkpt lat="43.43674" lon="3.5969">
        <ele>14.56</ele>
        <time>2012-04-15T07:03:38Z</time>
      </trkpt>
      <trkpt lat="43.43665" lon="3.5968">
        <ele>15.52</ele>
        <time>2012-04-15T07:03:43Z</time>
      </trkpt>
      <trkpt lat="43.43657" lon="3.5967">
        <ele>15.52</ele>
        <time>2012-04-15T07:03:47Z</time>
      </trkpt>
      <trkpt lat="43.43649" lon="3.59661">
        <ele>16</ele>
        <time>2012-04-15T07:03:51Z</time>
      </trkpt>
      <trkpt lat="43.43642" lon="3.59651">
        <ele>16</ele>
        <time>2012-04-15T07:03:54Z</time>
      </trkpt>
      <trkpt lat="43.43637" lon="3.59639">
        <ele>15.52</ele>
        <time>2012-04-15T07:03:57Z</time>
      </trkpt>
      <trkpt lat="43.4364" lon="3.59625">
        <ele>14.08</ele>
        <time>2012-04-15T07:04:00Z</time>
      </trkpt>
      <trkpt lat="43.43647" lon="3.59612">
        <ele>13.12</ele>
        <time>2012-04-15T07:04:03Z</time>
      </trkpt>
      <trkpt lat="43.43655" lon="3.596">
        <ele>12.15</ele>
        <time>2012-04-15T07:04:06Z</time>
      </trkpt>
      <trkpt lat="43.43663" lon="3.59588">
        <ele>11.67</ele>
        <time>2012-04-15T07:04:09Z</time>
      </trkpt>
      <trkpt lat="43.43671" lon="3.59575">
        <ele>11.67</ele>
        <time>2012-04-15T07:04:12Z</time>
      </trkpt>
      <trkpt lat="43.43679" lon="3.59562">
        <ele>11.19</ele>
        <time>2012-04-15T07:04:15Z</time>
      </trkpt>
      <trkpt lat="43.4368" lon="3.59546">
        <ele>10.23</ele>
        <time>2012-04-15T07:04:18Z</time>
      </trkpt>
      <trkpt lat="43.43673" lon="3.5953">
        <ele>9.75</ele>
        <time>2012-04-15T07:04:21Z</time>
      </trkpt>
      <trkpt lat="43.43667" lon="3.59517">
        <ele>9.27</ele>
        <time>2012-04-15T07:04:24Z</time>
      </trkpt>
      <trkpt lat="43.4366" lon="3.59504">
        <ele>7.83</ele>
        <time>2012-04-15T07:04:27Z</time>
      </trkpt>
      <trkpt lat="43.43655" lon="3.59491">
        <ele>7.35</ele>
        <time>2012-04-15T07:04:30Z</time>
      </trkpt>
      <trkpt lat="43.4365" lon="3.59479">
        <ele>7.35</ele>
        <time>2012-04-15T07:04:33Z</time>
      </trkpt>
      <trkpt lat="43.43648" lon="3.59466">
        <ele>7.35</ele>
        <time>2012-04-15T07:04:36Z</time>
      </trkpt>
      <trkpt lat="43.43647" lon="3.59453">
        <ele>7.35</ele>
        <time>2012-04-15T07:04:40Z</time>
      </trkpt>
      <trkpt lat="43.43641" lon="3.59449">
        <ele>7.35</ele>
        <time>2012-04-15T07:04:47Z</time>
      </trkpt>
      <trkpt lat="43.43649" lon="3.59457">
        <ele>7.83</ele>
        <time>2012-04-15T07:04:51Z</time>
      </trkpt>
      <trkpt lat="43.43659" lon="3.5946">
        <ele>7.83</ele>
        <time>2012-04-15T07:04:54Z</time>
      </trkpt>
      <trkpt lat="43.43667" lon="3.59456">
        <ele>8.79</ele>
        <time>2012-04-15T07:04:58Z</time>
      </trkpt>
      <trkpt lat="43.43676" lon="3.59454">
        <ele>9.27</ele>
        <time>2012-04-15T07:05:02Z</time>
      </trkpt>
      <trkpt lat="43.43683" lon="3.5946">
        <ele>9.27</ele>
        <time>2012-04-15T07:05:05Z</time>
      </trkpt>
      <trkpt lat="43.43692" lon="3.59465">
        <ele>8.79</ele>
        <time>2012-04-15T07:05:08Z</time>
      </trkpt>
      <trkpt lat="43.43702" lon="3.59463">
        <ele>8.31</ele>
        <time>2012-04-15T07:05:11Z</time>
      </trkpt>
      <trkpt lat="43.43711" lon="3.59454">
        <ele>7.83</ele>
        <time>2012-04-15T07:05:14Z</time>
      </trkpt>
      <trkpt lat="43.43719" lon="3.59443">
        <ele>7.35</ele>
        <time>2012-04-15T07:05:17Z</time>
      </trkpt>
      <trkpt lat="43.43725" lon="3.5943">
        <ele>7.83</ele>
        <time>2012-04-15T07:05:20Z</time>
      </trkpt>
      <trkpt lat="43.43721" lon="3.59411">
        <ele>6.87</ele>
        <time>2012-04-15T07:05:23Z</time>
      </trkpt>
      <trkpt lat="43.43716" lon="3.59397">
        <ele>6.39</ele>
        <time>2012-04-15T07:05:25Z</time>
      </trkpt>
      <trkpt lat="43.43713" lon="3.59382">
        <ele>5.42</ele>
        <time>2012-04-15T07:05:27Z</time>
      </trkpt>
      <trkpt lat="43.43714" lon="3.59368">
        <ele>4.94</ele>
        <time>2012-04-15T07:05:29Z</time>
      </trkpt>
      <trkpt lat="43.43718" lon="3.59354">
        <ele>4.46</ele>
        <time>2012-04-15T07:05:31Z</time>
      </trkpt>
      <trkpt lat="43.43725" lon="3.59342">
        <ele>3.5</ele>
        <time>2012-04-15T07:05:33Z</time>
      </trkpt>
      <trkpt lat="43.43734" lon="3.59336">
        <ele>3.02</ele>
        <time>2012-04-15T07:05:35Z</time>
      </trkpt>
      <trkpt lat="43.43744" lon="3.59333">
        <ele>2.54</ele>
        <time>2012-04-15T07:05:37Z</time>
      </trkpt>
      <trkpt lat="43.43753" lon="3.59337">
        <ele>2.54</ele>
        <time>2012-04-15T07:05:39Z</time>
      </trkpt>
      <trkpt lat="43.43764" lon="3.59346">
        <ele>2.54</ele>
        <time>2012-04-15T07:05:42Z</time>
      </trkpt>
      <trkpt lat="43.43773" lon="3.59357">
        <ele>2.06</ele>
        <time>2012-04-15T07:05:45Z</time>
      </trkpt>
      <trkpt lat="43.43784" lon="3.59357">
        <ele>2.54</ele>
        <time>2012-04-15T07:05:48Z</time>
      </trkpt>
      <trkpt lat="43.43795" lon="3.59355">
        <ele>2.54</ele>
        <time>2012-04-15T07:05:51Z</time>
      </trkpt>
      <trkpt lat="43.43808" lon="3.59351">
        <ele>3.02</ele>
        <time>2012-04-15T07:05:54Z</time>
      </trkpt>
      <trkpt lat="43.43819" lon="3.59342">
        <ele>3.5</ele>
        <time>2012-04-15T07:05:57Z</time>
      </trkpt>
      <trkpt lat="43.4383" lon="3.59333">
        <ele>3.5</ele>
        <time>2012-04-15T07:06:00Z</time>
      </trkpt>
      <trkpt lat="43.43842" lon="3.59324">
        <ele>3.5</ele>
        <time>2012-04-15T07:06:03Z</time>
      </trkpt>
      <trkpt lat="43.43854" lon="3.59316">
        <ele>3.02</ele>
        <time>2012-04-15T07:06:06Z</time>
      </trkpt>
      <trkpt lat="43.43866" lon="3.59309">
        <ele>3.02</ele>
        <time>2012-04-15T07:06:09Z</time>
      </trkpt>
      <trkpt lat="43.43879" lon="3.59304">
        <ele>3.02</ele>
        <time>2012-04-15T07:06:12Z</time>
      </trkpt>
      <trkpt lat="43.43891" lon="3.593">
        <ele>3.02</ele>
        <time>2012-04-15T07:06:15Z</time>
      </trkpt>
      <trkpt lat="43.43903" lon="3.59296">
        <ele>3.02</ele>
        <time>2012-04-15T07:06:18Z</time>
      </trkpt>
      <trkpt lat="43.43914" lon="3.59291">
        <ele>3.02</ele>
        <time>2012-04-15T07:06:21Z</time>
      </trkpt>
      <trkpt lat="43.43926" lon="3.59288">
        <ele>3.02</ele>
        <time>2012-04-15T07:06:24Z</time>
      </trkpt>
      <trkpt lat="43.43937" lon="3.59287">
        <ele>2.54</ele>
        <time>2012-04-15T07:06:27Z</time>
      </trkpt>
      <trkpt lat="43.43948" lon="3.59288">
        <ele>2.54</ele>
        <time>2012-04-15T07:06:30Z</time>
      </trkpt>
      <trkpt lat="43.43959" lon="3.59288">
        <ele>2.54</ele>
        <time>2012-04-15T07:06:33Z</time>
      </trkpt>
      <trkpt lat="43.43971" lon="3.59288">
        <ele>2.54</ele>
        <time>2012-04-15T07:06:36Z</time>
      </trkpt>
      <trkpt lat="43.43984" lon="3.59288">
        <ele>2.54</ele>
        <time>2012-04-15T07:06:39Z</time>
      </trkpt>
      <trkpt lat="43.43996" lon="3.59285">
        <ele>2.54</ele>
        <time>2012-04-15T07:06:42Z</time>
      </trkpt>
      <trkpt lat="43.44009" lon="3.59282">
        <ele>2.54</ele>
        <time>2012-04-15T07:06:45Z</time>
      </trkpt>
      <trkpt lat="43.44022" lon="3.5928">
        <ele>2.54</ele>
        <time>2012-04-15T07:06:48Z</time>
      </trkpt>
      <trkpt lat="43.44032" lon="3.59278">
        <ele>2.54</ele>
        <time>2012-04-15T07:06:51Z</time>
      </trkpt>
      <trkpt lat="43.44042" lon="3.5928">
        <ele>3.5</ele>
        <time>2012-04-15T07:06:54Z</time>
      </trkpt>
      <trkpt lat="43.44055" lon="3.59285">
        <ele>3.5</ele>
        <time>2012-04-15T07:06:57Z</time>
      </trkpt>
      <trkpt lat="43.44064" lon="3.5929">
        <ele>3.5</ele>
        <time>2012-04-15T07:06:59Z</time>
      </trkpt>
      <trkpt lat="43.44071" lon="3.59297">
        <ele>3.02</ele>
        <time>2012-04-15T07:07:01Z</time>
      </trkpt>
      <trkpt lat="43.44079" lon="3.59304">
        <ele>3.5</ele>
        <time>2012-04-15T07:07:03Z</time>
      </trkpt>
      <trkpt lat="43.44091" lon="3.59311">
        <ele>3.5</ele>
        <time>2012-04-15T07:07:06Z</time>
      </trkpt>
      <trkpt lat="43.44103" lon="3.59305">
        <ele>3.5</ele>
        <time>2012-04-15T07:07:09Z</time>
      </trkpt>
      <trkpt lat="43.44114" lon="3.59297">
        <ele>3.02</ele>
        <time>2012-04-15T07:07:12Z</time>
      </trkpt>
      <trkpt lat="43.44123" lon="3.59288">
        <ele>3.02</ele>
        <time>2012-04-15T07:07:15Z</time>
      </trkpt>
      <trkpt lat="43.44131" lon="3.59281">
        <ele>3.5</ele>
        <time>2012-04-15T07:07:18Z</time>
      </trkpt>
      <trkpt lat="43.44134" lon="3.59267">
        <ele>3.98</ele>
        <time>2012-04-15T07:07:22Z</time>
      </trkpt>
      <trkpt lat="43.44133" lon="3.59255">
        <ele>4.46</ele>
        <time>2012-04-15T07:07:25Z</time>
      </trkpt>
      <trkpt lat="43.44133" lon="3.59239">
        <ele>5.42</ele>
        <time>2012-04-15T07:07:29Z</time>
      </trkpt>
      <trkpt lat="43.44142" lon="3.59233">
        <ele>6.87</ele>
        <time>2012-04-15T07:07:34Z</time>
      </trkpt>
      <trkpt lat="43.44151" lon="3.59234">
        <ele>7.83</ele>
        <time>2012-04-15T07:07:37Z</time>
      </trkpt>
      <trkpt lat="43.44162" lon="3.59234">
        <ele>8.31</ele>
        <time>2012-04-15T07:07:40Z</time>
      </trkpt>
      <trkpt lat="43.44174" lon="3.59234">
        <ele>9.27</ele>
        <time>2012-04-15T07:07:43Z</time>
      </trkpt>
      <trkpt lat="43.44187" lon="3.59234">
        <ele>10.23</ele>
        <time>2012-04-15T07:07:46Z</time>
      </trkpt>
      <trkpt lat="43.44199" lon="3.59235">
        <ele>10.71</ele>
        <time>2012-04-15T07:07:49Z</time>
      </trkpt>
      <trkpt lat="43.44213" lon="3.59235">
        <ele>11.19</ele>
        <time>2012-04-15T07:07:52Z</time>
      </trkpt>
      <trkpt lat="43.44225" lon="3.59236">
        <ele>11.67</ele>
        <time>2012-04-15T07:07:55Z</time>
      </trkpt>
      <trkpt lat="43.44237" lon="3.59236">
        <ele>12.63</ele>
        <time>2012-04-15T07:07:58Z</time>
      </trkpt>
      <trkpt lat="43.44248" lon="3.59238">
        <ele>14.08</ele>
        <time>2012-04-15T07:08:01Z</time>
      </trkpt>
      <trkpt lat="43.4426" lon="3.59238">
        <ele>15.52</ele>
        <time>2012-04-15T07:08:04Z</time>
      </trkpt>
      <trkpt lat="43.44273" lon="3.5923">
        <ele>16</ele>
        <time>2012-04-15T07:08:07Z</time>
      </trkpt>
      <trkpt lat="43.44285" lon="3.5922">
        <ele>16.48</ele>
        <time>2012-04-15T07:08:11Z</time>
      </trkpt>
      <trkpt lat="43.44297" lon="3.59209">
        <ele>16</ele>
        <time>2012-04-15T07:08:14Z</time>
      </trkpt>
      <trkpt lat="43.44308" lon="3.59198">
        <ele>15.04</ele>
        <time>2012-04-15T07:08:17Z</time>
      </trkpt>
      <trkpt lat="43.44317" lon="3.59186">
        <ele>14.56</ele>
        <time>2012-04-15T07:08:20Z</time>
      </trkpt>
      <trkpt lat="43.44325" lon="3.59174">
        <ele>15.04</ele>
        <time>2012-04-15T07:08:23Z</time>
      </trkpt>
      <trkpt lat="43.44331" lon="3.59161">
        <ele>15.52</ele>
        <time>2012-04-15T07:08:27Z</time>
      </trkpt>
      <trkpt lat="43.44328" lon="3.59146">
        <ele>16.48</ele>
        <time>2012-04-15T07:08:31Z</time>
      </trkpt>
      <trkpt lat="43.44328" lon="3.59132">
        <ele>16.48</ele>
        <time>2012-04-15T07:08:34Z</time>
      </trkpt>
      <trkpt lat="43.44328" lon="3.59117">
        <ele>16.48</ele>
        <time>2012-04-15T07:08:37Z</time>
      </trkpt>
      <trkpt lat="43.44326" lon="3.59103">
        <ele>17.44</ele>
        <time>2012-04-15T07:08:40Z</time>
      </trkpt>
      <trkpt lat="43.44317" lon="3.5909">
        <ele>18.88</ele>
        <time>2012-04-15T07:08:43Z</time>
      </trkpt>
      <trkpt lat="43.44307" lon="3.59077">
        <ele>19.84</ele>
        <time>2012-04-15T07:08:46Z</time>
      </trkpt>
      <trkpt lat="43.44297" lon="3.59058">
        <ele>20.32</ele>
        <time>2012-04-15T07:08:49Z</time>
      </trkpt>
      <trkpt lat="43.44292" lon="3.59045">
        <ele>19.84</ele>
        <time>2012-04-15T07:08:51Z</time>
      </trkpt>
      <trkpt lat="43.44286" lon="3.59032">
        <ele>17.92</ele>
        <time>2012-04-15T07:08:53Z</time>
      </trkpt>
      <trkpt lat="43.44281" lon="3.59018">
        <ele>15.52</ele>
        <time>2012-04-15T07:08:55Z</time>
      </trkpt>
      <trkpt lat="43.44276" lon="3.59006">
        <ele>13.6</ele>
        <time>2012-04-15T07:08:57Z</time>
      </trkpt>
      <trkpt lat="43.44268" lon="3.58991">
        <ele>12.15</ele>
        <time>2012-04-15T07:09:00Z</time>
      </trkpt>
      <trkpt lat="43.4426" lon="3.58977">
        <ele>12.15</ele>
        <time>2012-04-15T07:09:03Z</time>
      </trkpt>
      <trkpt lat="43.44251" lon="3.58963">
        <ele>11.19</ele>
        <time>2012-04-15T07:09:06Z</time>
      </trkpt>
      <trkpt lat="43.44244" lon="3.58949">
        <ele>11.19</ele>
        <time>2012-04-15T07:09:09Z</time>
      </trkpt>
      <trkpt lat="43.44236" lon="3.58935">
        <ele>11.19</ele>
        <time>2012-04-15T07:09:12Z</time>
      </trkpt>
      <trkpt lat="43.44228" lon="3.5892">
        <ele>10.71</ele>
        <time>2012-04-15T07:09:15Z</time>
      </trkpt>
      <trkpt lat="43.44219" lon="3.58904">
        <ele>10.23</ele>
        <time>2012-04-15T07:09:18Z</time>
      </trkpt>
      <trkpt lat="43.44213" lon="3.58894">
        <ele>9.75</ele>
        <time>2012-04-15T07:09:20Z</time>
      </trkpt>
      <trkpt lat="43.44208" lon="3.58884">
        <ele>9.75</ele>
        <time>2012-04-15T07:09:22Z</time>
      </trkpt>
      <trkpt lat="43.44202" lon="3.58874">
        <ele>9.75</ele>
        <time>2012-04-15T07:09:24Z</time>
      </trkpt>
      <trkpt lat="43.44196" lon="3.58864">
        <ele>9.75</ele>
        <time>2012-04-15T07:09:26Z</time>
      </trkpt>
      <trkpt lat="43.44187" lon="3.58851">
        <ele>9.27</ele>
        <time>2012-04-15T07:09:29Z</time>
      </trkpt>
      <trkpt lat="43.44179" lon="3.58838">
        <ele>9.27</ele>
        <time>2012-04-15T07:09:32Z</time>
      </trkpt>
      <trkpt lat="43.44171" lon="3.58824">
        <ele>9.75</ele>
        <time>2012-04-15T07:09:35Z</time>
      </trkpt>
      <trkpt lat="43.44164" lon="3.58811">
        <ele>9.27</ele>
        <time>2012-04-15T07:09:38Z</time>
      </trkpt>
      <trkpt lat="43.4416" lon="3.588">
        <ele>8.79</ele>
        <time>2012-04-15T07:09:41Z</time>
      </trkpt>
      <trkpt lat="43.44169" lon="3.58792">
        <ele>8.79</ele>
        <time>2012-04-15T07:09:45Z</time>
      </trkpt>
      <trkpt lat="43.4418" lon="3.58787">
        <ele>8.79</ele>
        <time>2012-04-15T07:09:48Z</time>
      </trkpt>
      <trkpt lat="43.44192" lon="3.58783">
        <ele>8.79</ele>
        <time>2012-04-15T07:09:51Z</time>
      </trkpt>
      <trkpt lat="43.44203" lon="3.58777">
        <ele>8.31</ele>
        <time>2012-04-15T07:09:54Z</time>
      </trkpt>
      <trkpt lat="43.44215" lon="3.58771">
        <ele>8.31</ele>
        <time>2012-04-15T07:09:57Z</time>
      </trkpt>
      <trkpt lat="43.44226" lon="3.58764">
        <ele>8.79</ele>
        <time>2012-04-15T07:10:00Z</time>
      </trkpt>
      <trkpt lat="43.44237" lon="3.58758">
        <ele>8.31</ele>
        <time>2012-04-15T07:10:03Z</time>
      </trkpt>
      <trkpt lat="43.44249" lon="3.58751">
        <ele>8.31</ele>
        <time>2012-04-15T07:10:06Z</time>
      </trkpt>
      <trkpt lat="43.4426" lon="3.58744">
        <ele>8.79</ele>
        <time>2012-04-15T07:10:09Z</time>
      </trkpt>
      <trkpt lat="43.44271" lon="3.58736">
        <ele>9.75</ele>
        <time>2012-04-15T07:10:12Z</time>
      </trkpt>
      <trkpt lat="43.44281" lon="3.58727">
        <ele>10.71</ele>
        <time>2012-04-15T07:10:15Z</time>
      </trkpt>
      <trkpt lat="43.44292" lon="3.58717">
        <ele>11.19</ele>
        <time>2012-04-15T07:10:18Z</time>
      </trkpt>
      <trkpt lat="43.44302" lon="3.58705">
        <ele>11.67</ele>
        <time>2012-04-15T07:10:21Z</time>
      </trkpt>
      <trkpt lat="43.44312" lon="3.58693">
        <ele>11.67</ele>
        <time>2012-04-15T07:10:24Z</time>
      </trkpt>
      <trkpt lat="43.44321" lon="3.58681">
        <ele>11.19</ele>
        <time>2012-04-15T07:10:27Z</time>
      </trkpt>
      <trkpt lat="43.4433" lon="3.58669">
        <ele>11.67</ele>
        <time>2012-04-15T07:10:30Z</time>
      </trkpt>
      <trkpt lat="43.44337" lon="3.58657">
        <ele>11.67</ele>
        <time>2012-04-15T07:10:33Z</time>
      </trkpt>
      <trkpt lat="43.44345" lon="3.58646">
        <ele>11.19</ele>
        <time>2012-04-15T07:10:36Z</time>
      </trkpt>
      <trkpt lat="43.44354" lon="3.58634">
        <ele>10.71</ele>
        <time>2012-04-15T07:10:39Z</time>
      </trkpt>
      <trkpt lat="43.44362" lon="3.58623">
        <ele>10.71</ele>
        <time>2012-04-15T07:10:42Z</time>
      </trkpt>
      <trkpt lat="43.44372" lon="3.58613">
        <ele>10.71</ele>
        <time>2012-04-15T07:10:45Z</time>
      </trkpt>
      <trkpt lat="43.44382" lon="3.58602">
        <ele>10.23</ele>
        <time>2012-04-15T07:10:48Z</time>
      </trkpt>
      <trkpt lat="43.44393" lon="3.58593">
        <ele>9.75</ele>
        <time>2012-04-15T07:10:51Z</time>
      </trkpt>
      <trkpt lat="43.44403" lon="3.58583">
        <ele>9.75</ele>
        <time>2012-04-15T07:10:54Z</time>
      </trkpt>
      <trkpt lat="43.44412" lon="3.58572">
        <ele>9.75</ele>
        <time>2012-04-15T07:10:57Z</time>
      </trkpt>
      <trkpt lat="43.44421" lon="3.58562">
        <ele>9.75</ele>
        <time>2012-04-15T07:11:00Z</time>
      </trkpt>
      <trkpt lat="43.44431" lon="3.58554">
        <ele>9.75</ele>
        <time>2012-04-15T07:11:03Z</time>
      </trkpt>
      <trkpt lat="43.4444" lon="3.58546">
        <ele>9.75</ele>
        <time>2012-04-15T07:11:06Z</time>
      </trkpt>
      <trkpt lat="43.4445" lon="3.58538">
        <ele>10.23</ele>
        <time>2012-04-15T07:11:09Z</time>
      </trkpt>
      <trkpt lat="43.4446" lon="3.58532">
        <ele>10.23</ele>
        <time>2012-04-15T07:11:12Z</time>
      </trkpt>
      <trkpt lat="43.44471" lon="3.58528">
        <ele>10.23</ele>
        <time>2012-04-15T07:11:15Z</time>
      </trkpt>
      <trkpt lat="43.44482" lon="3.58527">
        <ele>10.71</ele>
        <time>2012-04-15T07:11:18Z</time>
      </trkpt>
      <trkpt lat="43.44492" lon="3.58527">
        <ele>10.71</ele>
        <time>2012-04-15T07:11:21Z</time>
      </trkpt>
      <trkpt lat="43.44503" lon="3.58527">
        <ele>10.71</ele>
        <time>2012-04-15T07:11:24Z</time>
      </trkpt>
      <trkpt lat="43.44513" lon="3.58525">
        <ele>11.19</ele>
        <time>2012-04-15T07:11:27Z</time>
      </trkpt>
      <trkpt lat="43.44524" lon="3.58524">
        <ele>11.67</ele>
        <time>2012-04-15T07:11:30Z</time>
      </trkpt>
      <trkpt lat="43.44535" lon="3.58523">
        <ele>12.15</ele>
        <time>2012-04-15T07:11:33Z</time>
      </trkpt>
      <trkpt lat="43.44545" lon="3.58523">
        <ele>12.63</ele>
        <time>2012-04-15T07:11:36Z</time>
      </trkpt>
      <trkpt lat="43.44555" lon="3.58523">
        <ele>13.12</ele>
        <time>2012-04-15T07:11:39Z</time>
      </trkpt>
      <trkpt lat="43.44563" lon="3.58523">
        <ele>14.08</ele>
        <time>2012-04-15T07:11:43Z</time>
      </trkpt>
      <trkpt lat="43.44568" lon="3.58534">
        <ele>14.56</ele>
        <time>2012-04-15T07:11:46Z</time>
      </trkpt>
      <trkpt lat="43.44573" lon="3.58546">
        <ele>14.56</ele>
        <time>2012-04-15T07:11:49Z</time>
      </trkpt>
      <trkpt lat="43.44579" lon="3.5856">
        <ele>14.56</ele>
        <time>2012-04-15T07:11:52Z</time>
      </trkpt>
      <trkpt lat="43.44585" lon="3.58574">
        <ele>14.08</ele>
        <time>2012-04-15T07:11:55Z</time>
      </trkpt>
      <trkpt lat="43.44591" lon="3.58587">
        <ele>14.08</ele>
        <time>2012-04-15T07:11:58Z</time>
      </trkpt>
      <trkpt lat="43.44601" lon="3.5859">
        <ele>14.56</ele>
        <time>2012-04-15T07:12:01Z</time>
      </trkpt>
      <trkpt lat="43.44609" lon="3.58581">
        <ele>14.56</ele>
        <time>2012-04-15T07:12:04Z</time>
      </trkpt>
      <trkpt lat="43.44615" lon="3.58568">
        <ele>14.56</ele>
        <time>2012-04-15T07:12:07Z</time>
      </trkpt>
      <trkpt lat="43.4462" lon="3.58556">
        <ele>14.56</ele>
        <time>2012-04-15T07:12:10Z</time>
      </trkpt>
      <trkpt lat="43.44624" lon="3.58544">
        <ele>14.56</ele>
        <time>2012-04-15T07:12:13Z</time>
      </trkpt>
      <trkpt lat="43.44629" lon="3.58533">
        <ele>15.04</ele>
        <time>2012-04-15T07:12:16Z</time>
      </trkpt>
      <trkpt lat="43.44634" lon="3.58523">
        <ele>15.04</ele>
        <time>2012-04-15T07:12:19Z</time>
      </trkpt>
      <trkpt lat="43.44641" lon="3.58509">
        <ele>15.04</ele>
        <time>2012-04-15T07:12:23Z</time>
      </trkpt>
      <trkpt lat="43.44648" lon="3.585">
        <ele>16</ele>
        <time>2012-04-15T07:12:26Z</time>
      </trkpt>
      <trkpt lat="43.44657" lon="3.5849">
        <ele>16</ele>
        <time>2012-04-15T07:12:30Z</time>
      </trkpt>
      <trkpt lat="43.44668" lon="3.58482">
        <ele>16.48</ele>
        <time>2012-04-15T07:12:34Z</time>
      </trkpt>
      <trkpt lat="43.44679" lon="3.58477">
        <ele>16.96</ele>
        <time>2012-04-15T07:12:38Z</time>
      </trkpt>
      <trkpt lat="43.44688" lon="3.58477">
        <ele>16.96</ele>
        <time>2012-04-15T07:12:41Z</time>
      </trkpt>
      <trkpt lat="43.44697" lon="3.58479">
        <ele>17.44</ele>
        <time>2012-04-15T07:12:44Z</time>
      </trkpt>
      <trkpt lat="43.44707" lon="3.58482">
        <ele>17.92</ele>
        <time>2012-04-15T07:12:47Z</time>
      </trkpt>
      <trkpt lat="43.44716" lon="3.58484">
        <ele>17.92</ele>
        <time>2012-04-15T07:12:50Z</time>
      </trkpt>
      <trkpt lat="43.44726" lon="3.58485">
        <ele>17.92</ele>
        <time>2012-04-15T07:12:53Z</time>
      </trkpt>
      <trkpt lat="43.44737" lon="3.5849">
        <ele>18.88</ele>
        <time>2012-04-15T07:12:57Z</time>
      </trkpt>
      <trkpt lat="43.44748" lon="3.58492">
        <ele>20.32</ele>
        <time>2012-04-15T07:13:01Z</time>
      </trkpt>
      <trkpt lat="43.4476" lon="3.58495">
        <ele>21.29</ele>
        <time>2012-04-15T07:13:05Z</time>
      </trkpt>
      <trkpt lat="43.44771" lon="3.58498">
        <ele>22.25</ele>
        <time>2012-04-15T07:13:09Z</time>
      </trkpt>
      <trkpt lat="43.44781" lon="3.58499">
        <ele>23.69</ele>
        <time>2012-04-15T07:13:13Z</time>
      </trkpt>
      <trkpt lat="43.44793" lon="3.585">
        <ele>24.65</ele>
        <time>2012-04-15T07:13:17Z</time>
      </trkpt>
      <trkpt lat="43.44805" lon="3.58497">
        <ele>26.09</ele>
        <time>2012-04-15T07:13:21Z</time>
      </trkpt>
      <trkpt lat="43.44816" lon="3.58493">
        <ele>27.05</ele>
        <time>2012-04-15T07:13:25Z</time>
      </trkpt>
      <trkpt lat="43.44824" lon="3.58484">
        <ele>27.53</ele>
        <time>2012-04-15T07:13:29Z</time>
      </trkpt>
      <trkpt lat="43.4483" lon="3.58471">
        <ele>27.53</ele>
        <time>2012-04-15T07:13:33Z</time>
      </trkpt>
      <trkpt lat="43.44839" lon="3.58462">
        <ele>28.5</ele>
        <time>2012-04-15T07:13:37Z</time>
      </trkpt>
      <trkpt lat="43.44849" lon="3.58454">
        <ele>28.5</ele>
        <time>2012-04-15T07:13:41Z</time>
      </trkpt>
      <trkpt lat="43.44858" lon="3.58446">
        <ele>28.98</ele>
        <time>2012-04-15T07:13:45Z</time>
      </trkpt>
      <trkpt lat="43.44868" lon="3.58439">
        <ele>29.46</ele>
        <time>2012-04-15T07:13:49Z</time>
      </trkpt>
      <trkpt lat="43.44878" lon="3.58434">
        <ele>29.94</ele>
        <time>2012-04-15T07:13:53Z</time>
      </trkpt>
      <trkpt lat="43.44888" lon="3.58429">
        <ele>29.94</ele>
        <time>2012-04-15T07:13:57Z</time>
      </trkpt>
      <trkpt lat="43.449" lon="3.58424">
        <ele>30.9</ele>
        <time>2012-04-15T07:14:01Z</time>
      </trkpt>
      <trkpt lat="43.4491" lon="3.58418">
        <ele>30.9</ele>
        <time>2012-04-15T07:14:05Z</time>
      </trkpt>
      <trkpt lat="43.44919" lon="3.58411">
        <ele>30.9</ele>
        <time>2012-04-15T07:14:09Z</time>
      </trkpt>
      <trkpt lat="43.4493" lon="3.58404">
        <ele>31.38</ele>
        <time>2012-04-15T07:14:13Z</time>
      </trkpt>
      <trkpt lat="43.4494" lon="3.58399">
        <ele>31.86</ele>
        <time>2012-04-15T07:14:17Z</time>
      </trkpt>
      <trkpt lat="43.44949" lon="3.58396">
        <ele>32.34</ele>
        <time>2012-04-15T07:14:21Z</time>
      </trkpt>
      <trkpt lat="43.44955" lon="3.58408">
        <ele>33.3</ele>
        <time>2012-04-15T07:14:26Z</time>
      </trkpt>
      <trkpt lat="43.44957" lon="3.58423">
        <ele>32.82</ele>
        <time>2012-04-15T07:14:30Z</time>
      </trkpt>
      <trkpt lat="43.44958" lon="3.58437">
        <ele>32.82</ele>
        <time>2012-04-15T07:14:33Z</time>
      </trkpt>
      <trkpt lat="43.4496" lon="3.58452">
        <ele>32.82</ele>
        <time>2012-04-15T07:14:36Z</time>
      </trkpt>
      <trkpt lat="43.44962" lon="3.58467">
        <ele>32.82</ele>
        <time>2012-04-15T07:14:39Z</time>
      </trkpt>
      <trkpt lat="43.44964" lon="3.58482">
        <ele>32.34</ele>
        <time>2012-04-15T07:14:42Z</time>
      </trkpt>
      <trkpt lat="43.44965" lon="3.58497">
        <ele>32.34</ele>
        <time>2012-04-15T07:14:45Z</time>
      </trkpt>
      <trkpt lat="43.44966" lon="3.58512">
        <ele>31.86</ele>
        <time>2012-04-15T07:14:48Z</time>
      </trkpt>
      <trkpt lat="43.44967" lon="3.58526">
        <ele>31.86</ele>
        <time>2012-04-15T07:14:51Z</time>
      </trkpt>
      <trkpt lat="43.44968" lon="3.5854">
        <ele>32.34</ele>
        <time>2012-04-15T07:14:54Z</time>
      </trkpt>
      <trkpt lat="43.44969" lon="3.58553">
        <ele>31.86</ele>
        <time>2012-04-15T07:14:57Z</time>
      </trkpt>
      <trkpt lat="43.44971" lon="3.58567">
        <ele>31.86</ele>
        <time>2012-04-15T07:15:00Z</time>
      </trkpt>
      <trkpt lat="43.44976" lon="3.58579">
        <ele>32.34</ele>
        <time>2012-04-15T07:15:03Z</time>
      </trkpt>
      <trkpt lat="43.44983" lon="3.58587">
        <ele>32.82</ele>
        <time>2012-04-15T07:15:06Z</time>
      </trkpt>
      <trkpt lat="43.44994" lon="3.58587">
        <ele>33.78</ele>
        <time>2012-04-15T07:15:10Z</time>
      </trkpt>
      <trkpt lat="43.45005" lon="3.58584">
        <ele>34.74</ele>
        <time>2012-04-15T07:15:14Z</time>
      </trkpt>
      <trkpt lat="43.45016" lon="3.58581">
        <ele>35.23</ele>
        <time>2012-04-15T07:15:18Z</time>
      </trkpt>
      <trkpt lat="43.45027" lon="3.58578">
        <ele>35.71</ele>
        <time>2012-04-15T07:15:22Z</time>
      </trkpt>
      <trkpt lat="43.45038" lon="3.58574">
        <ele>36.19</ele>
        <time>2012-04-15T07:15:26Z</time>
      </trkpt>
      <trkpt lat="43.45047" lon="3.58569">
        <ele>36.67</ele>
        <time>2012-04-15T07:15:29Z</time>
      </trkpt>
      <trkpt lat="43.45053" lon="3.58558">
        <ele>36.67</ele>
        <time>2012-04-15T07:15:32Z</time>
      </trkpt>
      <trkpt lat="43.45053" lon="3.58543">
        <ele>36.19</ele>
        <time>2012-04-15T07:15:35Z</time>
      </trkpt>
      <trkpt lat="43.45049" lon="3.58525">
        <ele>35.23</ele>
        <time>2012-04-15T07:15:38Z</time>
      </trkpt>
      <trkpt lat="43.45045" lon="3.58507">
        <ele>34.74</ele>
        <time>2012-04-15T07:15:41Z</time>
      </trkpt>
      <trkpt lat="43.45042" lon="3.58495">
        <ele>34.74</ele>
        <time>2012-04-15T07:15:43Z</time>
      </trkpt>
      <trkpt lat="43.45039" lon="3.58483">
        <ele>34.26</ele>
        <time>2012-04-15T07:15:45Z</time>
      </trkpt>
      <trkpt lat="43.45035" lon="3.58471">
        <ele>33.78</ele>
        <time>2012-04-15T07:15:47Z</time>
      </trkpt>
      <trkpt lat="43.45032" lon="3.58459">
        <ele>33.78</ele>
        <time>2012-04-15T07:15:49Z</time>
      </trkpt>
      <trkpt lat="43.45029" lon="3.58447">
        <ele>33.78</ele>
        <time>2012-04-15T07:15:51Z</time>
      </trkpt>
      <trkpt lat="43.45024" lon="3.5843">
        <ele>33.78</ele>
        <time>2012-04-15T07:15:54Z</time>
      </trkpt>
      <trkpt lat="43.45019" lon="3.58414">
        <ele>33.78</ele>
        <time>2012-04-15T07:15:57Z</time>
      </trkpt>
      <trkpt lat="43.45015" lon="3.58398">
        <ele>33.78</ele>
        <time>2012-04-15T07:16:00Z</time>
      </trkpt>
      <trkpt lat="43.4501" lon="3.58381">
        <ele>34.26</ele>
        <time>2012-04-15T07:16:03Z</time>
      </trkpt>
      <trkpt lat="43.45005" lon="3.58365">
        <ele>34.74</ele>
        <time>2012-04-15T07:16:06Z</time>
      </trkpt>
      <trkpt lat="43.45001" lon="3.5835">
        <ele>34.74</ele>
        <time>2012-04-15T07:16:09Z</time>
      </trkpt>
      <trkpt lat="43.44997" lon="3.58335">
        <ele>34.74</ele>
        <time>2012-04-15T07:16:12Z</time>
      </trkpt>
      <trkpt lat="43.44992" lon="3.5832">
        <ele>34.74</ele>
        <time>2012-04-15T07:16:15Z</time>
      </trkpt>
      <trkpt lat="43.44988" lon="3.58305">
        <ele>34.74</ele>
        <time>2012-04-15T07:16:18Z</time>
      </trkpt>
      <trkpt lat="43.44983" lon="3.58291">
        <ele>35.23</ele>
        <time>2012-04-15T07:16:21Z</time>
      </trkpt>
      <trkpt lat="43.44978" lon="3.58275">
        <ele>34.74</ele>
        <time>2012-04-15T07:16:24Z</time>
      </trkpt>
      <trkpt lat="43.44973" lon="3.58258">
        <ele>34.26</ele>
        <time>2012-04-15T07:16:27Z</time>
      </trkpt>
      <trkpt lat="43.44968" lon="3.58241">
        <ele>34.26</ele>
        <time>2012-04-15T07:16:30Z</time>
      </trkpt>
      <trkpt lat="43.44963" lon="3.58225">
        <ele>34.26</ele>
        <time>2012-04-15T07:16:33Z</time>
      </trkpt>
      <trkpt lat="43.44957" lon="3.58209">
        <ele>34.26</ele>
        <time>2012-04-15T07:16:36Z</time>
      </trkpt>
      <trkpt lat="43.44952" lon="3.58192">
        <ele>34.26</ele>
        <time>2012-04-15T07:16:39Z</time>
      </trkpt>
      <trkpt lat="43.44946" lon="3.58176">
        <ele>33.78</ele>
        <time>2012-04-15T07:16:42Z</time>
      </trkpt>
      <trkpt lat="43.4494" lon="3.5816">
        <ele>33.78</ele>
        <time>2012-04-15T07:16:45Z</time>
      </trkpt>
      <trkpt lat="43.44934" lon="3.58144">
        <ele>33.78</ele>
        <time>2012-04-15T07:16:48Z</time>
      </trkpt>
      <trkpt lat="43.44929" lon="3.58129">
        <ele>33.78</ele>
        <time>2012-04-15T07:16:51Z</time>
      </trkpt>
      <trkpt lat="43.44924" lon="3.58115">
        <ele>34.26</ele>
        <time>2012-04-15T07:16:54Z</time>
      </trkpt>
      <trkpt lat="43.4492" lon="3.58102">
        <ele>34.74</ele>
        <time>2012-04-15T07:16:57Z</time>
      </trkpt>
      <trkpt lat="43.44916" lon="3.58089">
        <ele>34.74</ele>
        <time>2012-04-15T07:17:00Z</time>
      </trkpt>
      <trkpt lat="43.44912" lon="3.58076">
        <ele>35.23</ele>
        <time>2012-04-15T07:17:03Z</time>
      </trkpt>
      <trkpt lat="43.44908" lon="3.58065">
        <ele>35.71</ele>
        <time>2012-04-15T07:17:06Z</time>
      </trkpt>
      <trkpt lat="43.44904" lon="3.58053">
        <ele>36.67</ele>
        <time>2012-04-15T07:17:09Z</time>
      </trkpt>
      <trkpt lat="43.44899" lon="3.58041">
        <ele>36.67</ele>
        <time>2012-04-15T07:17:12Z</time>
      </trkpt>
      <trkpt lat="43.44894" lon="3.58029">
        <ele>37.63</ele>
        <time>2012-04-15T07:17:15Z</time>
      </trkpt>
      <trkpt lat="43.4489" lon="3.58018">
        <ele>38.59</ele>
        <time>2012-04-15T07:17:18Z</time>
      </trkpt>
      <trkpt lat="43.44886" lon="3.58007">
        <ele>39.07</ele>
        <time>2012-04-15T07:17:21Z</time>
      </trkpt>
      <trkpt lat="43.4488" lon="3.57992">
        <ele>40.03</ele>
        <time>2012-04-15T07:17:25Z</time>
      </trkpt>
      <trkpt lat="43.44877" lon="3.5798">
        <ele>40.99</ele>
        <time>2012-04-15T07:17:28Z</time>
      </trkpt>
      <trkpt lat="43.44873" lon="3.57968">
        <ele>41.95</ele>
        <time>2012-04-15T07:17:31Z</time>
      </trkpt>
      <trkpt lat="43.4487" lon="3.57955">
        <ele>41.95</ele>
        <time>2012-04-15T07:17:34Z</time>
      </trkpt>
      <trkpt lat="43.44866" lon="3.57942">
        <ele>42.44</ele>
        <time>2012-04-15T07:17:37Z</time>
      </trkpt>
      <trkpt lat="43.4486" lon="3.5793">
        <ele>42.92</ele>
        <time>2012-04-15T07:17:40Z</time>
      </trkpt>
      <trkpt lat="43.44852" lon="3.57919">
        <ele>42.92</ele>
        <time>2012-04-15T07:17:43Z</time>
      </trkpt>
      <trkpt lat="43.44844" lon="3.57907">
        <ele>42.92</ele>
        <time>2012-04-15T07:17:46Z</time>
      </trkpt>
      <trkpt lat="43.44834" lon="3.57894">
        <ele>42.92</ele>
        <time>2012-04-15T07:17:49Z</time>
      </trkpt>
      <trkpt lat="43.44828" lon="3.57884">
        <ele>42.92</ele>
        <time>2012-04-15T07:17:51Z</time>
      </trkpt>
      <trkpt lat="43.44822" lon="3.57874">
        <ele>42.44</ele>
        <time>2012-04-15T07:17:53Z</time>
      </trkpt>
      <trkpt lat="43.44815" lon="3.57863">
        <ele>42.44</ele>
        <time>2012-04-15T07:17:55Z</time>
      </trkpt>
      <trkpt lat="43.44809" lon="3.57852">
        <ele>41.95</ele>
        <time>2012-04-15T07:17:57Z</time>
      </trkpt>
      <trkpt lat="43.44802" lon="3.57841">
        <ele>41.95</ele>
        <time>2012-04-15T07:17:59Z</time>
      </trkpt>
      <trkpt lat="43.44795" lon="3.5783">
        <ele>41.47</ele>
        <time>2012-04-15T07:18:01Z</time>
      </trkpt>
      <trkpt lat="43.44789" lon="3.5782">
        <ele>41.47</ele>
        <time>2012-04-15T07:18:03Z</time>
      </trkpt>
      <trkpt lat="43.44782" lon="3.57809">
        <ele>40.99</ele>
        <time>2012-04-15T07:18:05Z</time>
      </trkpt>
      <trkpt lat="43.44776" lon="3.57799">
        <ele>40.99</ele>
        <time>2012-04-15T07:18:07Z</time>
      </trkpt>
      <trkpt lat="43.44769" lon="3.57789">
        <ele>40.51</ele>
        <time>2012-04-15T07:18:09Z</time>
      </trkpt>
      <trkpt lat="43.44763" lon="3.5778">
        <ele>40.51</ele>
        <time>2012-04-15T07:18:11Z</time>
      </trkpt>
      <trkpt lat="43.44755" lon="3.57766">
        <ele>40.03</ele>
        <time>2012-04-15T07:18:14Z</time>
      </trkpt>
      <trkpt lat="43.44747" lon="3.57752">
        <ele>39.55</ele>
        <time>2012-04-15T07:18:17Z</time>
      </trkpt>
      <trkpt lat="43.44745" lon="3.57736">
        <ele>39.55</ele>
        <time>2012-04-15T07:18:20Z</time>
      </trkpt>
      <trkpt lat="43.44747" lon="3.5772">
        <ele>39.07</ele>
        <time>2012-04-15T07:18:23Z</time>
      </trkpt>
      <trkpt lat="43.44749" lon="3.57708">
        <ele>38.59</ele>
        <time>2012-04-15T07:18:25Z</time>
      </trkpt>
      <trkpt lat="43.44753" lon="3.57694">
        <ele>37.15</ele>
        <time>2012-04-15T07:18:27Z</time>
      </trkpt>
      <trkpt lat="43.44759" lon="3.57679">
        <ele>36.19</ele>
        <time>2012-04-15T07:18:29Z</time>
      </trkpt>
      <trkpt lat="43.44768" lon="3.57665">
        <ele>34.74</ele>
        <time>2012-04-15T07:18:31Z</time>
      </trkpt>
      <trkpt lat="43.44779" lon="3.57656">
        <ele>33.78</ele>
        <time>2012-04-15T07:18:33Z</time>
      </trkpt>
      <trkpt lat="43.44791" lon="3.57647">
        <ele>32.82</ele>
        <time>2012-04-15T07:18:35Z</time>
      </trkpt>
      <trkpt lat="43.44802" lon="3.57638">
        <ele>32.34</ele>
        <time>2012-04-15T07:18:37Z</time>
      </trkpt>
      <trkpt lat="43.44811" lon="3.57626">
        <ele>31.38</ele>
        <time>2012-04-15T07:18:39Z</time>
      </trkpt>
      <trkpt lat="43.4482" lon="3.57614">
        <ele>30.42</ele>
        <time>2012-04-15T07:18:41Z</time>
      </trkpt>
      <trkpt lat="43.4483" lon="3.57606">
        <ele>29.94</ele>
        <time>2012-04-15T07:18:43Z</time>
      </trkpt>
      <trkpt lat="43.44841" lon="3.576">
        <ele>29.46</ele>
        <time>2012-04-15T07:18:45Z</time>
      </trkpt>
      <trkpt lat="43.44852" lon="3.57594">
        <ele>29.46</ele>
        <time>2012-04-15T07:18:47Z</time>
      </trkpt>
      <trkpt lat="43.44861" lon="3.57586">
        <ele>28.98</ele>
        <time>2012-04-15T07:18:49Z</time>
      </trkpt>
      <trkpt lat="43.44871" lon="3.57577">
        <ele>28.98</ele>
        <time>2012-04-15T07:18:51Z</time>
      </trkpt>
      <trkpt lat="43.4488" lon="3.57569">
        <ele>28.5</ele>
        <time>2012-04-15T07:18:53Z</time>
      </trkpt>
      <trkpt lat="43.44889" lon="3.57562">
        <ele>28.02</ele>
        <time>2012-04-15T07:18:55Z</time>
      </trkpt>
      <trkpt lat="43.44897" lon="3.57554">
        <ele>27.53</ele>
        <time>2012-04-15T07:18:57Z</time>
      </trkpt>
      <trkpt lat="43.44905" lon="3.57547">
        <ele>27.53</ele>
        <time>2012-04-15T07:18:59Z</time>
      </trkpt>
      <trkpt lat="43.44913" lon="3.5754">
        <ele>27.05</ele>
        <time>2012-04-15T07:19:01Z</time>
      </trkpt>
      <trkpt lat="43.44922" lon="3.57533">
        <ele>27.05</ele>
        <time>2012-04-15T07:19:03Z</time>
      </trkpt>
      <trkpt lat="43.4493" lon="3.57524">
        <ele>26.57</ele>
        <time>2012-04-15T07:19:05Z</time>
      </trkpt>
      <trkpt lat="43.44938" lon="3.57516">
        <ele>26.57</ele>
        <time>2012-04-15T07:19:07Z</time>
      </trkpt>
      <trkpt lat="43.44947" lon="3.5751">
        <ele>26.57</ele>
        <time>2012-04-15T07:19:09Z</time>
      </trkpt>
      <trkpt lat="43.44956" lon="3.57499">
        <ele>26.09</ele>
        <time>2012-04-15T07:19:12Z</time>
      </trkpt>
      <trkpt lat="43.44959" lon="3.57484">
        <ele>25.61</ele>
        <time>2012-04-15T07:19:15Z</time>
      </trkpt>
      <trkpt lat="43.44955" lon="3.57465">
        <ele>25.13</ele>
        <time>2012-04-15T07:19:18Z</time>
      </trkpt>
      <trkpt lat="43.4495" lon="3.57452">
        <ele>24.17</ele>
        <time>2012-04-15T07:19:20Z</time>
      </trkpt>
      <trkpt lat="43.44943" lon="3.57439">
        <ele>23.21</ele>
        <time>2012-04-15T07:19:22Z</time>
      </trkpt>
      <trkpt lat="43.44934" lon="3.57427">
        <ele>22.25</ele>
        <time>2012-04-15T07:19:24Z</time>
      </trkpt>
      <trkpt lat="43.44922" lon="3.57418">
        <ele>21.29</ele>
        <time>2012-04-15T07:19:26Z</time>
      </trkpt>
      <trkpt lat="43.44909" lon="3.57414">
        <ele>20.81</ele>
        <time>2012-04-15T07:19:28Z</time>
      </trkpt>
      <trkpt lat="43.44897" lon="3.57408">
        <ele>20.32</ele>
        <time>2012-04-15T07:19:30Z</time>
      </trkpt>
      <trkpt lat="43.44885" lon="3.57401">
        <ele>19.84</ele>
        <time>2012-04-15T07:19:32Z</time>
      </trkpt>
      <trkpt lat="43.44873" lon="3.57394">
        <ele>19.36</ele>
        <time>2012-04-15T07:19:34Z</time>
      </trkpt>
      <trkpt lat="43.44862" lon="3.57385">
        <ele>18.88</ele>
        <time>2012-04-15T07:19:36Z</time>
      </trkpt>
      <trkpt lat="43.44855" lon="3.57373">
        <ele>18.4</ele>
        <time>2012-04-15T07:19:38Z</time>
      </trkpt>
      <trkpt lat="43.44852" lon="3.57358">
        <ele>17.92</ele>
        <time>2012-04-15T07:19:40Z</time>
      </trkpt>
      <trkpt lat="43.44851" lon="3.57345">
        <ele>17.92</ele>
        <time>2012-04-15T07:19:42Z</time>
      </trkpt>
      <trkpt lat="43.4485" lon="3.57332">
        <ele>18.4</ele>
        <time>2012-04-15T07:19:44Z</time>
      </trkpt>
      <trkpt lat="43.44847" lon="3.57316">
        <ele>18.88</ele>
        <time>2012-04-15T07:19:47Z</time>
      </trkpt>
      <trkpt lat="43.44844" lon="3.573">
        <ele>19.36</ele>
        <time>2012-04-15T07:19:50Z</time>
      </trkpt>
      <trkpt lat="43.44841" lon="3.57285">
        <ele>20.32</ele>
        <time>2012-04-15T07:19:53Z</time>
      </trkpt>
      <trkpt lat="43.44838" lon="3.57272">
        <ele>20.81</ele>
        <time>2012-04-15T07:19:56Z</time>
      </trkpt>
      <trkpt lat="43.44836" lon="3.5726">
        <ele>21.29</ele>
        <time>2012-04-15T07:19:59Z</time>
      </trkpt>
      <trkpt lat="43.44833" lon="3.57248">
        <ele>22.25</ele>
        <time>2012-04-15T07:20:02Z</time>
      </trkpt>
      <trkpt lat="43.4483" lon="3.57233">
        <ele>23.69</ele>
        <time>2012-04-15T07:20:06Z</time>
      </trkpt>
      <trkpt lat="43.44827" lon="3.57218">
        <ele>24.17</ele>
        <time>2012-04-15T07:20:10Z</time>
      </trkpt>
      <trkpt lat="43.44824" lon="3.57203">
        <ele>25.13</ele>
        <time>2012-04-15T07:20:14Z</time>
      </trkpt>
      <trkpt lat="43.44821" lon="3.57189">
        <ele>26.57</ele>
        <time>2012-04-15T07:20:18Z</time>
      </trkpt>
      <trkpt lat="43.44817" lon="3.57174">
        <ele>27.53</ele>
        <time>2012-04-15T07:20:22Z</time>
      </trkpt>
      <trkpt lat="43.44813" lon="3.57159">
        <ele>28.5</ele>
        <time>2012-04-15T07:20:26Z</time>
      </trkpt>
      <trkpt lat="43.44809" lon="3.57145">
        <ele>29.46</ele>
        <time>2012-04-15T07:20:30Z</time>
      </trkpt>
      <trkpt lat="43.44806" lon="3.57132">
        <ele>29.94</ele>
        <time>2012-04-15T07:20:34Z</time>
      </trkpt>
      <trkpt lat="43.44803" lon="3.57119">
        <ele>30.42</ele>
        <time>2012-04-15T07:20:38Z</time>
      </trkpt>
      <trkpt lat="43.448" lon="3.57105">
        <ele>30.9</ele>
        <time>2012-04-15T07:20:42Z</time>
      </trkpt>
      <trkpt lat="43.44799" lon="3.57093">
        <ele>30.9</ele>
        <time>2012-04-15T07:20:46Z</time>
      </trkpt>
      <trkpt lat="43.44797" lon="3.57079">
        <ele>31.86</ele>
        <time>2012-04-15T07:20:50Z</time>
      </trkpt>
      <trkpt lat="43.44795" lon="3.57067">
        <ele>32.82</ele>
        <time>2012-04-15T07:20:54Z</time>
      </trkpt>
      <trkpt lat="43.44791" lon="3.57055">
        <ele>33.3</ele>
        <time>2012-04-15T07:20:58Z</time>
      </trkpt>
      <trkpt lat="43.44787" lon="3.57043">
        <ele>34.26</ele>
        <time>2012-04-15T07:21:02Z</time>
      </trkpt>
      <trkpt lat="43.44782" lon="3.57032">
        <ele>34.74</ele>
        <time>2012-04-15T07:21:06Z</time>
      </trkpt>
      <trkpt lat="43.44778" lon="3.57021">
        <ele>35.71</ele>
        <time>2012-04-15T07:21:10Z</time>
      </trkpt>
      <trkpt lat="43.44773" lon="3.5701">
        <ele>36.67</ele>
        <time>2012-04-15T07:21:14Z</time>
      </trkpt>
      <trkpt lat="43.4477" lon="3.56998">
        <ele>37.15</ele>
        <time>2012-04-15T07:21:18Z</time>
      </trkpt>
      <trkpt lat="43.44763" lon="3.56987">
        <ele>39.07</ele>
        <time>2012-04-15T07:21:23Z</time>
      </trkpt>
      <trkpt lat="43.44756" lon="3.56976">
        <ele>40.51</ele>
        <time>2012-04-15T07:21:28Z</time>
      </trkpt>
      <trkpt lat="43.44751" lon="3.56967">
        <ele>40.99</ele>
        <time>2012-04-15T07:21:32Z</time>
      </trkpt>
      <trkpt lat="43.44745" lon="3.56954">
        <ele>41.95</ele>
        <time>2012-04-15T07:21:37Z</time>
      </trkpt>
      <trkpt lat="43.4474" lon="3.5694">
        <ele>42.44</ele>
        <time>2012-04-15T07:21:42Z</time>
      </trkpt>
      <trkpt lat="43.44735" lon="3.56929">
        <ele>43.4</ele>
        <time>2012-04-15T07:21:46Z</time>
      </trkpt>
      <trkpt lat="43.44731" lon="3.56916">
        <ele>43.88</ele>
        <time>2012-04-15T07:21:50Z</time>
      </trkpt>
      <trkpt lat="43.44727" lon="3.56903">
        <ele>44.36</ele>
        <time>2012-04-15T07:21:54Z</time>
      </trkpt>
      <trkpt lat="43.44722" lon="3.56891">
        <ele>44.84</ele>
        <time>2012-04-15T07:21:58Z</time>
      </trkpt>
      <trkpt lat="43.44717" lon="3.56879">
        <ele>44.84</ele>
        <time>2012-04-15T07:22:02Z</time>
      </trkpt>
      <trkpt lat="43.44713" lon="3.56868">
        <ele>44.84</ele>
        <time>2012-04-15T07:22:06Z</time>
      </trkpt>
      <trkpt lat="43.44708" lon="3.56855">
        <ele>44.84</ele>
        <time>2012-04-15T07:22:10Z</time>
      </trkpt>
      <trkpt lat="43.44702" lon="3.56843">
        <ele>44.36</ele>
        <time>2012-04-15T07:22:15Z</time>
      </trkpt>
      <trkpt lat="43.44696" lon="3.5683">
        <ele>43.88</ele>
        <time>2012-04-15T07:22:20Z</time>
      </trkpt>
      <trkpt lat="43.44691" lon="3.56817">
        <ele>43.88</ele>
        <time>2012-04-15T07:22:25Z</time>
      </trkpt>
      <trkpt lat="43.44685" lon="3.56803">
        <ele>45.32</ele>
        <time>2012-04-15T07:22:30Z</time>
      </trkpt>
      <trkpt lat="43.44679" lon="3.5679">
        <ele>45.8</ele>
        <time>2012-04-15T07:22:34Z</time>
      </trkpt>
      <trkpt lat="43.44672" lon="3.56782">
        <ele>45.8</ele>
        <time>2012-04-15T07:22:37Z</time>
      </trkpt>
      <trkpt lat="43.44663" lon="3.56767">
        <ele>45.8</ele>
        <time>2012-04-15T07:22:40Z</time>
      </trkpt>
      <trkpt lat="43.44656" lon="3.56753">
        <ele>45.32</ele>
        <time>2012-04-15T07:22:42Z</time>
      </trkpt>
      <trkpt lat="43.4465" lon="3.56736">
        <ele>44.36</ele>
        <time>2012-04-15T07:22:44Z</time>
      </trkpt>
      <trkpt lat="43.44644" lon="3.56717">
        <ele>43.88</ele>
        <time>2012-04-15T07:22:46Z</time>
      </trkpt>
      <trkpt lat="43.44637" lon="3.56696">
        <ele>42.92</ele>
        <time>2012-04-15T07:22:48Z</time>
      </trkpt>
      <trkpt lat="43.4463" lon="3.56675">
        <ele>41.95</ele>
        <time>2012-04-15T07:22:50Z</time>
      </trkpt>
      <trkpt lat="43.44621" lon="3.56654">
        <ele>40.99</ele>
        <time>2012-04-15T07:22:52Z</time>
      </trkpt>
      <trkpt lat="43.44613" lon="3.56633">
        <ele>39.55</ele>
        <time>2012-04-15T07:22:54Z</time>
      </trkpt>
      <trkpt lat="43.44606" lon="3.56612">
        <ele>38.11</ele>
        <time>2012-04-15T07:22:56Z</time>
      </trkpt>
      <trkpt lat="43.44599" lon="3.56592">
        <ele>37.15</ele>
        <time>2012-04-15T07:22:58Z</time>
      </trkpt>
      <trkpt lat="43.44592" lon="3.56573">
        <ele>36.19</ele>
        <time>2012-04-15T07:23:00Z</time>
      </trkpt>
      <trkpt lat="43.44585" lon="3.56556">
        <ele>35.71</ele>
        <time>2012-04-15T07:23:02Z</time>
      </trkpt>
      <trkpt lat="43.4458" lon="3.56539">
        <ele>35.23</ele>
        <time>2012-04-15T07:23:04Z</time>
      </trkpt>
      <trkpt lat="43.44576" lon="3.56523">
        <ele>34.74</ele>
        <time>2012-04-15T07:23:06Z</time>
      </trkpt>
      <trkpt lat="43.44571" lon="3.56508">
        <ele>34.74</ele>
        <time>2012-04-15T07:23:08Z</time>
      </trkpt>
      <trkpt lat="43.44566" lon="3.56495">
        <ele>34.74</ele>
        <time>2012-04-15T07:23:10Z</time>
      </trkpt>
      <trkpt lat="43.44562" lon="3.56485">
        <ele>34.74</ele>
        <time>2012-04-15T07:23:12Z</time>
      </trkpt>
      <trkpt lat="43.44555" lon="3.56473">
        <ele>35.23</ele>
        <time>2012-04-15T07:23:15Z</time>
      </trkpt>
      <trkpt lat="43.4455" lon="3.56463">
        <ele>35.71</ele>
        <time>2012-04-15T07:23:19Z</time>
      </trkpt>
      <trkpt lat="43.44544" lon="3.56451">
        <ele>36.19</ele>
        <time>2012-04-15T07:23:23Z</time>
      </trkpt>
      <trkpt lat="43.44538" lon="3.56436">
        <ele>36.19</ele>
        <time>2012-04-15T07:23:27Z</time>
      </trkpt>
      <trkpt lat="43.44533" lon="3.56421">
        <ele>36.67</ele>
        <time>2012-04-15T07:23:31Z</time>
      </trkpt>
      <trkpt lat="43.44529" lon="3.56408">
        <ele>37.63</ele>
        <time>2012-04-15T07:23:35Z</time>
      </trkpt>
      <trkpt lat="43.44523" lon="3.56395">
        <ele>38.11</ele>
        <time>2012-04-15T07:23:39Z</time>
      </trkpt>
      <trkpt lat="43.44519" lon="3.56383">
        <ele>39.55</ele>
        <time>2012-04-15T07:23:43Z</time>
      </trkpt>
      <trkpt lat="43.44514" lon="3.56371">
        <ele>40.51</ele>
        <time>2012-04-15T07:23:47Z</time>
      </trkpt>
      <trkpt lat="43.44508" lon="3.56358">
        <ele>41.47</ele>
        <time>2012-04-15T07:23:51Z</time>
      </trkpt>
      <trkpt lat="43.44502" lon="3.56348">
        <ele>42.92</ele>
        <time>2012-04-15T07:23:55Z</time>
      </trkpt>
      <trkpt lat="43.44497" lon="3.56336">
        <ele>44.36</ele>
        <time>2012-04-15T07:23:59Z</time>
      </trkpt>
      <trkpt lat="43.44494" lon="3.56323">
        <ele>46.28</ele>
        <time>2012-04-15T07:24:04Z</time>
      </trkpt>
      <trkpt lat="43.4449" lon="3.56311">
        <ele>47.72</ele>
        <time>2012-04-15T07:24:09Z</time>
      </trkpt>
      <trkpt lat="43.44483" lon="3.563">
        <ele>49.16</ele>
        <time>2012-04-15T07:24:15Z</time>
      </trkpt>
      <trkpt lat="43.44477" lon="3.56289">
        <ele>50.61</ele>
        <time>2012-04-15T07:24:21Z</time>
      </trkpt>
      <trkpt lat="43.44473" lon="3.56275">
        <ele>51.57</ele>
        <time>2012-04-15T07:24:27Z</time>
      </trkpt>
      <trkpt lat="43.44469" lon="3.56263">
        <ele>52.53</ele>
        <time>2012-04-15T07:24:33Z</time>
      </trkpt>
      <trkpt lat="43.44464" lon="3.5625">
        <ele>54.45</ele>
        <time>2012-04-15T07:24:39Z</time>
      </trkpt>
      <trkpt lat="43.44459" lon="3.56238">
        <ele>55.41</ele>
        <time>2012-04-15T07:24:45Z</time>
      </trkpt>
      <trkpt lat="43.44455" lon="3.56223">
        <ele>55.41</ele>
        <time>2012-04-15T07:24:50Z</time>
      </trkpt>
      <trkpt lat="43.44449" lon="3.56206">
        <ele>55.41</ele>
        <time>2012-04-15T07:24:53Z</time>
      </trkpt>
      <trkpt lat="43.44443" lon="3.56192">
        <ele>54.45</ele>
        <time>2012-04-15T07:24:55Z</time>
      </trkpt>
      <trkpt lat="43.44437" lon="3.56175">
        <ele>53.49</ele>
        <time>2012-04-15T07:24:57Z</time>
      </trkpt>
      <trkpt lat="43.44429" lon="3.56158">
        <ele>52.53</ele>
        <time>2012-04-15T07:24:59Z</time>
      </trkpt>
      <trkpt lat="43.44421" lon="3.56142">
        <ele>51.57</ele>
        <time>2012-04-15T07:25:01Z</time>
      </trkpt>
      <trkpt lat="43.44414" lon="3.56126">
        <ele>51.09</ele>
        <time>2012-04-15T07:25:03Z</time>
      </trkpt>
      <trkpt lat="43.44407" lon="3.56111">
        <ele>50.13</ele>
        <time>2012-04-15T07:25:05Z</time>
      </trkpt>
      <trkpt lat="43.44401" lon="3.56095">
        <ele>49.16</ele>
        <time>2012-04-15T07:25:07Z</time>
      </trkpt>
      <trkpt lat="43.44396" lon="3.56081">
        <ele>48.68</ele>
        <time>2012-04-15T07:25:09Z</time>
      </trkpt>
      <trkpt lat="43.4439" lon="3.56068">
        <ele>48.2</ele>
        <time>2012-04-15T07:25:11Z</time>
      </trkpt>
      <trkpt lat="43.44385" lon="3.56056">
        <ele>48.2</ele>
        <time>2012-04-15T07:25:13Z</time>
      </trkpt>
      <trkpt lat="43.4438" lon="3.56045">
        <ele>47.72</ele>
        <time>2012-04-15T07:25:15Z</time>
      </trkpt>
      <trkpt lat="43.44376" lon="3.56034">
        <ele>47.24</ele>
        <time>2012-04-15T07:25:17Z</time>
      </trkpt>
      <trkpt lat="43.44371" lon="3.56023">
        <ele>47.24</ele>
        <time>2012-04-15T07:25:19Z</time>
      </trkpt>
      <trkpt lat="43.44366" lon="3.56007">
        <ele>47.24</ele>
        <time>2012-04-15T07:25:22Z</time>
      </trkpt>
      <trkpt lat="43.4436" lon="3.55991">
        <ele>46.76</ele>
        <time>2012-04-15T07:25:25Z</time>
      </trkpt>
      <trkpt lat="43.44355" lon="3.55975">
        <ele>46.76</ele>
        <time>2012-04-15T07:25:28Z</time>
      </trkpt>
      <trkpt lat="43.44349" lon="3.55962">
        <ele>46.76</ele>
        <time>2012-04-15T07:25:31Z</time>
      </trkpt>
      <trkpt lat="43.44344" lon="3.55948">
        <ele>47.24</ele>
        <time>2012-04-15T07:25:34Z</time>
      </trkpt>
      <trkpt lat="43.44339" lon="3.55936">
        <ele>48.2</ele>
        <time>2012-04-15T07:25:37Z</time>
      </trkpt>
      <trkpt lat="43.44335" lon="3.55925">
        <ele>48.68</ele>
        <time>2012-04-15T07:25:40Z</time>
      </trkpt>
      <trkpt lat="43.4433" lon="3.55913">
        <ele>49.16</ele>
        <time>2012-04-15T07:25:43Z</time>
      </trkpt>
      <trkpt lat="43.44326" lon="3.55902">
        <ele>49.16</ele>
        <time>2012-04-15T07:25:46Z</time>
      </trkpt>
      <trkpt lat="43.4432" lon="3.55888">
        <ele>49.65</ele>
        <time>2012-04-15T07:25:50Z</time>
      </trkpt>
      <trkpt lat="43.44317" lon="3.55874">
        <ele>50.13</ele>
        <time>2012-04-15T07:25:54Z</time>
      </trkpt>
      <trkpt lat="43.44312" lon="3.55861">
        <ele>51.09</ele>
        <time>2012-04-15T07:25:59Z</time>
      </trkpt>
      <trkpt lat="43.44303" lon="3.55859">
        <ele>52.53</ele>
        <time>2012-04-15T07:26:04Z</time>
      </trkpt>
      <trkpt lat="43.44295" lon="3.55851">
        <ele>53.97</ele>
        <time>2012-04-15T07:26:09Z</time>
      </trkpt>
      <trkpt lat="43.44292" lon="3.55838">
        <ele>55.89</ele>
        <time>2012-04-15T07:26:15Z</time>
      </trkpt>
      <trkpt lat="43.44288" lon="3.55825">
        <ele>58.3</ele>
        <time>2012-04-15T07:26:21Z</time>
      </trkpt>
      <trkpt lat="43.44283" lon="3.55812">
        <ele>58.78</ele>
        <time>2012-04-15T07:26:27Z</time>
      </trkpt>
      <trkpt lat="43.44278" lon="3.55799">
        <ele>60.22</ele>
        <time>2012-04-15T07:26:33Z</time>
      </trkpt>
      <trkpt lat="43.44271" lon="3.55786">
        <ele>61.18</ele>
        <time>2012-04-15T07:26:39Z</time>
      </trkpt>
      <trkpt lat="43.44265" lon="3.55775">
        <ele>62.62</ele>
        <time>2012-04-15T07:26:44Z</time>
      </trkpt>
      <trkpt lat="43.44262" lon="3.55762">
        <ele>63.58</ele>
        <time>2012-04-15T07:26:50Z</time>
      </trkpt>
      <trkpt lat="43.44258" lon="3.5575">
        <ele>63.58</ele>
        <time>2012-04-15T07:26:56Z</time>
      </trkpt>
      <trkpt lat="43.44253" lon="3.55737">
        <ele>63.58</ele>
        <time>2012-04-15T07:27:02Z</time>
      </trkpt>
      <trkpt lat="43.44245" lon="3.55728">
        <ele>64.55</ele>
        <time>2012-04-15T07:27:08Z</time>
      </trkpt>
      <trkpt lat="43.44239" lon="3.55719">
        <ele>65.51</ele>
        <time>2012-04-15T07:27:14Z</time>
      </trkpt>
      <trkpt lat="43.44232" lon="3.55708">
        <ele>66.47</ele>
        <time>2012-04-15T07:27:19Z</time>
      </trkpt>
      <trkpt lat="43.44225" lon="3.55698">
        <ele>66.47</ele>
        <time>2012-04-15T07:27:24Z</time>
      </trkpt>
      <trkpt lat="43.44215" lon="3.5569">
        <ele>67.43</ele>
        <time>2012-04-15T07:27:30Z</time>
      </trkpt>
      <trkpt lat="43.44205" lon="3.55685">
        <ele>67.43</ele>
        <time>2012-04-15T07:27:35Z</time>
      </trkpt>
      <trkpt lat="43.44196" lon="3.55675">
        <ele>67.91</ele>
        <time>2012-04-15T07:27:40Z</time>
      </trkpt>
      <trkpt lat="43.4419" lon="3.55666">
        <ele>66.95</ele>
        <time>2012-04-15T07:27:44Z</time>
      </trkpt>
      <trkpt lat="43.44183" lon="3.55655">
        <ele>66.47</ele>
        <time>2012-04-15T07:27:48Z</time>
      </trkpt>
      <trkpt lat="43.44178" lon="3.55643">
        <ele>66.47</ele>
        <time>2012-04-15T07:27:52Z</time>
      </trkpt>
      <trkpt lat="43.44173" lon="3.5563">
        <ele>65.99</ele>
        <time>2012-04-15T07:27:56Z</time>
      </trkpt>
      <trkpt lat="43.44168" lon="3.55617">
        <ele>66.47</ele>
        <time>2012-04-15T07:28:00Z</time>
      </trkpt>
      <trkpt lat="43.44163" lon="3.55603">
        <ele>66.47</ele>
        <time>2012-04-15T07:28:04Z</time>
      </trkpt>
      <trkpt lat="43.44159" lon="3.55589">
        <ele>65.99</ele>
        <time>2012-04-15T07:28:08Z</time>
      </trkpt>
      <trkpt lat="43.44155" lon="3.55574">
        <ele>66.47</ele>
        <time>2012-04-15T07:28:12Z</time>
      </trkpt>
      <trkpt lat="43.44151" lon="3.55559">
        <ele>65.99</ele>
        <time>2012-04-15T07:28:16Z</time>
      </trkpt>
      <trkpt lat="43.44147" lon="3.55545">
        <ele>66.47</ele>
        <time>2012-04-15T07:28:20Z</time>
      </trkpt>
      <trkpt lat="43.44143" lon="3.55533">
        <ele>66.95</ele>
        <time>2012-04-15T07:28:23Z</time>
      </trkpt>
      <trkpt lat="43.44139" lon="3.55521">
        <ele>66.95</ele>
        <time>2012-04-15T07:28:26Z</time>
      </trkpt>
      <trkpt lat="43.44134" lon="3.55509">
        <ele>66.47</ele>
        <time>2012-04-15T07:28:29Z</time>
      </trkpt>
      <trkpt lat="43.44127" lon="3.555">
        <ele>66.95</ele>
        <time>2012-04-15T07:28:32Z</time>
      </trkpt>
      <trkpt lat="43.44116" lon="3.55493">
        <ele>66.95</ele>
        <time>2012-04-15T07:28:35Z</time>
      </trkpt>
      <trkpt lat="43.44103" lon="3.55491">
        <ele>67.43</ele>
        <time>2012-04-15T07:28:38Z</time>
      </trkpt>
      <trkpt lat="43.4409" lon="3.55488">
        <ele>67.43</ele>
        <time>2012-04-15T07:28:41Z</time>
      </trkpt>
      <trkpt lat="43.4408" lon="3.55487">
        <ele>66.95</ele>
        <time>2012-04-15T07:28:43Z</time>
      </trkpt>
      <trkpt lat="43.44071" lon="3.55485">
        <ele>66.95</ele>
        <time>2012-04-15T07:28:45Z</time>
      </trkpt>
      <trkpt lat="43.44061" lon="3.55482">
        <ele>66.95</ele>
        <time>2012-04-15T07:28:47Z</time>
      </trkpt>
      <trkpt lat="43.44053" lon="3.55477">
        <ele>66.95</ele>
        <time>2012-04-15T07:28:49Z</time>
      </trkpt>
      <trkpt lat="43.44044" lon="3.55472">
        <ele>66.95</ele>
        <time>2012-04-15T07:28:51Z</time>
      </trkpt>
      <trkpt lat="43.44033" lon="3.55473">
        <ele>66.95</ele>
        <time>2012-04-15T07:28:53Z</time>
      </trkpt>
      <trkpt lat="43.44023" lon="3.55475">
        <ele>66.95</ele>
        <time>2012-04-15T07:28:55Z</time>
      </trkpt>
      <trkpt lat="43.44014" lon="3.55472">
        <ele>66.95</ele>
        <time>2012-04-15T07:28:57Z</time>
      </trkpt>
      <trkpt lat="43.44003" lon="3.55462">
        <ele>66.47</ele>
        <time>2012-04-15T07:29:00Z</time>
      </trkpt>
      <trkpt lat="43.43995" lon="3.55452">
        <ele>66.47</ele>
        <time>2012-04-15T07:29:03Z</time>
      </trkpt>
      <trkpt lat="43.4399" lon="3.55441">
        <ele>66.47</ele>
        <time>2012-04-15T07:29:06Z</time>
      </trkpt>
      <trkpt lat="43.43988" lon="3.55427">
        <ele>65.51</ele>
        <time>2012-04-15T07:29:10Z</time>
      </trkpt>
      <trkpt lat="43.43983" lon="3.55412">
        <ele>63.1</ele>
        <time>2012-04-15T07:29:14Z</time>
      </trkpt>
      <trkpt lat="43.43974" lon="3.55406">
        <ele>61.18</ele>
        <time>2012-04-15T07:29:16Z</time>
      </trkpt>
      <trkpt lat="43.43963" lon="3.55402">
        <ele>59.74</ele>
        <time>2012-04-15T07:29:18Z</time>
      </trkpt>
      <trkpt lat="43.4395" lon="3.55399">
        <ele>57.82</ele>
        <time>2012-04-15T07:29:20Z</time>
      </trkpt>
      <trkpt lat="43.43938" lon="3.55399">
        <ele>56.37</ele>
        <time>2012-04-15T07:29:22Z</time>
      </trkpt>
      <trkpt lat="43.43929" lon="3.55402">
        <ele>55.41</ele>
        <time>2012-04-15T07:29:24Z</time>
      </trkpt>
      <trkpt lat="43.43919" lon="3.55404">
        <ele>54.45</ele>
        <time>2012-04-15T07:29:27Z</time>
      </trkpt>
      <trkpt lat="43.43915" lon="3.55393">
        <ele>52.53</ele>
        <time>2012-04-15T07:29:31Z</time>
      </trkpt>
      <trkpt lat="43.43919" lon="3.55381">
        <ele>52.05</ele>
        <time>2012-04-15T07:29:34Z</time>
      </trkpt>
      <trkpt lat="43.43923" lon="3.55367">
        <ele>51.57</ele>
        <time>2012-04-15T07:29:37Z</time>
      </trkpt>
      <trkpt lat="43.43928" lon="3.55353">
        <ele>51.57</ele>
        <time>2012-04-15T07:29:40Z</time>
      </trkpt>
      <trkpt lat="43.43932" lon="3.55338">
        <ele>51.09</ele>
        <time>2012-04-15T07:29:43Z</time>
      </trkpt>
      <trkpt lat="43.43937" lon="3.55321">
        <ele>51.09</ele>
        <time>2012-04-15T07:29:46Z</time>
      </trkpt>
      <trkpt lat="43.43942" lon="3.55304">
        <ele>51.57</ele>
        <time>2012-04-15T07:29:49Z</time>
      </trkpt>
      <trkpt lat="43.43947" lon="3.55287">
        <ele>51.57</ele>
        <time>2012-04-15T07:29:52Z</time>
      </trkpt>
      <trkpt lat="43.43951" lon="3.55275">
        <ele>51.57</ele>
        <time>2012-04-15T07:29:54Z</time>
      </trkpt>
      <trkpt lat="43.43957" lon="3.55263">
        <ele>51.09</ele>
        <time>2012-04-15T07:29:56Z</time>
      </trkpt>
      <trkpt lat="43.43964" lon="3.5525">
        <ele>50.61</ele>
        <time>2012-04-15T07:29:58Z</time>
      </trkpt>
      <trkpt lat="43.4397" lon="3.55234">
        <ele>49.65</ele>
        <time>2012-04-15T07:30:00Z</time>
      </trkpt>
      <trkpt lat="43.43976" lon="3.55218">
        <ele>49.16</ele>
        <time>2012-04-15T07:30:02Z</time>
      </trkpt>
      <trkpt lat="43.43981" lon="3.55202">
        <ele>48.2</ele>
        <time>2012-04-15T07:30:04Z</time>
      </trkpt>
      <trkpt lat="43.43987" lon="3.55187">
        <ele>47.72</ele>
        <time>2012-04-15T07:30:06Z</time>
      </trkpt>
      <trkpt lat="43.43993" lon="3.55171">
        <ele>47.24</ele>
        <time>2012-04-15T07:30:08Z</time>
      </trkpt>
      <trkpt lat="43.43999" lon="3.55156">
        <ele>46.76</ele>
        <time>2012-04-15T07:30:10Z</time>
      </trkpt>
      <trkpt lat="43.44005" lon="3.55141">
        <ele>45.8</ele>
        <time>2012-04-15T07:30:12Z</time>
      </trkpt>
      <trkpt lat="43.4401" lon="3.55126">
        <ele>45.32</ele>
        <time>2012-04-15T07:30:14Z</time>
      </trkpt>
      <trkpt lat="43.44015" lon="3.55111">
        <ele>44.84</ele>
        <time>2012-04-15T07:30:16Z</time>
      </trkpt>
      <trkpt lat="43.4402" lon="3.55098">
        <ele>44.36</ele>
        <time>2012-04-15T07:30:18Z</time>
      </trkpt>
      <trkpt lat="43.44025" lon="3.55083">
        <ele>44.36</ele>
        <time>2012-04-15T07:30:20Z</time>
      </trkpt>
      <trkpt lat="43.4403" lon="3.55067">
        <ele>43.88</ele>
        <time>2012-04-15T07:30:22Z</time>
      </trkpt>
      <trkpt lat="43.44033" lon="3.55051">
        <ele>43.88</ele>
        <time>2012-04-15T07:30:24Z</time>
      </trkpt>
      <trkpt lat="43.44034" lon="3.55034">
        <ele>43.4</ele>
        <time>2012-04-15T07:30:26Z</time>
      </trkpt>
      <trkpt lat="43.44035" lon="3.55018">
        <ele>42.92</ele>
        <time>2012-04-15T07:30:28Z</time>
      </trkpt>
      <trkpt lat="43.44036" lon="3.55003">
        <ele>42.92</ele>
        <time>2012-04-15T07:30:30Z</time>
      </trkpt>
      <trkpt lat="43.44036" lon="3.54989">
        <ele>43.4</ele>
        <time>2012-04-15T07:30:32Z</time>
      </trkpt>
      <trkpt lat="43.44036" lon="3.54971">
        <ele>43.4</ele>
        <time>2012-04-15T07:30:35Z</time>
      </trkpt>
      <trkpt lat="43.44027" lon="3.54964">
        <ele>43.88</ele>
        <time>2012-04-15T07:30:38Z</time>
      </trkpt>
      <trkpt lat="43.44016" lon="3.54967">
        <ele>44.84</ele>
        <time>2012-04-15T07:30:42Z</time>
      </trkpt>
      <trkpt lat="43.44005" lon="3.54967">
        <ele>45.32</ele>
        <time>2012-04-15T07:30:47Z</time>
      </trkpt>
      <trkpt lat="43.43996" lon="3.54965">
        <ele>46.28</ele>
        <time>2012-04-15T07:30:51Z</time>
      </trkpt>
      <trkpt lat="43.43986" lon="3.54957">
        <ele>46.76</ele>
        <time>2012-04-15T07:30:55Z</time>
      </trkpt>
      <trkpt lat="43.43983" lon="3.54944">
        <ele>46.76</ele>
        <time>2012-04-15T07:30:59Z</time>
      </trkpt>
      <trkpt lat="43.43979" lon="3.54929">
        <ele>46.28</ele>
        <time>2012-04-15T07:31:03Z</time>
      </trkpt>
      <trkpt lat="43.43976" lon="3.54915">
        <ele>47.24</ele>
        <time>2012-04-15T07:31:07Z</time>
      </trkpt>
      <trkpt lat="43.43972" lon="3.54901">
        <ele>47.72</ele>
        <time>2012-04-15T07:31:11Z</time>
      </trkpt>
      <trkpt lat="43.43968" lon="3.54887">
        <ele>48.68</ele>
        <time>2012-04-15T07:31:15Z</time>
      </trkpt>
      <trkpt lat="43.43965" lon="3.54873">
        <ele>49.65</ele>
        <time>2012-04-15T07:31:19Z</time>
      </trkpt>
      <trkpt lat="43.43959" lon="3.54859">
        <ele>50.13</ele>
        <time>2012-04-15T07:31:23Z</time>
      </trkpt>
      <trkpt lat="43.43954" lon="3.54847">
        <ele>50.61</ele>
        <time>2012-04-15T07:31:27Z</time>
      </trkpt>
      <trkpt lat="43.43948" lon="3.54834">
        <ele>52.05</ele>
        <time>2012-04-15T07:31:32Z</time>
      </trkpt>
      <trkpt lat="43.43945" lon="3.54816">
        <ele>53.49</ele>
        <time>2012-04-15T07:31:37Z</time>
      </trkpt>
      <trkpt lat="43.43939" lon="3.54802">
        <ele>54.93</ele>
        <time>2012-04-15T07:31:42Z</time>
      </trkpt>
      <trkpt lat="43.43934" lon="3.54788">
        <ele>56.37</ele>
        <time>2012-04-15T07:31:47Z</time>
      </trkpt>
      <trkpt lat="43.43928" lon="3.54773">
        <ele>57.82</ele>
        <time>2012-04-15T07:31:52Z</time>
      </trkpt>
      <trkpt lat="43.43924" lon="3.54758">
        <ele>58.3</ele>
        <time>2012-04-15T07:31:56Z</time>
      </trkpt>
      <trkpt lat="43.4392" lon="3.54742">
        <ele>59.74</ele>
        <time>2012-04-15T07:32:01Z</time>
      </trkpt>
      <trkpt lat="43.43915" lon="3.5473">
        <ele>60.7</ele>
        <time>2012-04-15T07:32:05Z</time>
      </trkpt>
      <trkpt lat="43.4391" lon="3.54717">
        <ele>61.18</ele>
        <time>2012-04-15T07:32:09Z</time>
      </trkpt>
      <trkpt lat="43.43905" lon="3.54706">
        <ele>62.14</ele>
        <time>2012-04-15T07:32:13Z</time>
      </trkpt>
      <trkpt lat="43.439" lon="3.54694">
        <ele>62.14</ele>
        <time>2012-04-15T07:32:17Z</time>
      </trkpt>
      <trkpt lat="43.43894" lon="3.54681">
        <ele>63.1</ele>
        <time>2012-04-15T07:32:22Z</time>
      </trkpt>
      <trkpt lat="43.43889" lon="3.5467">
        <ele>64.55</ele>
        <time>2012-04-15T07:32:27Z</time>
      </trkpt>
      <trkpt lat="43.43886" lon="3.54655">
        <ele>65.51</ele>
        <time>2012-04-15T07:32:31Z</time>
      </trkpt>
      <trkpt lat="43.43881" lon="3.54644">
        <ele>66.47</ele>
        <time>2012-04-15T07:32:35Z</time>
      </trkpt>
      <trkpt lat="43.43877" lon="3.54631">
        <ele>67.43</ele>
        <time>2012-04-15T07:32:40Z</time>
      </trkpt>
      <trkpt lat="43.43872" lon="3.54617">
        <ele>67.91</ele>
        <time>2012-04-15T07:32:46Z</time>
      </trkpt>
      <trkpt lat="43.43867" lon="3.54603">
        <ele>66.95</ele>
        <time>2012-04-15T07:32:49Z</time>
      </trkpt>
      <trkpt lat="43.43859" lon="3.54587">
        <ele>65.99</ele>
        <time>2012-04-15T07:32:52Z</time>
      </trkpt>
      <trkpt lat="43.4385" lon="3.54574">
        <ele>65.03</ele>
        <time>2012-04-15T07:32:55Z</time>
      </trkpt>
      <trkpt lat="43.43842" lon="3.5456">
        <ele>63.58</ele>
        <time>2012-04-15T07:32:58Z</time>
      </trkpt>
      <trkpt lat="43.43839" lon="3.54545">
        <ele>62.62</ele>
        <time>2012-04-15T07:33:00Z</time>
      </trkpt>
      <trkpt lat="43.43833" lon="3.54529">
        <ele>61.66</ele>
        <time>2012-04-15T07:33:02Z</time>
      </trkpt>
      <trkpt lat="43.43826" lon="3.54512">
        <ele>60.7</ele>
        <time>2012-04-15T07:33:04Z</time>
      </trkpt>
      <trkpt lat="43.43818" lon="3.54491">
        <ele>60.22</ele>
        <time>2012-04-15T07:33:06Z</time>
      </trkpt>
      <trkpt lat="43.4381" lon="3.54469">
        <ele>59.26</ele>
        <time>2012-04-15T07:33:08Z</time>
      </trkpt>
      <trkpt lat="43.43803" lon="3.54451">
        <ele>58.78</ele>
        <time>2012-04-15T07:33:10Z</time>
      </trkpt>
      <trkpt lat="43.43798" lon="3.54436">
        <ele>58.3</ele>
        <time>2012-04-15T07:33:12Z</time>
      </trkpt>
      <trkpt lat="43.43794" lon="3.54423">
        <ele>57.82</ele>
        <time>2012-04-15T07:33:14Z</time>
      </trkpt>
      <trkpt lat="43.43788" lon="3.5441">
        <ele>56.86</ele>
        <time>2012-04-15T07:33:17Z</time>
      </trkpt>
      <trkpt lat="43.43782" lon="3.54396">
        <ele>55.41</ele>
        <time>2012-04-15T07:33:30Z</time>
      </trkpt>
      <trkpt lat="43.43777" lon="3.54382">
        <ele>54.45</ele>
        <time>2012-04-15T07:33:37Z</time>
      </trkpt>
      <trkpt lat="43.4377" lon="3.54377">
        <ele>53.49</ele>
        <time>2012-04-15T07:33:44Z</time>
      </trkpt>
      <trkpt lat="43.43777" lon="3.54375">
        <ele>52.05</ele>
        <time>2012-04-15T07:33:48Z</time>
      </trkpt>
      <trkpt lat="43.43785" lon="3.54381">
        <ele>52.53</ele>
        <time>2012-04-15T07:33:53Z</time>
      </trkpt>
      <trkpt lat="43.43794" lon="3.54381">
        <ele>54.45</ele>
        <time>2012-04-15T07:33:58Z</time>
      </trkpt>
      <trkpt lat="43.43804" lon="3.54386">
        <ele>57.82</ele>
        <time>2012-04-15T07:34:04Z</time>
      </trkpt>
      <trkpt lat="43.43816" lon="3.54387">
        <ele>59.26</ele>
        <time>2012-04-15T07:34:09Z</time>
      </trkpt>
      <trkpt lat="43.43829" lon="3.54386">
        <ele>61.18</ele>
        <time>2012-04-15T07:34:14Z</time>
      </trkpt>
      <trkpt lat="43.43843" lon="3.54381">
        <ele>60.7</ele>
        <time>2012-04-15T07:34:19Z</time>
      </trkpt>
      <trkpt lat="43.43854" lon="3.54377">
        <ele>61.66</ele>
        <time>2012-04-15T07:34:24Z</time>
      </trkpt>
      <trkpt lat="43.43866" lon="3.54372">
        <ele>61.66</ele>
        <time>2012-04-15T07:34:28Z</time>
      </trkpt>
      <trkpt lat="43.43876" lon="3.54366">
        <ele>61.66</ele>
        <time>2012-04-15T07:34:32Z</time>
      </trkpt>
      <trkpt lat="43.43886" lon="3.54361">
        <ele>61.66</ele>
        <time>2012-04-15T07:34:36Z</time>
      </trkpt>
      <trkpt lat="43.43895" lon="3.54356">
        <ele>61.66</ele>
        <time>2012-04-15T07:34:40Z</time>
      </trkpt>
      <trkpt lat="43.43904" lon="3.54349">
        <ele>62.14</ele>
        <time>2012-04-15T07:34:44Z</time>
      </trkpt>
      <trkpt lat="43.43914" lon="3.54341">
        <ele>61.66</ele>
        <time>2012-04-15T07:34:48Z</time>
      </trkpt>
      <trkpt lat="43.43914" lon="3.54329">
        <ele>60.7</ele>
        <time>2012-04-15T07:34:54Z</time>
      </trkpt>
      <trkpt lat="43.43908" lon="3.54319">
        <ele>60.7</ele>
        <time>2012-04-15T07:34:58Z</time>
      </trkpt>
      <trkpt lat="43.43906" lon="3.54306">
        <ele>59.74</ele>
        <time>2012-04-15T07:35:04Z</time>
      </trkpt>
      <trkpt lat="43.43909" lon="3.54291">
        <ele>59.26</ele>
        <time>2012-04-15T07:35:08Z</time>
      </trkpt>
      <trkpt lat="43.43899" lon="3.54281">
        <ele>61.18</ele>
        <time>2012-04-15T07:35:12Z</time>
      </trkpt>
      <trkpt lat="43.43892" lon="3.54265">
        <ele>61.66</ele>
        <time>2012-04-15T07:35:16Z</time>
      </trkpt>
      <trkpt lat="43.43886" lon="3.54247">
        <ele>62.62</ele>
        <time>2012-04-15T07:35:19Z</time>
      </trkpt>
      <trkpt lat="43.43877" lon="3.54234">
        <ele>63.58</ele>
        <time>2012-04-15T07:35:22Z</time>
      </trkpt>
      <trkpt lat="43.43869" lon="3.54224">
        <ele>65.03</ele>
        <time>2012-04-15T07:35:25Z</time>
      </trkpt>
      <trkpt lat="43.43855" lon="3.54215">
        <ele>66.95</ele>
        <time>2012-04-15T07:35:30Z</time>
      </trkpt>
      <trkpt lat="43.43856" lon="3.5421">
        <ele>65.51</ele>
        <time>2012-04-15T07:35:34Z</time>
      </trkpt>
      <trkpt lat="43.43864" lon="3.54199">
        <ele>65.51</ele>
        <time>2012-04-15T07:35:37Z</time>
      </trkpt>
      <trkpt lat="43.43873" lon="3.54191">
        <ele>65.51</ele>
        <time>2012-04-15T07:35:42Z</time>
      </trkpt>
      <trkpt lat="43.43883" lon="3.54184">
        <ele>65.99</ele>
        <time>2012-04-15T07:35:51Z</time>
      </trkpt>
      <trkpt lat="43.43898" lon="3.54165">
        <ele>53.49</ele>
        <time>2012-04-15T07:36:26Z</time>
      </trkpt>
      <trkpt lat="43.43903" lon="3.54154">
        <ele>50.61</ele>
        <time>2012-04-15T07:36:40Z</time>
      </trkpt>
      <trkpt lat="43.43908" lon="3.5414">
        <ele>47.24</ele>
        <time>2012-04-15T07:36:47Z</time>
      </trkpt>
      <trkpt lat="43.43909" lon="3.54125">
        <ele>45.32</ele>
        <time>2012-04-15T07:36:52Z</time>
      </trkpt>
      <trkpt lat="43.43902" lon="3.54108">
        <ele>44.36</ele>
        <time>2012-04-15T07:36:58Z</time>
      </trkpt>
      <trkpt lat="43.43901" lon="3.54089">
        <ele>41.47</ele>
        <time>2012-04-15T07:37:03Z</time>
      </trkpt>
      <trkpt lat="43.43907" lon="3.54065">
        <ele>39.55</ele>
        <time>2012-04-15T07:37:11Z</time>
      </trkpt>
      <trkpt lat="43.4392" lon="3.54057">
        <ele>40.51</ele>
        <time>2012-04-15T07:37:17Z</time>
      </trkpt>
      <trkpt lat="43.43931" lon="3.54054">
        <ele>42.44</ele>
        <time>2012-04-15T07:37:22Z</time>
      </trkpt>
      <trkpt lat="43.43942" lon="3.54054">
        <ele>43.4</ele>
        <time>2012-04-15T07:37:26Z</time>
      </trkpt>
      <trkpt lat="43.43951" lon="3.54054">
        <ele>45.8</ele>
        <time>2012-04-15T07:37:31Z</time>
      </trkpt>
      <trkpt lat="43.43962" lon="3.54057">
        <ele>47.72</ele>
        <time>2012-04-15T07:37:37Z</time>
      </trkpt>
      <trkpt lat="43.4397" lon="3.54062">
        <ele>51.57</ele>
        <time>2012-04-15T07:37:43Z</time>
      </trkpt>
      <trkpt lat="43.43983" lon="3.54064">
        <ele>55.89</ele>
        <time>2012-04-15T07:37:50Z</time>
      </trkpt>
      <trkpt lat="43.43993" lon="3.54058">
        <ele>56.86</ele>
        <time>2012-04-15T07:37:53Z</time>
      </trkpt>
      <trkpt lat="43.44005" lon="3.54053">
        <ele>57.82</ele>
        <time>2012-04-15T07:37:56Z</time>
      </trkpt>
      <trkpt lat="43.44014" lon="3.54045">
        <ele>56.86</ele>
        <time>2012-04-15T07:38:00Z</time>
      </trkpt>
      <trkpt lat="43.44021" lon="3.54035">
        <ele>57.34</ele>
        <time>2012-04-15T07:38:05Z</time>
      </trkpt>
      <trkpt lat="43.4403" lon="3.54023">
        <ele>55.89</ele>
        <time>2012-04-15T07:38:09Z</time>
      </trkpt>
      <trkpt lat="43.44038" lon="3.54013">
        <ele>54.45</ele>
        <time>2012-04-15T07:38:12Z</time>
      </trkpt>
      <trkpt lat="43.44042" lon="3.54001">
        <ele>53.49</ele>
        <time>2012-04-15T07:38:16Z</time>
      </trkpt>
      <trkpt lat="43.44047" lon="3.53993">
        <ele>48.2</ele>
        <time>2012-04-15T07:38:27Z</time>
      </trkpt>
      <trkpt lat="43.44048" lon="3.53992">
        <ele>41.47</ele>
        <time>2012-04-15T07:38:37Z</time>
      </trkpt>
      <trkpt lat="43.44053" lon="3.54001">
        <ele>40.03</ele>
        <time>2012-04-15T07:38:48Z</time>
      </trkpt>
      <trkpt lat="43.44063" lon="3.54003">
        <ele>39.55</ele>
        <time>2012-04-15T07:38:53Z</time>
      </trkpt>
      <trkpt lat="43.44075" lon="3.54003">
        <ele>39.07</ele>
        <time>2012-04-15T07:38:56Z</time>
      </trkpt>
      <trkpt lat="43.44084" lon="3.54">
        <ele>38.59</ele>
        <time>2012-04-15T07:38:59Z</time>
      </trkpt>
      <trkpt lat="43.44092" lon="3.5399">
        <ele>36.19</ele>
        <time>2012-04-15T07:39:03Z</time>
      </trkpt>
      <trkpt lat="43.44092" lon="3.53975">
        <ele>33.3</ele>
        <time>2012-04-15T07:39:08Z</time>
      </trkpt>
      <trkpt lat="43.44091" lon="3.53961">
        <ele>31.86</ele>
        <time>2012-04-15T07:39:12Z</time>
      </trkpt>
      <trkpt lat="43.44088" lon="3.53946">
        <ele>30.9</ele>
        <time>2012-04-15T07:39:17Z</time>
      </trkpt>
      <trkpt lat="43.44077" lon="3.5394">
        <ele>29.46</ele>
        <time>2012-04-15T07:39:22Z</time>
      </trkpt>
      <trkpt lat="43.44067" lon="3.53939">
        <ele>28.98</ele>
        <time>2012-04-15T07:39:25Z</time>
      </trkpt>
      <trkpt lat="43.44056" lon="3.53939">
        <ele>28.98</ele>
        <time>2012-04-15T07:39:28Z</time>
      </trkpt>
      <trkpt lat="43.44044" lon="3.53938">
        <ele>28.5</ele>
        <time>2012-04-15T07:39:31Z</time>
      </trkpt>
      <trkpt lat="43.44033" lon="3.53936">
        <ele>28.02</ele>
        <time>2012-04-15T07:39:34Z</time>
      </trkpt>
      <trkpt lat="43.44019" lon="3.53932">
        <ele>27.53</ele>
        <time>2012-04-15T07:39:37Z</time>
      </trkpt>
      <trkpt lat="43.44009" lon="3.5393">
        <ele>27.05</ele>
        <time>2012-04-15T07:39:39Z</time>
      </trkpt>
      <trkpt lat="43.43998" lon="3.5393">
        <ele>27.05</ele>
        <time>2012-04-15T07:39:41Z</time>
      </trkpt>
      <trkpt lat="43.43988" lon="3.53928">
        <ele>27.05</ele>
        <time>2012-04-15T07:39:43Z</time>
      </trkpt>
      <trkpt lat="43.43979" lon="3.53927">
        <ele>27.05</ele>
        <time>2012-04-15T07:39:45Z</time>
      </trkpt>
      <trkpt lat="43.43972" lon="3.53919">
        <ele>27.05</ele>
        <time>2012-04-15T07:39:48Z</time>
      </trkpt>
      <trkpt lat="43.43971" lon="3.53908">
        <ele>26.57</ele>
        <time>2012-04-15T07:39:51Z</time>
      </trkpt>
      <trkpt lat="43.4397" lon="3.53896">
        <ele>25.13</ele>
        <time>2012-04-15T07:39:54Z</time>
      </trkpt>
      <trkpt lat="43.43969" lon="3.53882">
        <ele>24.17</ele>
        <time>2012-04-15T07:39:57Z</time>
      </trkpt>
      <trkpt lat="43.43966" lon="3.53868">
        <ele>24.17</ele>
        <time>2012-04-15T07:40:00Z</time>
      </trkpt>
      <trkpt lat="43.43962" lon="3.53857">
        <ele>24.65</ele>
        <time>2012-04-15T07:40:04Z</time>
      </trkpt>
      <trkpt lat="43.43952" lon="3.53861">
        <ele>25.13</ele>
        <time>2012-04-15T07:40:08Z</time>
      </trkpt>
      <trkpt lat="43.43941" lon="3.53867">
        <ele>25.61</ele>
        <time>2012-04-15T07:40:12Z</time>
      </trkpt>
      <trkpt lat="43.43931" lon="3.53872">
        <ele>25.61</ele>
        <time>2012-04-15T07:40:16Z</time>
      </trkpt>
      <trkpt lat="43.43921" lon="3.53877">
        <ele>25.61</ele>
        <time>2012-04-15T07:40:20Z</time>
      </trkpt>
      <trkpt lat="43.43911" lon="3.53884">
        <ele>26.09</ele>
        <time>2012-04-15T07:40:24Z</time>
      </trkpt>
      <trkpt lat="43.43903" lon="3.53889">
        <ele>26.57</ele>
        <time>2012-04-15T07:40:28Z</time>
      </trkpt>
      <trkpt lat="43.43892" lon="3.53894">
        <ele>27.05</ele>
        <time>2012-04-15T07:40:33Z</time>
      </trkpt>
      <trkpt lat="43.43882" lon="3.53899">
        <ele>28.02</ele>
        <time>2012-04-15T07:40:38Z</time>
      </trkpt>
      <trkpt lat="43.43874" lon="3.53904">
        <ele>28.5</ele>
        <time>2012-04-15T07:40:42Z</time>
      </trkpt>
      <trkpt lat="43.43863" lon="3.53908">
        <ele>28.5</ele>
        <time>2012-04-15T07:40:46Z</time>
      </trkpt>
      <trkpt lat="43.43854" lon="3.53915">
        <ele>28.98</ele>
        <time>2012-04-15T07:40:50Z</time>
      </trkpt>
      <trkpt lat="43.43845" lon="3.53921">
        <ele>28.98</ele>
        <time>2012-04-15T07:40:53Z</time>
      </trkpt>
      <trkpt lat="43.43835" lon="3.53927">
        <ele>28.5</ele>
        <time>2012-04-15T07:40:56Z</time>
      </trkpt>
      <trkpt lat="43.43824" lon="3.53933">
        <ele>28.02</ele>
        <time>2012-04-15T07:40:59Z</time>
      </trkpt>
      <trkpt lat="43.43813" lon="3.53938">
        <ele>28.02</ele>
        <time>2012-04-15T07:41:02Z</time>
      </trkpt>
      <trkpt lat="43.43801" lon="3.53945">
        <ele>27.53</ele>
        <time>2012-04-15T07:41:05Z</time>
      </trkpt>
      <trkpt lat="43.4379" lon="3.5395">
        <ele>27.53</ele>
        <time>2012-04-15T07:41:08Z</time>
      </trkpt>
      <trkpt lat="43.43778" lon="3.53956">
        <ele>27.53</ele>
        <time>2012-04-15T07:41:11Z</time>
      </trkpt>
      <trkpt lat="43.43766" lon="3.53963">
        <ele>28.02</ele>
        <time>2012-04-15T07:41:14Z</time>
      </trkpt>
      <trkpt lat="43.43754" lon="3.5397">
        <ele>28.5</ele>
        <time>2012-04-15T07:41:17Z</time>
      </trkpt>
      <trkpt lat="43.43744" lon="3.53976">
        <ele>28.5</ele>
        <time>2012-04-15T07:41:20Z</time>
      </trkpt>
      <trkpt lat="43.43733" lon="3.53982">
        <ele>28.98</ele>
        <time>2012-04-15T07:41:23Z</time>
      </trkpt>
      <trkpt lat="43.43722" lon="3.53989">
        <ele>29.94</ele>
        <time>2012-04-15T07:41:26Z</time>
      </trkpt>
      <trkpt lat="43.4371" lon="3.53996">
        <ele>29.94</ele>
        <time>2012-04-15T07:41:29Z</time>
      </trkpt>
      <trkpt lat="43.43699" lon="3.54003">
        <ele>29.94</ele>
        <time>2012-04-15T07:41:32Z</time>
      </trkpt>
      <trkpt lat="43.43687" lon="3.5401">
        <ele>29.94</ele>
        <time>2012-04-15T07:41:35Z</time>
      </trkpt>
      <trkpt lat="43.43676" lon="3.54017">
        <ele>30.42</ele>
        <time>2012-04-15T07:41:38Z</time>
      </trkpt>
      <trkpt lat="43.43664" lon="3.54022">
        <ele>30.9</ele>
        <time>2012-04-15T07:41:41Z</time>
      </trkpt>
      <trkpt lat="43.43652" lon="3.54029">
        <ele>31.38</ele>
        <time>2012-04-15T07:41:44Z</time>
      </trkpt>
      <trkpt lat="43.43642" lon="3.54033">
        <ele>31.38</ele>
        <time>2012-04-15T07:41:47Z</time>
      </trkpt>
      <trkpt lat="43.43635" lon="3.54029">
        <ele>30.42</ele>
        <time>2012-04-15T07:41:50Z</time>
      </trkpt>
      <trkpt lat="43.43631" lon="3.54019">
        <ele>29.94</ele>
        <time>2012-04-15T07:41:52Z</time>
      </trkpt>
      <trkpt lat="43.43626" lon="3.54005">
        <ele>28.98</ele>
        <time>2012-04-15T07:41:54Z</time>
      </trkpt>
      <trkpt lat="43.43621" lon="3.53991">
        <ele>27.53</ele>
        <time>2012-04-15T07:41:56Z</time>
      </trkpt>
      <trkpt lat="43.43615" lon="3.53978">
        <ele>26.57</ele>
        <time>2012-04-15T07:41:58Z</time>
      </trkpt>
      <trkpt lat="43.4361" lon="3.53964">
        <ele>26.09</ele>
        <time>2012-04-15T07:42:00Z</time>
      </trkpt>
      <trkpt lat="43.43605" lon="3.53952">
        <ele>25.61</ele>
        <time>2012-04-15T07:42:02Z</time>
      </trkpt>
      <trkpt lat="43.43601" lon="3.5394">
        <ele>25.61</ele>
        <time>2012-04-15T07:42:04Z</time>
      </trkpt>
      <trkpt lat="43.43597" lon="3.53929">
        <ele>25.13</ele>
        <time>2012-04-15T07:42:06Z</time>
      </trkpt>
      <trkpt lat="43.43591" lon="3.53914">
        <ele>24.65</ele>
        <time>2012-04-15T07:42:09Z</time>
      </trkpt>
      <trkpt lat="43.43587" lon="3.53901">
        <ele>23.69</ele>
        <time>2012-04-15T07:42:13Z</time>
      </trkpt>
      <trkpt lat="43.43583" lon="3.53888">
        <ele>24.17</ele>
        <time>2012-04-15T07:42:18Z</time>
      </trkpt>
      <trkpt lat="43.4358" lon="3.53875">
        <ele>25.13</ele>
        <time>2012-04-15T07:42:22Z</time>
      </trkpt>
      <trkpt lat="43.43576" lon="3.5386">
        <ele>26.57</ele>
        <time>2012-04-15T07:42:26Z</time>
      </trkpt>
      <trkpt lat="43.43571" lon="3.53845">
        <ele>28.02</ele>
        <time>2012-04-15T07:42:30Z</time>
      </trkpt>
      <trkpt lat="43.43567" lon="3.53834">
        <ele>28.02</ele>
        <time>2012-04-15T07:42:33Z</time>
      </trkpt>
      <trkpt lat="43.43562" lon="3.53822">
        <ele>28.02</ele>
        <time>2012-04-15T07:42:36Z</time>
      </trkpt>
      <trkpt lat="43.43556" lon="3.5381">
        <ele>28.5</ele>
        <time>2012-04-15T07:42:39Z</time>
      </trkpt>
      <trkpt lat="43.43552" lon="3.53798">
        <ele>28.98</ele>
        <time>2012-04-15T07:42:42Z</time>
      </trkpt>
      <trkpt lat="43.43547" lon="3.53785">
        <ele>29.46</ele>
        <time>2012-04-15T07:42:45Z</time>
      </trkpt>
      <trkpt lat="43.43543" lon="3.53773">
        <ele>29.94</ele>
        <time>2012-04-15T07:42:48Z</time>
      </trkpt>
      <trkpt lat="43.43537" lon="3.53762">
        <ele>30.42</ele>
        <time>2012-04-15T07:42:51Z</time>
      </trkpt>
      <trkpt lat="43.43532" lon="3.53751">
        <ele>30.42</ele>
        <time>2012-04-15T07:42:54Z</time>
      </trkpt>
      <trkpt lat="43.43526" lon="3.53736">
        <ele>29.94</ele>
        <time>2012-04-15T07:42:58Z</time>
      </trkpt>
      <trkpt lat="43.43522" lon="3.53724">
        <ele>30.42</ele>
        <time>2012-04-15T07:43:01Z</time>
      </trkpt>
      <trkpt lat="43.43518" lon="3.53709">
        <ele>30.42</ele>
        <time>2012-04-15T07:43:05Z</time>
      </trkpt>
      <trkpt lat="43.43515" lon="3.53695">
        <ele>29.94</ele>
        <time>2012-04-15T07:43:09Z</time>
      </trkpt>
      <trkpt lat="43.43511" lon="3.53682">
        <ele>29.94</ele>
        <time>2012-04-15T07:43:14Z</time>
      </trkpt>
      <trkpt lat="43.43508" lon="3.53669">
        <ele>30.42</ele>
        <time>2012-04-15T07:43:19Z</time>
      </trkpt>
      <trkpt lat="43.43507" lon="3.53657">
        <ele>31.86</ele>
        <time>2012-04-15T07:43:24Z</time>
      </trkpt>
      <trkpt lat="43.43505" lon="3.53642">
        <ele>33.3</ele>
        <time>2012-04-15T07:43:30Z</time>
      </trkpt>
      <trkpt lat="43.43498" lon="3.53629">
        <ele>34.74</ele>
        <time>2012-04-15T07:43:36Z</time>
      </trkpt>
      <trkpt lat="43.43493" lon="3.53615">
        <ele>35.23</ele>
        <time>2012-04-15T07:43:42Z</time>
      </trkpt>
      <trkpt lat="43.43488" lon="3.53604">
        <ele>36.19</ele>
        <time>2012-04-15T07:43:47Z</time>
      </trkpt>
      <trkpt lat="43.43482" lon="3.53594">
        <ele>36.67</ele>
        <time>2012-04-15T07:43:52Z</time>
      </trkpt>
      <trkpt lat="43.43477" lon="3.53583">
        <ele>37.15</ele>
        <time>2012-04-15T07:43:57Z</time>
      </trkpt>
      <trkpt lat="43.4347" lon="3.53572">
        <ele>36.67</ele>
        <time>2012-04-15T07:44:02Z</time>
      </trkpt>
      <trkpt lat="43.43464" lon="3.53562">
        <ele>37.15</ele>
        <time>2012-04-15T07:44:06Z</time>
      </trkpt>
      <trkpt lat="43.43456" lon="3.53551">
        <ele>37.15</ele>
        <time>2012-04-15T07:44:10Z</time>
      </trkpt>
      <trkpt lat="43.43449" lon="3.53539">
        <ele>36.67</ele>
        <time>2012-04-15T07:44:13Z</time>
      </trkpt>
      <trkpt lat="43.43442" lon="3.53523">
        <ele>35.71</ele>
        <time>2012-04-15T07:44:16Z</time>
      </trkpt>
      <trkpt lat="43.43435" lon="3.53509">
        <ele>35.23</ele>
        <time>2012-04-15T07:44:19Z</time>
      </trkpt>
      <trkpt lat="43.43427" lon="3.53494">
        <ele>34.26</ele>
        <time>2012-04-15T07:44:22Z</time>
      </trkpt>
      <trkpt lat="43.43419" lon="3.53479">
        <ele>32.82</ele>
        <time>2012-04-15T07:44:25Z</time>
      </trkpt>
      <trkpt lat="43.43412" lon="3.53463">
        <ele>32.34</ele>
        <time>2012-04-15T07:44:28Z</time>
      </trkpt>
      <trkpt lat="43.43405" lon="3.53448">
        <ele>32.34</ele>
        <time>2012-04-15T07:44:31Z</time>
      </trkpt>
      <trkpt lat="43.43397" lon="3.53434">
        <ele>31.38</ele>
        <time>2012-04-15T07:44:34Z</time>
      </trkpt>
      <trkpt lat="43.43391" lon="3.5342">
        <ele>30.42</ele>
        <time>2012-04-15T07:44:37Z</time>
      </trkpt>
      <trkpt lat="43.43385" lon="3.53407">
        <ele>30.42</ele>
        <time>2012-04-15T07:44:40Z</time>
      </trkpt>
      <trkpt lat="43.4338" lon="3.53396">
        <ele>30.42</ele>
        <time>2012-04-15T07:44:43Z</time>
      </trkpt>
      <trkpt lat="43.43375" lon="3.53386">
        <ele>30.42</ele>
        <time>2012-04-15T07:44:46Z</time>
      </trkpt>
      <trkpt lat="43.43368" lon="3.53371">
        <ele>30.42</ele>
        <time>2012-04-15T07:44:50Z</time>
      </trkpt>
      <trkpt lat="43.43363" lon="3.5336">
        <ele>30.9</ele>
        <time>2012-04-15T07:44:53Z</time>
      </trkpt>
      <trkpt lat="43.43357" lon="3.53346">
        <ele>30.9</ele>
        <time>2012-04-15T07:44:56Z</time>
      </trkpt>
      <trkpt lat="43.43352" lon="3.53329">
        <ele>30.42</ele>
        <time>2012-04-15T07:44:59Z</time>
      </trkpt>
      <trkpt lat="43.43347" lon="3.53318">
        <ele>30.42</ele>
        <time>2012-04-15T07:45:01Z</time>
      </trkpt>
      <trkpt lat="43.4334" lon="3.53302">
        <ele>30.9</ele>
        <time>2012-04-15T07:45:04Z</time>
      </trkpt>
      <trkpt lat="43.43334" lon="3.53289">
        <ele>30.9</ele>
        <time>2012-04-15T07:45:07Z</time>
      </trkpt>
      <trkpt lat="43.43329" lon="3.53276">
        <ele>30.9</ele>
        <time>2012-04-15T07:45:10Z</time>
      </trkpt>
      <trkpt lat="43.43324" lon="3.53263">
        <ele>30.9</ele>
        <time>2012-04-15T07:45:13Z</time>
      </trkpt>
      <trkpt lat="43.43318" lon="3.5325">
        <ele>30.9</ele>
        <time>2012-04-15T07:45:16Z</time>
      </trkpt>
      <trkpt lat="43.43313" lon="3.53237">
        <ele>30.9</ele>
        <time>2012-04-15T07:45:19Z</time>
      </trkpt>
      <trkpt lat="43.43307" lon="3.53224">
        <ele>30.9</ele>
        <time>2012-04-15T07:45:22Z</time>
      </trkpt>
      <trkpt lat="43.43301" lon="3.53212">
        <ele>30.9</ele>
        <time>2012-04-15T07:45:25Z</time>
      </trkpt>
      <trkpt lat="43.43295" lon="3.532">
        <ele>30.9</ele>
        <time>2012-04-15T07:45:28Z</time>
      </trkpt>
      <trkpt lat="43.43288" lon="3.53189">
        <ele>30.9</ele>
        <time>2012-04-15T07:45:31Z</time>
      </trkpt>
      <trkpt lat="43.43282" lon="3.53178">
        <ele>30.9</ele>
        <time>2012-04-15T07:45:34Z</time>
      </trkpt>
      <trkpt lat="43.43276" lon="3.53167">
        <ele>31.38</ele>
        <time>2012-04-15T07:45:37Z</time>
      </trkpt>
      <trkpt lat="43.43269" lon="3.53158">
        <ele>31.86</ele>
        <time>2012-04-15T07:45:40Z</time>
      </trkpt>
      <trkpt lat="43.43262" lon="3.53146">
        <ele>32.34</ele>
        <time>2012-04-15T07:45:44Z</time>
      </trkpt>
      <trkpt lat="43.43256" lon="3.53133">
        <ele>32.82</ele>
        <time>2012-04-15T07:45:48Z</time>
      </trkpt>
      <trkpt lat="43.43251" lon="3.53118">
        <ele>33.3</ele>
        <time>2012-04-15T07:45:52Z</time>
      </trkpt>
      <trkpt lat="43.43248" lon="3.53106">
        <ele>33.78</ele>
        <time>2012-04-15T07:45:55Z</time>
      </trkpt>
      <trkpt lat="43.43244" lon="3.53093">
        <ele>34.26</ele>
        <time>2012-04-15T07:45:58Z</time>
      </trkpt>
      <trkpt lat="43.43239" lon="3.53081">
        <ele>34.74</ele>
        <time>2012-04-15T07:46:01Z</time>
      </trkpt>
      <trkpt lat="43.43233" lon="3.53068">
        <ele>35.23</ele>
        <time>2012-04-15T07:46:04Z</time>
      </trkpt>
      <trkpt lat="43.43228" lon="3.53054">
        <ele>34.74</ele>
        <time>2012-04-15T07:46:07Z</time>
      </trkpt>
      <trkpt lat="43.43222" lon="3.5304">
        <ele>34.74</ele>
        <time>2012-04-15T07:46:10Z</time>
      </trkpt>
      <trkpt lat="43.43215" lon="3.53025">
        <ele>34.74</ele>
        <time>2012-04-15T07:46:13Z</time>
      </trkpt>
      <trkpt lat="43.43209" lon="3.53011">
        <ele>34.26</ele>
        <time>2012-04-15T07:46:16Z</time>
      </trkpt>
      <trkpt lat="43.43202" lon="3.52998">
        <ele>33.78</ele>
        <time>2012-04-15T07:46:19Z</time>
      </trkpt>
      <trkpt lat="43.43192" lon="3.52984">
        <ele>33.3</ele>
        <time>2012-04-15T07:46:22Z</time>
      </trkpt>
      <trkpt lat="43.43187" lon="3.52973">
        <ele>32.82</ele>
        <time>2012-04-15T07:46:24Z</time>
      </trkpt>
      <trkpt lat="43.43179" lon="3.52957">
        <ele>32.34</ele>
        <time>2012-04-15T07:46:27Z</time>
      </trkpt>
      <trkpt lat="43.43174" lon="3.52947">
        <ele>31.86</ele>
        <time>2012-04-15T07:46:29Z</time>
      </trkpt>
      <trkpt lat="43.43167" lon="3.52932">
        <ele>31.86</ele>
        <time>2012-04-15T07:46:32Z</time>
      </trkpt>
      <trkpt lat="43.43161" lon="3.52918">
        <ele>32.34</ele>
        <time>2012-04-15T07:46:35Z</time>
      </trkpt>
      <trkpt lat="43.43157" lon="3.52906">
        <ele>32.34</ele>
        <time>2012-04-15T07:46:38Z</time>
      </trkpt>
      <trkpt lat="43.43154" lon="3.52891">
        <ele>33.3</ele>
        <time>2012-04-15T07:46:42Z</time>
      </trkpt>
      <trkpt lat="43.43149" lon="3.52877">
        <ele>34.26</ele>
        <time>2012-04-15T07:46:46Z</time>
      </trkpt>
      <trkpt lat="43.43144" lon="3.52864">
        <ele>35.23</ele>
        <time>2012-04-15T07:46:50Z</time>
      </trkpt>
      <trkpt lat="43.4314" lon="3.52851">
        <ele>36.19</ele>
        <time>2012-04-15T07:46:54Z</time>
      </trkpt>
      <trkpt lat="43.43137" lon="3.52837">
        <ele>36.67</ele>
        <time>2012-04-15T07:46:58Z</time>
      </trkpt>
      <trkpt lat="43.43134" lon="3.52822">
        <ele>37.63</ele>
        <time>2012-04-15T07:47:02Z</time>
      </trkpt>
      <trkpt lat="43.43129" lon="3.5281">
        <ele>38.11</ele>
        <time>2012-04-15T07:47:06Z</time>
      </trkpt>
      <trkpt lat="43.43124" lon="3.52797">
        <ele>39.07</ele>
        <time>2012-04-15T07:47:10Z</time>
      </trkpt>
      <trkpt lat="43.43118" lon="3.52785">
        <ele>39.55</ele>
        <time>2012-04-15T07:47:14Z</time>
      </trkpt>
      <trkpt lat="43.43114" lon="3.52774">
        <ele>40.03</ele>
        <time>2012-04-15T07:47:18Z</time>
      </trkpt>
      <trkpt lat="43.43108" lon="3.52763">
        <ele>40.51</ele>
        <time>2012-04-15T07:47:21Z</time>
      </trkpt>
      <trkpt lat="43.431" lon="3.52751">
        <ele>40.03</ele>
        <time>2012-04-15T07:47:24Z</time>
      </trkpt>
      <trkpt lat="43.43092" lon="3.52739">
        <ele>40.03</ele>
        <time>2012-04-15T07:47:27Z</time>
      </trkpt>
      <trkpt lat="43.43085" lon="3.52726">
        <ele>40.03</ele>
        <time>2012-04-15T07:47:30Z</time>
      </trkpt>
      <trkpt lat="43.43078" lon="3.52714">
        <ele>39.55</ele>
        <time>2012-04-15T07:47:33Z</time>
      </trkpt>
      <trkpt lat="43.43069" lon="3.52705">
        <ele>39.07</ele>
        <time>2012-04-15T07:47:36Z</time>
      </trkpt>
      <trkpt lat="43.43063" lon="3.52691">
        <ele>38.59</ele>
        <time>2012-04-15T07:47:39Z</time>
      </trkpt>
      <trkpt lat="43.43058" lon="3.52677">
        <ele>38.59</ele>
        <time>2012-04-15T07:47:42Z</time>
      </trkpt>
      <trkpt lat="43.43052" lon="3.52665">
        <ele>38.59</ele>
        <time>2012-04-15T07:47:45Z</time>
      </trkpt>
      <trkpt lat="43.43047" lon="3.52653">
        <ele>39.07</ele>
        <time>2012-04-15T07:47:48Z</time>
      </trkpt>
      <trkpt lat="43.43042" lon="3.52642">
        <ele>39.07</ele>
        <time>2012-04-15T07:47:51Z</time>
      </trkpt>
      <trkpt lat="43.43038" lon="3.5263">
        <ele>39.55</ele>
        <time>2012-04-15T07:47:54Z</time>
      </trkpt>
      <trkpt lat="43.43033" lon="3.52619">
        <ele>40.03</ele>
        <time>2012-04-15T07:47:57Z</time>
      </trkpt>
      <trkpt lat="43.43029" lon="3.52608">
        <ele>40.51</ele>
        <time>2012-04-15T07:48:00Z</time>
      </trkpt>
      <trkpt lat="43.43023" lon="3.52594">
        <ele>40.99</ele>
        <time>2012-04-15T07:48:04Z</time>
      </trkpt>
      <trkpt lat="43.43017" lon="3.52581">
        <ele>41.47</ele>
        <time>2012-04-15T07:48:08Z</time>
      </trkpt>
      <trkpt lat="43.4301" lon="3.52568">
        <ele>42.44</ele>
        <time>2012-04-15T07:48:12Z</time>
      </trkpt>
      <trkpt lat="43.43005" lon="3.52554">
        <ele>43.4</ele>
        <time>2012-04-15T07:48:16Z</time>
      </trkpt>
      <trkpt lat="43.43" lon="3.52541">
        <ele>44.36</ele>
        <time>2012-04-15T07:48:20Z</time>
      </trkpt>
      <trkpt lat="43.42994" lon="3.52529">
        <ele>44.36</ele>
        <time>2012-04-15T07:48:24Z</time>
      </trkpt>
      <trkpt lat="43.42988" lon="3.52517">
        <ele>45.32</ele>
        <time>2012-04-15T07:48:28Z</time>
      </trkpt>
      <trkpt lat="43.42982" lon="3.52505">
        <ele>45.32</ele>
        <time>2012-04-15T07:48:32Z</time>
      </trkpt>
      <trkpt lat="43.42977" lon="3.52492">
        <ele>45.8</ele>
        <time>2012-04-15T07:48:36Z</time>
      </trkpt>
      <trkpt lat="43.42971" lon="3.5248">
        <ele>46.76</ele>
        <time>2012-04-15T07:48:40Z</time>
      </trkpt>
      <trkpt lat="43.42966" lon="3.52468">
        <ele>46.76</ele>
        <time>2012-04-15T07:48:44Z</time>
      </trkpt>
      <trkpt lat="43.4296" lon="3.52456">
        <ele>47.72</ele>
        <time>2012-04-15T07:48:48Z</time>
      </trkpt>
      <trkpt lat="43.42955" lon="3.52444">
        <ele>48.2</ele>
        <time>2012-04-15T07:48:52Z</time>
      </trkpt>
      <trkpt lat="43.42949" lon="3.52432">
        <ele>48.2</ele>
        <time>2012-04-15T07:48:56Z</time>
      </trkpt>
      <trkpt lat="43.42944" lon="3.52421">
        <ele>48.68</ele>
        <time>2012-04-15T07:49:00Z</time>
      </trkpt>
      <trkpt lat="43.42939" lon="3.52408">
        <ele>49.65</ele>
        <time>2012-04-15T07:49:04Z</time>
      </trkpt>
      <trkpt lat="43.42933" lon="3.52395">
        <ele>50.13</ele>
        <time>2012-04-15T07:49:09Z</time>
      </trkpt>
      <trkpt lat="43.42928" lon="3.52383">
        <ele>50.13</ele>
        <time>2012-04-15T07:49:13Z</time>
      </trkpt>
      <trkpt lat="43.42923" lon="3.52372">
        <ele>50.61</ele>
        <time>2012-04-15T07:49:17Z</time>
      </trkpt>
      <trkpt lat="43.42917" lon="3.52358">
        <ele>51.57</ele>
        <time>2012-04-15T07:49:22Z</time>
      </trkpt>
      <trkpt lat="43.42912" lon="3.52346">
        <ele>52.53</ele>
        <time>2012-04-15T07:49:27Z</time>
      </trkpt>
      <trkpt lat="43.42906" lon="3.52333">
        <ele>53.49</ele>
        <time>2012-04-15T07:49:32Z</time>
      </trkpt>
      <trkpt lat="43.429" lon="3.5232">
        <ele>54.93</ele>
        <time>2012-04-15T07:49:37Z</time>
      </trkpt>
      <trkpt lat="43.42895" lon="3.52309">
        <ele>55.41</ele>
        <time>2012-04-15T07:49:41Z</time>
      </trkpt>
      <trkpt lat="43.42889" lon="3.52296">
        <ele>56.86</ele>
        <time>2012-04-15T07:49:46Z</time>
      </trkpt>
      <trkpt lat="43.42883" lon="3.52283">
        <ele>56.86</ele>
        <time>2012-04-15T07:49:51Z</time>
      </trkpt>
      <trkpt lat="43.42879" lon="3.52269">
        <ele>57.34</ele>
        <time>2012-04-15T07:49:56Z</time>
      </trkpt>
      <trkpt lat="43.42874" lon="3.52257">
        <ele>58.3</ele>
        <time>2012-04-15T07:50:01Z</time>
      </trkpt>
      <trkpt lat="43.42869" lon="3.52245">
        <ele>58.78</ele>
        <time>2012-04-15T07:50:06Z</time>
      </trkpt>
      <trkpt lat="43.42864" lon="3.52234">
        <ele>59.26</ele>
        <time>2012-04-15T07:50:11Z</time>
      </trkpt>
      <trkpt lat="43.42857" lon="3.52222">
        <ele>59.26</ele>
        <time>2012-04-15T07:50:16Z</time>
      </trkpt>
      <trkpt lat="43.42851" lon="3.5221">
        <ele>60.7</ele>
        <time>2012-04-15T07:50:21Z</time>
      </trkpt>
      <trkpt lat="43.42846" lon="3.52199">
        <ele>61.18</ele>
        <time>2012-04-15T07:50:25Z</time>
      </trkpt>
      <trkpt lat="43.4284" lon="3.52186">
        <ele>62.14</ele>
        <time>2012-04-15T07:50:30Z</time>
      </trkpt>
      <trkpt lat="43.42834" lon="3.52174">
        <ele>63.58</ele>
        <time>2012-04-15T07:50:35Z</time>
      </trkpt>
      <trkpt lat="43.42828" lon="3.52161">
        <ele>64.07</ele>
        <time>2012-04-15T07:50:40Z</time>
      </trkpt>
      <trkpt lat="43.42822" lon="3.52149">
        <ele>65.03</ele>
        <time>2012-04-15T07:50:45Z</time>
      </trkpt>
      <trkpt lat="43.42818" lon="3.52137">
        <ele>65.51</ele>
        <time>2012-04-15T07:50:50Z</time>
      </trkpt>
      <trkpt lat="43.42812" lon="3.52123">
        <ele>66.47</ele>
        <time>2012-04-15T07:50:56Z</time>
      </trkpt>
      <trkpt lat="43.42808" lon="3.52109">
        <ele>66.95</ele>
        <time>2012-04-15T07:51:01Z</time>
      </trkpt>
      <trkpt lat="43.42803" lon="3.52096">
        <ele>67.43</ele>
        <time>2012-04-15T07:51:06Z</time>
      </trkpt>
      <trkpt lat="43.42796" lon="3.52084">
        <ele>67.91</ele>
        <time>2012-04-15T07:51:11Z</time>
      </trkpt>
      <trkpt lat="43.4279" lon="3.52074">
        <ele>68.39</ele>
        <time>2012-04-15T07:51:16Z</time>
      </trkpt>
      <trkpt lat="43.42783" lon="3.52062">
        <ele>68.87</ele>
        <time>2012-04-15T07:51:22Z</time>
      </trkpt>
      <trkpt lat="43.42777" lon="3.5205">
        <ele>69.83</ele>
        <time>2012-04-15T07:51:28Z</time>
      </trkpt>
      <trkpt lat="43.42771" lon="3.52039">
        <ele>70.79</ele>
        <time>2012-04-15T07:51:34Z</time>
      </trkpt>
      <trkpt lat="43.42766" lon="3.52026">
        <ele>71.76</ele>
        <time>2012-04-15T07:51:40Z</time>
      </trkpt>
      <trkpt lat="43.42761" lon="3.52012">
        <ele>72.24</ele>
        <time>2012-04-15T07:51:46Z</time>
      </trkpt>
      <trkpt lat="43.42757" lon="3.52001">
        <ele>74.16</ele>
        <time>2012-04-15T07:51:52Z</time>
      </trkpt>
      <trkpt lat="43.42752" lon="3.51988">
        <ele>75.12</ele>
        <time>2012-04-15T07:51:58Z</time>
      </trkpt>
      <trkpt lat="43.42747" lon="3.51975">
        <ele>76.56</ele>
        <time>2012-04-15T07:52:04Z</time>
      </trkpt>
      <trkpt lat="43.4274" lon="3.51961">
        <ele>78</ele>
        <time>2012-04-15T07:52:10Z</time>
      </trkpt>
      <trkpt lat="43.42736" lon="3.51949">
        <ele>79.93</ele>
        <time>2012-04-15T07:52:16Z</time>
      </trkpt>
      <trkpt lat="43.42731" lon="3.51934">
        <ele>80.41</ele>
        <time>2012-04-15T07:52:22Z</time>
      </trkpt>
      <trkpt lat="43.42727" lon="3.51921">
        <ele>80.41</ele>
        <time>2012-04-15T07:52:26Z</time>
      </trkpt>
      <trkpt lat="43.42723" lon="3.51908">
        <ele>79.45</ele>
        <time>2012-04-15T07:52:29Z</time>
      </trkpt>
      <trkpt lat="43.42717" lon="3.51894">
        <ele>78.48</ele>
        <time>2012-04-15T07:52:32Z</time>
      </trkpt>
      <trkpt lat="43.42711" lon="3.51878">
        <ele>77.52</ele>
        <time>2012-04-15T07:52:35Z</time>
      </trkpt>
      <trkpt lat="43.42705" lon="3.51862">
        <ele>76.56</ele>
        <time>2012-04-15T07:52:38Z</time>
      </trkpt>
      <trkpt lat="43.427" lon="3.51849">
        <ele>75.6</ele>
        <time>2012-04-15T07:52:41Z</time>
      </trkpt>
      <trkpt lat="43.42699" lon="3.51839">
        <ele>73.68</ele>
        <time>2012-04-15T07:52:45Z</time>
      </trkpt>
      <trkpt lat="43.42707" lon="3.51831">
        <ele>71.76</ele>
        <time>2012-04-15T07:52:49Z</time>
      </trkpt>
      <trkpt lat="43.42716" lon="3.51821">
        <ele>71.27</ele>
        <time>2012-04-15T07:52:53Z</time>
      </trkpt>
      <trkpt lat="43.42725" lon="3.51812">
        <ele>71.27</ele>
        <time>2012-04-15T07:52:57Z</time>
      </trkpt>
      <trkpt lat="43.42733" lon="3.51805">
        <ele>71.76</ele>
        <time>2012-04-15T07:53:01Z</time>
      </trkpt>
      <trkpt lat="43.42742" lon="3.51799">
        <ele>72.24</ele>
        <time>2012-04-15T07:53:05Z</time>
      </trkpt>
      <trkpt lat="43.42752" lon="3.51793">
        <ele>73.2</ele>
        <time>2012-04-15T07:53:09Z</time>
      </trkpt>
      <trkpt lat="43.42762" lon="3.51788">
        <ele>73.2</ele>
        <time>2012-04-15T07:53:13Z</time>
      </trkpt>
      <trkpt lat="43.42771" lon="3.51785">
        <ele>73.2</ele>
        <time>2012-04-15T07:53:17Z</time>
      </trkpt>
      <trkpt lat="43.42782" lon="3.51782">
        <ele>73.68</ele>
        <time>2012-04-15T07:53:21Z</time>
      </trkpt>
      <trkpt lat="43.42791" lon="3.51778">
        <ele>74.16</ele>
        <time>2012-04-15T07:53:25Z</time>
      </trkpt>
      <trkpt lat="43.42801" lon="3.51776">
        <ele>74.64</ele>
        <time>2012-04-15T07:53:29Z</time>
      </trkpt>
      <trkpt lat="43.42811" lon="3.51772">
        <ele>75.6</ele>
        <time>2012-04-15T07:53:33Z</time>
      </trkpt>
      <trkpt lat="43.4282" lon="3.51768">
        <ele>76.08</ele>
        <time>2012-04-15T07:53:37Z</time>
      </trkpt>
      <trkpt lat="43.4283" lon="3.51765">
        <ele>76.56</ele>
        <time>2012-04-15T07:53:41Z</time>
      </trkpt>
      <trkpt lat="43.4284" lon="3.51761">
        <ele>77.04</ele>
        <time>2012-04-15T07:53:45Z</time>
      </trkpt>
      <trkpt lat="43.42849" lon="3.51758">
        <ele>77.52</ele>
        <time>2012-04-15T07:53:49Z</time>
      </trkpt>
      <trkpt lat="43.42858" lon="3.51757">
        <ele>78</ele>
        <time>2012-04-15T07:53:53Z</time>
      </trkpt>
      <trkpt lat="43.42868" lon="3.51756">
        <ele>78.48</ele>
        <time>2012-04-15T07:53:57Z</time>
      </trkpt>
      <trkpt lat="43.42877" lon="3.51755">
        <ele>78.97</ele>
        <time>2012-04-15T07:54:01Z</time>
      </trkpt>
      <trkpt lat="43.42887" lon="3.51753">
        <ele>79.93</ele>
        <time>2012-04-15T07:54:05Z</time>
      </trkpt>
      <trkpt lat="43.42897" lon="3.51753">
        <ele>82.33</ele>
        <time>2012-04-15T07:54:11Z</time>
      </trkpt>
      <trkpt lat="43.42908" lon="3.51753">
        <ele>84.73</ele>
        <time>2012-04-15T07:54:16Z</time>
      </trkpt>
      <trkpt lat="43.42918" lon="3.5175">
        <ele>86.66</ele>
        <time>2012-04-15T07:54:20Z</time>
      </trkpt>
      <trkpt lat="43.42929" lon="3.51747">
        <ele>87.14</ele>
        <time>2012-04-15T07:54:24Z</time>
      </trkpt>
      <trkpt lat="43.4294" lon="3.51744">
        <ele>88.1</ele>
        <time>2012-04-15T07:54:29Z</time>
      </trkpt>
      <trkpt lat="43.4295" lon="3.51742">
        <ele>89.06</ele>
        <time>2012-04-15T07:54:33Z</time>
      </trkpt>
      <trkpt lat="43.42962" lon="3.5174">
        <ele>89.54</ele>
        <time>2012-04-15T07:54:38Z</time>
      </trkpt>
      <trkpt lat="43.42973" lon="3.51739">
        <ele>90.98</ele>
        <time>2012-04-15T07:54:43Z</time>
      </trkpt>
      <trkpt lat="43.42983" lon="3.51736">
        <ele>91.94</ele>
        <time>2012-04-15T07:54:48Z</time>
      </trkpt>
      <trkpt lat="43.42995" lon="3.51732">
        <ele>93.39</ele>
        <time>2012-04-15T07:54:53Z</time>
      </trkpt>
      <trkpt lat="43.43006" lon="3.5173">
        <ele>95.31</ele>
        <time>2012-04-15T07:54:58Z</time>
      </trkpt>
      <trkpt lat="43.43016" lon="3.5173">
        <ele>96.75</ele>
        <time>2012-04-15T07:55:02Z</time>
      </trkpt>
      <trkpt lat="43.43027" lon="3.51729">
        <ele>97.23</ele>
        <time>2012-04-15T07:55:06Z</time>
      </trkpt>
      <trkpt lat="43.43038" lon="3.51723">
        <ele>97.71</ele>
        <time>2012-04-15T07:55:10Z</time>
      </trkpt>
      <trkpt lat="43.43046" lon="3.51715">
        <ele>98.19</ele>
        <time>2012-04-15T07:55:13Z</time>
      </trkpt>
      <trkpt lat="43.43055" lon="3.51706">
        <ele>98.19</ele>
        <time>2012-04-15T07:55:16Z</time>
      </trkpt>
      <trkpt lat="43.43064" lon="3.51697">
        <ele>97.71</ele>
        <time>2012-04-15T07:55:19Z</time>
      </trkpt>
      <trkpt lat="43.43075" lon="3.51689">
        <ele>97.71</ele>
        <time>2012-04-15T07:55:22Z</time>
      </trkpt>
      <trkpt lat="43.43084" lon="3.51682">
        <ele>97.71</ele>
        <time>2012-04-15T07:55:25Z</time>
      </trkpt>
      <trkpt lat="43.43093" lon="3.51675">
        <ele>96.75</ele>
        <time>2012-04-15T07:55:28Z</time>
      </trkpt>
      <trkpt lat="43.43105" lon="3.51671">
        <ele>96.27</ele>
        <time>2012-04-15T07:55:31Z</time>
      </trkpt>
      <trkpt lat="43.43116" lon="3.51668">
        <ele>95.79</ele>
        <time>2012-04-15T07:55:34Z</time>
      </trkpt>
      <trkpt lat="43.43129" lon="3.51665">
        <ele>95.79</ele>
        <time>2012-04-15T07:55:37Z</time>
      </trkpt>
      <trkpt lat="43.4314" lon="3.51654">
        <ele>93.87</ele>
        <time>2012-04-15T07:55:40Z</time>
      </trkpt>
      <trkpt lat="43.43148" lon="3.51643">
        <ele>92.42</ele>
        <time>2012-04-15T07:55:43Z</time>
      </trkpt>
      <trkpt lat="43.43156" lon="3.51632">
        <ele>90.98</ele>
        <time>2012-04-15T07:55:46Z</time>
      </trkpt>
      <trkpt lat="43.43166" lon="3.51617">
        <ele>89.06</ele>
        <time>2012-04-15T07:55:49Z</time>
      </trkpt>
      <trkpt lat="43.43174" lon="3.51602">
        <ele>87.62</ele>
        <time>2012-04-15T07:55:52Z</time>
      </trkpt>
      <trkpt lat="43.43182" lon="3.51587">
        <ele>86.18</ele>
        <time>2012-04-15T07:55:55Z</time>
      </trkpt>
      <trkpt lat="43.43191" lon="3.51572">
        <ele>85.21</ele>
        <time>2012-04-15T07:55:58Z</time>
      </trkpt>
      <trkpt lat="43.43199" lon="3.51559">
        <ele>84.73</ele>
        <time>2012-04-15T07:56:01Z</time>
      </trkpt>
      <trkpt lat="43.43208" lon="3.51546">
        <ele>84.25</ele>
        <time>2012-04-15T07:56:04Z</time>
      </trkpt>
      <trkpt lat="43.43215" lon="3.51534">
        <ele>83.29</ele>
        <time>2012-04-15T07:56:07Z</time>
      </trkpt>
      <trkpt lat="43.43222" lon="3.51522">
        <ele>82.81</ele>
        <time>2012-04-15T07:56:10Z</time>
      </trkpt>
      <trkpt lat="43.43229" lon="3.5151">
        <ele>82.33</ele>
        <time>2012-04-15T07:56:13Z</time>
      </trkpt>
      <trkpt lat="43.43236" lon="3.51498">
        <ele>81.85</ele>
        <time>2012-04-15T07:56:16Z</time>
      </trkpt>
      <trkpt lat="43.43243" lon="3.51487">
        <ele>81.85</ele>
        <time>2012-04-15T07:56:19Z</time>
      </trkpt>
      <trkpt lat="43.4325" lon="3.51474">
        <ele>81.37</ele>
        <time>2012-04-15T07:56:22Z</time>
      </trkpt>
      <trkpt lat="43.43257" lon="3.51461">
        <ele>80.89</ele>
        <time>2012-04-15T07:56:25Z</time>
      </trkpt>
      <trkpt lat="43.43263" lon="3.51447">
        <ele>80.41</ele>
        <time>2012-04-15T07:56:28Z</time>
      </trkpt>
      <trkpt lat="43.43267" lon="3.51434">
        <ele>80.41</ele>
        <time>2012-04-15T07:56:31Z</time>
      </trkpt>
      <trkpt lat="43.43272" lon="3.51424">
        <ele>80.89</ele>
        <time>2012-04-15T07:56:35Z</time>
      </trkpt>
      <trkpt lat="43.4328" lon="3.51413">
        <ele>81.85</ele>
        <time>2012-04-15T07:56:39Z</time>
      </trkpt>
      <trkpt lat="43.43288" lon="3.51401">
        <ele>83.77</ele>
        <time>2012-04-15T07:56:43Z</time>
      </trkpt>
      <trkpt lat="43.43298" lon="3.5139">
        <ele>85.69</ele>
        <time>2012-04-15T07:56:47Z</time>
      </trkpt>
      <trkpt lat="43.43307" lon="3.51384">
        <ele>88.1</ele>
        <time>2012-04-15T07:56:51Z</time>
      </trkpt>
      <trkpt lat="43.43317" lon="3.5138">
        <ele>90.02</ele>
        <time>2012-04-15T07:56:55Z</time>
      </trkpt>
      <trkpt lat="43.43326" lon="3.51375">
        <ele>91.94</ele>
        <time>2012-04-15T07:56:59Z</time>
      </trkpt>
      <trkpt lat="43.43336" lon="3.51367">
        <ele>94.83</ele>
        <time>2012-04-15T07:57:05Z</time>
      </trkpt>
      <trkpt lat="43.43345" lon="3.51356">
        <ele>96.75</ele>
        <time>2012-04-15T07:57:10Z</time>
      </trkpt>
      <trkpt lat="43.43355" lon="3.51346">
        <ele>99.63</ele>
        <time>2012-04-15T07:57:17Z</time>
      </trkpt>
      <trkpt lat="43.43365" lon="3.51337">
        <ele>100.6</ele>
        <time>2012-04-15T07:57:21Z</time>
      </trkpt>
      <trkpt lat="43.43374" lon="3.51328">
        <ele>102.52</ele>
        <time>2012-04-15T07:57:26Z</time>
      </trkpt>
      <trkpt lat="43.43383" lon="3.51318">
        <ele>104.44</ele>
        <time>2012-04-15T07:57:30Z</time>
      </trkpt>
      <trkpt lat="43.43392" lon="3.5131">
        <ele>105.88</ele>
        <time>2012-04-15T07:57:34Z</time>
      </trkpt>
      <trkpt lat="43.43403" lon="3.51299">
        <ele>108.29</ele>
        <time>2012-04-15T07:57:38Z</time>
      </trkpt>
      <trkpt lat="43.43411" lon="3.51292">
        <ele>110.21</ele>
        <time>2012-04-15T07:57:41Z</time>
      </trkpt>
      <trkpt lat="43.43419" lon="3.51284">
        <ele>111.17</ele>
        <time>2012-04-15T07:57:44Z</time>
      </trkpt>
      <trkpt lat="43.4343" lon="3.5127">
        <ele>109.25</ele>
        <time>2012-04-15T07:57:48Z</time>
      </trkpt>
      <trkpt lat="43.43435" lon="3.5125">
        <ele>109.25</ele>
        <time>2012-04-15T07:57:52Z</time>
      </trkpt>
      <trkpt lat="43.43444" lon="3.51238">
        <ele>108.77</ele>
        <time>2012-04-15T07:57:55Z</time>
      </trkpt>
      <trkpt lat="43.43453" lon="3.51226">
        <ele>107.32</ele>
        <time>2012-04-15T07:57:58Z</time>
      </trkpt>
      <trkpt lat="43.43461" lon="3.51216">
        <ele>107.32</ele>
        <time>2012-04-15T07:58:01Z</time>
      </trkpt>
      <trkpt lat="43.43471" lon="3.51199">
        <ele>104.44</ele>
        <time>2012-04-15T07:58:05Z</time>
      </trkpt>
      <trkpt lat="43.43478" lon="3.51187">
        <ele>104.92</ele>
        <time>2012-04-15T07:58:09Z</time>
      </trkpt>
      <trkpt lat="43.43487" lon="3.51183">
        <ele>105.4</ele>
        <time>2012-04-15T07:58:13Z</time>
      </trkpt>
      <trkpt lat="43.43498" lon="3.51179">
        <ele>105.88</ele>
        <time>2012-04-15T07:58:17Z</time>
      </trkpt>
      <trkpt lat="43.43508" lon="3.51174">
        <ele>106.36</ele>
        <time>2012-04-15T07:58:21Z</time>
      </trkpt>
      <trkpt lat="43.43518" lon="3.51168">
        <ele>106.84</ele>
        <time>2012-04-15T07:58:25Z</time>
      </trkpt>
      <trkpt lat="43.43528" lon="3.51162">
        <ele>107.32</ele>
        <time>2012-04-15T07:58:29Z</time>
      </trkpt>
      <trkpt lat="43.4354" lon="3.51158">
        <ele>107.81</ele>
        <time>2012-04-15T07:58:33Z</time>
      </trkpt>
      <trkpt lat="43.43551" lon="3.51156">
        <ele>107.81</ele>
        <time>2012-04-15T07:58:36Z</time>
      </trkpt>
      <trkpt lat="43.43563" lon="3.51155">
        <ele>107.32</ele>
        <time>2012-04-15T07:58:39Z</time>
      </trkpt>
      <trkpt lat="43.43575" lon="3.51152">
        <ele>107.32</ele>
        <time>2012-04-15T07:58:42Z</time>
      </trkpt>
      <trkpt lat="43.43586" lon="3.51147">
        <ele>106.84</ele>
        <time>2012-04-15T07:58:45Z</time>
      </trkpt>
      <trkpt lat="43.43598" lon="3.5114">
        <ele>105.88</ele>
        <time>2012-04-15T07:58:48Z</time>
      </trkpt>
      <trkpt lat="43.43611" lon="3.51133">
        <ele>105.88</ele>
        <time>2012-04-15T07:58:51Z</time>
      </trkpt>
      <trkpt lat="43.43625" lon="3.51129">
        <ele>105.4</ele>
        <time>2012-04-15T07:58:54Z</time>
      </trkpt>
      <trkpt lat="43.43638" lon="3.51127">
        <ele>105.88</ele>
        <time>2012-04-15T07:58:57Z</time>
      </trkpt>
      <trkpt lat="43.43649" lon="3.51126">
        <ele>105.88</ele>
        <time>2012-04-15T07:59:00Z</time>
      </trkpt>
      <trkpt lat="43.43658" lon="3.51121">
        <ele>106.84</ele>
        <time>2012-04-15T07:59:04Z</time>
      </trkpt>
      <trkpt lat="43.4367" lon="3.51119">
        <ele>107.32</ele>
        <time>2012-04-15T07:59:08Z</time>
      </trkpt>
      <trkpt lat="43.43683" lon="3.51119">
        <ele>106.84</ele>
        <time>2012-04-15T07:59:12Z</time>
      </trkpt>
      <trkpt lat="43.43694" lon="3.51115">
        <ele>106.36</ele>
        <time>2012-04-15T07:59:16Z</time>
      </trkpt>
      <trkpt lat="43.43708" lon="3.5111">
        <ele>104.44</ele>
        <time>2012-04-15T07:59:23Z</time>
      </trkpt>
      <trkpt lat="43.4372" lon="3.51106">
        <ele>104.44</ele>
        <time>2012-04-15T07:59:29Z</time>
      </trkpt>
      <trkpt lat="43.43732" lon="3.51101">
        <ele>103.96</ele>
        <time>2012-04-15T07:59:34Z</time>
      </trkpt>
      <trkpt lat="43.43741" lon="3.51096">
        <ele>103.96</ele>
        <time>2012-04-15T07:59:39Z</time>
      </trkpt>
      <trkpt lat="43.43751" lon="3.51091">
        <ele>103.96</ele>
        <time>2012-04-15T07:59:44Z</time>
      </trkpt>
      <trkpt lat="43.43762" lon="3.51086">
        <ele>104.92</ele>
        <time>2012-04-15T07:59:51Z</time>
      </trkpt>
      <trkpt lat="43.43773" lon="3.51082">
        <ele>106.84</ele>
        <time>2012-04-15T07:59:57Z</time>
      </trkpt>
      <trkpt lat="43.43786" lon="3.51074">
        <ele>107.81</ele>
        <time>2012-04-15T08:00:04Z</time>
      </trkpt>
      <trkpt lat="43.43798" lon="3.51066">
        <ele>109.73</ele>
        <time>2012-04-15T08:00:10Z</time>
      </trkpt>
      <trkpt lat="43.43811" lon="3.51061">
        <ele>110.21</ele>
        <time>2012-04-15T08:00:15Z</time>
      </trkpt>
      <trkpt lat="43.43823" lon="3.5106">
        <ele>111.65</ele>
        <time>2012-04-15T08:00:20Z</time>
      </trkpt>
      <trkpt lat="43.43835" lon="3.51057">
        <ele>114.05</ele>
        <time>2012-04-15T08:00:25Z</time>
      </trkpt>
      <trkpt lat="43.43847" lon="3.51054">
        <ele>116.94</ele>
        <time>2012-04-15T08:00:30Z</time>
      </trkpt>
      <trkpt lat="43.4386" lon="3.5105">
        <ele>116.94</ele>
        <time>2012-04-15T08:00:35Z</time>
      </trkpt>
      <trkpt lat="43.43872" lon="3.51047">
        <ele>116.94</ele>
        <time>2012-04-15T08:00:40Z</time>
      </trkpt>
      <trkpt lat="43.43883" lon="3.51043">
        <ele>116.94</ele>
        <time>2012-04-15T08:00:45Z</time>
      </trkpt>
      <trkpt lat="43.43896" lon="3.51038">
        <ele>115.01</ele>
        <time>2012-04-15T08:00:50Z</time>
      </trkpt>
      <trkpt lat="43.43908" lon="3.51033">
        <ele>114.05</ele>
        <time>2012-04-15T08:00:54Z</time>
      </trkpt>
      <trkpt lat="43.43918" lon="3.51028">
        <ele>113.57</ele>
        <time>2012-04-15T08:00:58Z</time>
      </trkpt>
      <trkpt lat="43.4393" lon="3.51027">
        <ele>113.09</ele>
        <time>2012-04-15T08:01:02Z</time>
      </trkpt>
      <trkpt lat="43.43942" lon="3.51026">
        <ele>111.65</ele>
        <time>2012-04-15T08:01:06Z</time>
      </trkpt>
      <trkpt lat="43.43953" lon="3.51027">
        <ele>112.13</ele>
        <time>2012-04-15T08:01:10Z</time>
      </trkpt>
      <trkpt lat="43.43965" lon="3.51028">
        <ele>110.69</ele>
        <time>2012-04-15T08:01:14Z</time>
      </trkpt>
      <trkpt lat="43.43977" lon="3.51028">
        <ele>110.69</ele>
        <time>2012-04-15T08:01:19Z</time>
      </trkpt>
      <trkpt lat="43.43989" lon="3.51024">
        <ele>111.17</ele>
        <time>2012-04-15T08:01:24Z</time>
      </trkpt>
      <trkpt lat="43.44001" lon="3.5102">
        <ele>112.13</ele>
        <time>2012-04-15T08:01:28Z</time>
      </trkpt>
      <trkpt lat="43.44013" lon="3.51016">
        <ele>113.57</ele>
        <time>2012-04-15T08:01:32Z</time>
      </trkpt>
      <trkpt lat="43.44024" lon="3.51012">
        <ele>114.53</ele>
        <time>2012-04-15T08:01:36Z</time>
      </trkpt>
      <trkpt lat="43.44036" lon="3.51007">
        <ele>115.01</ele>
        <time>2012-04-15T08:01:40Z</time>
      </trkpt>
      <trkpt lat="43.44047" lon="3.51004">
        <ele>115.01</ele>
        <time>2012-04-15T08:01:44Z</time>
      </trkpt>
      <trkpt lat="43.44057" lon="3.51001">
        <ele>115.98</ele>
        <time>2012-04-15T08:01:48Z</time>
      </trkpt>
      <trkpt lat="43.44068" lon="3.50999">
        <ele>116.94</ele>
        <time>2012-04-15T08:01:52Z</time>
      </trkpt>
      <trkpt lat="43.44079" lon="3.50995">
        <ele>118.38</ele>
        <time>2012-04-15T08:01:56Z</time>
      </trkpt>
      <trkpt lat="43.44091" lon="3.50989">
        <ele>118.86</ele>
        <time>2012-04-15T08:02:00Z</time>
      </trkpt>
      <trkpt lat="43.44103" lon="3.50983">
        <ele>119.82</ele>
        <time>2012-04-15T08:02:05Z</time>
      </trkpt>
      <trkpt lat="43.44118" lon="3.50975">
        <ele>120.3</ele>
        <time>2012-04-15T08:02:10Z</time>
      </trkpt>
      <trkpt lat="43.44132" lon="3.5097">
        <ele>121.74</ele>
        <time>2012-04-15T08:02:14Z</time>
      </trkpt>
      <trkpt lat="43.44146" lon="3.50965">
        <ele>123.67</ele>
        <time>2012-04-15T08:02:18Z</time>
      </trkpt>
      <trkpt lat="43.44158" lon="3.50958">
        <ele>124.63</ele>
        <time>2012-04-15T08:02:22Z</time>
      </trkpt>
      <trkpt lat="43.44169" lon="3.50954">
        <ele>125.59</ele>
        <time>2012-04-15T08:02:25Z</time>
      </trkpt>
      <trkpt lat="43.44183" lon="3.50951">
        <ele>125.59</ele>
        <time>2012-04-15T08:02:29Z</time>
      </trkpt>
      <trkpt lat="43.44197" lon="3.50944">
        <ele>127.51</ele>
        <time>2012-04-15T08:02:33Z</time>
      </trkpt>
      <trkpt lat="43.44207" lon="3.50939">
        <ele>128.47</ele>
        <time>2012-04-15T08:02:36Z</time>
      </trkpt>
      <trkpt lat="43.44215" lon="3.5093">
        <ele>130.4</ele>
        <time>2012-04-15T08:02:39Z</time>
      </trkpt>
      <trkpt lat="43.44224" lon="3.50923">
        <ele>132.32</ele>
        <time>2012-04-15T08:02:42Z</time>
      </trkpt>
      <trkpt lat="43.44233" lon="3.50915">
        <ele>135.2</ele>
        <time>2012-04-15T08:02:46Z</time>
      </trkpt>
      <trkpt lat="43.44242" lon="3.50909">
        <ele>137.13</ele>
        <time>2012-04-15T08:02:49Z</time>
      </trkpt>
      <trkpt lat="43.44253" lon="3.50901">
        <ele>140.49</ele>
        <time>2012-04-15T08:02:53Z</time>
      </trkpt>
      <trkpt lat="43.44263" lon="3.50894">
        <ele>142.89</ele>
        <time>2012-04-15T08:02:57Z</time>
      </trkpt>
      <trkpt lat="43.44275" lon="3.50891">
        <ele>144.34</ele>
        <time>2012-04-15T08:03:01Z</time>
      </trkpt>
      <trkpt lat="43.44289" lon="3.50871">
        <ele>142.41</ele>
        <time>2012-04-15T08:03:07Z</time>
      </trkpt>
      <trkpt lat="43.44298" lon="3.50849">
        <ele>142.89</ele>
        <time>2012-04-15T08:03:14Z</time>
      </trkpt>
      <trkpt lat="43.44307" lon="3.50836">
        <ele>144.34</ele>
        <time>2012-04-15T08:03:17Z</time>
      </trkpt>
      <trkpt lat="43.44317" lon="3.50824">
        <ele>145.78</ele>
        <time>2012-04-15T08:03:20Z</time>
      </trkpt>
      <trkpt lat="43.44326" lon="3.50815">
        <ele>148.66</ele>
        <time>2012-04-15T08:03:23Z</time>
      </trkpt>
      <trkpt lat="43.44335" lon="3.50804">
        <ele>150.58</ele>
        <time>2012-04-15T08:03:27Z</time>
      </trkpt>
      <trkpt lat="43.44341" lon="3.50789">
        <ele>150.1</ele>
        <time>2012-04-15T08:03:30Z</time>
      </trkpt>
      <trkpt lat="43.44348" lon="3.50774">
        <ele>149.14</ele>
        <time>2012-04-15T08:03:33Z</time>
      </trkpt>
      <trkpt lat="43.44357" lon="3.50761">
        <ele>146.26</ele>
        <time>2012-04-15T08:03:36Z</time>
      </trkpt>
      <trkpt lat="43.44363" lon="3.50746">
        <ele>145.78</ele>
        <time>2012-04-15T08:03:39Z</time>
      </trkpt>
      <trkpt lat="43.44372" lon="3.50727">
        <ele>144.34</ele>
        <time>2012-04-15T08:03:42Z</time>
      </trkpt>
      <trkpt lat="43.44379" lon="3.50713">
        <ele>144.34</ele>
        <time>2012-04-15T08:03:45Z</time>
      </trkpt>
      <trkpt lat="43.44386" lon="3.50698">
        <ele>144.34</ele>
        <time>2012-04-15T08:03:48Z</time>
      </trkpt>
      <trkpt lat="43.44393" lon="3.50685">
        <ele>143.85</ele>
        <time>2012-04-15T08:03:51Z</time>
      </trkpt>
      <trkpt lat="43.44399" lon="3.50671">
        <ele>144.34</ele>
        <time>2012-04-15T08:03:54Z</time>
      </trkpt>
      <trkpt lat="43.44404" lon="3.5066">
        <ele>144.82</ele>
        <time>2012-04-15T08:03:57Z</time>
      </trkpt>
      <trkpt lat="43.4441" lon="3.50648">
        <ele>145.3</ele>
        <time>2012-04-15T08:04:00Z</time>
      </trkpt>
      <trkpt lat="43.44421" lon="3.50629">
        <ele>143.85</ele>
        <time>2012-04-15T08:04:05Z</time>
      </trkpt>
      <trkpt lat="43.44434" lon="3.50612">
        <ele>142.41</ele>
        <time>2012-04-15T08:04:09Z</time>
      </trkpt>
      <trkpt lat="43.44448" lon="3.50594">
        <ele>140.97</ele>
        <time>2012-04-15T08:04:12Z</time>
      </trkpt>
      <trkpt lat="43.44459" lon="3.50579">
        <ele>136.16</ele>
        <time>2012-04-15T08:04:14Z</time>
      </trkpt>
      <trkpt lat="43.44472" lon="3.50561">
        <ele>131.36</ele>
        <time>2012-04-15T08:04:17Z</time>
      </trkpt>
      <trkpt lat="43.44479" lon="3.50548">
        <ele>128.47</ele>
        <time>2012-04-15T08:04:19Z</time>
      </trkpt>
      <trkpt lat="43.44493" lon="3.50538">
        <ele>125.59</ele>
        <time>2012-04-15T08:04:22Z</time>
      </trkpt>
      <trkpt lat="43.44504" lon="3.50534">
        <ele>123.19</ele>
        <time>2012-04-15T08:04:24Z</time>
      </trkpt>
      <trkpt lat="43.44515" lon="3.50532">
        <ele>121.26</ele>
        <time>2012-04-15T08:04:26Z</time>
      </trkpt>
      <trkpt lat="43.44527" lon="3.50528">
        <ele>119.34</ele>
        <time>2012-04-15T08:04:28Z</time>
      </trkpt>
      <trkpt lat="43.4454" lon="3.50523">
        <ele>116.46</ele>
        <time>2012-04-15T08:04:30Z</time>
      </trkpt>
      <trkpt lat="43.44551" lon="3.5052">
        <ele>114.53</ele>
        <time>2012-04-15T08:04:32Z</time>
      </trkpt>
      <trkpt lat="43.44562" lon="3.50515">
        <ele>113.57</ele>
        <time>2012-04-15T08:04:34Z</time>
      </trkpt>
      <trkpt lat="43.44573" lon="3.5051">
        <ele>113.09</ele>
        <time>2012-04-15T08:04:37Z</time>
      </trkpt>
      <trkpt lat="43.44584" lon="3.50503">
        <ele>112.61</ele>
        <time>2012-04-15T08:04:41Z</time>
      </trkpt>
      <trkpt lat="43.44597" lon="3.5049">
        <ele>112.13</ele>
        <time>2012-04-15T08:04:46Z</time>
      </trkpt>
      <trkpt lat="43.44606" lon="3.50482">
        <ele>113.57</ele>
        <time>2012-04-15T08:04:49Z</time>
      </trkpt>
      <trkpt lat="43.4462" lon="3.50473">
        <ele>115.01</ele>
        <time>2012-04-15T08:04:53Z</time>
      </trkpt>
      <trkpt lat="43.44636" lon="3.50467">
        <ele>111.17</ele>
        <time>2012-04-15T08:04:56Z</time>
      </trkpt>
      <trkpt lat="43.44651" lon="3.50457">
        <ele>106.84</ele>
        <time>2012-04-15T08:04:59Z</time>
      </trkpt>
      <trkpt lat="43.44663" lon="3.50448">
        <ele>104.44</ele>
        <time>2012-04-15T08:05:02Z</time>
      </trkpt>
      <trkpt lat="43.44673" lon="3.50435">
        <ele>101.56</ele>
        <time>2012-04-15T08:05:05Z</time>
      </trkpt>
      <trkpt lat="43.44683" lon="3.50423">
        <ele>99.15</ele>
        <time>2012-04-15T08:05:08Z</time>
      </trkpt>
      <trkpt lat="43.44693" lon="3.5041">
        <ele>97.71</ele>
        <time>2012-04-15T08:05:11Z</time>
      </trkpt>
      <trkpt lat="43.44704" lon="3.50397">
        <ele>96.75</ele>
        <time>2012-04-15T08:05:14Z</time>
      </trkpt>
      <trkpt lat="43.44713" lon="3.50384">
        <ele>96.27</ele>
        <time>2012-04-15T08:05:17Z</time>
      </trkpt>
      <trkpt lat="43.44722" lon="3.50371">
        <ele>95.79</ele>
        <time>2012-04-15T08:05:20Z</time>
      </trkpt>
      <trkpt lat="43.44731" lon="3.50358">
        <ele>94.35</ele>
        <time>2012-04-15T08:05:23Z</time>
      </trkpt>
      <trkpt lat="43.44741" lon="3.50344">
        <ele>93.39</ele>
        <time>2012-04-15T08:05:26Z</time>
      </trkpt>
      <trkpt lat="43.4475" lon="3.50331">
        <ele>92.42</ele>
        <time>2012-04-15T08:05:29Z</time>
      </trkpt>
      <trkpt lat="43.4476" lon="3.50318">
        <ele>92.42</ele>
        <time>2012-04-15T08:05:32Z</time>
      </trkpt>
      <trkpt lat="43.4477" lon="3.50307">
        <ele>91.94</ele>
        <time>2012-04-15T08:05:35Z</time>
      </trkpt>
      <trkpt lat="43.44781" lon="3.50295">
        <ele>91.46</ele>
        <time>2012-04-15T08:05:38Z</time>
      </trkpt>
      <trkpt lat="43.4479" lon="3.50285">
        <ele>90.98</ele>
        <time>2012-04-15T08:05:41Z</time>
      </trkpt>
      <trkpt lat="43.448" lon="3.50275">
        <ele>90.5</ele>
        <time>2012-04-15T08:05:44Z</time>
      </trkpt>
      <trkpt lat="43.4481" lon="3.50265">
        <ele>90.5</ele>
        <time>2012-04-15T08:05:47Z</time>
      </trkpt>
      <trkpt lat="43.4482" lon="3.50255">
        <ele>90.5</ele>
        <time>2012-04-15T08:05:50Z</time>
      </trkpt>
      <trkpt lat="43.44829" lon="3.50247">
        <ele>90.5</ele>
        <time>2012-04-15T08:05:53Z</time>
      </trkpt>
      <trkpt lat="43.44838" lon="3.50237">
        <ele>90.5</ele>
        <time>2012-04-15T08:05:56Z</time>
      </trkpt>
      <trkpt lat="43.44846" lon="3.50227">
        <ele>90.5</ele>
        <time>2012-04-15T08:05:59Z</time>
      </trkpt>
      <trkpt lat="43.44853" lon="3.50218">
        <ele>90.98</ele>
        <time>2012-04-15T08:06:02Z</time>
      </trkpt>
      <trkpt lat="43.44862" lon="3.50209">
        <ele>91.46</ele>
        <time>2012-04-15T08:06:05Z</time>
      </trkpt>
      <trkpt lat="43.44871" lon="3.50202">
        <ele>91.46</ele>
        <time>2012-04-15T08:06:08Z</time>
      </trkpt>
      <trkpt lat="43.4488" lon="3.50197">
        <ele>91.94</ele>
        <time>2012-04-15T08:06:11Z</time>
      </trkpt>
      <trkpt lat="43.44891" lon="3.50191">
        <ele>92.42</ele>
        <time>2012-04-15T08:06:15Z</time>
      </trkpt>
      <trkpt lat="43.44901" lon="3.50186">
        <ele>92.42</ele>
        <time>2012-04-15T08:06:19Z</time>
      </trkpt>
      <trkpt lat="43.44908" lon="3.50178">
        <ele>92.9</ele>
        <time>2012-04-15T08:06:22Z</time>
      </trkpt>
      <trkpt lat="43.44916" lon="3.50166">
        <ele>92.42</ele>
        <time>2012-04-15T08:06:25Z</time>
      </trkpt>
      <trkpt lat="43.44926" lon="3.50154">
        <ele>91.94</ele>
        <time>2012-04-15T08:06:28Z</time>
      </trkpt>
      <trkpt lat="43.44934" lon="3.50142">
        <ele>91.94</ele>
        <time>2012-04-15T08:06:31Z</time>
      </trkpt>
      <trkpt lat="43.44941" lon="3.50133">
        <ele>91.94</ele>
        <time>2012-04-15T08:06:34Z</time>
      </trkpt>
      <trkpt lat="43.44947" lon="3.5012">
        <ele>92.9</ele>
        <time>2012-04-15T08:06:37Z</time>
      </trkpt>
      <trkpt lat="43.44952" lon="3.50107">
        <ele>93.39</ele>
        <time>2012-04-15T08:06:40Z</time>
      </trkpt>
      <trkpt lat="43.44957" lon="3.50094">
        <ele>93.87</ele>
        <time>2012-04-15T08:06:43Z</time>
      </trkpt>
      <trkpt lat="43.44962" lon="3.50082">
        <ele>94.35</ele>
        <time>2012-04-15T08:06:46Z</time>
      </trkpt>
      <trkpt lat="43.44968" lon="3.50068">
        <ele>94.83</ele>
        <time>2012-04-15T08:06:49Z</time>
      </trkpt>
      <trkpt lat="43.44974" lon="3.50052">
        <ele>94.83</ele>
        <time>2012-04-15T08:06:52Z</time>
      </trkpt>
      <trkpt lat="43.44979" lon="3.50035">
        <ele>95.31</ele>
        <time>2012-04-15T08:06:55Z</time>
      </trkpt>
      <trkpt lat="43.44983" lon="3.50017">
        <ele>95.31</ele>
        <time>2012-04-15T08:06:58Z</time>
      </trkpt>
      <trkpt lat="43.44986" lon="3.50005">
        <ele>94.83</ele>
        <time>2012-04-15T08:07:00Z</time>
      </trkpt>
      <trkpt lat="43.4499" lon="3.49992">
        <ele>94.35</ele>
        <time>2012-04-15T08:07:02Z</time>
      </trkpt>
      <trkpt lat="43.44996" lon="3.49974">
        <ele>94.35</ele>
        <time>2012-04-15T08:07:05Z</time>
      </trkpt>
      <trkpt lat="43.44999" lon="3.49962">
        <ele>93.87</ele>
        <time>2012-04-15T08:07:07Z</time>
      </trkpt>
      <trkpt lat="43.45003" lon="3.49949">
        <ele>93.39</ele>
        <time>2012-04-15T08:07:09Z</time>
      </trkpt>
      <trkpt lat="43.45006" lon="3.49937">
        <ele>92.9</ele>
        <time>2012-04-15T08:07:11Z</time>
      </trkpt>
      <trkpt lat="43.45011" lon="3.4992">
        <ele>92.42</ele>
        <time>2012-04-15T08:07:14Z</time>
      </trkpt>
      <trkpt lat="43.45017" lon="3.49905">
        <ele>92.42</ele>
        <time>2012-04-15T08:07:17Z</time>
      </trkpt>
      <trkpt lat="43.45021" lon="3.49895">
        <ele>92.9</ele>
        <time>2012-04-15T08:07:20Z</time>
      </trkpt>
      <trkpt lat="43.4503" lon="3.49881">
        <ele>94.35</ele>
        <time>2012-04-15T08:07:24Z</time>
      </trkpt>
      <trkpt lat="43.45035" lon="3.49869">
        <ele>96.27</ele>
        <time>2012-04-15T08:07:27Z</time>
      </trkpt>
      <trkpt lat="43.45041" lon="3.49854">
        <ele>99.63</ele>
        <time>2012-04-15T08:07:32Z</time>
      </trkpt>
      <trkpt lat="43.45048" lon="3.49843">
        <ele>103.48</ele>
        <time>2012-04-15T08:07:36Z</time>
      </trkpt>
      <trkpt lat="43.45054" lon="3.4983">
        <ele>108.29</ele>
        <time>2012-04-15T08:07:41Z</time>
      </trkpt>
      <trkpt lat="43.45066" lon="3.49817">
        <ele>112.61</ele>
        <time>2012-04-15T08:07:46Z</time>
      </trkpt>
      <trkpt lat="43.45077" lon="3.49804">
        <ele>114.05</ele>
        <time>2012-04-15T08:07:49Z</time>
      </trkpt>
      <trkpt lat="43.45087" lon="3.49793">
        <ele>115.01</ele>
        <time>2012-04-15T08:07:52Z</time>
      </trkpt>
      <trkpt lat="43.45097" lon="3.49779">
        <ele>115.98</ele>
        <time>2012-04-15T08:07:55Z</time>
      </trkpt>
      <trkpt lat="43.45111" lon="3.49765">
        <ele>111.65</ele>
        <time>2012-04-15T08:07:58Z</time>
      </trkpt>
      <trkpt lat="43.45122" lon="3.49751">
        <ele>108.77</ele>
        <time>2012-04-15T08:08:01Z</time>
      </trkpt>
      <trkpt lat="43.45131" lon="3.49738">
        <ele>106.84</ele>
        <time>2012-04-15T08:08:04Z</time>
      </trkpt>
      <trkpt lat="43.45141" lon="3.49725">
        <ele>103.48</ele>
        <time>2012-04-15T08:08:07Z</time>
      </trkpt>
      <trkpt lat="43.4515" lon="3.49713">
        <ele>101.08</ele>
        <time>2012-04-15T08:08:10Z</time>
      </trkpt>
      <trkpt lat="43.45156" lon="3.49698">
        <ele>100.6</ele>
        <time>2012-04-15T08:08:13Z</time>
      </trkpt>
      <trkpt lat="43.45162" lon="3.49683">
        <ele>100.11</ele>
        <time>2012-04-15T08:08:16Z</time>
      </trkpt>
      <trkpt lat="43.45169" lon="3.49669">
        <ele>100.11</ele>
        <time>2012-04-15T08:08:19Z</time>
      </trkpt>
      <trkpt lat="43.45176" lon="3.49655">
        <ele>100.11</ele>
        <time>2012-04-15T08:08:22Z</time>
      </trkpt>
      <trkpt lat="43.45182" lon="3.49642">
        <ele>99.63</ele>
        <time>2012-04-15T08:08:25Z</time>
      </trkpt>
      <trkpt lat="43.4519" lon="3.49628">
        <ele>99.15</ele>
        <time>2012-04-15T08:08:28Z</time>
      </trkpt>
      <trkpt lat="43.45197" lon="3.49615">
        <ele>98.67</ele>
        <time>2012-04-15T08:08:31Z</time>
      </trkpt>
      <trkpt lat="43.45204" lon="3.496">
        <ele>97.71</ele>
        <time>2012-04-15T08:08:34Z</time>
      </trkpt>
      <trkpt lat="43.45211" lon="3.49586">
        <ele>96.75</ele>
        <time>2012-04-15T08:08:37Z</time>
      </trkpt>
      <trkpt lat="43.45217" lon="3.49572">
        <ele>96.27</ele>
        <time>2012-04-15T08:08:40Z</time>
      </trkpt>
      <trkpt lat="43.45225" lon="3.49559">
        <ele>94.83</ele>
        <time>2012-04-15T08:08:43Z</time>
      </trkpt>
      <trkpt lat="43.45232" lon="3.49545">
        <ele>93.87</ele>
        <time>2012-04-15T08:08:46Z</time>
      </trkpt>
      <trkpt lat="43.45239" lon="3.49532">
        <ele>93.39</ele>
        <time>2012-04-15T08:08:49Z</time>
      </trkpt>
      <trkpt lat="43.45246" lon="3.4952">
        <ele>92.9</ele>
        <time>2012-04-15T08:08:52Z</time>
      </trkpt>
      <trkpt lat="43.45253" lon="3.49508">
        <ele>92.42</ele>
        <time>2012-04-15T08:08:55Z</time>
      </trkpt>
      <trkpt lat="43.4526" lon="3.49498">
        <ele>92.42</ele>
        <time>2012-04-15T08:08:58Z</time>
      </trkpt>
      <trkpt lat="43.45267" lon="3.49486">
        <ele>92.42</ele>
        <time>2012-04-15T08:09:01Z</time>
      </trkpt>
      <trkpt lat="43.45274" lon="3.49475">
        <ele>91.94</ele>
        <time>2012-04-15T08:09:04Z</time>
      </trkpt>
      <trkpt lat="43.4528" lon="3.49464">
        <ele>91.94</ele>
        <time>2012-04-15T08:09:07Z</time>
      </trkpt>
      <trkpt lat="43.45286" lon="3.49454">
        <ele>91.94</ele>
        <time>2012-04-15T08:09:10Z</time>
      </trkpt>
      <trkpt lat="43.45291" lon="3.49444">
        <ele>91.94</ele>
        <time>2012-04-15T08:09:13Z</time>
      </trkpt>
      <trkpt lat="43.45298" lon="3.4943">
        <ele>92.42</ele>
        <time>2012-04-15T08:09:17Z</time>
      </trkpt>
      <trkpt lat="43.45304" lon="3.49417">
        <ele>92.9</ele>
        <time>2012-04-15T08:09:21Z</time>
      </trkpt>
      <trkpt lat="43.4531" lon="3.49406">
        <ele>93.39</ele>
        <time>2012-04-15T08:09:24Z</time>
      </trkpt>
      <trkpt lat="43.45315" lon="3.49394">
        <ele>93.39</ele>
        <time>2012-04-15T08:09:27Z</time>
      </trkpt>
      <trkpt lat="43.45321" lon="3.4938">
        <ele>93.39</ele>
        <time>2012-04-15T08:09:31Z</time>
      </trkpt>
      <trkpt lat="43.45325" lon="3.49368">
        <ele>93.39</ele>
        <time>2012-04-15T08:09:36Z</time>
      </trkpt>
      <trkpt lat="43.45323" lon="3.49365">
        <ele>92.9</ele>
        <time>2012-04-15T08:10:54Z</time>
      </trkpt>
      <trkpt lat="43.45314" lon="3.49362">
        <ele>92.9</ele>
        <time>2012-04-15T08:10:58Z</time>
      </trkpt>
      <trkpt lat="43.45302" lon="3.49359">
        <ele>93.39</ele>
        <time>2012-04-15T08:11:02Z</time>
      </trkpt>
      <trkpt lat="43.45293" lon="3.49355">
        <ele>93.39</ele>
        <time>2012-04-15T08:11:05Z</time>
      </trkpt>
      <trkpt lat="43.45285" lon="3.4935">
        <ele>94.35</ele>
        <time>2012-04-15T08:11:09Z</time>
      </trkpt>
      <trkpt lat="43.45282" lon="3.49353">
        <ele>94.83</ele>
        <time>2012-04-15T08:11:16Z</time>
      </trkpt>
      <trkpt lat="43.45287" lon="3.49344">
        <ele>94.35</ele>
        <time>2012-04-15T08:11:35Z</time>
      </trkpt>
      <trkpt lat="43.45291" lon="3.4933">
        <ele>95.31</ele>
        <time>2012-04-15T08:11:41Z</time>
      </trkpt>
      <trkpt lat="43.45299" lon="3.49322">
        <ele>96.27</ele>
        <time>2012-04-15T08:11:45Z</time>
      </trkpt>
      <trkpt lat="43.45308" lon="3.49318">
        <ele>96.27</ele>
        <time>2012-04-15T08:11:48Z</time>
      </trkpt>
      <trkpt lat="43.45317" lon="3.49314">
        <ele>96.27</ele>
        <time>2012-04-15T08:11:51Z</time>
      </trkpt>
      <trkpt lat="43.45321" lon="3.49299">
        <ele>96.75</ele>
        <time>2012-04-15T08:11:55Z</time>
      </trkpt>
      <trkpt lat="43.45321" lon="3.4928">
        <ele>96.27</ele>
        <time>2012-04-15T08:11:58Z</time>
      </trkpt>
      <trkpt lat="43.45319" lon="3.49267">
        <ele>95.79</ele>
        <time>2012-04-15T08:12:00Z</time>
      </trkpt>
      <trkpt lat="43.45318" lon="3.49254">
        <ele>95.79</ele>
        <time>2012-04-15T08:12:02Z</time>
      </trkpt>
      <trkpt lat="43.45316" lon="3.4924">
        <ele>95.31</ele>
        <time>2012-04-15T08:12:04Z</time>
      </trkpt>
      <trkpt lat="43.45312" lon="3.49226">
        <ele>94.83</ele>
        <time>2012-04-15T08:12:06Z</time>
      </trkpt>
      <trkpt lat="43.45308" lon="3.49215">
        <ele>94.83</ele>
        <time>2012-04-15T08:12:08Z</time>
      </trkpt>
      <trkpt lat="43.45305" lon="3.49202">
        <ele>94.35</ele>
        <time>2012-04-15T08:12:10Z</time>
      </trkpt>
      <trkpt lat="43.45304" lon="3.4919">
        <ele>93.87</ele>
        <time>2012-04-15T08:12:12Z</time>
      </trkpt>
      <trkpt lat="43.45305" lon="3.49176">
        <ele>93.39</ele>
        <time>2012-04-15T08:12:14Z</time>
      </trkpt>
      <trkpt lat="43.45304" lon="3.49162">
        <ele>92.9</ele>
        <time>2012-04-15T08:12:16Z</time>
      </trkpt>
      <trkpt lat="43.45302" lon="3.49149">
        <ele>92.42</ele>
        <time>2012-04-15T08:12:18Z</time>
      </trkpt>
      <trkpt lat="43.45299" lon="3.49137">
        <ele>92.42</ele>
        <time>2012-04-15T08:12:20Z</time>
      </trkpt>
      <trkpt lat="43.45295" lon="3.49125">
        <ele>92.42</ele>
        <time>2012-04-15T08:12:22Z</time>
      </trkpt>
      <trkpt lat="43.45293" lon="3.49111">
        <ele>92.42</ele>
        <time>2012-04-15T08:12:24Z</time>
      </trkpt>
      <trkpt lat="43.45292" lon="3.49097">
        <ele>92.9</ele>
        <time>2012-04-15T08:12:26Z</time>
      </trkpt>
      <trkpt lat="43.45294" lon="3.49084">
        <ele>92.9</ele>
        <time>2012-04-15T08:12:28Z</time>
      </trkpt>
      <trkpt lat="43.45297" lon="3.49068">
        <ele>93.87</ele>
        <time>2012-04-15T08:12:31Z</time>
      </trkpt>
      <trkpt lat="43.45299" lon="3.49054">
        <ele>94.35</ele>
        <time>2012-04-15T08:12:34Z</time>
      </trkpt>
      <trkpt lat="43.45301" lon="3.49039">
        <ele>94.35</ele>
        <time>2012-04-15T08:12:37Z</time>
      </trkpt>
      <trkpt lat="43.45303" lon="3.49021">
        <ele>93.87</ele>
        <time>2012-04-15T08:12:40Z</time>
      </trkpt>
      <trkpt lat="43.45303" lon="3.49004">
        <ele>92.42</ele>
        <time>2012-04-15T08:12:43Z</time>
      </trkpt>
      <trkpt lat="43.45301" lon="3.48991">
        <ele>91.46</ele>
        <time>2012-04-15T08:12:45Z</time>
      </trkpt>
      <trkpt lat="43.45297" lon="3.48973">
        <ele>90.98</ele>
        <time>2012-04-15T08:12:48Z</time>
      </trkpt>
      <trkpt lat="43.45293" lon="3.48956">
        <ele>90.98</ele>
        <time>2012-04-15T08:12:51Z</time>
      </trkpt>
      <trkpt lat="43.45292" lon="3.48938">
        <ele>90.98</ele>
        <time>2012-04-15T08:12:54Z</time>
      </trkpt>
      <trkpt lat="43.45294" lon="3.48922">
        <ele>91.46</ele>
        <time>2012-04-15T08:12:57Z</time>
      </trkpt>
      <trkpt lat="43.45297" lon="3.48907">
        <ele>91.46</ele>
        <time>2012-04-15T08:13:00Z</time>
      </trkpt>
      <trkpt lat="43.453" lon="3.48894">
        <ele>91.94</ele>
        <time>2012-04-15T08:13:03Z</time>
      </trkpt>
      <trkpt lat="43.45299" lon="3.48879">
        <ele>92.42</ele>
        <time>2012-04-15T08:13:06Z</time>
      </trkpt>
      <trkpt lat="43.45299" lon="3.48864">
        <ele>92.42</ele>
        <time>2012-04-15T08:13:09Z</time>
      </trkpt>
      <trkpt lat="43.45298" lon="3.48849">
        <ele>91.94</ele>
        <time>2012-04-15T08:13:12Z</time>
      </trkpt>
      <trkpt lat="43.45296" lon="3.48836">
        <ele>92.42</ele>
        <time>2012-04-15T08:13:15Z</time>
      </trkpt>
      <trkpt lat="43.45292" lon="3.48823">
        <ele>92.9</ele>
        <time>2012-04-15T08:13:18Z</time>
      </trkpt>
      <trkpt lat="43.45289" lon="3.48811">
        <ele>93.87</ele>
        <time>2012-04-15T08:13:21Z</time>
      </trkpt>
      <trkpt lat="43.45286" lon="3.48799">
        <ele>93.87</ele>
        <time>2012-04-15T08:13:24Z</time>
      </trkpt>
      <trkpt lat="43.45285" lon="3.48785">
        <ele>94.35</ele>
        <time>2012-04-15T08:13:27Z</time>
      </trkpt>
      <trkpt lat="43.45284" lon="3.48771">
        <ele>94.35</ele>
        <time>2012-04-15T08:13:30Z</time>
      </trkpt>
      <trkpt lat="43.45282" lon="3.48755">
        <ele>93.39</ele>
        <time>2012-04-15T08:13:33Z</time>
      </trkpt>
      <trkpt lat="43.45279" lon="3.4874">
        <ele>93.39</ele>
        <time>2012-04-15T08:13:36Z</time>
      </trkpt>
      <trkpt lat="43.45275" lon="3.48724">
        <ele>92.9</ele>
        <time>2012-04-15T08:13:39Z</time>
      </trkpt>
      <trkpt lat="43.4527" lon="3.48708">
        <ele>92.9</ele>
        <time>2012-04-15T08:13:42Z</time>
      </trkpt>
      <trkpt lat="43.45263" lon="3.48694">
        <ele>92.9</ele>
        <time>2012-04-15T08:13:45Z</time>
      </trkpt>
      <trkpt lat="43.45258" lon="3.48681">
        <ele>92.9</ele>
        <time>2012-04-15T08:13:48Z</time>
      </trkpt>
      <trkpt lat="43.45256" lon="3.48667">
        <ele>93.87</ele>
        <time>2012-04-15T08:13:51Z</time>
      </trkpt>
      <trkpt lat="43.45254" lon="3.48655">
        <ele>94.83</ele>
        <time>2012-04-15T08:13:54Z</time>
      </trkpt>
      <trkpt lat="43.45251" lon="3.48642">
        <ele>95.31</ele>
        <time>2012-04-15T08:13:57Z</time>
      </trkpt>
      <trkpt lat="43.45247" lon="3.48631">
        <ele>95.79</ele>
        <time>2012-04-15T08:14:00Z</time>
      </trkpt>
      <trkpt lat="43.45241" lon="3.48622">
        <ele>96.27</ele>
        <time>2012-04-15T08:14:03Z</time>
      </trkpt>
      <trkpt lat="43.45234" lon="3.48613">
        <ele>96.27</ele>
        <time>2012-04-15T08:14:06Z</time>
      </trkpt>
      <trkpt lat="43.45227" lon="3.48603">
        <ele>96.27</ele>
        <time>2012-04-15T08:14:09Z</time>
      </trkpt>
      <trkpt lat="43.45219" lon="3.48593">
        <ele>96.27</ele>
        <time>2012-04-15T08:14:12Z</time>
      </trkpt>
      <trkpt lat="43.45211" lon="3.48582">
        <ele>96.27</ele>
        <time>2012-04-15T08:14:15Z</time>
      </trkpt>
      <trkpt lat="43.45201" lon="3.48573">
        <ele>96.27</ele>
        <time>2012-04-15T08:14:18Z</time>
      </trkpt>
      <trkpt lat="43.45191" lon="3.4857">
        <ele>96.27</ele>
        <time>2012-04-15T08:14:21Z</time>
      </trkpt>
      <trkpt lat="43.45179" lon="3.48568">
        <ele>96.27</ele>
        <time>2012-04-15T08:14:24Z</time>
      </trkpt>
      <trkpt lat="43.45168" lon="3.48559">
        <ele>96.75</ele>
        <time>2012-04-15T08:14:27Z</time>
      </trkpt>
      <trkpt lat="43.45162" lon="3.48547">
        <ele>96.75</ele>
        <time>2012-04-15T08:14:30Z</time>
      </trkpt>
      <trkpt lat="43.45158" lon="3.48535">
        <ele>97.23</ele>
        <time>2012-04-15T08:14:33Z</time>
      </trkpt>
      <trkpt lat="43.45153" lon="3.48523">
        <ele>97.71</ele>
        <time>2012-04-15T08:14:36Z</time>
      </trkpt>
      <trkpt lat="43.45151" lon="3.48509">
        <ele>97.71</ele>
        <time>2012-04-15T08:14:39Z</time>
      </trkpt>
      <trkpt lat="43.45149" lon="3.48496">
        <ele>97.23</ele>
        <time>2012-04-15T08:14:42Z</time>
      </trkpt>
      <trkpt lat="43.45146" lon="3.48482">
        <ele>97.71</ele>
        <time>2012-04-15T08:14:45Z</time>
      </trkpt>
      <trkpt lat="43.45142" lon="3.48469">
        <ele>97.71</ele>
        <time>2012-04-15T08:14:48Z</time>
      </trkpt>
      <trkpt lat="43.45138" lon="3.48455">
        <ele>97.71</ele>
        <time>2012-04-15T08:14:52Z</time>
      </trkpt>
      <trkpt lat="43.4513" lon="3.4845">
        <ele>97.71</ele>
        <time>2012-04-15T08:14:56Z</time>
      </trkpt>
      <trkpt lat="43.45121" lon="3.48453">
        <ele>98.19</ele>
        <time>2012-04-15T08:14:59Z</time>
      </trkpt>
      <trkpt lat="43.45111" lon="3.48456">
        <ele>97.71</ele>
        <time>2012-04-15T08:15:02Z</time>
      </trkpt>
      <trkpt lat="43.45099" lon="3.48463">
        <ele>97.23</ele>
        <time>2012-04-15T08:15:05Z</time>
      </trkpt>
      <trkpt lat="43.45091" lon="3.48469">
        <ele>96.75</ele>
        <time>2012-04-15T08:15:09Z</time>
      </trkpt>
      <trkpt lat="43.45079" lon="3.48467">
        <ele>96.75</ele>
        <time>2012-04-15T08:15:12Z</time>
      </trkpt>
      <trkpt lat="43.45071" lon="3.48462">
        <ele>96.27</ele>
        <time>2012-04-15T08:15:14Z</time>
      </trkpt>
      <trkpt lat="43.45061" lon="3.4846">
        <ele>95.79</ele>
        <time>2012-04-15T08:15:16Z</time>
      </trkpt>
      <trkpt lat="43.4505" lon="3.48459">
        <ele>95.31</ele>
        <time>2012-04-15T08:15:18Z</time>
      </trkpt>
      <trkpt lat="43.4504" lon="3.4846">
        <ele>94.83</ele>
        <time>2012-04-15T08:15:20Z</time>
      </trkpt>
      <trkpt lat="43.45028" lon="3.48465">
        <ele>93.87</ele>
        <time>2012-04-15T08:15:23Z</time>
      </trkpt>
      <trkpt lat="43.45015" lon="3.48471">
        <ele>92.42</ele>
        <time>2012-04-15T08:15:26Z</time>
      </trkpt>
      <trkpt lat="43.45007" lon="3.48479">
        <ele>90.98</ele>
        <time>2012-04-15T08:15:28Z</time>
      </trkpt>
      <trkpt lat="43.44999" lon="3.48488">
        <ele>90.5</ele>
        <time>2012-04-15T08:15:30Z</time>
      </trkpt>
      <trkpt lat="43.4499" lon="3.48497">
        <ele>90.02</ele>
        <time>2012-04-15T08:15:32Z</time>
      </trkpt>
      <trkpt lat="43.44981" lon="3.48503">
        <ele>89.54</ele>
        <time>2012-04-15T08:15:34Z</time>
      </trkpt>
      <trkpt lat="43.44971" lon="3.48502">
        <ele>89.06</ele>
        <time>2012-04-15T08:15:37Z</time>
      </trkpt>
      <trkpt lat="43.44967" lon="3.4849">
        <ele>88.1</ele>
        <time>2012-04-15T08:15:53Z</time>
      </trkpt>
      <trkpt lat="43.44963" lon="3.48477">
        <ele>88.58</ele>
        <time>2012-04-15T08:15:56Z</time>
      </trkpt>
      <trkpt lat="43.44953" lon="3.48471">
        <ele>89.06</ele>
        <time>2012-04-15T08:15:59Z</time>
      </trkpt>
      <trkpt lat="43.44943" lon="3.48473">
        <ele>89.54</ele>
        <time>2012-04-15T08:16:03Z</time>
      </trkpt>
      <trkpt lat="43.44931" lon="3.4847">
        <ele>90.5</ele>
        <time>2012-04-15T08:16:08Z</time>
      </trkpt>
      <trkpt lat="43.44921" lon="3.48463">
        <ele>90.02</ele>
        <time>2012-04-15T08:16:11Z</time>
      </trkpt>
      <trkpt lat="43.44914" lon="3.48455">
        <ele>88.58</ele>
        <time>2012-04-15T08:16:17Z</time>
      </trkpt>
      <trkpt lat="43.449" lon="3.48459">
        <ele>87.62</ele>
        <time>2012-04-15T08:16:21Z</time>
      </trkpt>
      <trkpt lat="43.4489" lon="3.48463">
        <ele>87.62</ele>
        <time>2012-04-15T08:16:23Z</time>
      </trkpt>
      <trkpt lat="43.44879" lon="3.48466">
        <ele>87.14</ele>
        <time>2012-04-15T08:16:25Z</time>
      </trkpt>
      <trkpt lat="43.44866" lon="3.48469">
        <ele>86.66</ele>
        <time>2012-04-15T08:16:27Z</time>
      </trkpt>
      <trkpt lat="43.44853" lon="3.48471">
        <ele>85.69</ele>
        <time>2012-04-15T08:16:29Z</time>
      </trkpt>
      <trkpt lat="43.44839" lon="3.48473">
        <ele>85.21</ele>
        <time>2012-04-15T08:16:31Z</time>
      </trkpt>
      <trkpt lat="43.44828" lon="3.48474">
        <ele>84.25</ele>
        <time>2012-04-15T08:16:33Z</time>
      </trkpt>
      <trkpt lat="43.44817" lon="3.48475">
        <ele>83.77</ele>
        <time>2012-04-15T08:16:35Z</time>
      </trkpt>
      <trkpt lat="43.44806" lon="3.48477">
        <ele>82.81</ele>
        <time>2012-04-15T08:16:37Z</time>
      </trkpt>
      <trkpt lat="43.44794" lon="3.48478">
        <ele>81.85</ele>
        <time>2012-04-15T08:16:39Z</time>
      </trkpt>
      <trkpt lat="43.44784" lon="3.4848">
        <ele>81.37</ele>
        <time>2012-04-15T08:16:41Z</time>
      </trkpt>
      <trkpt lat="43.44773" lon="3.48476">
        <ele>79.45</ele>
        <time>2012-04-15T08:16:44Z</time>
      </trkpt>
      <trkpt lat="43.44767" lon="3.48459">
        <ele>78.48</ele>
        <time>2012-04-15T08:16:47Z</time>
      </trkpt>
      <trkpt lat="43.44762" lon="3.48443">
        <ele>78.48</ele>
        <time>2012-04-15T08:16:50Z</time>
      </trkpt>
      <trkpt lat="43.44758" lon="3.48426">
        <ele>78</ele>
        <time>2012-04-15T08:16:53Z</time>
      </trkpt>
      <trkpt lat="43.44756" lon="3.48413">
        <ele>78</ele>
        <time>2012-04-15T08:16:56Z</time>
      </trkpt>
      <trkpt lat="43.44753" lon="3.48399">
        <ele>77.52</ele>
        <time>2012-04-15T08:16:59Z</time>
      </trkpt>
      <trkpt lat="43.4475" lon="3.48385">
        <ele>77.52</ele>
        <time>2012-04-15T08:17:02Z</time>
      </trkpt>
      <trkpt lat="43.4475" lon="3.48369">
        <ele>77.52</ele>
        <time>2012-04-15T08:17:05Z</time>
      </trkpt>
      <trkpt lat="43.44747" lon="3.48354">
        <ele>77.52</ele>
        <time>2012-04-15T08:17:08Z</time>
      </trkpt>
      <trkpt lat="43.44745" lon="3.48339">
        <ele>78</ele>
        <time>2012-04-15T08:17:11Z</time>
      </trkpt>
      <trkpt lat="43.44744" lon="3.48324">
        <ele>78.48</ele>
        <time>2012-04-15T08:17:14Z</time>
      </trkpt>
      <trkpt lat="43.44743" lon="3.48309">
        <ele>78.48</ele>
        <time>2012-04-15T08:17:17Z</time>
      </trkpt>
      <trkpt lat="43.4474" lon="3.48294">
        <ele>78.48</ele>
        <time>2012-04-15T08:17:20Z</time>
      </trkpt>
      <trkpt lat="43.44739" lon="3.4828">
        <ele>78.97</ele>
        <time>2012-04-15T08:17:23Z</time>
      </trkpt>
      <trkpt lat="43.44737" lon="3.48266">
        <ele>79.45</ele>
        <time>2012-04-15T08:17:26Z</time>
      </trkpt>
      <trkpt lat="43.44736" lon="3.48253">
        <ele>79.45</ele>
        <time>2012-04-15T08:17:29Z</time>
      </trkpt>
      <trkpt lat="43.44739" lon="3.48237">
        <ele>79.93</ele>
        <time>2012-04-15T08:17:33Z</time>
      </trkpt>
      <trkpt lat="43.44742" lon="3.48224">
        <ele>81.85</ele>
        <time>2012-04-15T08:17:38Z</time>
      </trkpt>
      <trkpt lat="43.44747" lon="3.48211">
        <ele>82.33</ele>
        <time>2012-04-15T08:17:43Z</time>
      </trkpt>
      <trkpt lat="43.44757" lon="3.48203">
        <ele>82.81</ele>
        <time>2012-04-15T08:17:48Z</time>
      </trkpt>
      <trkpt lat="43.44764" lon="3.48193">
        <ele>83.77</ele>
        <time>2012-04-15T08:17:53Z</time>
      </trkpt>
      <trkpt lat="43.4477" lon="3.48183">
        <ele>85.69</ele>
        <time>2012-04-15T08:17:59Z</time>
      </trkpt>
      <trkpt lat="43.44776" lon="3.48172">
        <ele>87.62</ele>
        <time>2012-04-15T08:18:05Z</time>
      </trkpt>
      <trkpt lat="43.44782" lon="3.4816">
        <ele>89.54</ele>
        <time>2012-04-15T08:18:11Z</time>
      </trkpt>
      <trkpt lat="43.44788" lon="3.4815">
        <ele>91.94</ele>
        <time>2012-04-15T08:18:17Z</time>
      </trkpt>
      <trkpt lat="43.44787" lon="3.48134">
        <ele>92.9</ele>
        <time>2012-04-15T08:18:22Z</time>
      </trkpt>
      <trkpt lat="43.44781" lon="3.4812">
        <ele>92.9</ele>
        <time>2012-04-15T08:18:25Z</time>
      </trkpt>
      <trkpt lat="43.4478" lon="3.48105">
        <ele>92.9</ele>
        <time>2012-04-15T08:18:28Z</time>
      </trkpt>
      <trkpt lat="43.44775" lon="3.48096">
        <ele>93.39</ele>
        <time>2012-04-15T08:18:33Z</time>
      </trkpt>
      <trkpt lat="43.44767" lon="3.48085">
        <ele>93.87</ele>
        <time>2012-04-15T08:18:37Z</time>
      </trkpt>
      <trkpt lat="43.44761" lon="3.48074">
        <ele>94.83</ele>
        <time>2012-04-15T08:18:40Z</time>
      </trkpt>
      <trkpt lat="43.44761" lon="3.48061">
        <ele>96.27</ele>
        <time>2012-04-15T08:18:44Z</time>
      </trkpt>
      <trkpt lat="43.44758" lon="3.48046">
        <ele>98.67</ele>
        <time>2012-04-15T08:18:50Z</time>
      </trkpt>
      <trkpt lat="43.44752" lon="3.48034">
        <ele>100.6</ele>
        <time>2012-04-15T08:18:55Z</time>
      </trkpt>
      <trkpt lat="43.44748" lon="3.48021">
        <ele>100.6</ele>
        <time>2012-04-15T08:18:59Z</time>
      </trkpt>
      <trkpt lat="43.44742" lon="3.48007">
        <ele>100.6</ele>
        <time>2012-04-15T08:19:03Z</time>
      </trkpt>
      <trkpt lat="43.44735" lon="3.47995">
        <ele>100.11</ele>
        <time>2012-04-15T08:19:06Z</time>
      </trkpt>
      <trkpt lat="43.44726" lon="3.47994">
        <ele>99.63</ele>
        <time>2012-04-15T08:19:09Z</time>
      </trkpt>
      <trkpt lat="43.44714" lon="3.47994">
        <ele>99.15</ele>
        <time>2012-04-15T08:19:12Z</time>
      </trkpt>
      <trkpt lat="43.44703" lon="3.47987">
        <ele>98.67</ele>
        <time>2012-04-15T08:19:15Z</time>
      </trkpt>
      <trkpt lat="43.44697" lon="3.47972">
        <ele>94.83</ele>
        <time>2012-04-15T08:19:18Z</time>
      </trkpt>
      <trkpt lat="43.44696" lon="3.47957">
        <ele>94.83</ele>
        <time>2012-04-15T08:19:21Z</time>
      </trkpt>
      <trkpt lat="43.4469" lon="3.47943">
        <ele>94.35</ele>
        <time>2012-04-15T08:19:24Z</time>
      </trkpt>
      <trkpt lat="43.44683" lon="3.47928">
        <ele>93.39</ele>
        <time>2012-04-15T08:19:27Z</time>
      </trkpt>
      <trkpt lat="43.44677" lon="3.47916">
        <ele>92.42</ele>
        <time>2012-04-15T08:19:30Z</time>
      </trkpt>
      <trkpt lat="43.4467" lon="3.47903">
        <ele>90.98</ele>
        <time>2012-04-15T08:19:33Z</time>
      </trkpt>
      <trkpt lat="43.44663" lon="3.47887">
        <ele>90.5</ele>
        <time>2012-04-15T08:19:36Z</time>
      </trkpt>
      <trkpt lat="43.44658" lon="3.47871">
        <ele>89.54</ele>
        <time>2012-04-15T08:19:39Z</time>
      </trkpt>
      <trkpt lat="43.44657" lon="3.47854">
        <ele>88.58</ele>
        <time>2012-04-15T08:19:42Z</time>
      </trkpt>
      <trkpt lat="43.44662" lon="3.47841">
        <ele>87.62</ele>
        <time>2012-04-15T08:19:45Z</time>
      </trkpt>
      <trkpt lat="43.44663" lon="3.47825">
        <ele>87.14</ele>
        <time>2012-04-15T08:19:48Z</time>
      </trkpt>
      <trkpt lat="43.44661" lon="3.47812">
        <ele>87.14</ele>
        <time>2012-04-15T08:19:51Z</time>
      </trkpt>
      <trkpt lat="43.44659" lon="3.47797">
        <ele>86.66</ele>
        <time>2012-04-15T08:19:54Z</time>
      </trkpt>
      <trkpt lat="43.4466" lon="3.47782">
        <ele>86.18</ele>
        <time>2012-04-15T08:19:57Z</time>
      </trkpt>
      <trkpt lat="43.44663" lon="3.47767">
        <ele>86.18</ele>
        <time>2012-04-15T08:20:00Z</time>
      </trkpt>
      <trkpt lat="43.44663" lon="3.47753">
        <ele>85.69</ele>
        <time>2012-04-15T08:20:03Z</time>
      </trkpt>
      <trkpt lat="43.44658" lon="3.47741">
        <ele>85.21</ele>
        <time>2012-04-15T08:20:06Z</time>
      </trkpt>
      <trkpt lat="43.44653" lon="3.4773">
        <ele>85.21</ele>
        <time>2012-04-15T08:20:09Z</time>
      </trkpt>
      <trkpt lat="43.44652" lon="3.47717">
        <ele>85.21</ele>
        <time>2012-04-15T08:20:12Z</time>
      </trkpt>
      <trkpt lat="43.44654" lon="3.47705">
        <ele>84.25</ele>
        <time>2012-04-15T08:20:15Z</time>
      </trkpt>
      <trkpt lat="43.44655" lon="3.47693">
        <ele>83.77</ele>
        <time>2012-04-15T08:20:21Z</time>
      </trkpt>
      <trkpt lat="43.44646" lon="3.47689">
        <ele>83.29</ele>
        <time>2012-04-15T08:20:26Z</time>
      </trkpt>
      <trkpt lat="43.44635" lon="3.47687">
        <ele>83.29</ele>
        <time>2012-04-15T08:20:30Z</time>
      </trkpt>
      <trkpt lat="43.44623" lon="3.47689">
        <ele>84.25</ele>
        <time>2012-04-15T08:20:34Z</time>
      </trkpt>
      <trkpt lat="43.44611" lon="3.47691">
        <ele>83.77</ele>
        <time>2012-04-15T08:20:38Z</time>
      </trkpt>
      <trkpt lat="43.44601" lon="3.47688">
        <ele>83.29</ele>
        <time>2012-04-15T08:20:42Z</time>
      </trkpt>
      <trkpt lat="43.44595" lon="3.47678">
        <ele>83.77</ele>
        <time>2012-04-15T08:20:46Z</time>
      </trkpt>
      <trkpt lat="43.4459" lon="3.47665">
        <ele>84.25</ele>
        <time>2012-04-15T08:20:51Z</time>
      </trkpt>
      <trkpt lat="43.44587" lon="3.47651">
        <ele>84.25</ele>
        <time>2012-04-15T08:20:55Z</time>
      </trkpt>
      <trkpt lat="43.44586" lon="3.47635">
        <ele>84.73</ele>
        <time>2012-04-15T08:20:59Z</time>
      </trkpt>
      <trkpt lat="43.44584" lon="3.4762">
        <ele>83.77</ele>
        <time>2012-04-15T08:21:03Z</time>
      </trkpt>
      <trkpt lat="43.44585" lon="3.47605">
        <ele>84.25</ele>
        <time>2012-04-15T08:21:07Z</time>
      </trkpt>
      <trkpt lat="43.44585" lon="3.47591">
        <ele>84.73</ele>
        <time>2012-04-15T08:21:11Z</time>
      </trkpt>
      <trkpt lat="43.44582" lon="3.47577">
        <ele>85.21</ele>
        <time>2012-04-15T08:21:15Z</time>
      </trkpt>
      <trkpt lat="43.44577" lon="3.47563">
        <ele>85.69</ele>
        <time>2012-04-15T08:21:19Z</time>
      </trkpt>
      <trkpt lat="43.44574" lon="3.47551">
        <ele>85.69</ele>
        <time>2012-04-15T08:21:22Z</time>
      </trkpt>
      <trkpt lat="43.44569" lon="3.47536">
        <ele>85.21</ele>
        <time>2012-04-15T08:21:26Z</time>
      </trkpt>
      <trkpt lat="43.44564" lon="3.47523">
        <ele>85.69</ele>
        <time>2012-04-15T08:21:30Z</time>
      </trkpt>
      <trkpt lat="43.44559" lon="3.47512">
        <ele>85.69</ele>
        <time>2012-04-15T08:21:33Z</time>
      </trkpt>
      <trkpt lat="43.44554" lon="3.47499">
        <ele>85.21</ele>
        <time>2012-04-15T08:21:36Z</time>
      </trkpt>
      <trkpt lat="43.44549" lon="3.47487">
        <ele>84.73</ele>
        <time>2012-04-15T08:21:39Z</time>
      </trkpt>
      <trkpt lat="43.44545" lon="3.47475">
        <ele>84.73</ele>
        <time>2012-04-15T08:21:42Z</time>
      </trkpt>
      <trkpt lat="43.4454" lon="3.47463">
        <ele>84.73</ele>
        <time>2012-04-15T08:21:45Z</time>
      </trkpt>
      <trkpt lat="43.44535" lon="3.47452">
        <ele>84.25</ele>
        <time>2012-04-15T08:21:48Z</time>
      </trkpt>
      <trkpt lat="43.4453" lon="3.47441">
        <ele>84.73</ele>
        <time>2012-04-15T08:21:51Z</time>
      </trkpt>
      <trkpt lat="43.44524" lon="3.47428">
        <ele>85.69</ele>
        <time>2012-04-15T08:21:55Z</time>
      </trkpt>
      <trkpt lat="43.44517" lon="3.47416">
        <ele>85.69</ele>
        <time>2012-04-15T08:21:59Z</time>
      </trkpt>
      <trkpt lat="43.44509" lon="3.47404">
        <ele>85.69</ele>
        <time>2012-04-15T08:22:03Z</time>
      </trkpt>
      <trkpt lat="43.44505" lon="3.47393">
        <ele>86.18</ele>
        <time>2012-04-15T08:22:06Z</time>
      </trkpt>
      <trkpt lat="43.44505" lon="3.47377">
        <ele>86.66</ele>
        <time>2012-04-15T08:22:10Z</time>
      </trkpt>
      <trkpt lat="43.44499" lon="3.47368">
        <ele>87.14</ele>
        <time>2012-04-15T08:22:15Z</time>
      </trkpt>
      <trkpt lat="43.44505" lon="3.47362">
        <ele>88.1</ele>
        <time>2012-04-15T08:22:21Z</time>
      </trkpt>
      <trkpt lat="43.44508" lon="3.47348">
        <ele>88.1</ele>
        <time>2012-04-15T08:22:26Z</time>
      </trkpt>
      <trkpt lat="43.44514" lon="3.47337">
        <ele>89.06</ele>
        <time>2012-04-15T08:22:31Z</time>
      </trkpt>
      <trkpt lat="43.44523" lon="3.47328">
        <ele>89.06</ele>
        <time>2012-04-15T08:22:35Z</time>
      </trkpt>
      <trkpt lat="43.44528" lon="3.47316">
        <ele>90.02</ele>
        <time>2012-04-15T08:22:39Z</time>
      </trkpt>
      <trkpt lat="43.44528" lon="3.47303">
        <ele>89.54</ele>
        <time>2012-04-15T08:22:43Z</time>
      </trkpt>
      <trkpt lat="43.44529" lon="3.47289">
        <ele>89.06</ele>
        <time>2012-04-15T08:22:47Z</time>
      </trkpt>
      <trkpt lat="43.4453" lon="3.47273">
        <ele>89.06</ele>
        <time>2012-04-15T08:22:51Z</time>
      </trkpt>
      <trkpt lat="43.44531" lon="3.4726">
        <ele>89.06</ele>
        <time>2012-04-15T08:22:54Z</time>
      </trkpt>
      <trkpt lat="43.44529" lon="3.47248">
        <ele>88.58</ele>
        <time>2012-04-15T08:22:57Z</time>
      </trkpt>
      <trkpt lat="43.44529" lon="3.47233">
        <ele>89.06</ele>
        <time>2012-04-15T08:23:00Z</time>
      </trkpt>
      <trkpt lat="43.44532" lon="3.47221">
        <ele>89.54</ele>
        <time>2012-04-15T08:23:03Z</time>
      </trkpt>
      <trkpt lat="43.44532" lon="3.47207">
        <ele>90.02</ele>
        <time>2012-04-15T08:23:06Z</time>
      </trkpt>
      <trkpt lat="43.44531" lon="3.47192">
        <ele>90.02</ele>
        <time>2012-04-15T08:23:09Z</time>
      </trkpt>
      <trkpt lat="43.44528" lon="3.47175">
        <ele>90.02</ele>
        <time>2012-04-15T08:23:12Z</time>
      </trkpt>
      <trkpt lat="43.44524" lon="3.47162">
        <ele>89.54</ele>
        <time>2012-04-15T08:23:15Z</time>
      </trkpt>
      <trkpt lat="43.4452" lon="3.47147">
        <ele>89.06</ele>
        <time>2012-04-15T08:23:18Z</time>
      </trkpt>
      <trkpt lat="43.44512" lon="3.47135">
        <ele>89.54</ele>
        <time>2012-04-15T08:23:21Z</time>
      </trkpt>
      <trkpt lat="43.4451" lon="3.4712">
        <ele>90.02</ele>
        <time>2012-04-15T08:23:24Z</time>
      </trkpt>
      <trkpt lat="43.44507" lon="3.47106">
        <ele>90.02</ele>
        <time>2012-04-15T08:23:27Z</time>
      </trkpt>
      <trkpt lat="43.44502" lon="3.47093">
        <ele>90.02</ele>
        <time>2012-04-15T08:23:30Z</time>
      </trkpt>
      <trkpt lat="43.44503" lon="3.4708">
        <ele>90.5</ele>
        <time>2012-04-15T08:23:33Z</time>
      </trkpt>
      <trkpt lat="43.44507" lon="3.47068">
        <ele>90.98</ele>
        <time>2012-04-15T08:23:36Z</time>
      </trkpt>
      <trkpt lat="43.44512" lon="3.47055">
        <ele>91.46</ele>
        <time>2012-04-15T08:23:40Z</time>
      </trkpt>
      <trkpt lat="43.44514" lon="3.47039">
        <ele>91.94</ele>
        <time>2012-04-15T08:23:44Z</time>
      </trkpt>
      <trkpt lat="43.4451" lon="3.47026">
        <ele>91.94</ele>
        <time>2012-04-15T08:23:47Z</time>
      </trkpt>
      <trkpt lat="43.44507" lon="3.47012">
        <ele>91.46</ele>
        <time>2012-04-15T08:23:50Z</time>
      </trkpt>
      <trkpt lat="43.44504" lon="3.46998">
        <ele>90.98</ele>
        <time>2012-04-15T08:23:53Z</time>
      </trkpt>
      <trkpt lat="43.44502" lon="3.46983">
        <ele>90.98</ele>
        <time>2012-04-15T08:23:56Z</time>
      </trkpt>
      <trkpt lat="43.44499" lon="3.46966">
        <ele>90.98</ele>
        <time>2012-04-15T08:24:00Z</time>
      </trkpt>
      <trkpt lat="43.44498" lon="3.46951">
        <ele>89.54</ele>
        <time>2012-04-15T08:24:03Z</time>
      </trkpt>
      <trkpt lat="43.44495" lon="3.46933">
        <ele>88.1</ele>
        <time>2012-04-15T08:24:06Z</time>
      </trkpt>
      <trkpt lat="43.44492" lon="3.46915">
        <ele>87.14</ele>
        <time>2012-04-15T08:24:09Z</time>
      </trkpt>
      <trkpt lat="43.44491" lon="3.46898">
        <ele>87.14</ele>
        <time>2012-04-15T08:24:12Z</time>
      </trkpt>
      <trkpt lat="43.44488" lon="3.46883">
        <ele>87.62</ele>
        <time>2012-04-15T08:24:16Z</time>
      </trkpt>
      <trkpt lat="43.44478" lon="3.46874">
        <ele>88.1</ele>
        <time>2012-04-15T08:24:20Z</time>
      </trkpt>
      <trkpt lat="43.44469" lon="3.46864">
        <ele>89.06</ele>
        <time>2012-04-15T08:24:23Z</time>
      </trkpt>
      <trkpt lat="43.44463" lon="3.46854">
        <ele>89.06</ele>
        <time>2012-04-15T08:24:25Z</time>
      </trkpt>
      <trkpt lat="43.44457" lon="3.46843">
        <ele>88.58</ele>
        <time>2012-04-15T08:24:27Z</time>
      </trkpt>
      <trkpt lat="43.44452" lon="3.46831">
        <ele>88.1</ele>
        <time>2012-04-15T08:24:29Z</time>
      </trkpt>
      <trkpt lat="43.44448" lon="3.46819">
        <ele>87.62</ele>
        <time>2012-04-15T08:24:31Z</time>
      </trkpt>
      <trkpt lat="43.44444" lon="3.46805">
        <ele>86.66</ele>
        <time>2012-04-15T08:24:34Z</time>
      </trkpt>
      <trkpt lat="43.4444" lon="3.4679">
        <ele>85.69</ele>
        <time>2012-04-15T08:24:37Z</time>
      </trkpt>
      <trkpt lat="43.44435" lon="3.46775">
        <ele>85.21</ele>
        <time>2012-04-15T08:24:40Z</time>
      </trkpt>
      <trkpt lat="43.44432" lon="3.4676">
        <ele>84.73</ele>
        <time>2012-04-15T08:24:43Z</time>
      </trkpt>
      <trkpt lat="43.44431" lon="3.46746">
        <ele>85.21</ele>
        <time>2012-04-15T08:24:46Z</time>
      </trkpt>
      <trkpt lat="43.44431" lon="3.46732">
        <ele>86.66</ele>
        <time>2012-04-15T08:24:50Z</time>
      </trkpt>
      <trkpt lat="43.44431" lon="3.46716">
        <ele>88.1</ele>
        <time>2012-04-15T08:24:54Z</time>
      </trkpt>
      <trkpt lat="43.44433" lon="3.46702">
        <ele>88.58</ele>
        <time>2012-04-15T08:24:57Z</time>
      </trkpt>
      <trkpt lat="43.44436" lon="3.46686">
        <ele>89.06</ele>
        <time>2012-04-15T08:25:00Z</time>
      </trkpt>
      <trkpt lat="43.44436" lon="3.4667">
        <ele>88.1</ele>
        <time>2012-04-15T08:25:03Z</time>
      </trkpt>
      <trkpt lat="43.44439" lon="3.46654">
        <ele>88.1</ele>
        <time>2012-04-15T08:25:06Z</time>
      </trkpt>
      <trkpt lat="43.44445" lon="3.46642">
        <ele>87.62</ele>
        <time>2012-04-15T08:25:09Z</time>
      </trkpt>
      <trkpt lat="43.44451" lon="3.4663">
        <ele>88.58</ele>
        <time>2012-04-15T08:25:13Z</time>
      </trkpt>
      <trkpt lat="43.44458" lon="3.46619">
        <ele>88.58</ele>
        <time>2012-04-15T08:25:17Z</time>
      </trkpt>
      <trkpt lat="43.4446" lon="3.46605">
        <ele>88.1</ele>
        <time>2012-04-15T08:25:20Z</time>
      </trkpt>
      <trkpt lat="43.44464" lon="3.46589">
        <ele>88.1</ele>
        <time>2012-04-15T08:25:23Z</time>
      </trkpt>
      <trkpt lat="43.44468" lon="3.46572">
        <ele>87.62</ele>
        <time>2012-04-15T08:25:26Z</time>
      </trkpt>
      <trkpt lat="43.44474" lon="3.46561">
        <ele>87.62</ele>
        <time>2012-04-15T08:25:29Z</time>
      </trkpt>
      <trkpt lat="43.44481" lon="3.46552">
        <ele>88.58</ele>
        <time>2012-04-15T08:25:32Z</time>
      </trkpt>
      <trkpt lat="43.44487" lon="3.46542">
        <ele>90.02</ele>
        <time>2012-04-15T08:25:36Z</time>
      </trkpt>
      <trkpt lat="43.44486" lon="3.46529">
        <ele>90.98</ele>
        <time>2012-04-15T08:25:41Z</time>
      </trkpt>
      <trkpt lat="43.44481" lon="3.46514">
        <ele>91.94</ele>
        <time>2012-04-15T08:25:45Z</time>
      </trkpt>
      <trkpt lat="43.44476" lon="3.46503">
        <ele>92.42</ele>
        <time>2012-04-15T08:25:48Z</time>
      </trkpt>
      <trkpt lat="43.44469" lon="3.46491">
        <ele>90.98</ele>
        <time>2012-04-15T08:25:52Z</time>
      </trkpt>
      <trkpt lat="43.44457" lon="3.46486">
        <ele>90.5</ele>
        <time>2012-04-15T08:25:56Z</time>
      </trkpt>
      <trkpt lat="43.44446" lon="3.46477">
        <ele>89.54</ele>
        <time>2012-04-15T08:25:59Z</time>
      </trkpt>
      <trkpt lat="43.44439" lon="3.46465">
        <ele>88.58</ele>
        <time>2012-04-15T08:26:02Z</time>
      </trkpt>
      <trkpt lat="43.44433" lon="3.46451">
        <ele>87.62</ele>
        <time>2012-04-15T08:26:05Z</time>
      </trkpt>
      <trkpt lat="43.44428" lon="3.46435">
        <ele>87.62</ele>
        <time>2012-04-15T08:26:08Z</time>
      </trkpt>
      <trkpt lat="43.44427" lon="3.46418">
        <ele>86.18</ele>
        <time>2012-04-15T08:26:11Z</time>
      </trkpt>
      <trkpt lat="43.44428" lon="3.46402">
        <ele>85.69</ele>
        <time>2012-04-15T08:26:14Z</time>
      </trkpt>
      <trkpt lat="43.44428" lon="3.46387">
        <ele>85.21</ele>
        <time>2012-04-15T08:26:17Z</time>
      </trkpt>
      <trkpt lat="43.44427" lon="3.46373">
        <ele>85.69</ele>
        <time>2012-04-15T08:26:20Z</time>
      </trkpt>
      <trkpt lat="43.44425" lon="3.4636">
        <ele>85.69</ele>
        <time>2012-04-15T08:26:23Z</time>
      </trkpt>
      <trkpt lat="43.44422" lon="3.46348">
        <ele>86.18</ele>
        <time>2012-04-15T08:26:26Z</time>
      </trkpt>
      <trkpt lat="43.44417" lon="3.46335">
        <ele>87.14</ele>
        <time>2012-04-15T08:26:29Z</time>
      </trkpt>
      <trkpt lat="43.44413" lon="3.46323">
        <ele>87.62</ele>
        <time>2012-04-15T08:26:32Z</time>
      </trkpt>
      <trkpt lat="43.44406" lon="3.4631">
        <ele>87.62</ele>
        <time>2012-04-15T08:26:35Z</time>
      </trkpt>
      <trkpt lat="43.44397" lon="3.46295">
        <ele>87.14</ele>
        <time>2012-04-15T08:26:38Z</time>
      </trkpt>
      <trkpt lat="43.44391" lon="3.46285">
        <ele>87.14</ele>
        <time>2012-04-15T08:26:40Z</time>
      </trkpt>
      <trkpt lat="43.44385" lon="3.46275">
        <ele>87.62</ele>
        <time>2012-04-15T08:26:42Z</time>
      </trkpt>
      <trkpt lat="43.4438" lon="3.46263">
        <ele>87.62</ele>
        <time>2012-04-15T08:26:44Z</time>
      </trkpt>
      <trkpt lat="43.44376" lon="3.46249">
        <ele>87.62</ele>
        <time>2012-04-15T08:26:46Z</time>
      </trkpt>
      <trkpt lat="43.44373" lon="3.46234">
        <ele>87.14</ele>
        <time>2012-04-15T08:26:48Z</time>
      </trkpt>
      <trkpt lat="43.44371" lon="3.46217">
        <ele>87.62</ele>
        <time>2012-04-15T08:26:51Z</time>
      </trkpt>
      <trkpt lat="43.44373" lon="3.46202">
        <ele>89.06</ele>
        <time>2012-04-15T08:26:55Z</time>
      </trkpt>
      <trkpt lat="43.44373" lon="3.46188">
        <ele>91.46</ele>
        <time>2012-04-15T08:27:05Z</time>
      </trkpt>
      <trkpt lat="43.44374" lon="3.46172">
        <ele>95.31</ele>
        <time>2012-04-15T08:27:10Z</time>
      </trkpt>
      <trkpt lat="43.44376" lon="3.46157">
        <ele>99.63</ele>
        <time>2012-04-15T08:27:14Z</time>
      </trkpt>
      <trkpt lat="43.4438" lon="3.46139">
        <ele>103</ele>
        <time>2012-04-15T08:27:18Z</time>
      </trkpt>
      <trkpt lat="43.44388" lon="3.46127">
        <ele>105.88</ele>
        <time>2012-04-15T08:27:22Z</time>
      </trkpt>
      <trkpt lat="43.44397" lon="3.46117">
        <ele>108.29</ele>
        <time>2012-04-15T08:27:25Z</time>
      </trkpt>
      <trkpt lat="43.44407" lon="3.46108">
        <ele>111.17</ele>
        <time>2012-04-15T08:27:28Z</time>
      </trkpt>
      <trkpt lat="43.44415" lon="3.46097">
        <ele>113.09</ele>
        <time>2012-04-15T08:27:31Z</time>
      </trkpt>
      <trkpt lat="43.4442" lon="3.46081">
        <ele>110.21</ele>
        <time>2012-04-15T08:27:34Z</time>
      </trkpt>
      <trkpt lat="43.44424" lon="3.46065">
        <ele>106.84</ele>
        <time>2012-04-15T08:27:37Z</time>
      </trkpt>
      <trkpt lat="43.44429" lon="3.46051">
        <ele>103.96</ele>
        <time>2012-04-15T08:27:40Z</time>
      </trkpt>
      <trkpt lat="43.44433" lon="3.46032">
        <ele>100.6</ele>
        <time>2012-04-15T08:27:44Z</time>
      </trkpt>
      <trkpt lat="43.44437" lon="3.46015">
        <ele>98.19</ele>
        <time>2012-04-15T08:27:47Z</time>
      </trkpt>
      <trkpt lat="43.44439" lon="3.46001">
        <ele>96.75</ele>
        <time>2012-04-15T08:27:50Z</time>
      </trkpt>
      <trkpt lat="43.44443" lon="3.45987">
        <ele>94.83</ele>
        <time>2012-04-15T08:27:53Z</time>
      </trkpt>
      <trkpt lat="43.44448" lon="3.45977">
        <ele>91.94</ele>
        <time>2012-04-15T08:27:56Z</time>
      </trkpt>
      <trkpt lat="43.44457" lon="3.45973">
        <ele>89.06</ele>
        <time>2012-04-15T08:27:59Z</time>
      </trkpt>
      <trkpt lat="43.44469" lon="3.45971">
        <ele>88.58</ele>
        <time>2012-04-15T08:28:02Z</time>
      </trkpt>
      <trkpt lat="43.4448" lon="3.45969">
        <ele>88.1</ele>
        <time>2012-04-15T08:28:05Z</time>
      </trkpt>
      <trkpt lat="43.44491" lon="3.45966">
        <ele>88.1</ele>
        <time>2012-04-15T08:28:08Z</time>
      </trkpt>
      <trkpt lat="43.44499" lon="3.45965">
        <ele>88.1</ele>
        <time>2012-04-15T08:28:15Z</time>
      </trkpt>
      <trkpt lat="43.44491" lon="3.45967">
        <ele>90.02</ele>
        <time>2012-04-15T08:28:27Z</time>
      </trkpt>
      <trkpt lat="43.44479" lon="3.45971">
        <ele>91.46</ele>
        <time>2012-04-15T08:28:32Z</time>
      </trkpt>
      <trkpt lat="43.44469" lon="3.45973">
        <ele>91.94</ele>
        <time>2012-04-15T08:28:36Z</time>
      </trkpt>
      <trkpt lat="43.44458" lon="3.45973">
        <ele>92.42</ele>
        <time>2012-04-15T08:28:40Z</time>
      </trkpt>
      <trkpt lat="43.44449" lon="3.45979">
        <ele>92.9</ele>
        <time>2012-04-15T08:28:44Z</time>
      </trkpt>
      <trkpt lat="43.44446" lon="3.4599">
        <ele>93.87</ele>
        <time>2012-04-15T08:28:48Z</time>
      </trkpt>
      <trkpt lat="43.44446" lon="3.46004">
        <ele>94.83</ele>
        <time>2012-04-15T08:28:52Z</time>
      </trkpt>
      <trkpt lat="43.44444" lon="3.4602">
        <ele>95.79</ele>
        <time>2012-04-15T08:28:56Z</time>
      </trkpt>
      <trkpt lat="43.44442" lon="3.46033">
        <ele>96.27</ele>
        <time>2012-04-15T08:28:59Z</time>
      </trkpt>
      <trkpt lat="43.4444" lon="3.46048">
        <ele>95.31</ele>
        <time>2012-04-15T08:29:02Z</time>
      </trkpt>
      <trkpt lat="43.44439" lon="3.46064">
        <ele>94.35</ele>
        <time>2012-04-15T08:29:05Z</time>
      </trkpt>
      <trkpt lat="43.44436" lon="3.46077">
        <ele>94.35</ele>
        <time>2012-04-15T08:29:08Z</time>
      </trkpt>
      <trkpt lat="43.4443" lon="3.46086">
        <ele>93.87</ele>
        <time>2012-04-15T08:29:11Z</time>
      </trkpt>
      <trkpt lat="43.44419" lon="3.46094">
        <ele>94.35</ele>
        <time>2012-04-15T08:29:15Z</time>
      </trkpt>
      <trkpt lat="43.44407" lon="3.46102">
        <ele>93.39</ele>
        <time>2012-04-15T08:29:19Z</time>
      </trkpt>
      <trkpt lat="43.444" lon="3.46114">
        <ele>94.83</ele>
        <time>2012-04-15T08:29:23Z</time>
      </trkpt>
      <trkpt lat="43.44393" lon="3.46124">
        <ele>95.31</ele>
        <time>2012-04-15T08:29:26Z</time>
      </trkpt>
      <trkpt lat="43.44388" lon="3.46137">
        <ele>95.79</ele>
        <time>2012-04-15T08:29:29Z</time>
      </trkpt>
      <trkpt lat="43.44384" lon="3.46151">
        <ele>96.27</ele>
        <time>2012-04-15T08:29:32Z</time>
      </trkpt>
      <trkpt lat="43.44379" lon="3.46164">
        <ele>96.27</ele>
        <time>2012-04-15T08:29:35Z</time>
      </trkpt>
      <trkpt lat="43.44373" lon="3.46175">
        <ele>95.79</ele>
        <time>2012-04-15T08:29:39Z</time>
      </trkpt>
      <trkpt lat="43.44367" lon="3.46167">
        <ele>95.79</ele>
        <time>2012-04-15T08:29:45Z</time>
      </trkpt>
      <trkpt lat="43.44362" lon="3.46155">
        <ele>94.35</ele>
        <time>2012-04-15T08:29:49Z</time>
      </trkpt>
      <trkpt lat="43.44356" lon="3.46143">
        <ele>91.94</ele>
        <time>2012-04-15T08:29:53Z</time>
      </trkpt>
      <trkpt lat="43.44351" lon="3.46132">
        <ele>91.46</ele>
        <time>2012-04-15T08:29:57Z</time>
      </trkpt>
      <trkpt lat="43.44346" lon="3.46116">
        <ele>88.58</ele>
        <time>2012-04-15T08:30:01Z</time>
      </trkpt>
      <trkpt lat="43.44343" lon="3.46101">
        <ele>86.18</ele>
        <time>2012-04-15T08:30:04Z</time>
      </trkpt>
      <trkpt lat="43.44337" lon="3.46088">
        <ele>84.25</ele>
        <time>2012-04-15T08:30:07Z</time>
      </trkpt>
      <trkpt lat="43.44327" lon="3.46078">
        <ele>82.81</ele>
        <time>2012-04-15T08:30:11Z</time>
      </trkpt>
      <trkpt lat="43.44319" lon="3.46066">
        <ele>81.85</ele>
        <time>2012-04-15T08:30:14Z</time>
      </trkpt>
      <trkpt lat="43.44309" lon="3.46056">
        <ele>81.37</ele>
        <time>2012-04-15T08:30:17Z</time>
      </trkpt>
      <trkpt lat="43.44298" lon="3.46047">
        <ele>80.89</ele>
        <time>2012-04-15T08:30:20Z</time>
      </trkpt>
      <trkpt lat="43.4429" lon="3.46041">
        <ele>80.41</ele>
        <time>2012-04-15T08:30:23Z</time>
      </trkpt>
      <trkpt lat="43.44283" lon="3.46032">
        <ele>80.41</ele>
        <time>2012-04-15T08:30:27Z</time>
      </trkpt>
      <trkpt lat="43.44275" lon="3.4602">
        <ele>82.33</ele>
        <time>2012-04-15T08:30:31Z</time>
      </trkpt>
      <trkpt lat="43.44264" lon="3.46006">
        <ele>82.81</ele>
        <time>2012-04-15T08:30:34Z</time>
      </trkpt>
      <trkpt lat="43.44253" lon="3.45997">
        <ele>82.81</ele>
        <time>2012-04-15T08:30:36Z</time>
      </trkpt>
      <trkpt lat="43.44242" lon="3.45991">
        <ele>82.81</ele>
        <time>2012-04-15T08:30:38Z</time>
      </trkpt>
      <trkpt lat="43.44233" lon="3.45985">
        <ele>83.77</ele>
        <time>2012-04-15T08:30:40Z</time>
      </trkpt>
      <trkpt lat="43.44222" lon="3.45979">
        <ele>84.73</ele>
        <time>2012-04-15T08:30:42Z</time>
      </trkpt>
      <trkpt lat="43.44213" lon="3.45972">
        <ele>85.21</ele>
        <time>2012-04-15T08:30:44Z</time>
      </trkpt>
      <trkpt lat="43.44203" lon="3.45962">
        <ele>84.25</ele>
        <time>2012-04-15T08:30:46Z</time>
      </trkpt>
      <trkpt lat="43.44189" lon="3.45955">
        <ele>84.25</ele>
        <time>2012-04-15T08:30:52Z</time>
      </trkpt>
      <trkpt lat="43.44185" lon="3.45943">
        <ele>83.29</ele>
        <time>2012-04-15T08:30:56Z</time>
      </trkpt>
      <trkpt lat="43.44179" lon="3.45929">
        <ele>81.85</ele>
        <time>2012-04-15T08:30:59Z</time>
      </trkpt>
      <trkpt lat="43.44172" lon="3.45915">
        <ele>81.85</ele>
        <time>2012-04-15T08:31:02Z</time>
      </trkpt>
      <trkpt lat="43.44164" lon="3.45903">
        <ele>81.37</ele>
        <time>2012-04-15T08:31:05Z</time>
      </trkpt>
      <trkpt lat="43.44155" lon="3.4589">
        <ele>80.41</ele>
        <time>2012-04-15T08:31:08Z</time>
      </trkpt>
      <trkpt lat="43.44148" lon="3.45875">
        <ele>78.48</ele>
        <time>2012-04-15T08:31:11Z</time>
      </trkpt>
      <trkpt lat="43.44135" lon="3.45864">
        <ele>77.04</ele>
        <time>2012-04-15T08:31:14Z</time>
      </trkpt>
      <trkpt lat="43.44126" lon="3.45854">
        <ele>75.6</ele>
        <time>2012-04-15T08:31:16Z</time>
      </trkpt>
      <trkpt lat="43.44119" lon="3.45842">
        <ele>74.16</ele>
        <time>2012-04-15T08:31:18Z</time>
      </trkpt>
      <trkpt lat="43.44112" lon="3.45828">
        <ele>73.2</ele>
        <time>2012-04-15T08:31:20Z</time>
      </trkpt>
      <trkpt lat="43.44106" lon="3.45813">
        <ele>72.24</ele>
        <time>2012-04-15T08:31:22Z</time>
      </trkpt>
      <trkpt lat="43.441" lon="3.45798">
        <ele>70.31</ele>
        <time>2012-04-15T08:31:24Z</time>
      </trkpt>
      <trkpt lat="43.44094" lon="3.45782">
        <ele>69.83</ele>
        <time>2012-04-15T08:31:26Z</time>
      </trkpt>
      <trkpt lat="43.44089" lon="3.45768">
        <ele>69.83</ele>
        <time>2012-04-15T08:31:28Z</time>
      </trkpt>
      <trkpt lat="43.44083" lon="3.45756">
        <ele>69.35</ele>
        <time>2012-04-15T08:31:30Z</time>
      </trkpt>
      <trkpt lat="43.44078" lon="3.45745">
        <ele>68.87</ele>
        <time>2012-04-15T08:31:32Z</time>
      </trkpt>
      <trkpt lat="43.44072" lon="3.45729">
        <ele>68.39</ele>
        <time>2012-04-15T08:31:35Z</time>
      </trkpt>
      <trkpt lat="43.44068" lon="3.45717">
        <ele>68.39</ele>
        <time>2012-04-15T08:31:37Z</time>
      </trkpt>
      <trkpt lat="43.44065" lon="3.45705">
        <ele>67.91</ele>
        <time>2012-04-15T08:31:39Z</time>
      </trkpt>
      <trkpt lat="43.44062" lon="3.4569">
        <ele>67.43</ele>
        <time>2012-04-15T08:31:42Z</time>
      </trkpt>
      <trkpt lat="43.4406" lon="3.45676">
        <ele>65.51</ele>
        <time>2012-04-15T08:31:46Z</time>
      </trkpt>
      <trkpt lat="43.44056" lon="3.45672">
        <ele>64.55</ele>
        <time>2012-04-15T08:32:47Z</time>
      </trkpt>
      <trkpt lat="43.44059" lon="3.45677">
        <ele>64.07</ele>
        <time>2012-04-15T08:32:51Z</time>
      </trkpt>
      <trkpt lat="43.44066" lon="3.45668">
        <ele>64.55</ele>
        <time>2012-04-15T08:32:57Z</time>
      </trkpt>
      <trkpt lat="43.44073" lon="3.45661">
        <ele>64.55</ele>
        <time>2012-04-15T08:33:02Z</time>
      </trkpt>
      <trkpt lat="43.44079" lon="3.45654">
        <ele>64.55</ele>
        <time>2012-04-15T08:33:07Z</time>
      </trkpt>
      <trkpt lat="43.44083" lon="3.4564">
        <ele>65.03</ele>
        <time>2012-04-15T08:33:11Z</time>
      </trkpt>
      <trkpt lat="43.44092" lon="3.45629">
        <ele>65.03</ele>
        <time>2012-04-15T08:33:14Z</time>
      </trkpt>
      <trkpt lat="43.44096" lon="3.45615">
        <ele>65.03</ele>
        <time>2012-04-15T08:33:17Z</time>
      </trkpt>
      <trkpt lat="43.44103" lon="3.45601">
        <ele>65.51</ele>
        <time>2012-04-15T08:33:20Z</time>
      </trkpt>
      <trkpt lat="43.44109" lon="3.45589">
        <ele>65.51</ele>
        <time>2012-04-15T08:33:22Z</time>
      </trkpt>
      <trkpt lat="43.44115" lon="3.45573">
        <ele>65.51</ele>
        <time>2012-04-15T08:33:24Z</time>
      </trkpt>
      <trkpt lat="43.44123" lon="3.45556">
        <ele>65.51</ele>
        <time>2012-04-15T08:33:26Z</time>
      </trkpt>
      <trkpt lat="43.44131" lon="3.45539">
        <ele>65.03</ele>
        <time>2012-04-15T08:33:28Z</time>
      </trkpt>
      <trkpt lat="43.44139" lon="3.45523">
        <ele>65.03</ele>
        <time>2012-04-15T08:33:30Z</time>
      </trkpt>
      <trkpt lat="43.44146" lon="3.45511">
        <ele>64.55</ele>
        <time>2012-04-15T08:33:32Z</time>
      </trkpt>
      <trkpt lat="43.44151" lon="3.45495">
        <ele>62.62</ele>
        <time>2012-04-15T08:33:35Z</time>
      </trkpt>
      <trkpt lat="43.44154" lon="3.45482">
        <ele>61.66</ele>
        <time>2012-04-15T08:33:39Z</time>
      </trkpt>
      <trkpt lat="43.44162" lon="3.45475">
        <ele>61.66</ele>
        <time>2012-04-15T08:33:42Z</time>
      </trkpt>
      <trkpt lat="43.44167" lon="3.45462">
        <ele>62.14</ele>
        <time>2012-04-15T08:33:45Z</time>
      </trkpt>
      <trkpt lat="43.44169" lon="3.45448">
        <ele>62.14</ele>
        <time>2012-04-15T08:33:48Z</time>
      </trkpt>
      <trkpt lat="43.44171" lon="3.45434">
        <ele>61.66</ele>
        <time>2012-04-15T08:33:51Z</time>
      </trkpt>
      <trkpt lat="43.44173" lon="3.45422">
        <ele>60.7</ele>
        <time>2012-04-15T08:33:54Z</time>
      </trkpt>
      <trkpt lat="43.44176" lon="3.45408">
        <ele>60.22</ele>
        <time>2012-04-15T08:33:58Z</time>
      </trkpt>
      <trkpt lat="43.44179" lon="3.45396">
        <ele>62.14</ele>
        <time>2012-04-15T08:34:02Z</time>
      </trkpt>
      <trkpt lat="43.44186" lon="3.45383">
        <ele>65.03</ele>
        <time>2012-04-15T08:34:07Z</time>
      </trkpt>
      <trkpt lat="43.44192" lon="3.4537">
        <ele>68.87</ele>
        <time>2012-04-15T08:34:12Z</time>
      </trkpt>
      <trkpt lat="43.44198" lon="3.45359">
        <ele>72.24</ele>
        <time>2012-04-15T08:34:17Z</time>
      </trkpt>
      <trkpt lat="43.44206" lon="3.45347">
        <ele>74.16</ele>
        <time>2012-04-15T08:34:22Z</time>
      </trkpt>
      <trkpt lat="43.44213" lon="3.45334">
        <ele>74.16</ele>
        <time>2012-04-15T08:34:27Z</time>
      </trkpt>
      <trkpt lat="43.44221" lon="3.45318">
        <ele>73.2</ele>
        <time>2012-04-15T08:34:32Z</time>
      </trkpt>
      <trkpt lat="43.44228" lon="3.45307">
        <ele>73.2</ele>
        <time>2012-04-15T08:34:36Z</time>
      </trkpt>
      <trkpt lat="43.44233" lon="3.45297">
        <ele>73.68</ele>
        <time>2012-04-15T08:34:40Z</time>
      </trkpt>
      <trkpt lat="43.44239" lon="3.45286">
        <ele>74.16</ele>
        <time>2012-04-15T08:34:44Z</time>
      </trkpt>
      <trkpt lat="43.44246" lon="3.45275">
        <ele>74.64</ele>
        <time>2012-04-15T08:34:48Z</time>
      </trkpt>
      <trkpt lat="43.44253" lon="3.45261">
        <ele>74.64</ele>
        <time>2012-04-15T08:34:53Z</time>
      </trkpt>
      <trkpt lat="43.44259" lon="3.4525">
        <ele>75.12</ele>
        <time>2012-04-15T08:34:57Z</time>
      </trkpt>
      <trkpt lat="43.44266" lon="3.45236">
        <ele>75.12</ele>
        <time>2012-04-15T08:35:02Z</time>
      </trkpt>
      <trkpt lat="43.44273" lon="3.45222">
        <ele>73.68</ele>
        <time>2012-04-15T08:35:06Z</time>
      </trkpt>
      <trkpt lat="43.44278" lon="3.45209">
        <ele>71.76</ele>
        <time>2012-04-15T08:35:10Z</time>
      </trkpt>
      <trkpt lat="43.44284" lon="3.45196">
        <ele>70.31</ele>
        <time>2012-04-15T08:35:14Z</time>
      </trkpt>
      <trkpt lat="43.44296" lon="3.45192">
        <ele>68.39</ele>
        <time>2012-04-15T08:35:18Z</time>
      </trkpt>
      <trkpt lat="43.44307" lon="3.45195">
        <ele>67.91</ele>
        <time>2012-04-15T08:35:22Z</time>
      </trkpt>
      <trkpt lat="43.44316" lon="3.45194">
        <ele>68.39</ele>
        <time>2012-04-15T08:35:26Z</time>
      </trkpt>
      <trkpt lat="43.44327" lon="3.45193">
        <ele>68.87</ele>
        <time>2012-04-15T08:35:30Z</time>
      </trkpt>
      <trkpt lat="43.44336" lon="3.45192">
        <ele>69.35</ele>
        <time>2012-04-15T08:35:34Z</time>
      </trkpt>
      <trkpt lat="43.44346" lon="3.45191">
        <ele>70.31</ele>
        <time>2012-04-15T08:35:39Z</time>
      </trkpt>
      <trkpt lat="43.44355" lon="3.45188">
        <ele>70.79</ele>
        <time>2012-04-15T08:35:44Z</time>
      </trkpt>
      <trkpt lat="43.44365" lon="3.45183">
        <ele>71.27</ele>
        <time>2012-04-15T08:35:49Z</time>
      </trkpt>
      <trkpt lat="43.44374" lon="3.45178">
        <ele>71.76</ele>
        <time>2012-04-15T08:35:54Z</time>
      </trkpt>
      <trkpt lat="43.44382" lon="3.45173">
        <ele>72.24</ele>
        <time>2012-04-15T08:35:59Z</time>
      </trkpt>
      <trkpt lat="43.44392" lon="3.45165">
        <ele>72.24</ele>
        <time>2012-04-15T08:36:04Z</time>
      </trkpt>
      <trkpt lat="43.444" lon="3.45156">
        <ele>72.24</ele>
        <time>2012-04-15T08:36:08Z</time>
      </trkpt>
      <trkpt lat="43.44407" lon="3.45147">
        <ele>72.24</ele>
        <time>2012-04-15T08:36:12Z</time>
      </trkpt>
      <trkpt lat="43.44414" lon="3.45137">
        <ele>72.24</ele>
        <time>2012-04-15T08:36:16Z</time>
      </trkpt>
      <trkpt lat="43.44422" lon="3.45126">
        <ele>72.24</ele>
        <time>2012-04-15T08:36:20Z</time>
      </trkpt>
      <trkpt lat="43.4443" lon="3.45122">
        <ele>72.72</ele>
        <time>2012-04-15T08:36:23Z</time>
      </trkpt>
      <trkpt lat="43.4444" lon="3.4512">
        <ele>72.72</ele>
        <time>2012-04-15T08:36:26Z</time>
      </trkpt>
      <trkpt lat="43.44451" lon="3.45115">
        <ele>72.24</ele>
        <time>2012-04-15T08:36:29Z</time>
      </trkpt>
      <trkpt lat="43.44463" lon="3.45108">
        <ele>71.27</ele>
        <time>2012-04-15T08:36:32Z</time>
      </trkpt>
      <trkpt lat="43.44471" lon="3.45104">
        <ele>70.79</ele>
        <time>2012-04-15T08:36:34Z</time>
      </trkpt>
      <trkpt lat="43.44484" lon="3.45097">
        <ele>70.79</ele>
        <time>2012-04-15T08:36:37Z</time>
      </trkpt>
      <trkpt lat="43.44495" lon="3.4509">
        <ele>70.79</ele>
        <time>2012-04-15T08:36:40Z</time>
      </trkpt>
      <trkpt lat="43.44505" lon="3.45083">
        <ele>71.27</ele>
        <time>2012-04-15T08:36:43Z</time>
      </trkpt>
      <trkpt lat="43.44515" lon="3.45081">
        <ele>72.72</ele>
        <time>2012-04-15T08:36:48Z</time>
      </trkpt>
      <trkpt lat="43.44522" lon="3.45069">
        <ele>73.2</ele>
        <time>2012-04-15T08:36:53Z</time>
      </trkpt>
      <trkpt lat="43.44522" lon="3.45055">
        <ele>73.68</ele>
        <time>2012-04-15T08:36:58Z</time>
      </trkpt>
      <trkpt lat="43.44524" lon="3.45044">
        <ele>73.2</ele>
        <time>2012-04-15T08:37:01Z</time>
      </trkpt>
      <trkpt lat="43.44534" lon="3.45034">
        <ele>72.24</ele>
        <time>2012-04-15T08:37:04Z</time>
      </trkpt>
      <trkpt lat="43.44545" lon="3.45027">
        <ele>70.79</ele>
        <time>2012-04-15T08:37:07Z</time>
      </trkpt>
      <trkpt lat="43.44556" lon="3.45025">
        <ele>70.31</ele>
        <time>2012-04-15T08:37:10Z</time>
      </trkpt>
      <trkpt lat="43.44567" lon="3.45025">
        <ele>69.83</ele>
        <time>2012-04-15T08:37:13Z</time>
      </trkpt>
      <trkpt lat="43.44579" lon="3.4503">
        <ele>68.39</ele>
        <time>2012-04-15T08:37:16Z</time>
      </trkpt>
      <trkpt lat="43.4459" lon="3.45029">
        <ele>67.91</ele>
        <time>2012-04-15T08:37:19Z</time>
      </trkpt>
      <trkpt lat="43.44602" lon="3.45028">
        <ele>65.99</ele>
        <time>2012-04-15T08:37:22Z</time>
      </trkpt>
      <trkpt lat="43.44613" lon="3.45028">
        <ele>65.03</ele>
        <time>2012-04-15T08:37:24Z</time>
      </trkpt>
      <trkpt lat="43.44625" lon="3.45028">
        <ele>64.07</ele>
        <time>2012-04-15T08:37:26Z</time>
      </trkpt>
      <trkpt lat="43.44637" lon="3.45024">
        <ele>62.62</ele>
        <time>2012-04-15T08:37:29Z</time>
      </trkpt>
      <trkpt lat="43.44644" lon="3.45013">
        <ele>62.14</ele>
        <time>2012-04-15T08:37:32Z</time>
      </trkpt>
      <trkpt lat="43.44649" lon="3.45002">
        <ele>62.14</ele>
        <time>2012-04-15T08:37:35Z</time>
      </trkpt>
      <trkpt lat="43.44655" lon="3.4499">
        <ele>61.66</ele>
        <time>2012-04-15T08:37:38Z</time>
      </trkpt>
      <trkpt lat="43.4466" lon="3.44978">
        <ele>62.14</ele>
        <time>2012-04-15T08:37:41Z</time>
      </trkpt>
      <trkpt lat="43.44666" lon="3.44966">
        <ele>63.1</ele>
        <time>2012-04-15T08:37:44Z</time>
      </trkpt>
      <trkpt lat="43.44672" lon="3.44954">
        <ele>63.1</ele>
        <time>2012-04-15T08:37:47Z</time>
      </trkpt>
      <trkpt lat="43.44677" lon="3.44941">
        <ele>63.58</ele>
        <time>2012-04-15T08:37:50Z</time>
      </trkpt>
      <trkpt lat="43.44678" lon="3.44925">
        <ele>63.58</ele>
        <time>2012-04-15T08:37:53Z</time>
      </trkpt>
      <trkpt lat="43.44676" lon="3.44907">
        <ele>63.1</ele>
        <time>2012-04-15T08:37:56Z</time>
      </trkpt>
      <trkpt lat="43.44675" lon="3.44889">
        <ele>62.14</ele>
        <time>2012-04-15T08:37:59Z</time>
      </trkpt>
      <trkpt lat="43.44681" lon="3.44873">
        <ele>61.18</ele>
        <time>2012-04-15T08:38:02Z</time>
      </trkpt>
      <trkpt lat="43.44687" lon="3.44857">
        <ele>61.18</ele>
        <time>2012-04-15T08:38:05Z</time>
      </trkpt>
      <trkpt lat="43.44693" lon="3.44843">
        <ele>61.66</ele>
        <time>2012-04-15T08:38:08Z</time>
      </trkpt>
      <trkpt lat="43.44698" lon="3.44827">
        <ele>62.14</ele>
        <time>2012-04-15T08:38:11Z</time>
      </trkpt>
      <trkpt lat="43.44703" lon="3.44812">
        <ele>63.1</ele>
        <time>2012-04-15T08:38:14Z</time>
      </trkpt>
      <trkpt lat="43.44706" lon="3.44796">
        <ele>64.07</ele>
        <time>2012-04-15T08:38:17Z</time>
      </trkpt>
      <trkpt lat="43.44708" lon="3.44781">
        <ele>65.03</ele>
        <time>2012-04-15T08:38:20Z</time>
      </trkpt>
      <trkpt lat="43.44711" lon="3.44768">
        <ele>65.99</ele>
        <time>2012-04-15T08:38:23Z</time>
      </trkpt>
      <trkpt lat="43.44713" lon="3.44755">
        <ele>66.95</ele>
        <time>2012-04-15T08:38:26Z</time>
      </trkpt>
      <trkpt lat="43.44714" lon="3.44739">
        <ele>67.43</ele>
        <time>2012-04-15T08:38:30Z</time>
      </trkpt>
      <trkpt lat="43.44717" lon="3.44724">
        <ele>67.43</ele>
        <time>2012-04-15T08:38:34Z</time>
      </trkpt>
      <trkpt lat="43.44724" lon="3.44716">
        <ele>67.91</ele>
        <time>2012-04-15T08:38:38Z</time>
      </trkpt>
      <trkpt lat="43.44732" lon="3.44707">
        <ele>69.83</ele>
        <time>2012-04-15T08:38:45Z</time>
      </trkpt>
      <trkpt lat="43.44738" lon="3.44697">
        <ele>71.27</ele>
        <time>2012-04-15T08:38:51Z</time>
      </trkpt>
      <trkpt lat="43.44743" lon="3.44685">
        <ele>72.24</ele>
        <time>2012-04-15T08:38:57Z</time>
      </trkpt>
      <trkpt lat="43.44747" lon="3.44672">
        <ele>73.2</ele>
        <time>2012-04-15T08:39:03Z</time>
      </trkpt>
      <trkpt lat="43.44749" lon="3.44657">
        <ele>74.64</ele>
        <time>2012-04-15T08:39:09Z</time>
      </trkpt>
      <trkpt lat="43.44752" lon="3.44644">
        <ele>77.04</ele>
        <time>2012-04-15T08:39:15Z</time>
      </trkpt>
      <trkpt lat="43.44754" lon="3.44629">
        <ele>78.48</ele>
        <time>2012-04-15T08:39:21Z</time>
      </trkpt>
      <trkpt lat="43.4476" lon="3.4462">
        <ele>78.97</ele>
        <time>2012-04-15T08:39:25Z</time>
      </trkpt>
      <trkpt lat="43.44768" lon="3.44607">
        <ele>78.97</ele>
        <time>2012-04-15T08:39:30Z</time>
      </trkpt>
      <trkpt lat="43.44767" lon="3.44594">
        <ele>78.97</ele>
        <time>2012-04-15T08:39:35Z</time>
      </trkpt>
      <trkpt lat="43.44764" lon="3.44583">
        <ele>78</ele>
        <time>2012-04-15T08:39:40Z</time>
      </trkpt>
      <trkpt lat="43.44757" lon="3.44574">
        <ele>77.52</ele>
        <time>2012-04-15T08:39:46Z</time>
      </trkpt>
      <trkpt lat="43.44754" lon="3.44562">
        <ele>76.08</ele>
        <time>2012-04-15T08:39:52Z</time>
      </trkpt>
      <trkpt lat="43.4476" lon="3.44553">
        <ele>75.6</ele>
        <time>2012-04-15T08:39:57Z</time>
      </trkpt>
      <trkpt lat="43.44764" lon="3.4454">
        <ele>74.16</ele>
        <time>2012-04-15T08:40:01Z</time>
      </trkpt>
      <trkpt lat="43.44766" lon="3.44527">
        <ele>72.24</ele>
        <time>2012-04-15T08:40:03Z</time>
      </trkpt>
      <trkpt lat="43.44767" lon="3.44513">
        <ele>70.31</ele>
        <time>2012-04-15T08:40:05Z</time>
      </trkpt>
      <trkpt lat="43.44769" lon="3.44496">
        <ele>67.91</ele>
        <time>2012-04-15T08:40:08Z</time>
      </trkpt>
      <trkpt lat="43.44769" lon="3.44478">
        <ele>65.99</ele>
        <time>2012-04-15T08:40:11Z</time>
      </trkpt>
      <trkpt lat="43.44772" lon="3.44463">
        <ele>64.07</ele>
        <time>2012-04-15T08:40:14Z</time>
      </trkpt>
      <trkpt lat="43.44774" lon="3.4445">
        <ele>62.14</ele>
        <time>2012-04-15T08:40:16Z</time>
      </trkpt>
      <trkpt lat="43.44775" lon="3.44435">
        <ele>59.26</ele>
        <time>2012-04-15T08:40:19Z</time>
      </trkpt>
      <trkpt lat="43.4478" lon="3.44417">
        <ele>55.89</ele>
        <time>2012-04-15T08:40:22Z</time>
      </trkpt>
      <trkpt lat="43.44785" lon="3.44405">
        <ele>53.49</ele>
        <time>2012-04-15T08:40:24Z</time>
      </trkpt>
      <trkpt lat="43.44796" lon="3.44397">
        <ele>50.13</ele>
        <time>2012-04-15T08:40:27Z</time>
      </trkpt>
      <trkpt lat="43.44805" lon="3.44387">
        <ele>47.72</ele>
        <time>2012-04-15T08:40:30Z</time>
      </trkpt>
      <trkpt lat="43.4481" lon="3.44377">
        <ele>45.8</ele>
        <time>2012-04-15T08:40:32Z</time>
      </trkpt>
      <trkpt lat="43.44819" lon="3.44367">
        <ele>43.88</ele>
        <time>2012-04-15T08:40:35Z</time>
      </trkpt>
      <trkpt lat="43.44826" lon="3.44359">
        <ele>40.51</ele>
        <time>2012-04-15T08:40:40Z</time>
      </trkpt>
      <trkpt lat="43.44827" lon="3.4435">
        <ele>37.63</ele>
        <time>2012-04-15T08:41:21Z</time>
      </trkpt>
      <trkpt lat="43.44826" lon="3.44335">
        <ele>35.71</ele>
        <time>2012-04-15T08:41:26Z</time>
      </trkpt>
      <trkpt lat="43.44825" lon="3.4432">
        <ele>34.26</ele>
        <time>2012-04-15T08:41:29Z</time>
      </trkpt>
      <trkpt lat="43.44828" lon="3.44306">
        <ele>31.86</ele>
        <time>2012-04-15T08:41:32Z</time>
      </trkpt>
      <trkpt lat="43.44831" lon="3.44294">
        <ele>28.5</ele>
        <time>2012-04-15T08:41:36Z</time>
      </trkpt>
      <trkpt lat="43.44838" lon="3.44287">
        <ele>24.17</ele>
        <time>2012-04-15T08:41:53Z</time>
      </trkpt>
      <trkpt lat="43.44844" lon="3.44274">
        <ele>22.25</ele>
        <time>2012-04-15T08:41:57Z</time>
      </trkpt>
      <trkpt lat="43.44852" lon="3.44263">
        <ele>21.29</ele>
        <time>2012-04-15T08:42:00Z</time>
      </trkpt>
      <trkpt lat="43.44859" lon="3.44254">
        <ele>20.32</ele>
        <time>2012-04-15T08:42:02Z</time>
      </trkpt>
      <trkpt lat="43.44867" lon="3.44246">
        <ele>19.84</ele>
        <time>2012-04-15T08:42:04Z</time>
      </trkpt>
      <trkpt lat="43.44873" lon="3.44235">
        <ele>18.88</ele>
        <time>2012-04-15T08:42:07Z</time>
      </trkpt>
      <trkpt lat="43.44879" lon="3.44235">
        <ele>18.4</ele>
        <time>2012-04-15T08:42:13Z</time>
      </trkpt>
      <trkpt lat="43.44887" lon="3.44245">
        <ele>18.4</ele>
        <time>2012-04-15T08:42:16Z</time>
      </trkpt>
      <trkpt lat="43.44896" lon="3.44257">
        <ele>19.36</ele>
        <time>2012-04-15T08:42:19Z</time>
      </trkpt>
      <trkpt lat="43.44902" lon="3.44265">
        <ele>19.84</ele>
        <time>2012-04-15T08:42:21Z</time>
      </trkpt>
      <trkpt lat="43.44912" lon="3.44279">
        <ele>20.32</ele>
        <time>2012-04-15T08:42:24Z</time>
      </trkpt>
      <trkpt lat="43.44921" lon="3.44292">
        <ele>20.81</ele>
        <time>2012-04-15T08:42:27Z</time>
      </trkpt>
      <trkpt lat="43.44928" lon="3.44302">
        <ele>21.29</ele>
        <time>2012-04-15T08:42:29Z</time>
      </trkpt>
      <trkpt lat="43.44934" lon="3.44311">
        <ele>21.29</ele>
        <time>2012-04-15T08:42:31Z</time>
      </trkpt>
      <trkpt lat="43.44944" lon="3.44324">
        <ele>22.25</ele>
        <time>2012-04-15T08:42:34Z</time>
      </trkpt>
      <trkpt lat="43.44954" lon="3.44333">
        <ele>23.21</ele>
        <time>2012-04-15T08:42:37Z</time>
      </trkpt>
      <trkpt lat="43.44963" lon="3.44339">
        <ele>24.17</ele>
        <time>2012-04-15T08:42:40Z</time>
      </trkpt>
      <trkpt lat="43.44973" lon="3.44345">
        <ele>25.61</ele>
        <time>2012-04-15T08:42:43Z</time>
      </trkpt>
      <trkpt lat="43.44983" lon="3.44356">
        <ele>27.05</ele>
        <time>2012-04-15T08:42:46Z</time>
      </trkpt>
      <trkpt lat="43.44992" lon="3.44368">
        <ele>28.5</ele>
        <time>2012-04-15T08:42:49Z</time>
      </trkpt>
      <trkpt lat="43.44999" lon="3.44379">
        <ele>29.94</ele>
        <time>2012-04-15T08:42:52Z</time>
      </trkpt>
      <trkpt lat="43.45007" lon="3.44389">
        <ele>31.38</ele>
        <time>2012-04-15T08:42:55Z</time>
      </trkpt>
      <trkpt lat="43.45017" lon="3.44399">
        <ele>33.3</ele>
        <time>2012-04-15T08:42:58Z</time>
      </trkpt>
      <trkpt lat="43.45026" lon="3.44412">
        <ele>34.74</ele>
        <time>2012-04-15T08:43:01Z</time>
      </trkpt>
      <trkpt lat="43.45036" lon="3.44421">
        <ele>36.19</ele>
        <time>2012-04-15T08:43:04Z</time>
      </trkpt>
      <trkpt lat="43.45046" lon="3.4443">
        <ele>38.11</ele>
        <time>2012-04-15T08:43:07Z</time>
      </trkpt>
      <trkpt lat="43.45056" lon="3.44439">
        <ele>39.55</ele>
        <time>2012-04-15T08:43:10Z</time>
      </trkpt>
      <trkpt lat="43.45067" lon="3.44447">
        <ele>40.51</ele>
        <time>2012-04-15T08:43:13Z</time>
      </trkpt>
      <trkpt lat="43.45078" lon="3.44454">
        <ele>41.47</ele>
        <time>2012-04-15T08:43:16Z</time>
      </trkpt>
      <trkpt lat="43.45088" lon="3.4446">
        <ele>42.92</ele>
        <time>2012-04-15T08:43:19Z</time>
      </trkpt>
      <trkpt lat="43.45098" lon="3.44468">
        <ele>44.36</ele>
        <time>2012-04-15T08:43:22Z</time>
      </trkpt>
      <trkpt lat="43.45109" lon="3.44476">
        <ele>45.8</ele>
        <time>2012-04-15T08:43:25Z</time>
      </trkpt>
      <trkpt lat="43.45118" lon="3.44487">
        <ele>45.32</ele>
        <time>2012-04-15T08:43:28Z</time>
      </trkpt>
      <trkpt lat="43.4513" lon="3.44494">
        <ele>43.4</ele>
        <time>2012-04-15T08:43:31Z</time>
      </trkpt>
      <trkpt lat="43.45143" lon="3.44497">
        <ele>41.95</ele>
        <time>2012-04-15T08:43:34Z</time>
      </trkpt>
      <trkpt lat="43.45157" lon="3.44497">
        <ele>40.99</ele>
        <time>2012-04-15T08:43:37Z</time>
      </trkpt>
      <trkpt lat="43.4517" lon="3.44498">
        <ele>40.51</ele>
        <time>2012-04-15T08:43:40Z</time>
      </trkpt>
      <trkpt lat="43.45182" lon="3.44499">
        <ele>39.55</ele>
        <time>2012-04-15T08:43:43Z</time>
      </trkpt>
      <trkpt lat="43.45195" lon="3.44499">
        <ele>39.55</ele>
        <time>2012-04-15T08:43:46Z</time>
      </trkpt>
      <trkpt lat="43.45209" lon="3.44497">
        <ele>39.07</ele>
        <time>2012-04-15T08:43:49Z</time>
      </trkpt>
      <trkpt lat="43.45222" lon="3.44495">
        <ele>39.07</ele>
        <time>2012-04-15T08:43:52Z</time>
      </trkpt>
      <trkpt lat="43.45234" lon="3.44494">
        <ele>38.59</ele>
        <time>2012-04-15T08:43:55Z</time>
      </trkpt>
      <trkpt lat="43.45247" lon="3.44495">
        <ele>38.11</ele>
        <time>2012-04-15T08:43:58Z</time>
      </trkpt>
      <trkpt lat="43.4526" lon="3.44496">
        <ele>38.11</ele>
        <time>2012-04-15T08:44:01Z</time>
      </trkpt>
      <trkpt lat="43.45269" lon="3.44496">
        <ele>38.11</ele>
        <time>2012-04-15T08:44:05Z</time>
      </trkpt>
      <trkpt lat="43.45279" lon="3.44496">
        <ele>37.15</ele>
        <time>2012-04-15T08:44:09Z</time>
      </trkpt>
      <trkpt lat="43.4529" lon="3.44497">
        <ele>37.15</ele>
        <time>2012-04-15T08:44:12Z</time>
      </trkpt>
      <trkpt lat="43.453" lon="3.44498">
        <ele>36.67</ele>
        <time>2012-04-15T08:44:16Z</time>
      </trkpt>
      <trkpt lat="43.45311" lon="3.44502">
        <ele>36.19</ele>
        <time>2012-04-15T08:44:20Z</time>
      </trkpt>
      <trkpt lat="43.45318" lon="3.4451">
        <ele>36.67</ele>
        <time>2012-04-15T08:44:23Z</time>
      </trkpt>
      <trkpt lat="43.45327" lon="3.44518">
        <ele>37.15</ele>
        <time>2012-04-15T08:44:26Z</time>
      </trkpt>
      <trkpt lat="43.45336" lon="3.44528">
        <ele>38.11</ele>
        <time>2012-04-15T08:44:31Z</time>
      </trkpt>
      <trkpt lat="43.45343" lon="3.44538">
        <ele>39.07</ele>
        <time>2012-04-15T08:44:36Z</time>
      </trkpt>
      <trkpt lat="43.45351" lon="3.44545">
        <ele>40.03</ele>
        <time>2012-04-15T08:44:42Z</time>
      </trkpt>
      <trkpt lat="43.45358" lon="3.44556">
        <ele>42.44</ele>
        <time>2012-04-15T08:44:50Z</time>
      </trkpt>
      <trkpt lat="43.45364" lon="3.4457">
        <ele>44.84</ele>
        <time>2012-04-15T08:44:59Z</time>
      </trkpt>
      <trkpt lat="43.45369" lon="3.44584">
        <ele>46.28</ele>
        <time>2012-04-15T08:45:07Z</time>
      </trkpt>
      <trkpt lat="43.45375" lon="3.44597">
        <ele>46.28</ele>
        <time>2012-04-15T08:45:15Z</time>
      </trkpt>
      <trkpt lat="43.45381" lon="3.44607">
        <ele>49.16</ele>
        <time>2012-04-15T08:45:23Z</time>
      </trkpt>
      <trkpt lat="43.45387" lon="3.44621">
        <ele>49.65</ele>
        <time>2012-04-15T08:45:31Z</time>
      </trkpt>
      <trkpt lat="43.45391" lon="3.44635">
        <ele>44.84</ele>
        <time>2012-04-15T08:45:37Z</time>
      </trkpt>
      <trkpt lat="43.45396" lon="3.44647">
        <ele>44.36</ele>
        <time>2012-04-15T08:45:43Z</time>
      </trkpt>
      <trkpt lat="43.45404" lon="3.44653">
        <ele>44.84</ele>
        <time>2012-04-15T08:45:49Z</time>
      </trkpt>
      <trkpt lat="43.45414" lon="3.44654">
        <ele>46.28</ele>
        <time>2012-04-15T08:45:55Z</time>
      </trkpt>
      <trkpt lat="43.45423" lon="3.44657">
        <ele>46.76</ele>
        <time>2012-04-15T08:46:01Z</time>
      </trkpt>
      <trkpt lat="43.45434" lon="3.44661">
        <ele>47.72</ele>
        <time>2012-04-15T08:46:07Z</time>
      </trkpt>
      <trkpt lat="43.45444" lon="3.44666">
        <ele>47.72</ele>
        <time>2012-04-15T08:46:13Z</time>
      </trkpt>
      <trkpt lat="43.45453" lon="3.44669">
        <ele>48.68</ele>
        <time>2012-04-15T08:46:19Z</time>
      </trkpt>
      <trkpt lat="43.45462" lon="3.44673">
        <ele>49.16</ele>
        <time>2012-04-15T08:46:25Z</time>
      </trkpt>
      <trkpt lat="43.45472" lon="3.44681">
        <ele>49.16</ele>
        <time>2012-04-15T08:46:32Z</time>
      </trkpt>
      <trkpt lat="43.4548" lon="3.4469">
        <ele>49.16</ele>
        <time>2012-04-15T08:46:38Z</time>
      </trkpt>
      <trkpt lat="43.45489" lon="3.44695">
        <ele>49.65</ele>
        <time>2012-04-15T08:46:44Z</time>
      </trkpt>
      <trkpt lat="43.45499" lon="3.44703">
        <ele>48.68</ele>
        <time>2012-04-15T08:46:50Z</time>
      </trkpt>
      <trkpt lat="43.45509" lon="3.44709">
        <ele>48.2</ele>
        <time>2012-04-15T08:46:54Z</time>
      </trkpt>
      <trkpt lat="43.45519" lon="3.44716">
        <ele>47.72</ele>
        <time>2012-04-15T08:46:57Z</time>
      </trkpt>
      <trkpt lat="43.45532" lon="3.44722">
        <ele>47.24</ele>
        <time>2012-04-15T08:47:00Z</time>
      </trkpt>
      <trkpt lat="43.45542" lon="3.44725">
        <ele>46.76</ele>
        <time>2012-04-15T08:47:02Z</time>
      </trkpt>
      <trkpt lat="43.45553" lon="3.44727">
        <ele>46.28</ele>
        <time>2012-04-15T08:47:04Z</time>
      </trkpt>
      <trkpt lat="43.45565" lon="3.4473">
        <ele>45.8</ele>
        <time>2012-04-15T08:47:06Z</time>
      </trkpt>
      <trkpt lat="43.45576" lon="3.44733">
        <ele>44.84</ele>
        <time>2012-04-15T08:47:08Z</time>
      </trkpt>
      <trkpt lat="43.45586" lon="3.44735">
        <ele>43.88</ele>
        <time>2012-04-15T08:47:10Z</time>
      </trkpt>
      <trkpt lat="43.45596" lon="3.44741">
        <ele>42.92</ele>
        <time>2012-04-15T08:47:12Z</time>
      </trkpt>
      <trkpt lat="43.45604" lon="3.44753">
        <ele>41.95</ele>
        <time>2012-04-15T08:47:14Z</time>
      </trkpt>
      <trkpt lat="43.45611" lon="3.44765">
        <ele>41.47</ele>
        <time>2012-04-15T08:47:16Z</time>
      </trkpt>
      <trkpt lat="43.45618" lon="3.44776">
        <ele>40.51</ele>
        <time>2012-04-15T08:47:18Z</time>
      </trkpt>
      <trkpt lat="43.45626" lon="3.44789">
        <ele>39.07</ele>
        <time>2012-04-15T08:47:21Z</time>
      </trkpt>
      <trkpt lat="43.45625" lon="3.44805">
        <ele>36.67</ele>
        <time>2012-04-15T08:47:24Z</time>
      </trkpt>
      <trkpt lat="43.45615" lon="3.44817">
        <ele>35.23</ele>
        <time>2012-04-15T08:47:27Z</time>
      </trkpt>
      <trkpt lat="43.45606" lon="3.44826">
        <ele>34.74</ele>
        <time>2012-04-15T08:47:29Z</time>
      </trkpt>
      <trkpt lat="43.45604" lon="3.44839">
        <ele>33.78</ele>
        <time>2012-04-15T08:47:31Z</time>
      </trkpt>
      <trkpt lat="43.45611" lon="3.44852">
        <ele>32.34</ele>
        <time>2012-04-15T08:47:33Z</time>
      </trkpt>
      <trkpt lat="43.45624" lon="3.44855">
        <ele>31.38</ele>
        <time>2012-04-15T08:47:35Z</time>
      </trkpt>
      <trkpt lat="43.45637" lon="3.44857">
        <ele>29.94</ele>
        <time>2012-04-15T08:47:37Z</time>
      </trkpt>
      <trkpt lat="43.45651" lon="3.4486">
        <ele>28.98</ele>
        <time>2012-04-15T08:47:39Z</time>
      </trkpt>
      <trkpt lat="43.45666" lon="3.44857">
        <ele>28.02</ele>
        <time>2012-04-15T08:47:41Z</time>
      </trkpt>
      <trkpt lat="43.45679" lon="3.4485">
        <ele>27.05</ele>
        <time>2012-04-15T08:47:43Z</time>
      </trkpt>
      <trkpt lat="43.4569" lon="3.44837">
        <ele>26.09</ele>
        <time>2012-04-15T08:47:45Z</time>
      </trkpt>
      <trkpt lat="43.45698" lon="3.44822">
        <ele>25.13</ele>
        <time>2012-04-15T08:47:47Z</time>
      </trkpt>
      <trkpt lat="43.45704" lon="3.44805">
        <ele>24.65</ele>
        <time>2012-04-15T08:47:49Z</time>
      </trkpt>
      <trkpt lat="43.45708" lon="3.44785">
        <ele>23.69</ele>
        <time>2012-04-15T08:47:51Z</time>
      </trkpt>
      <trkpt lat="43.4571" lon="3.44765">
        <ele>23.21</ele>
        <time>2012-04-15T08:47:53Z</time>
      </trkpt>
      <trkpt lat="43.45707" lon="3.44748">
        <ele>22.73</ele>
        <time>2012-04-15T08:47:55Z</time>
      </trkpt>
      <trkpt lat="43.45709" lon="3.44735">
        <ele>22.25</ele>
        <time>2012-04-15T08:47:59Z</time>
      </trkpt>
      <trkpt lat="43.45715" lon="3.4473">
        <ele>23.21</ele>
        <time>2012-04-15T08:48:05Z</time>
      </trkpt>
      <trkpt lat="43.45725" lon="3.44733">
        <ele>24.17</ele>
        <time>2012-04-15T08:48:08Z</time>
      </trkpt>
      <trkpt lat="43.45736" lon="3.44735">
        <ele>24.65</ele>
        <time>2012-04-15T08:48:11Z</time>
      </trkpt>
      <trkpt lat="43.45746" lon="3.44734">
        <ele>26.57</ele>
        <time>2012-04-15T08:48:14Z</time>
      </trkpt>
      <trkpt lat="43.45757" lon="3.44735">
        <ele>28.98</ele>
        <time>2012-04-15T08:48:18Z</time>
      </trkpt>
      <trkpt lat="43.45767" lon="3.44736">
        <ele>30.9</ele>
        <time>2012-04-15T08:48:21Z</time>
      </trkpt>
      <trkpt lat="43.45777" lon="3.44737">
        <ele>32.82</ele>
        <time>2012-04-15T08:48:24Z</time>
      </trkpt>
      <trkpt lat="43.45788" lon="3.44738">
        <ele>35.23</ele>
        <time>2012-04-15T08:48:28Z</time>
      </trkpt>
      <trkpt lat="43.45798" lon="3.44737">
        <ele>36.67</ele>
        <time>2012-04-15T08:48:31Z</time>
      </trkpt>
      <trkpt lat="43.45808" lon="3.44738">
        <ele>38.11</ele>
        <time>2012-04-15T08:48:34Z</time>
      </trkpt>
      <trkpt lat="43.45819" lon="3.44741">
        <ele>39.55</ele>
        <time>2012-04-15T08:48:37Z</time>
      </trkpt>
      <trkpt lat="43.45831" lon="3.44745">
        <ele>40.03</ele>
        <time>2012-04-15T08:48:40Z</time>
      </trkpt>
      <trkpt lat="43.4584" lon="3.44748">
        <ele>40.99</ele>
        <time>2012-04-15T08:48:43Z</time>
      </trkpt>
      <trkpt lat="43.4585" lon="3.44754">
        <ele>42.44</ele>
        <time>2012-04-15T08:48:46Z</time>
      </trkpt>
      <trkpt lat="43.45861" lon="3.44758">
        <ele>43.88</ele>
        <time>2012-04-15T08:48:49Z</time>
      </trkpt>
      <trkpt lat="43.45872" lon="3.44763">
        <ele>46.28</ele>
        <time>2012-04-15T08:48:52Z</time>
      </trkpt>
      <trkpt lat="43.45884" lon="3.44767">
        <ele>47.24</ele>
        <time>2012-04-15T08:48:55Z</time>
      </trkpt>
      <trkpt lat="43.45897" lon="3.4477">
        <ele>47.24</ele>
        <time>2012-04-15T08:48:58Z</time>
      </trkpt>
      <trkpt lat="43.45905" lon="3.44775">
        <ele>47.24</ele>
        <time>2012-04-15T08:49:03Z</time>
      </trkpt>
      <trkpt lat="43.45905" lon="3.44788">
        <ele>46.28</ele>
        <time>2012-04-15T08:49:08Z</time>
      </trkpt>
      <trkpt lat="43.45903" lon="3.448">
        <ele>45.32</ele>
        <time>2012-04-15T08:49:12Z</time>
      </trkpt>
      <trkpt lat="43.45904" lon="3.44817">
        <ele>43.4</ele>
        <time>2012-04-15T08:49:17Z</time>
      </trkpt>
      <trkpt lat="43.45902" lon="3.44828">
        <ele>42.92</ele>
        <time>2012-04-15T08:49:24Z</time>
      </trkpt>
      <trkpt lat="43.459" lon="3.4484">
        <ele>45.8</ele>
        <time>2012-04-15T08:49:31Z</time>
      </trkpt>
      <trkpt lat="43.45895" lon="3.44852">
        <ele>49.16</ele>
        <time>2012-04-15T08:49:40Z</time>
      </trkpt>
      <trkpt lat="43.45891" lon="3.44864">
        <ele>53.01</ele>
        <time>2012-04-15T08:49:48Z</time>
      </trkpt>
      <trkpt lat="43.45884" lon="3.44875">
        <ele>57.82</ele>
        <time>2012-04-15T08:49:56Z</time>
      </trkpt>
      <trkpt lat="43.45883" lon="3.44887">
        <ele>64.07</ele>
        <time>2012-04-15T08:50:04Z</time>
      </trkpt>
      <trkpt lat="43.45871" lon="3.44895">
        <ele>73.2</ele>
        <time>2012-04-15T08:50:20Z</time>
      </trkpt>
      <trkpt lat="43.45863" lon="3.44888">
        <ele>77.52</ele>
        <time>2012-04-15T08:50:29Z</time>
      </trkpt>
      <trkpt lat="43.45857" lon="3.44901">
        <ele>80.89</ele>
        <time>2012-04-15T08:50:43Z</time>
      </trkpt>
      <trkpt lat="43.45845" lon="3.44916">
        <ele>84.73</ele>
        <time>2012-04-15T08:50:58Z</time>
      </trkpt>
      <trkpt lat="43.45832" lon="3.44922">
        <ele>84.73</ele>
        <time>2012-04-15T08:51:11Z</time>
      </trkpt>
      <trkpt lat="43.45818" lon="3.44923">
        <ele>80.41</ele>
        <time>2012-04-15T08:55:16Z</time>
      </trkpt>
      <trkpt lat="43.45805" lon="3.44927">
        <ele>80.41</ele>
        <time>2012-04-15T08:55:21Z</time>
      </trkpt>
      <trkpt lat="43.45796" lon="3.44937">
        <ele>81.37</ele>
        <time>2012-04-15T08:55:25Z</time>
      </trkpt>
      <trkpt lat="43.45789" lon="3.44947">
        <ele>80.41</ele>
        <time>2012-04-15T08:55:30Z</time>
      </trkpt>
      <trkpt lat="43.45776" lon="3.44946">
        <ele>78.48</ele>
        <time>2012-04-15T08:55:35Z</time>
      </trkpt>
      <trkpt lat="43.45759" lon="3.44947">
        <ele>72.24</ele>
        <time>2012-04-15T08:55:39Z</time>
      </trkpt>
      <trkpt lat="43.45748" lon="3.44947">
        <ele>71.76</ele>
        <time>2012-04-15T08:55:42Z</time>
      </trkpt>
      <trkpt lat="43.45738" lon="3.44954">
        <ele>71.27</ele>
        <time>2012-04-15T08:55:45Z</time>
      </trkpt>
      <trkpt lat="43.45736" lon="3.44967">
        <ele>71.76</ele>
        <time>2012-04-15T08:55:49Z</time>
      </trkpt>
      <trkpt lat="43.45738" lon="3.4498">
        <ele>70.79</ele>
        <time>2012-04-15T08:55:54Z</time>
      </trkpt>
      <trkpt lat="43.45739" lon="3.44995">
        <ele>70.31</ele>
        <time>2012-04-15T08:56:00Z</time>
      </trkpt>
      <trkpt lat="43.45737" lon="3.45007">
        <ele>68.87</ele>
        <time>2012-04-15T08:56:05Z</time>
      </trkpt>
      <trkpt lat="43.45731" lon="3.45018">
        <ele>65.99</ele>
        <time>2012-04-15T08:56:11Z</time>
      </trkpt>
      <trkpt lat="43.45724" lon="3.45031">
        <ele>64.55</ele>
        <time>2012-04-15T08:56:18Z</time>
      </trkpt>
      <trkpt lat="43.4572" lon="3.45043">
        <ele>64.55</ele>
        <time>2012-04-15T08:56:23Z</time>
      </trkpt>
      <trkpt lat="43.45717" lon="3.45055">
        <ele>65.03</ele>
        <time>2012-04-15T08:56:28Z</time>
      </trkpt>
      <trkpt lat="43.45717" lon="3.45068">
        <ele>67.43</ele>
        <time>2012-04-15T08:56:34Z</time>
      </trkpt>
      <trkpt lat="43.45718" lon="3.45081">
        <ele>69.83</ele>
        <time>2012-04-15T08:56:40Z</time>
      </trkpt>
      <trkpt lat="43.45716" lon="3.45092">
        <ele>71.27</ele>
        <time>2012-04-15T08:56:46Z</time>
      </trkpt>
      <trkpt lat="43.45714" lon="3.45105">
        <ele>73.68</ele>
        <time>2012-04-15T08:56:52Z</time>
      </trkpt>
      <trkpt lat="43.45712" lon="3.4512">
        <ele>76.08</ele>
        <time>2012-04-15T08:56:58Z</time>
      </trkpt>
      <trkpt lat="43.45706" lon="3.45132">
        <ele>76.56</ele>
        <time>2012-04-15T08:57:03Z</time>
      </trkpt>
      <trkpt lat="43.45702" lon="3.45143">
        <ele>78</ele>
        <time>2012-04-15T08:57:08Z</time>
      </trkpt>
      <trkpt lat="43.45697" lon="3.45157">
        <ele>75.12</ele>
        <time>2012-04-15T08:57:13Z</time>
      </trkpt>
      <trkpt lat="43.45692" lon="3.4517">
        <ele>75.12</ele>
        <time>2012-04-15T08:57:18Z</time>
      </trkpt>
      <trkpt lat="43.45689" lon="3.45183">
        <ele>75.12</ele>
        <time>2012-04-15T08:57:22Z</time>
      </trkpt>
      <trkpt lat="43.45686" lon="3.45195">
        <ele>76.08</ele>
        <time>2012-04-15T08:57:26Z</time>
      </trkpt>
      <trkpt lat="43.45683" lon="3.45208">
        <ele>77.52</ele>
        <time>2012-04-15T08:57:30Z</time>
      </trkpt>
      <trkpt lat="43.45681" lon="3.45221">
        <ele>79.93</ele>
        <time>2012-04-15T08:57:34Z</time>
      </trkpt>
      <trkpt lat="43.45682" lon="3.45236">
        <ele>80.89</ele>
        <time>2012-04-15T08:57:38Z</time>
      </trkpt>
      <trkpt lat="43.4568" lon="3.45249">
        <ele>81.37</ele>
        <time>2012-04-15T08:57:42Z</time>
      </trkpt>
      <trkpt lat="43.45682" lon="3.45265">
        <ele>80.41</ele>
        <time>2012-04-15T08:57:47Z</time>
      </trkpt>
      <trkpt lat="43.45677" lon="3.45273">
        <ele>78.97</ele>
        <time>2012-04-15T08:57:52Z</time>
      </trkpt>
      <trkpt lat="43.45669" lon="3.45283">
        <ele>79.93</ele>
        <time>2012-04-15T08:57:57Z</time>
      </trkpt>
      <trkpt lat="43.45664" lon="3.45296">
        <ele>82.33</ele>
        <time>2012-04-15T08:58:02Z</time>
      </trkpt>
      <trkpt lat="43.45662" lon="3.4531">
        <ele>83.77</ele>
        <time>2012-04-15T08:58:08Z</time>
      </trkpt>
      <trkpt lat="43.45658" lon="3.45322">
        <ele>85.21</ele>
        <time>2012-04-15T08:58:13Z</time>
      </trkpt>
      <trkpt lat="43.45655" lon="3.45334">
        <ele>87.14</ele>
        <time>2012-04-15T08:58:18Z</time>
      </trkpt>
      <trkpt lat="43.45651" lon="3.45347">
        <ele>87.14</ele>
        <time>2012-04-15T08:58:23Z</time>
      </trkpt>
      <trkpt lat="43.45649" lon="3.45362">
        <ele>86.18</ele>
        <time>2012-04-15T08:58:28Z</time>
      </trkpt>
      <trkpt lat="43.45636" lon="3.45374">
        <ele>77.52</ele>
        <time>2012-04-15T08:58:33Z</time>
      </trkpt>
      <trkpt lat="43.4563" lon="3.45387">
        <ele>75.6</ele>
        <time>2012-04-15T08:58:38Z</time>
      </trkpt>
      <trkpt lat="43.45629" lon="3.45401">
        <ele>76.08</ele>
        <time>2012-04-15T08:58:44Z</time>
      </trkpt>
      <trkpt lat="43.45628" lon="3.45416">
        <ele>75.6</ele>
        <time>2012-04-15T08:58:50Z</time>
      </trkpt>
      <trkpt lat="43.45629" lon="3.4543">
        <ele>76.56</ele>
        <time>2012-04-15T08:58:56Z</time>
      </trkpt>
      <trkpt lat="43.4563" lon="3.45444">
        <ele>79.45</ele>
        <time>2012-04-15T08:59:02Z</time>
      </trkpt>
      <trkpt lat="43.45628" lon="3.45459">
        <ele>80.41</ele>
        <time>2012-04-15T08:59:08Z</time>
      </trkpt>
      <trkpt lat="43.45624" lon="3.4547">
        <ele>80.41</ele>
        <time>2012-04-15T08:59:14Z</time>
      </trkpt>
      <trkpt lat="43.45627" lon="3.45485">
        <ele>79.45</ele>
        <time>2012-04-15T08:59:20Z</time>
      </trkpt>
      <trkpt lat="43.45627" lon="3.45503">
        <ele>80.41</ele>
        <time>2012-04-15T08:59:26Z</time>
      </trkpt>
      <trkpt lat="43.45623" lon="3.45519">
        <ele>81.37</ele>
        <time>2012-04-15T08:59:30Z</time>
      </trkpt>
      <trkpt lat="43.45619" lon="3.45533">
        <ele>83.29</ele>
        <time>2012-04-15T08:59:35Z</time>
      </trkpt>
      <trkpt lat="43.45617" lon="3.45546">
        <ele>84.25</ele>
        <time>2012-04-15T08:59:39Z</time>
      </trkpt>
      <trkpt lat="43.45618" lon="3.4556">
        <ele>84.73</ele>
        <time>2012-04-15T08:59:43Z</time>
      </trkpt>
      <trkpt lat="43.4562" lon="3.45576">
        <ele>84.73</ele>
        <time>2012-04-15T08:59:48Z</time>
      </trkpt>
      <trkpt lat="43.45618" lon="3.4559">
        <ele>85.21</ele>
        <time>2012-04-15T08:59:52Z</time>
      </trkpt>
      <trkpt lat="43.45615" lon="3.45603">
        <ele>85.69</ele>
        <time>2012-04-15T08:59:56Z</time>
      </trkpt>
      <trkpt lat="43.45613" lon="3.45617">
        <ele>86.18</ele>
        <time>2012-04-15T09:00:01Z</time>
      </trkpt>
      <trkpt lat="43.45616" lon="3.45631">
        <ele>86.66</ele>
        <time>2012-04-15T09:00:06Z</time>
      </trkpt>
      <trkpt lat="43.45625" lon="3.45646">
        <ele>86.18</ele>
        <time>2012-04-15T09:00:12Z</time>
      </trkpt>
      <trkpt lat="43.45633" lon="3.45659">
        <ele>86.18</ele>
        <time>2012-04-15T09:00:17Z</time>
      </trkpt>
      <trkpt lat="43.45637" lon="3.45672">
        <ele>87.62</ele>
        <time>2012-04-15T09:00:22Z</time>
      </trkpt>
      <trkpt lat="43.45642" lon="3.45685">
        <ele>89.06</ele>
        <time>2012-04-15T09:00:27Z</time>
      </trkpt>
      <trkpt lat="43.45644" lon="3.45698">
        <ele>90.98</ele>
        <time>2012-04-15T09:00:32Z</time>
      </trkpt>
      <trkpt lat="43.45644" lon="3.45711">
        <ele>93.39</ele>
        <time>2012-04-15T09:00:39Z</time>
      </trkpt>
      <trkpt lat="43.45648" lon="3.45729">
        <ele>94.83</ele>
        <time>2012-04-15T09:00:46Z</time>
      </trkpt>
      <trkpt lat="43.45648" lon="3.45745">
        <ele>95.79</ele>
        <time>2012-04-15T09:00:52Z</time>
      </trkpt>
      <trkpt lat="43.45648" lon="3.4576">
        <ele>96.75</ele>
        <time>2012-04-15T09:00:58Z</time>
      </trkpt>
      <trkpt lat="43.45649" lon="3.45776">
        <ele>98.67</ele>
        <time>2012-04-15T09:01:04Z</time>
      </trkpt>
      <trkpt lat="43.45645" lon="3.4579">
        <ele>99.63</ele>
        <time>2012-04-15T09:01:10Z</time>
      </trkpt>
      <trkpt lat="43.4564" lon="3.45805">
        <ele>101.08</ele>
        <time>2012-04-15T09:01:16Z</time>
      </trkpt>
      <trkpt lat="43.45633" lon="3.45815">
        <ele>101.08</ele>
        <time>2012-04-15T09:01:21Z</time>
      </trkpt>
      <trkpt lat="43.45627" lon="3.45826">
        <ele>102.04</ele>
        <time>2012-04-15T09:01:25Z</time>
      </trkpt>
      <trkpt lat="43.45623" lon="3.45839">
        <ele>103</ele>
        <time>2012-04-15T09:01:29Z</time>
      </trkpt>
      <trkpt lat="43.45616" lon="3.45854">
        <ele>103</ele>
        <time>2012-04-15T09:01:34Z</time>
      </trkpt>
      <trkpt lat="43.4561" lon="3.45866">
        <ele>104.44</ele>
        <time>2012-04-15T09:01:38Z</time>
      </trkpt>
      <trkpt lat="43.45606" lon="3.45877">
        <ele>103.96</ele>
        <time>2012-04-15T09:01:42Z</time>
      </trkpt>
      <trkpt lat="43.456" lon="3.45888">
        <ele>103.96</ele>
        <time>2012-04-15T09:01:46Z</time>
      </trkpt>
      <trkpt lat="43.45595" lon="3.45903">
        <ele>106.84</ele>
        <time>2012-04-15T09:01:51Z</time>
      </trkpt>
      <trkpt lat="43.45589" lon="3.45915">
        <ele>109.25</ele>
        <time>2012-04-15T09:01:56Z</time>
      </trkpt>
      <trkpt lat="43.45582" lon="3.45928">
        <ele>110.69</ele>
        <time>2012-04-15T09:02:01Z</time>
      </trkpt>
      <trkpt lat="43.45576" lon="3.45938">
        <ele>109.73</ele>
        <time>2012-04-15T09:02:05Z</time>
      </trkpt>
      <trkpt lat="43.45568" lon="3.45946">
        <ele>109.25</ele>
        <time>2012-04-15T09:02:09Z</time>
      </trkpt>
      <trkpt lat="43.45561" lon="3.45956">
        <ele>108.77</ele>
        <time>2012-04-15T09:02:13Z</time>
      </trkpt>
      <trkpt lat="43.45555" lon="3.45967">
        <ele>106.84</ele>
        <time>2012-04-15T09:02:17Z</time>
      </trkpt>
      <trkpt lat="43.45546" lon="3.45977">
        <ele>105.4</ele>
        <time>2012-04-15T09:02:21Z</time>
      </trkpt>
      <trkpt lat="43.45538" lon="3.45986">
        <ele>104.44</ele>
        <time>2012-04-15T09:02:25Z</time>
      </trkpt>
      <trkpt lat="43.45529" lon="3.45995">
        <ele>103</ele>
        <time>2012-04-15T09:02:30Z</time>
      </trkpt>
      <trkpt lat="43.45517" lon="3.45998">
        <ele>105.88</ele>
        <time>2012-04-15T09:02:36Z</time>
      </trkpt>
      <trkpt lat="43.45507" lon="3.45994">
        <ele>108.77</ele>
        <time>2012-04-15T09:02:41Z</time>
      </trkpt>
      <trkpt lat="43.45496" lon="3.45986">
        <ele>109.25</ele>
        <time>2012-04-15T09:02:44Z</time>
      </trkpt>
      <trkpt lat="43.45486" lon="3.45975">
        <ele>108.77</ele>
        <time>2012-04-15T09:02:47Z</time>
      </trkpt>
      <trkpt lat="43.45474" lon="3.45966">
        <ele>108.77</ele>
        <time>2012-04-15T09:02:50Z</time>
      </trkpt>
      <trkpt lat="43.45459" lon="3.45967">
        <ele>106.84</ele>
        <time>2012-04-15T09:02:53Z</time>
      </trkpt>
      <trkpt lat="43.45451" lon="3.45975">
        <ele>105.88</ele>
        <time>2012-04-15T09:02:56Z</time>
      </trkpt>
      <trkpt lat="43.45443" lon="3.45984">
        <ele>104.92</ele>
        <time>2012-04-15T09:02:59Z</time>
      </trkpt>
      <trkpt lat="43.45434" lon="3.45993">
        <ele>103.96</ele>
        <time>2012-04-15T09:03:02Z</time>
      </trkpt>
      <trkpt lat="43.45426" lon="3.46006">
        <ele>103.96</ele>
        <time>2012-04-15T09:03:06Z</time>
      </trkpt>
      <trkpt lat="43.45413" lon="3.46014">
        <ele>104.44</ele>
        <time>2012-04-15T09:03:10Z</time>
      </trkpt>
      <trkpt lat="43.45408" lon="3.46026">
        <ele>105.88</ele>
        <time>2012-04-15T09:03:13Z</time>
      </trkpt>
      <trkpt lat="43.454" lon="3.46039">
        <ele>106.84</ele>
        <time>2012-04-15T09:03:17Z</time>
      </trkpt>
      <trkpt lat="43.45392" lon="3.46053">
        <ele>107.32</ele>
        <time>2012-04-15T09:03:20Z</time>
      </trkpt>
      <trkpt lat="43.45385" lon="3.46063">
        <ele>106.36</ele>
        <time>2012-04-15T09:03:23Z</time>
      </trkpt>
      <trkpt lat="43.45378" lon="3.46075">
        <ele>105.88</ele>
        <time>2012-04-15T09:03:26Z</time>
      </trkpt>
      <trkpt lat="43.45369" lon="3.4609">
        <ele>104.44</ele>
        <time>2012-04-15T09:03:29Z</time>
      </trkpt>
      <trkpt lat="43.45364" lon="3.46101">
        <ele>103.48</ele>
        <time>2012-04-15T09:03:31Z</time>
      </trkpt>
      <trkpt lat="43.45366" lon="3.46119">
        <ele>102.52</ele>
        <time>2012-04-15T09:03:34Z</time>
      </trkpt>
      <trkpt lat="43.45373" lon="3.46132">
        <ele>102.04</ele>
        <time>2012-04-15T09:03:37Z</time>
      </trkpt>
      <trkpt lat="43.45381" lon="3.46143">
        <ele>101.08</ele>
        <time>2012-04-15T09:03:41Z</time>
      </trkpt>
      <trkpt lat="43.45391" lon="3.46149">
        <ele>101.56</ele>
        <time>2012-04-15T09:03:45Z</time>
      </trkpt>
      <trkpt lat="43.454" lon="3.46155">
        <ele>101.56</ele>
        <time>2012-04-15T09:03:48Z</time>
      </trkpt>
      <trkpt lat="43.45407" lon="3.46163">
        <ele>103</ele>
        <time>2012-04-15T09:03:52Z</time>
      </trkpt>
      <trkpt lat="43.45413" lon="3.46176">
        <ele>104.92</ele>
        <time>2012-04-15T09:03:58Z</time>
      </trkpt>
      <trkpt lat="43.45413" lon="3.46189">
        <ele>106.84</ele>
        <time>2012-04-15T09:04:03Z</time>
      </trkpt>
      <trkpt lat="43.45409" lon="3.46199">
        <ele>108.77</ele>
        <time>2012-04-15T09:04:09Z</time>
      </trkpt>
      <trkpt lat="43.454" lon="3.46199">
        <ele>109.25</ele>
        <time>2012-04-15T09:04:15Z</time>
      </trkpt>
      <trkpt lat="43.45399" lon="3.46205">
        <ele>110.69</ele>
        <time>2012-04-15T09:04:29Z</time>
      </trkpt>
      <trkpt lat="43.45409" lon="3.46204">
        <ele>111.65</ele>
        <time>2012-04-15T09:04:35Z</time>
      </trkpt>
      <trkpt lat="43.45417" lon="3.46215">
        <ele>110.69</ele>
        <time>2012-04-15T09:04:40Z</time>
      </trkpt>
      <trkpt lat="43.45423" lon="3.46228">
        <ele>108.77</ele>
        <time>2012-04-15T09:04:44Z</time>
      </trkpt>
      <trkpt lat="43.45427" lon="3.46242">
        <ele>107.32</ele>
        <time>2012-04-15T09:04:47Z</time>
      </trkpt>
      <trkpt lat="43.4543" lon="3.46257">
        <ele>106.36</ele>
        <time>2012-04-15T09:04:50Z</time>
      </trkpt>
      <trkpt lat="43.45431" lon="3.46274">
        <ele>104.92</ele>
        <time>2012-04-15T09:04:53Z</time>
      </trkpt>
      <trkpt lat="43.4543" lon="3.46288">
        <ele>104.44</ele>
        <time>2012-04-15T09:04:55Z</time>
      </trkpt>
      <trkpt lat="43.45427" lon="3.46303">
        <ele>103.96</ele>
        <time>2012-04-15T09:04:57Z</time>
      </trkpt>
      <trkpt lat="43.45423" lon="3.46318">
        <ele>103.48</ele>
        <time>2012-04-15T09:04:59Z</time>
      </trkpt>
      <trkpt lat="43.45421" lon="3.46333">
        <ele>102.04</ele>
        <time>2012-04-15T09:05:01Z</time>
      </trkpt>
      <trkpt lat="43.45419" lon="3.46348">
        <ele>100.11</ele>
        <time>2012-04-15T09:05:03Z</time>
      </trkpt>
      <trkpt lat="43.45418" lon="3.46364">
        <ele>98.19</ele>
        <time>2012-04-15T09:05:06Z</time>
      </trkpt>
      <trkpt lat="43.45407" lon="3.46369">
        <ele>96.27</ele>
        <time>2012-04-15T09:05:09Z</time>
      </trkpt>
      <trkpt lat="43.45398" lon="3.46368">
        <ele>94.83</ele>
        <time>2012-04-15T09:05:11Z</time>
      </trkpt>
      <trkpt lat="43.45385" lon="3.46367">
        <ele>93.39</ele>
        <time>2012-04-15T09:05:14Z</time>
      </trkpt>
      <trkpt lat="43.45373" lon="3.46368">
        <ele>91.94</ele>
        <time>2012-04-15T09:05:17Z</time>
      </trkpt>
      <trkpt lat="43.45362" lon="3.46369">
        <ele>91.46</ele>
        <time>2012-04-15T09:05:20Z</time>
      </trkpt>
      <trkpt lat="43.45352" lon="3.46368">
        <ele>90.5</ele>
        <time>2012-04-15T09:05:23Z</time>
      </trkpt>
      <trkpt lat="43.45341" lon="3.46361">
        <ele>89.06</ele>
        <time>2012-04-15T09:05:26Z</time>
      </trkpt>
      <trkpt lat="43.45329" lon="3.46352">
        <ele>88.1</ele>
        <time>2012-04-15T09:05:29Z</time>
      </trkpt>
      <trkpt lat="43.45318" lon="3.46341">
        <ele>86.66</ele>
        <time>2012-04-15T09:05:32Z</time>
      </trkpt>
      <trkpt lat="43.4531" lon="3.46333">
        <ele>85.69</ele>
        <time>2012-04-15T09:05:34Z</time>
      </trkpt>
      <trkpt lat="43.45302" lon="3.46324">
        <ele>84.25</ele>
        <time>2012-04-15T09:05:36Z</time>
      </trkpt>
      <trkpt lat="43.45294" lon="3.46315">
        <ele>82.81</ele>
        <time>2012-04-15T09:05:38Z</time>
      </trkpt>
      <trkpt lat="43.45286" lon="3.46306">
        <ele>82.33</ele>
        <time>2012-04-15T09:05:40Z</time>
      </trkpt>
      <trkpt lat="43.45278" lon="3.46297">
        <ele>81.85</ele>
        <time>2012-04-15T09:05:42Z</time>
      </trkpt>
      <trkpt lat="43.45271" lon="3.46287">
        <ele>81.37</ele>
        <time>2012-04-15T09:05:44Z</time>
      </trkpt>
      <trkpt lat="43.45263" lon="3.46278">
        <ele>80.89</ele>
        <time>2012-04-15T09:05:46Z</time>
      </trkpt>
      <trkpt lat="43.45256" lon="3.46269">
        <ele>80.41</ele>
        <time>2012-04-15T09:05:48Z</time>
      </trkpt>
      <trkpt lat="43.45248" lon="3.4626">
        <ele>79.93</ele>
        <time>2012-04-15T09:05:50Z</time>
      </trkpt>
      <trkpt lat="43.4524" lon="3.46252">
        <ele>79.45</ele>
        <time>2012-04-15T09:05:52Z</time>
      </trkpt>
      <trkpt lat="43.45232" lon="3.46243">
        <ele>78.97</ele>
        <time>2012-04-15T09:05:54Z</time>
      </trkpt>
      <trkpt lat="43.45223" lon="3.46235">
        <ele>78.48</ele>
        <time>2012-04-15T09:05:56Z</time>
      </trkpt>
      <trkpt lat="43.45213" lon="3.46228">
        <ele>78.48</ele>
        <time>2012-04-15T09:05:58Z</time>
      </trkpt>
      <trkpt lat="43.45202" lon="3.46221">
        <ele>78</ele>
        <time>2012-04-15T09:06:00Z</time>
      </trkpt>
      <trkpt lat="43.45191" lon="3.46216">
        <ele>77.52</ele>
        <time>2012-04-15T09:06:02Z</time>
      </trkpt>
      <trkpt lat="43.4518" lon="3.46212">
        <ele>77.04</ele>
        <time>2012-04-15T09:06:04Z</time>
      </trkpt>
      <trkpt lat="43.45169" lon="3.46209">
        <ele>77.04</ele>
        <time>2012-04-15T09:06:06Z</time>
      </trkpt>
      <trkpt lat="43.45158" lon="3.46206">
        <ele>77.04</ele>
        <time>2012-04-15T09:06:08Z</time>
      </trkpt>
      <trkpt lat="43.45147" lon="3.46204">
        <ele>77.04</ele>
        <time>2012-04-15T09:06:10Z</time>
      </trkpt>
      <trkpt lat="43.45136" lon="3.46201">
        <ele>76.56</ele>
        <time>2012-04-15T09:06:12Z</time>
      </trkpt>
      <trkpt lat="43.45126" lon="3.46198">
        <ele>76.08</ele>
        <time>2012-04-15T09:06:14Z</time>
      </trkpt>
      <trkpt lat="43.45115" lon="3.46196">
        <ele>75.6</ele>
        <time>2012-04-15T09:06:16Z</time>
      </trkpt>
      <trkpt lat="43.45104" lon="3.46193">
        <ele>75.6</ele>
        <time>2012-04-15T09:06:18Z</time>
      </trkpt>
      <trkpt lat="43.45092" lon="3.46189">
        <ele>75.12</ele>
        <time>2012-04-15T09:06:20Z</time>
      </trkpt>
      <trkpt lat="43.4508" lon="3.46186">
        <ele>74.64</ele>
        <time>2012-04-15T09:06:22Z</time>
      </trkpt>
      <trkpt lat="43.45067" lon="3.46183">
        <ele>74.16</ele>
        <time>2012-04-15T09:06:24Z</time>
      </trkpt>
      <trkpt lat="43.45055" lon="3.46179">
        <ele>73.68</ele>
        <time>2012-04-15T09:06:26Z</time>
      </trkpt>
      <trkpt lat="43.45044" lon="3.46173">
        <ele>73.2</ele>
        <time>2012-04-15T09:06:28Z</time>
      </trkpt>
      <trkpt lat="43.45033" lon="3.46164">
        <ele>73.2</ele>
        <time>2012-04-15T09:06:30Z</time>
      </trkpt>
      <trkpt lat="43.45022" lon="3.46153">
        <ele>72.72</ele>
        <time>2012-04-15T09:06:32Z</time>
      </trkpt>
      <trkpt lat="43.45013" lon="3.46139">
        <ele>72.24</ele>
        <time>2012-04-15T09:06:34Z</time>
      </trkpt>
      <trkpt lat="43.45005" lon="3.46126">
        <ele>71.76</ele>
        <time>2012-04-15T09:06:36Z</time>
      </trkpt>
      <trkpt lat="43.44998" lon="3.46111">
        <ele>71.27</ele>
        <time>2012-04-15T09:06:38Z</time>
      </trkpt>
      <trkpt lat="43.44991" lon="3.46097">
        <ele>70.79</ele>
        <time>2012-04-15T09:06:40Z</time>
      </trkpt>
      <trkpt lat="43.44984" lon="3.46084">
        <ele>70.79</ele>
        <time>2012-04-15T09:06:42Z</time>
      </trkpt>
      <trkpt lat="43.44976" lon="3.4607">
        <ele>70.31</ele>
        <time>2012-04-15T09:06:44Z</time>
      </trkpt>
      <trkpt lat="43.44969" lon="3.46058">
        <ele>70.31</ele>
        <time>2012-04-15T09:06:46Z</time>
      </trkpt>
      <trkpt lat="43.44962" lon="3.46045">
        <ele>70.31</ele>
        <time>2012-04-15T09:06:48Z</time>
      </trkpt>
      <trkpt lat="43.44956" lon="3.46031">
        <ele>70.31</ele>
        <time>2012-04-15T09:06:50Z</time>
      </trkpt>
      <trkpt lat="43.4495" lon="3.46018">
        <ele>70.79</ele>
        <time>2012-04-15T09:06:52Z</time>
      </trkpt>
      <trkpt lat="43.44944" lon="3.46005">
        <ele>70.79</ele>
        <time>2012-04-15T09:06:54Z</time>
      </trkpt>
      <trkpt lat="43.44939" lon="3.45993">
        <ele>70.31</ele>
        <time>2012-04-15T09:06:56Z</time>
      </trkpt>
      <trkpt lat="43.44934" lon="3.45981">
        <ele>70.79</ele>
        <time>2012-04-15T09:06:58Z</time>
      </trkpt>
      <trkpt lat="43.44929" lon="3.45968">
        <ele>70.79</ele>
        <time>2012-04-15T09:07:00Z</time>
      </trkpt>
      <trkpt lat="43.44924" lon="3.45956">
        <ele>71.27</ele>
        <time>2012-04-15T09:07:02Z</time>
      </trkpt>
      <trkpt lat="43.44919" lon="3.45944">
        <ele>71.76</ele>
        <time>2012-04-15T09:07:04Z</time>
      </trkpt>
      <trkpt lat="43.44914" lon="3.45932">
        <ele>71.76</ele>
        <time>2012-04-15T09:07:06Z</time>
      </trkpt>
      <trkpt lat="43.44909" lon="3.4592">
        <ele>72.24</ele>
        <time>2012-04-15T09:07:08Z</time>
      </trkpt>
      <trkpt lat="43.44905" lon="3.45908">
        <ele>72.24</ele>
        <time>2012-04-15T09:07:10Z</time>
      </trkpt>
      <trkpt lat="43.44901" lon="3.45896">
        <ele>72.72</ele>
        <time>2012-04-15T09:07:12Z</time>
      </trkpt>
      <trkpt lat="43.44898" lon="3.45885">
        <ele>73.2</ele>
        <time>2012-04-15T09:07:14Z</time>
      </trkpt>
      <trkpt lat="43.44894" lon="3.45873">
        <ele>73.68</ele>
        <time>2012-04-15T09:07:16Z</time>
      </trkpt>
      <trkpt lat="43.44891" lon="3.45861">
        <ele>74.16</ele>
        <time>2012-04-15T09:07:18Z</time>
      </trkpt>
      <trkpt lat="43.44887" lon="3.4585">
        <ele>74.16</ele>
        <time>2012-04-15T09:07:20Z</time>
      </trkpt>
      <trkpt lat="43.44883" lon="3.45838">
        <ele>73.68</ele>
        <time>2012-04-15T09:07:22Z</time>
      </trkpt>
      <trkpt lat="43.44878" lon="3.45826">
        <ele>73.68</ele>
        <time>2012-04-15T09:07:24Z</time>
      </trkpt>
      <trkpt lat="43.44873" lon="3.45814">
        <ele>73.68</ele>
        <time>2012-04-15T09:07:26Z</time>
      </trkpt>
      <trkpt lat="43.44867" lon="3.45803">
        <ele>73.2</ele>
        <time>2012-04-15T09:07:28Z</time>
      </trkpt>
      <trkpt lat="43.4486" lon="3.45795">
        <ele>72.72</ele>
        <time>2012-04-15T09:07:30Z</time>
      </trkpt>
      <trkpt lat="43.44851" lon="3.45783">
        <ele>72.24</ele>
        <time>2012-04-15T09:07:33Z</time>
      </trkpt>
      <trkpt lat="43.44843" lon="3.45772">
        <ele>72.24</ele>
        <time>2012-04-15T09:07:36Z</time>
      </trkpt>
      <trkpt lat="43.44834" lon="3.45762">
        <ele>71.76</ele>
        <time>2012-04-15T09:07:39Z</time>
      </trkpt>
      <trkpt lat="43.44825" lon="3.45754">
        <ele>71.27</ele>
        <time>2012-04-15T09:07:42Z</time>
      </trkpt>
      <trkpt lat="43.44816" lon="3.45744">
        <ele>71.27</ele>
        <time>2012-04-15T09:07:45Z</time>
      </trkpt>
      <trkpt lat="43.44807" lon="3.45735">
        <ele>71.76</ele>
        <time>2012-04-15T09:07:48Z</time>
      </trkpt>
      <trkpt lat="43.44797" lon="3.45723">
        <ele>71.76</ele>
        <time>2012-04-15T09:07:51Z</time>
      </trkpt>
      <trkpt lat="43.4479" lon="3.45715">
        <ele>71.76</ele>
        <time>2012-04-15T09:07:53Z</time>
      </trkpt>
      <trkpt lat="43.44782" lon="3.45705">
        <ele>71.27</ele>
        <time>2012-04-15T09:07:55Z</time>
      </trkpt>
      <trkpt lat="43.44774" lon="3.45696">
        <ele>71.27</ele>
        <time>2012-04-15T09:07:57Z</time>
      </trkpt>
      <trkpt lat="43.44767" lon="3.45686">
        <ele>70.79</ele>
        <time>2012-04-15T09:07:59Z</time>
      </trkpt>
      <trkpt lat="43.4476" lon="3.45675">
        <ele>70.79</ele>
        <time>2012-04-15T09:08:01Z</time>
      </trkpt>
      <trkpt lat="43.44753" lon="3.45663">
        <ele>70.31</ele>
        <time>2012-04-15T09:08:03Z</time>
      </trkpt>
      <trkpt lat="43.44746" lon="3.45651">
        <ele>70.31</ele>
        <time>2012-04-15T09:08:05Z</time>
      </trkpt>
      <trkpt lat="43.4474" lon="3.45639">
        <ele>70.31</ele>
        <time>2012-04-15T09:08:07Z</time>
      </trkpt>
      <trkpt lat="43.44734" lon="3.45628">
        <ele>70.31</ele>
        <time>2012-04-15T09:08:09Z</time>
      </trkpt>
      <trkpt lat="43.44728" lon="3.45618">
        <ele>70.31</ele>
        <time>2012-04-15T09:08:11Z</time>
      </trkpt>
      <trkpt lat="43.44722" lon="3.45608">
        <ele>69.83</ele>
        <time>2012-04-15T09:08:13Z</time>
      </trkpt>
      <trkpt lat="43.44714" lon="3.45594">
        <ele>69.83</ele>
        <time>2012-04-15T09:08:16Z</time>
      </trkpt>
      <trkpt lat="43.44707" lon="3.4558">
        <ele>69.83</ele>
        <time>2012-04-15T09:08:19Z</time>
      </trkpt>
      <trkpt lat="43.44699" lon="3.45566">
        <ele>69.83</ele>
        <time>2012-04-15T09:08:22Z</time>
      </trkpt>
      <trkpt lat="43.44692" lon="3.45553">
        <ele>70.31</ele>
        <time>2012-04-15T09:08:25Z</time>
      </trkpt>
      <trkpt lat="43.44684" lon="3.4554">
        <ele>70.31</ele>
        <time>2012-04-15T09:08:28Z</time>
      </trkpt>
      <trkpt lat="43.44676" lon="3.45527">
        <ele>70.79</ele>
        <time>2012-04-15T09:08:31Z</time>
      </trkpt>
      <trkpt lat="43.44667" lon="3.45515">
        <ele>71.27</ele>
        <time>2012-04-15T09:08:34Z</time>
      </trkpt>
      <trkpt lat="43.44658" lon="3.45505">
        <ele>71.76</ele>
        <time>2012-04-15T09:08:37Z</time>
      </trkpt>
      <trkpt lat="43.44647" lon="3.45494">
        <ele>71.76</ele>
        <time>2012-04-15T09:08:40Z</time>
      </trkpt>
      <trkpt lat="43.44639" lon="3.45488">
        <ele>71.76</ele>
        <time>2012-04-15T09:08:42Z</time>
      </trkpt>
      <trkpt lat="43.4463" lon="3.45482">
        <ele>71.76</ele>
        <time>2012-04-15T09:08:44Z</time>
      </trkpt>
      <trkpt lat="43.44621" lon="3.45475">
        <ele>71.27</ele>
        <time>2012-04-15T09:08:46Z</time>
      </trkpt>
      <trkpt lat="43.44612" lon="3.45469">
        <ele>71.27</ele>
        <time>2012-04-15T09:08:48Z</time>
      </trkpt>
      <trkpt lat="43.44602" lon="3.45462">
        <ele>70.79</ele>
        <time>2012-04-15T09:08:50Z</time>
      </trkpt>
      <trkpt lat="43.44592" lon="3.45454">
        <ele>70.79</ele>
        <time>2012-04-15T09:08:52Z</time>
      </trkpt>
      <trkpt lat="43.44582" lon="3.45447">
        <ele>70.79</ele>
        <time>2012-04-15T09:08:54Z</time>
      </trkpt>
      <trkpt lat="43.44573" lon="3.45438">
        <ele>70.31</ele>
        <time>2012-04-15T09:08:56Z</time>
      </trkpt>
      <trkpt lat="43.44564" lon="3.45428">
        <ele>69.83</ele>
        <time>2012-04-15T09:08:58Z</time>
      </trkpt>
      <trkpt lat="43.44556" lon="3.45417">
        <ele>69.35</ele>
        <time>2012-04-15T09:09:00Z</time>
      </trkpt>
      <trkpt lat="43.44547" lon="3.45406">
        <ele>69.35</ele>
        <time>2012-04-15T09:09:02Z</time>
      </trkpt>
      <trkpt lat="43.44539" lon="3.45396">
        <ele>69.35</ele>
        <time>2012-04-15T09:09:04Z</time>
      </trkpt>
      <trkpt lat="43.44531" lon="3.45385">
        <ele>69.35</ele>
        <time>2012-04-15T09:09:06Z</time>
      </trkpt>
      <trkpt lat="43.44522" lon="3.45375">
        <ele>69.35</ele>
        <time>2012-04-15T09:09:08Z</time>
      </trkpt>
      <trkpt lat="43.44514" lon="3.45365">
        <ele>68.87</ele>
        <time>2012-04-15T09:09:10Z</time>
      </trkpt>
      <trkpt lat="43.44506" lon="3.45354">
        <ele>68.39</ele>
        <time>2012-04-15T09:09:12Z</time>
      </trkpt>
      <trkpt lat="43.44497" lon="3.45344">
        <ele>68.39</ele>
        <time>2012-04-15T09:09:14Z</time>
      </trkpt>
      <trkpt lat="43.44487" lon="3.45335">
        <ele>67.91</ele>
        <time>2012-04-15T09:09:16Z</time>
      </trkpt>
      <trkpt lat="43.44476" lon="3.45328">
        <ele>67.91</ele>
        <time>2012-04-15T09:09:18Z</time>
      </trkpt>
      <trkpt lat="43.44464" lon="3.45322">
        <ele>67.43</ele>
        <time>2012-04-15T09:09:20Z</time>
      </trkpt>
      <trkpt lat="43.44453" lon="3.45315">
        <ele>66.95</ele>
        <time>2012-04-15T09:09:22Z</time>
      </trkpt>
      <trkpt lat="43.4444" lon="3.45308">
        <ele>66.95</ele>
        <time>2012-04-15T09:09:24Z</time>
      </trkpt>
      <trkpt lat="43.44428" lon="3.45301">
        <ele>66.47</ele>
        <time>2012-04-15T09:09:26Z</time>
      </trkpt>
      <trkpt lat="43.44415" lon="3.45295">
        <ele>66.47</ele>
        <time>2012-04-15T09:09:28Z</time>
      </trkpt>
      <trkpt lat="43.44403" lon="3.45288">
        <ele>66.47</ele>
        <time>2012-04-15T09:09:30Z</time>
      </trkpt>
      <trkpt lat="43.44391" lon="3.4528">
        <ele>66.47</ele>
        <time>2012-04-15T09:09:32Z</time>
      </trkpt>
      <trkpt lat="43.44379" lon="3.45271">
        <ele>66.47</ele>
        <time>2012-04-15T09:09:34Z</time>
      </trkpt>
      <trkpt lat="43.44368" lon="3.45261">
        <ele>66.47</ele>
        <time>2012-04-15T09:09:36Z</time>
      </trkpt>
      <trkpt lat="43.44358" lon="3.45251">
        <ele>66.47</ele>
        <time>2012-04-15T09:09:38Z</time>
      </trkpt>
      <trkpt lat="43.44348" lon="3.45241">
        <ele>66.47</ele>
        <time>2012-04-15T09:09:40Z</time>
      </trkpt>
      <trkpt lat="43.44337" lon="3.45229">
        <ele>65.51</ele>
        <time>2012-04-15T09:09:42Z</time>
      </trkpt>
      <trkpt lat="43.44326" lon="3.45218">
        <ele>64.55</ele>
        <time>2012-04-15T09:09:44Z</time>
      </trkpt>
      <trkpt lat="43.44316" lon="3.45208">
        <ele>64.07</ele>
        <time>2012-04-15T09:09:46Z</time>
      </trkpt>
      <trkpt lat="43.44305" lon="3.45198">
        <ele>63.1</ele>
        <time>2012-04-15T09:09:48Z</time>
      </trkpt>
      <trkpt lat="43.44296" lon="3.4519">
        <ele>63.1</ele>
        <time>2012-04-15T09:09:50Z</time>
      </trkpt>
      <trkpt lat="43.44287" lon="3.45193">
        <ele>63.1</ele>
        <time>2012-04-15T09:09:52Z</time>
      </trkpt>
      <trkpt lat="43.44282" lon="3.45205">
        <ele>63.1</ele>
        <time>2012-04-15T09:09:54Z</time>
      </trkpt>
      <trkpt lat="43.44278" lon="3.45218">
        <ele>63.1</ele>
        <time>2012-04-15T09:09:56Z</time>
      </trkpt>
      <trkpt lat="43.44272" lon="3.4523">
        <ele>63.1</ele>
        <time>2012-04-15T09:09:58Z</time>
      </trkpt>
      <trkpt lat="43.44266" lon="3.45243">
        <ele>62.62</ele>
        <time>2012-04-15T09:10:00Z</time>
      </trkpt>
      <trkpt lat="43.44259" lon="3.45256">
        <ele>62.62</ele>
        <time>2012-04-15T09:10:02Z</time>
      </trkpt>
      <trkpt lat="43.44251" lon="3.45271">
        <ele>62.14</ele>
        <time>2012-04-15T09:10:04Z</time>
      </trkpt>
      <trkpt lat="43.44242" lon="3.45288">
        <ele>61.18</ele>
        <time>2012-04-15T09:10:06Z</time>
      </trkpt>
      <trkpt lat="43.44232" lon="3.45305">
        <ele>60.22</ele>
        <time>2012-04-15T09:10:08Z</time>
      </trkpt>
      <trkpt lat="43.4422" lon="3.45323">
        <ele>58.78</ele>
        <time>2012-04-15T09:10:10Z</time>
      </trkpt>
      <trkpt lat="43.44209" lon="3.45343">
        <ele>57.82</ele>
        <time>2012-04-15T09:10:12Z</time>
      </trkpt>
      <trkpt lat="43.44204" lon="3.45353">
        <ele>57.34</ele>
        <time>2012-04-15T09:10:13Z</time>
      </trkpt>
      <trkpt lat="43.44193" lon="3.45372">
        <ele>56.37</ele>
        <time>2012-04-15T09:10:15Z</time>
      </trkpt>
      <trkpt lat="43.44185" lon="3.45388">
        <ele>54.93</ele>
        <time>2012-04-15T09:10:17Z</time>
      </trkpt>
      <trkpt lat="43.44179" lon="3.45407">
        <ele>53.49</ele>
        <time>2012-04-15T09:10:19Z</time>
      </trkpt>
      <trkpt lat="43.44176" lon="3.45429">
        <ele>52.05</ele>
        <time>2012-04-15T09:10:21Z</time>
      </trkpt>
      <trkpt lat="43.44171" lon="3.45452">
        <ele>50.61</ele>
        <time>2012-04-15T09:10:23Z</time>
      </trkpt>
      <trkpt lat="43.44165" lon="3.4547">
        <ele>49.16</ele>
        <time>2012-04-15T09:10:25Z</time>
      </trkpt>
      <trkpt lat="43.44157" lon="3.45477">
        <ele>48.68</ele>
        <time>2012-04-15T09:10:27Z</time>
      </trkpt>
      <trkpt lat="43.44151" lon="3.45485">
        <ele>47.72</ele>
        <time>2012-04-15T09:10:31Z</time>
      </trkpt>
      <trkpt lat="43.44152" lon="3.45498">
        <ele>49.16</ele>
        <time>2012-04-15T09:10:36Z</time>
      </trkpt>
      <trkpt lat="43.44145" lon="3.45508">
        <ele>50.61</ele>
        <time>2012-04-15T09:10:40Z</time>
      </trkpt>
      <trkpt lat="43.44139" lon="3.45519">
        <ele>51.57</ele>
        <time>2012-04-15T09:10:44Z</time>
      </trkpt>
      <trkpt lat="43.44134" lon="3.4553">
        <ele>53.01</ele>
        <time>2012-04-15T09:10:48Z</time>
      </trkpt>
      <trkpt lat="43.44127" lon="3.45543">
        <ele>55.41</ele>
        <time>2012-04-15T09:10:53Z</time>
      </trkpt>
      <trkpt lat="43.44122" lon="3.45554">
        <ele>57.34</ele>
        <time>2012-04-15T09:10:57Z</time>
      </trkpt>
      <trkpt lat="43.44117" lon="3.45566">
        <ele>59.74</ele>
        <time>2012-04-15T09:11:02Z</time>
      </trkpt>
      <trkpt lat="43.4411" lon="3.45577">
        <ele>60.7</ele>
        <time>2012-04-15T09:11:06Z</time>
      </trkpt>
      <trkpt lat="43.44105" lon="3.45591">
        <ele>61.18</ele>
        <time>2012-04-15T09:11:11Z</time>
      </trkpt>
      <trkpt lat="43.44099" lon="3.45601">
        <ele>61.66</ele>
        <time>2012-04-15T09:11:16Z</time>
      </trkpt>
      <trkpt lat="43.44094" lon="3.45614">
        <ele>65.03</ele>
        <time>2012-04-15T09:11:22Z</time>
      </trkpt>
      <trkpt lat="43.44089" lon="3.45628">
        <ele>67.43</ele>
        <time>2012-04-15T09:11:27Z</time>
      </trkpt>
      <trkpt lat="43.44079" lon="3.45638">
        <ele>68.87</ele>
        <time>2012-04-15T09:11:34Z</time>
      </trkpt>
      <trkpt lat="43.44072" lon="3.45629">
        <ele>68.39</ele>
        <time>2012-04-15T09:11:37Z</time>
      </trkpt>
      <trkpt lat="43.44069" lon="3.45621">
        <ele>67.91</ele>
        <time>2012-04-15T09:11:41Z</time>
      </trkpt>
      <trkpt lat="43.44063" lon="3.4561">
        <ele>68.87</ele>
        <time>2012-04-15T09:11:47Z</time>
      </trkpt>
      <trkpt lat="43.44059" lon="3.45599">
        <ele>69.83</ele>
        <time>2012-04-15T09:11:54Z</time>
      </trkpt>
      <trkpt lat="43.44055" lon="3.45587">
        <ele>70.79</ele>
        <time>2012-04-15T09:12:01Z</time>
      </trkpt>
      <trkpt lat="43.44054" lon="3.45574">
        <ele>72.24</ele>
        <time>2012-04-15T09:12:09Z</time>
      </trkpt>
      <trkpt lat="43.44052" lon="3.45561">
        <ele>72.72</ele>
        <time>2012-04-15T09:12:17Z</time>
      </trkpt>
      <trkpt lat="43.44048" lon="3.4555">
        <ele>74.64</ele>
        <time>2012-04-15T09:12:26Z</time>
      </trkpt>
      <trkpt lat="43.44047" lon="3.45535">
        <ele>79.93</ele>
        <time>2012-04-15T09:12:41Z</time>
      </trkpt>
      <trkpt lat="43.44043" lon="3.45514">
        <ele>84.25</ele>
        <time>2012-04-15T09:12:53Z</time>
      </trkpt>
      <trkpt lat="43.44037" lon="3.45495">
        <ele>87.14</ele>
        <time>2012-04-15T09:13:05Z</time>
      </trkpt>
      <trkpt lat="43.44029" lon="3.45482">
        <ele>88.58</ele>
        <time>2012-04-15T09:13:09Z</time>
      </trkpt>
      <trkpt lat="43.4402" lon="3.45472">
        <ele>89.06</ele>
        <time>2012-04-15T09:13:12Z</time>
      </trkpt>
      <trkpt lat="43.44011" lon="3.45463">
        <ele>89.06</ele>
        <time>2012-04-15T09:13:15Z</time>
      </trkpt>
      <trkpt lat="43.44001" lon="3.45452">
        <ele>90.02</ele>
        <time>2012-04-15T09:13:18Z</time>
      </trkpt>
      <trkpt lat="43.43992" lon="3.45443">
        <ele>90.5</ele>
        <time>2012-04-15T09:13:21Z</time>
      </trkpt>
      <trkpt lat="43.43984" lon="3.45435">
        <ele>91.46</ele>
        <time>2012-04-15T09:13:24Z</time>
      </trkpt>
      <trkpt lat="43.43979" lon="3.45422">
        <ele>93.39</ele>
        <time>2012-04-15T09:13:28Z</time>
      </trkpt>
      <trkpt lat="43.4397" lon="3.4541">
        <ele>94.35</ele>
        <time>2012-04-15T09:13:32Z</time>
      </trkpt>
      <trkpt lat="43.43961" lon="3.45403">
        <ele>95.79</ele>
        <time>2012-04-15T09:13:35Z</time>
      </trkpt>
      <trkpt lat="43.43949" lon="3.45392">
        <ele>97.23</ele>
        <time>2012-04-15T09:13:38Z</time>
      </trkpt>
      <trkpt lat="43.4394" lon="3.45387">
        <ele>97.23</ele>
        <time>2012-04-15T09:13:40Z</time>
      </trkpt>
      <trkpt lat="43.43931" lon="3.45384">
        <ele>96.75</ele>
        <time>2012-04-15T09:13:42Z</time>
      </trkpt>
      <trkpt lat="43.43923" lon="3.45371">
        <ele>96.75</ele>
        <time>2012-04-15T09:13:45Z</time>
      </trkpt>
      <trkpt lat="43.43915" lon="3.4536">
        <ele>96.75</ele>
        <time>2012-04-15T09:13:48Z</time>
      </trkpt>
      <trkpt lat="43.43905" lon="3.45352">
        <ele>96.75</ele>
        <time>2012-04-15T09:13:51Z</time>
      </trkpt>
      <trkpt lat="43.43891" lon="3.45339">
        <ele>96.27</ele>
        <time>2012-04-15T09:13:54Z</time>
      </trkpt>
      <trkpt lat="43.43884" lon="3.45329">
        <ele>95.79</ele>
        <time>2012-04-15T09:13:56Z</time>
      </trkpt>
      <trkpt lat="43.43873" lon="3.45321">
        <ele>94.35</ele>
        <time>2012-04-15T09:13:59Z</time>
      </trkpt>
      <trkpt lat="43.43862" lon="3.45318">
        <ele>92.42</ele>
        <time>2012-04-15T09:14:02Z</time>
      </trkpt>
      <trkpt lat="43.43848" lon="3.45311">
        <ele>85.69</ele>
        <time>2012-04-15T09:14:05Z</time>
      </trkpt>
      <trkpt lat="43.43837" lon="3.45303">
        <ele>81.85</ele>
        <time>2012-04-15T09:14:07Z</time>
      </trkpt>
      <trkpt lat="43.43826" lon="3.45295">
        <ele>78.97</ele>
        <time>2012-04-15T09:14:09Z</time>
      </trkpt>
      <trkpt lat="43.43815" lon="3.45287">
        <ele>75.6</ele>
        <time>2012-04-15T09:14:11Z</time>
      </trkpt>
      <trkpt lat="43.43804" lon="3.45279">
        <ele>72.72</ele>
        <time>2012-04-15T09:14:13Z</time>
      </trkpt>
      <trkpt lat="43.43796" lon="3.45271">
        <ele>70.79</ele>
        <time>2012-04-15T09:14:15Z</time>
      </trkpt>
      <trkpt lat="43.43789" lon="3.4526">
        <ele>68.87</ele>
        <time>2012-04-15T09:14:17Z</time>
      </trkpt>
      <trkpt lat="43.43783" lon="3.4525">
        <ele>67.91</ele>
        <time>2012-04-15T09:14:19Z</time>
      </trkpt>
      <trkpt lat="43.43774" lon="3.45242">
        <ele>67.43</ele>
        <time>2012-04-15T09:14:21Z</time>
      </trkpt>
      <trkpt lat="43.43764" lon="3.45239">
        <ele>65.03</ele>
        <time>2012-04-15T09:14:23Z</time>
      </trkpt>
      <trkpt lat="43.43755" lon="3.45235">
        <ele>61.66</ele>
        <time>2012-04-15T09:14:25Z</time>
      </trkpt>
      <trkpt lat="43.43747" lon="3.45227">
        <ele>59.26</ele>
        <time>2012-04-15T09:14:27Z</time>
      </trkpt>
      <trkpt lat="43.43745" lon="3.45214">
        <ele>55.41</ele>
        <time>2012-04-15T09:14:30Z</time>
      </trkpt>
      <trkpt lat="43.43739" lon="3.45206">
        <ele>51.57</ele>
        <time>2012-04-15T09:14:33Z</time>
      </trkpt>
      <trkpt lat="43.43727" lon="3.45209">
        <ele>48.68</ele>
        <time>2012-04-15T09:14:36Z</time>
      </trkpt>
      <trkpt lat="43.43718" lon="3.45212">
        <ele>47.72</ele>
        <time>2012-04-15T09:14:38Z</time>
      </trkpt>
      <trkpt lat="43.43707" lon="3.45214">
        <ele>46.76</ele>
        <time>2012-04-15T09:14:41Z</time>
      </trkpt>
      <trkpt lat="43.43699" lon="3.45205">
        <ele>45.32</ele>
        <time>2012-04-15T09:14:45Z</time>
      </trkpt>
      <trkpt lat="43.43698" lon="3.45192">
        <ele>44.84</ele>
        <time>2012-04-15T09:14:49Z</time>
      </trkpt>
      <trkpt lat="43.43696" lon="3.45179">
        <ele>45.32</ele>
        <time>2012-04-15T09:14:53Z</time>
      </trkpt>
      <trkpt lat="43.43691" lon="3.45166">
        <ele>45.8</ele>
        <time>2012-04-15T09:14:58Z</time>
      </trkpt>
      <trkpt lat="43.43685" lon="3.45156">
        <ele>46.28</ele>
        <time>2012-04-15T09:15:03Z</time>
      </trkpt>
      <trkpt lat="43.43682" lon="3.45144">
        <ele>46.28</ele>
        <time>2012-04-15T09:15:08Z</time>
      </trkpt>
      <trkpt lat="43.43677" lon="3.45131">
        <ele>46.76</ele>
        <time>2012-04-15T09:15:13Z</time>
      </trkpt>
      <trkpt lat="43.43669" lon="3.45121">
        <ele>46.76</ele>
        <time>2012-04-15T09:15:18Z</time>
      </trkpt>
      <trkpt lat="43.43661" lon="3.45114">
        <ele>47.24</ele>
        <time>2012-04-15T09:15:22Z</time>
      </trkpt>
      <trkpt lat="43.43652" lon="3.45109">
        <ele>47.72</ele>
        <time>2012-04-15T09:15:26Z</time>
      </trkpt>
      <trkpt lat="43.43641" lon="3.45107">
        <ele>47.72</ele>
        <time>2012-04-15T09:15:30Z</time>
      </trkpt>
      <trkpt lat="43.43633" lon="3.45107">
        <ele>49.16</ele>
        <time>2012-04-15T09:15:34Z</time>
      </trkpt>
      <trkpt lat="43.43624" lon="3.4511">
        <ele>50.61</ele>
        <time>2012-04-15T09:15:38Z</time>
      </trkpt>
      <trkpt lat="43.43614" lon="3.45113">
        <ele>50.13</ele>
        <time>2012-04-15T09:15:42Z</time>
      </trkpt>
      <trkpt lat="43.43604" lon="3.45111">
        <ele>51.09</ele>
        <time>2012-04-15T09:15:47Z</time>
      </trkpt>
      <trkpt lat="43.43599" lon="3.451">
        <ele>51.09</ele>
        <time>2012-04-15T09:15:51Z</time>
      </trkpt>
      <trkpt lat="43.43591" lon="3.45086">
        <ele>51.09</ele>
        <time>2012-04-15T09:15:55Z</time>
      </trkpt>
      <trkpt lat="43.43582" lon="3.45077">
        <ele>50.61</ele>
        <time>2012-04-15T09:15:58Z</time>
      </trkpt>
      <trkpt lat="43.43571" lon="3.45065">
        <ele>49.65</ele>
        <time>2012-04-15T09:16:01Z</time>
      </trkpt>
      <trkpt lat="43.43562" lon="3.45056">
        <ele>48.68</ele>
        <time>2012-04-15T09:16:03Z</time>
      </trkpt>
      <trkpt lat="43.43551" lon="3.45049">
        <ele>47.72</ele>
        <time>2012-04-15T09:16:05Z</time>
      </trkpt>
      <trkpt lat="43.43541" lon="3.45041">
        <ele>46.76</ele>
        <time>2012-04-15T09:16:07Z</time>
      </trkpt>
      <trkpt lat="43.43532" lon="3.45031">
        <ele>45.8</ele>
        <time>2012-04-15T09:16:09Z</time>
      </trkpt>
      <trkpt lat="43.4353" lon="3.45018">
        <ele>44.84</ele>
        <time>2012-04-15T09:16:11Z</time>
      </trkpt>
      <trkpt lat="43.43532" lon="3.45005">
        <ele>44.36</ele>
        <time>2012-04-15T09:16:13Z</time>
      </trkpt>
      <trkpt lat="43.43533" lon="3.44992">
        <ele>43.88</ele>
        <time>2012-04-15T09:16:15Z</time>
      </trkpt>
      <trkpt lat="43.43533" lon="3.44978">
        <ele>43.88</ele>
        <time>2012-04-15T09:16:17Z</time>
      </trkpt>
      <trkpt lat="43.43533" lon="3.44965">
        <ele>43.4</ele>
        <time>2012-04-15T09:16:19Z</time>
      </trkpt>
      <trkpt lat="43.43533" lon="3.44952">
        <ele>43.4</ele>
        <time>2012-04-15T09:16:21Z</time>
      </trkpt>
      <trkpt lat="43.43533" lon="3.44939">
        <ele>42.92</ele>
        <time>2012-04-15T09:16:23Z</time>
      </trkpt>
      <trkpt lat="43.43533" lon="3.44926">
        <ele>42.92</ele>
        <time>2012-04-15T09:16:25Z</time>
      </trkpt>
      <trkpt lat="43.43533" lon="3.44913">
        <ele>42.44</ele>
        <time>2012-04-15T09:16:27Z</time>
      </trkpt>
      <trkpt lat="43.43534" lon="3.44898">
        <ele>41.95</ele>
        <time>2012-04-15T09:16:29Z</time>
      </trkpt>
      <trkpt lat="43.43535" lon="3.44884">
        <ele>41.47</ele>
        <time>2012-04-15T09:16:31Z</time>
      </trkpt>
      <trkpt lat="43.43537" lon="3.4487">
        <ele>41.47</ele>
        <time>2012-04-15T09:16:33Z</time>
      </trkpt>
      <trkpt lat="43.4354" lon="3.44857">
        <ele>41.47</ele>
        <time>2012-04-15T09:16:35Z</time>
      </trkpt>
      <trkpt lat="43.43544" lon="3.4484">
        <ele>41.47</ele>
        <time>2012-04-15T09:16:38Z</time>
      </trkpt>
      <trkpt lat="43.43547" lon="3.44823">
        <ele>41.47</ele>
        <time>2012-04-15T09:16:41Z</time>
      </trkpt>
      <trkpt lat="43.4355" lon="3.44805">
        <ele>40.99</ele>
        <time>2012-04-15T09:16:44Z</time>
      </trkpt>
      <trkpt lat="43.4355" lon="3.44788">
        <ele>40.99</ele>
        <time>2012-04-15T09:16:47Z</time>
      </trkpt>
      <trkpt lat="43.43552" lon="3.44773">
        <ele>41.47</ele>
        <time>2012-04-15T09:16:50Z</time>
      </trkpt>
      <trkpt lat="43.43547" lon="3.44758">
        <ele>40.51</ele>
        <time>2012-04-15T09:16:53Z</time>
      </trkpt>
      <trkpt lat="43.43541" lon="3.44749">
        <ele>40.03</ele>
        <time>2012-04-15T09:16:55Z</time>
      </trkpt>
      <trkpt lat="43.43535" lon="3.44738">
        <ele>39.55</ele>
        <time>2012-04-15T09:16:58Z</time>
      </trkpt>
      <trkpt lat="43.43537" lon="3.4472">
        <ele>39.55</ele>
        <time>2012-04-15T09:17:01Z</time>
      </trkpt>
      <trkpt lat="43.4354" lon="3.44703">
        <ele>39.55</ele>
        <time>2012-04-15T09:17:04Z</time>
      </trkpt>
      <trkpt lat="43.43543" lon="3.44688">
        <ele>39.55</ele>
        <time>2012-04-15T09:17:07Z</time>
      </trkpt>
      <trkpt lat="43.43546" lon="3.44672">
        <ele>39.55</ele>
        <time>2012-04-15T09:17:10Z</time>
      </trkpt>
      <trkpt lat="43.43549" lon="3.44659">
        <ele>40.03</ele>
        <time>2012-04-15T09:17:13Z</time>
      </trkpt>
      <trkpt lat="43.43551" lon="3.44645">
        <ele>40.99</ele>
        <time>2012-04-15T09:17:18Z</time>
      </trkpt>
      <trkpt lat="43.43557" lon="3.44633">
        <ele>41.95</ele>
        <time>2012-04-15T09:17:22Z</time>
      </trkpt>
      <trkpt lat="43.43558" lon="3.44617">
        <ele>43.88</ele>
        <time>2012-04-15T09:17:27Z</time>
      </trkpt>
      <trkpt lat="43.43558" lon="3.44601">
        <ele>45.8</ele>
        <time>2012-04-15T09:17:31Z</time>
      </trkpt>
      <trkpt lat="43.43557" lon="3.44585">
        <ele>46.76</ele>
        <time>2012-04-15T09:17:35Z</time>
      </trkpt>
      <trkpt lat="43.43552" lon="3.4457">
        <ele>48.2</ele>
        <time>2012-04-15T09:17:40Z</time>
      </trkpt>
      <trkpt lat="43.43548" lon="3.44554">
        <ele>49.16</ele>
        <time>2012-04-15T09:17:44Z</time>
      </trkpt>
      <trkpt lat="43.43544" lon="3.44541">
        <ele>50.13</ele>
        <time>2012-04-15T09:17:47Z</time>
      </trkpt>
      <trkpt lat="43.43535" lon="3.4453">
        <ele>50.61</ele>
        <time>2012-04-15T09:17:50Z</time>
      </trkpt>
      <trkpt lat="43.43528" lon="3.4452">
        <ele>51.09</ele>
        <time>2012-04-15T09:17:52Z</time>
      </trkpt>
      <trkpt lat="43.43519" lon="3.44515">
        <ele>52.53</ele>
        <time>2012-04-15T09:17:55Z</time>
      </trkpt>
      <trkpt lat="43.43508" lon="3.44507">
        <ele>53.49</ele>
        <time>2012-04-15T09:17:59Z</time>
      </trkpt>
      <trkpt lat="43.43498" lon="3.44496">
        <ele>54.93</ele>
        <time>2012-04-15T09:18:05Z</time>
      </trkpt>
      <trkpt lat="43.43492" lon="3.44482">
        <ele>55.41</ele>
        <time>2012-04-15T09:18:09Z</time>
      </trkpt>
      <trkpt lat="43.43486" lon="3.44467">
        <ele>54.93</ele>
        <time>2012-04-15T09:18:12Z</time>
      </trkpt>
      <trkpt lat="43.43481" lon="3.4445">
        <ele>53.97</ele>
        <time>2012-04-15T09:18:15Z</time>
      </trkpt>
      <trkpt lat="43.43478" lon="3.44435">
        <ele>53.49</ele>
        <time>2012-04-15T09:18:17Z</time>
      </trkpt>
      <trkpt lat="43.43474" lon="3.44418">
        <ele>52.53</ele>
        <time>2012-04-15T09:18:20Z</time>
      </trkpt>
      <trkpt lat="43.43471" lon="3.44405">
        <ele>52.05</ele>
        <time>2012-04-15T09:18:23Z</time>
      </trkpt>
      <trkpt lat="43.43468" lon="3.44391">
        <ele>49.65</ele>
        <time>2012-04-15T09:18:27Z</time>
      </trkpt>
      <trkpt lat="43.43464" lon="3.44378">
        <ele>48.2</ele>
        <time>2012-04-15T09:18:31Z</time>
      </trkpt>
      <trkpt lat="43.43456" lon="3.44371">
        <ele>46.76</ele>
        <time>2012-04-15T09:18:36Z</time>
      </trkpt>
      <trkpt lat="43.43453" lon="3.4438">
        <ele>45.32</ele>
        <time>2012-04-15T09:18:41Z</time>
      </trkpt>
      <trkpt lat="43.43453" lon="3.44392">
        <ele>42.92</ele>
        <time>2012-04-15T09:18:47Z</time>
      </trkpt>
      <trkpt lat="43.43453" lon="3.44405">
        <ele>42.92</ele>
        <time>2012-04-15T09:18:52Z</time>
      </trkpt>
      <trkpt lat="43.43453" lon="3.44418">
        <ele>43.88</ele>
        <time>2012-04-15T09:18:58Z</time>
      </trkpt>
      <trkpt lat="43.43454" lon="3.44432">
        <ele>45.32</ele>
        <time>2012-04-15T09:19:04Z</time>
      </trkpt>
      <trkpt lat="43.43456" lon="3.44445">
        <ele>46.28</ele>
        <time>2012-04-15T09:19:09Z</time>
      </trkpt>
      <trkpt lat="43.43457" lon="3.44457">
        <ele>47.24</ele>
        <time>2012-04-15T09:19:14Z</time>
      </trkpt>
      <trkpt lat="43.43456" lon="3.4447">
        <ele>48.2</ele>
        <time>2012-04-15T09:19:19Z</time>
      </trkpt>
      <trkpt lat="43.43451" lon="3.44481">
        <ele>47.72</ele>
        <time>2012-04-15T09:19:24Z</time>
      </trkpt>
      <trkpt lat="43.43445" lon="3.44492">
        <ele>48.2</ele>
        <time>2012-04-15T09:19:29Z</time>
      </trkpt>
      <trkpt lat="43.4344" lon="3.44505">
        <ele>48.2</ele>
        <time>2012-04-15T09:19:34Z</time>
      </trkpt>
      <trkpt lat="43.43434" lon="3.44516">
        <ele>47.24</ele>
        <time>2012-04-15T09:19:39Z</time>
      </trkpt>
      <trkpt lat="43.43429" lon="3.44528">
        <ele>47.24</ele>
        <time>2012-04-15T09:19:44Z</time>
      </trkpt>
      <trkpt lat="43.43422" lon="3.44541">
        <ele>46.76</ele>
        <time>2012-04-15T09:19:49Z</time>
      </trkpt>
      <trkpt lat="43.43416" lon="3.44552">
        <ele>46.28</ele>
        <time>2012-04-15T09:19:53Z</time>
      </trkpt>
      <trkpt lat="43.43409" lon="3.44565">
        <ele>45.32</ele>
        <time>2012-04-15T09:19:57Z</time>
      </trkpt>
      <trkpt lat="43.43406" lon="3.44578">
        <ele>45.32</ele>
        <time>2012-04-15T09:20:00Z</time>
      </trkpt>
      <trkpt lat="43.43403" lon="3.44592">
        <ele>45.8</ele>
        <time>2012-04-15T09:20:03Z</time>
      </trkpt>
      <trkpt lat="43.43398" lon="3.44604">
        <ele>45.8</ele>
        <time>2012-04-15T09:20:06Z</time>
      </trkpt>
      <trkpt lat="43.43392" lon="3.44617">
        <ele>45.8</ele>
        <time>2012-04-15T09:20:10Z</time>
      </trkpt>
      <trkpt lat="43.4339" lon="3.44633">
        <ele>46.76</ele>
        <time>2012-04-15T09:20:14Z</time>
      </trkpt>
      <trkpt lat="43.43389" lon="3.44647">
        <ele>46.76</ele>
        <time>2012-04-15T09:20:17Z</time>
      </trkpt>
      <trkpt lat="43.43391" lon="3.44661">
        <ele>46.28</ele>
        <time>2012-04-15T09:20:20Z</time>
      </trkpt>
      <trkpt lat="43.43393" lon="3.44674">
        <ele>46.76</ele>
        <time>2012-04-15T09:20:23Z</time>
      </trkpt>
      <trkpt lat="43.43394" lon="3.4469">
        <ele>47.72</ele>
        <time>2012-04-15T09:20:27Z</time>
      </trkpt>
      <trkpt lat="43.43392" lon="3.44706">
        <ele>47.72</ele>
        <time>2012-04-15T09:20:31Z</time>
      </trkpt>
      <trkpt lat="43.43386" lon="3.4472">
        <ele>48.2</ele>
        <time>2012-04-15T09:20:35Z</time>
      </trkpt>
      <trkpt lat="43.43378" lon="3.44724">
        <ele>49.16</ele>
        <time>2012-04-15T09:20:39Z</time>
      </trkpt>
      <trkpt lat="43.43368" lon="3.4473">
        <ele>49.16</ele>
        <time>2012-04-15T09:20:43Z</time>
      </trkpt>
      <trkpt lat="43.4336" lon="3.44737">
        <ele>49.16</ele>
        <time>2012-04-15T09:20:46Z</time>
      </trkpt>
      <trkpt lat="43.43353" lon="3.44746">
        <ele>49.65</ele>
        <time>2012-04-15T09:20:49Z</time>
      </trkpt>
      <trkpt lat="43.43346" lon="3.44757">
        <ele>50.13</ele>
        <time>2012-04-15T09:20:53Z</time>
      </trkpt>
      <trkpt lat="43.43339" lon="3.44771">
        <ele>50.61</ele>
        <time>2012-04-15T09:20:57Z</time>
      </trkpt>
      <trkpt lat="43.43333" lon="3.44783">
        <ele>51.09</ele>
        <time>2012-04-15T09:21:01Z</time>
      </trkpt>
      <trkpt lat="43.43328" lon="3.44793">
        <ele>51.09</ele>
        <time>2012-04-15T09:21:05Z</time>
      </trkpt>
      <trkpt lat="43.43322" lon="3.44806">
        <ele>53.01</ele>
        <time>2012-04-15T09:21:10Z</time>
      </trkpt>
      <trkpt lat="43.43317" lon="3.44819">
        <ele>54.45</ele>
        <time>2012-04-15T09:21:15Z</time>
      </trkpt>
      <trkpt lat="43.43313" lon="3.4483">
        <ele>55.41</ele>
        <time>2012-04-15T09:21:19Z</time>
      </trkpt>
      <trkpt lat="43.43309" lon="3.44842">
        <ele>56.37</ele>
        <time>2012-04-15T09:21:23Z</time>
      </trkpt>
      <trkpt lat="43.43303" lon="3.44856">
        <ele>56.86</ele>
        <time>2012-04-15T09:21:27Z</time>
      </trkpt>
      <trkpt lat="43.43298" lon="3.44868">
        <ele>56.37</ele>
        <time>2012-04-15T09:21:30Z</time>
      </trkpt>
      <trkpt lat="43.43292" lon="3.44879">
        <ele>56.37</ele>
        <time>2012-04-15T09:21:33Z</time>
      </trkpt>
      <trkpt lat="43.43285" lon="3.44889">
        <ele>56.86</ele>
        <time>2012-04-15T09:21:36Z</time>
      </trkpt>
      <trkpt lat="43.43281" lon="3.44901">
        <ele>57.34</ele>
        <time>2012-04-15T09:21:39Z</time>
      </trkpt>
      <trkpt lat="43.43279" lon="3.44914">
        <ele>57.82</ele>
        <time>2012-04-15T09:21:42Z</time>
      </trkpt>
      <trkpt lat="43.43277" lon="3.44929">
        <ele>59.26</ele>
        <time>2012-04-15T09:21:45Z</time>
      </trkpt>
      <trkpt lat="43.43276" lon="3.44943">
        <ele>60.22</ele>
        <time>2012-04-15T09:21:48Z</time>
      </trkpt>
      <trkpt lat="43.43274" lon="3.44958">
        <ele>60.7</ele>
        <time>2012-04-15T09:21:51Z</time>
      </trkpt>
      <trkpt lat="43.4327" lon="3.44972">
        <ele>61.66</ele>
        <time>2012-04-15T09:21:54Z</time>
      </trkpt>
      <trkpt lat="43.43269" lon="3.44986">
        <ele>62.14</ele>
        <time>2012-04-15T09:21:57Z</time>
      </trkpt>
      <trkpt lat="43.43267" lon="3.45001">
        <ele>62.62</ele>
        <time>2012-04-15T09:22:00Z</time>
      </trkpt>
      <trkpt lat="43.43268" lon="3.45018">
        <ele>63.1</ele>
        <time>2012-04-15T09:22:03Z</time>
      </trkpt>
      <trkpt lat="43.4327" lon="3.45033">
        <ele>63.58</ele>
        <time>2012-04-15T09:22:06Z</time>
      </trkpt>
      <trkpt lat="43.43273" lon="3.45047">
        <ele>64.07</ele>
        <time>2012-04-15T09:22:09Z</time>
      </trkpt>
      <trkpt lat="43.43275" lon="3.45062">
        <ele>64.07</ele>
        <time>2012-04-15T09:22:12Z</time>
      </trkpt>
      <trkpt lat="43.43273" lon="3.45078">
        <ele>63.58</ele>
        <time>2012-04-15T09:22:15Z</time>
      </trkpt>
      <trkpt lat="43.43271" lon="3.45096">
        <ele>63.58</ele>
        <time>2012-04-15T09:22:18Z</time>
      </trkpt>
      <trkpt lat="43.4327" lon="3.45113">
        <ele>62.62</ele>
        <time>2012-04-15T09:22:21Z</time>
      </trkpt>
      <trkpt lat="43.43268" lon="3.45127">
        <ele>62.62</ele>
        <time>2012-04-15T09:22:24Z</time>
      </trkpt>
      <trkpt lat="43.43266" lon="3.45139">
        <ele>62.62</ele>
        <time>2012-04-15T09:22:27Z</time>
      </trkpt>
      <trkpt lat="43.43268" lon="3.45154">
        <ele>62.14</ele>
        <time>2012-04-15T09:22:31Z</time>
      </trkpt>
      <trkpt lat="43.43275" lon="3.45164">
        <ele>62.14</ele>
        <time>2012-04-15T09:22:35Z</time>
      </trkpt>
      <trkpt lat="43.43287" lon="3.45173">
        <ele>61.66</ele>
        <time>2012-04-15T09:22:38Z</time>
      </trkpt>
      <trkpt lat="43.43301" lon="3.45173">
        <ele>61.18</ele>
        <time>2012-04-15T09:22:41Z</time>
      </trkpt>
      <trkpt lat="43.43314" lon="3.45168">
        <ele>60.7</ele>
        <time>2012-04-15T09:22:44Z</time>
      </trkpt>
      <trkpt lat="43.43326" lon="3.45164">
        <ele>60.7</ele>
        <time>2012-04-15T09:22:47Z</time>
      </trkpt>
      <trkpt lat="43.43337" lon="3.45164">
        <ele>60.7</ele>
        <time>2012-04-15T09:22:50Z</time>
      </trkpt>
      <trkpt lat="43.43346" lon="3.45162">
        <ele>61.18</ele>
        <time>2012-04-15T09:22:53Z</time>
      </trkpt>
      <trkpt lat="43.43356" lon="3.45158">
        <ele>61.66</ele>
        <time>2012-04-15T09:22:57Z</time>
      </trkpt>
      <trkpt lat="43.43367" lon="3.45149">
        <ele>62.62</ele>
        <time>2012-04-15T09:23:00Z</time>
      </trkpt>
      <trkpt lat="43.43377" lon="3.45146">
        <ele>63.1</ele>
        <time>2012-04-15T09:23:02Z</time>
      </trkpt>
      <trkpt lat="43.43387" lon="3.45149">
        <ele>63.58</ele>
        <time>2012-04-15T09:23:04Z</time>
      </trkpt>
      <trkpt lat="43.43394" lon="3.45159">
        <ele>64.07</ele>
        <time>2012-04-15T09:23:06Z</time>
      </trkpt>
      <trkpt lat="43.43401" lon="3.45171">
        <ele>64.07</ele>
        <time>2012-04-15T09:23:08Z</time>
      </trkpt>
      <trkpt lat="43.43407" lon="3.45182">
        <ele>63.1</ele>
        <time>2012-04-15T09:23:10Z</time>
      </trkpt>
      <trkpt lat="43.43409" lon="3.45196">
        <ele>62.14</ele>
        <time>2012-04-15T09:23:12Z</time>
      </trkpt>
      <trkpt lat="43.4341" lon="3.45212">
        <ele>61.18</ele>
        <time>2012-04-15T09:23:14Z</time>
      </trkpt>
      <trkpt lat="43.4341" lon="3.4523">
        <ele>59.74</ele>
        <time>2012-04-15T09:23:16Z</time>
      </trkpt>
      <trkpt lat="43.4341" lon="3.4525">
        <ele>58.3</ele>
        <time>2012-04-15T09:23:18Z</time>
      </trkpt>
      <trkpt lat="43.43415" lon="3.45266">
        <ele>57.82</ele>
        <time>2012-04-15T09:23:20Z</time>
      </trkpt>
      <trkpt lat="43.43422" lon="3.45279">
        <ele>56.86</ele>
        <time>2012-04-15T09:23:22Z</time>
      </trkpt>
      <trkpt lat="43.43428" lon="3.45289">
        <ele>56.86</ele>
        <time>2012-04-15T09:23:24Z</time>
      </trkpt>
      <trkpt lat="43.43434" lon="3.45299">
        <ele>56.86</ele>
        <time>2012-04-15T09:23:27Z</time>
      </trkpt>
      <trkpt lat="43.4344" lon="3.45308">
        <ele>57.34</ele>
        <time>2012-04-15T09:23:31Z</time>
      </trkpt>
      <trkpt lat="43.43444" lon="3.45318">
        <ele>58.3</ele>
        <time>2012-04-15T09:23:36Z</time>
      </trkpt>
      <trkpt lat="43.43447" lon="3.45331">
        <ele>59.74</ele>
        <time>2012-04-15T09:23:42Z</time>
      </trkpt>
      <trkpt lat="43.43447" lon="3.45346">
        <ele>61.66</ele>
        <time>2012-04-15T09:23:48Z</time>
      </trkpt>
      <trkpt lat="43.4345" lon="3.45361">
        <ele>63.1</ele>
        <time>2012-04-15T09:23:52Z</time>
      </trkpt>
      <trkpt lat="43.43455" lon="3.45373">
        <ele>63.1</ele>
        <time>2012-04-15T09:23:57Z</time>
      </trkpt>
      <trkpt lat="43.43463" lon="3.45381">
        <ele>64.07</ele>
        <time>2012-04-15T09:24:02Z</time>
      </trkpt>
      <trkpt lat="43.43473" lon="3.45378">
        <ele>65.03</ele>
        <time>2012-04-15T09:24:07Z</time>
      </trkpt>
      <trkpt lat="43.43483" lon="3.4538">
        <ele>65.99</ele>
        <time>2012-04-15T09:24:12Z</time>
      </trkpt>
      <trkpt lat="43.43493" lon="3.45379">
        <ele>65.99</ele>
        <time>2012-04-15T09:24:16Z</time>
      </trkpt>
      <trkpt lat="43.43506" lon="3.45375">
        <ele>63.58</ele>
        <time>2012-04-15T09:24:19Z</time>
      </trkpt>
      <trkpt lat="43.43515" lon="3.45373">
        <ele>61.66</ele>
        <time>2012-04-15T09:24:22Z</time>
      </trkpt>
      <trkpt lat="43.43523" lon="3.45362">
        <ele>59.74</ele>
        <time>2012-04-15T09:24:26Z</time>
      </trkpt>
      <trkpt lat="43.4353" lon="3.45357">
        <ele>58.3</ele>
        <time>2012-04-15T09:24:29Z</time>
      </trkpt>
      <trkpt lat="43.43537" lon="3.45371">
        <ele>56.86</ele>
        <time>2012-04-15T09:24:32Z</time>
      </trkpt>
      <trkpt lat="43.43539" lon="3.45386">
        <ele>55.89</ele>
        <time>2012-04-15T09:24:34Z</time>
      </trkpt>
      <trkpt lat="43.43543" lon="3.45403">
        <ele>55.41</ele>
        <time>2012-04-15T09:24:36Z</time>
      </trkpt>
      <trkpt lat="43.43547" lon="3.45422">
        <ele>54.45</ele>
        <time>2012-04-15T09:24:38Z</time>
      </trkpt>
      <trkpt lat="43.4355" lon="3.45442">
        <ele>53.97</ele>
        <time>2012-04-15T09:24:40Z</time>
      </trkpt>
      <trkpt lat="43.43554" lon="3.45462">
        <ele>53.01</ele>
        <time>2012-04-15T09:24:42Z</time>
      </trkpt>
      <trkpt lat="43.43557" lon="3.45484">
        <ele>52.05</ele>
        <time>2012-04-15T09:24:44Z</time>
      </trkpt>
      <trkpt lat="43.43559" lon="3.45507">
        <ele>51.57</ele>
        <time>2012-04-15T09:24:46Z</time>
      </trkpt>
      <trkpt lat="43.43562" lon="3.45528">
        <ele>50.61</ele>
        <time>2012-04-15T09:24:48Z</time>
      </trkpt>
      <trkpt lat="43.43566" lon="3.4555">
        <ele>49.65</ele>
        <time>2012-04-15T09:24:50Z</time>
      </trkpt>
      <trkpt lat="43.43572" lon="3.45569">
        <ele>49.16</ele>
        <time>2012-04-15T09:24:52Z</time>
      </trkpt>
      <trkpt lat="43.43581" lon="3.45581">
        <ele>48.68</ele>
        <time>2012-04-15T09:24:54Z</time>
      </trkpt>
      <trkpt lat="43.43588" lon="3.45594">
        <ele>48.2</ele>
        <time>2012-04-15T09:24:56Z</time>
      </trkpt>
      <trkpt lat="43.43594" lon="3.45607">
        <ele>48.2</ele>
        <time>2012-04-15T09:24:58Z</time>
      </trkpt>
      <trkpt lat="43.43599" lon="3.45618">
        <ele>47.72</ele>
        <time>2012-04-15T09:25:00Z</time>
      </trkpt>
      <trkpt lat="43.43604" lon="3.45628">
        <ele>48.2</ele>
        <time>2012-04-15T09:25:02Z</time>
      </trkpt>
      <trkpt lat="43.43611" lon="3.45642">
        <ele>48.2</ele>
        <time>2012-04-15T09:25:05Z</time>
      </trkpt>
      <trkpt lat="43.43616" lon="3.45656">
        <ele>48.2</ele>
        <time>2012-04-15T09:25:08Z</time>
      </trkpt>
      <trkpt lat="43.43621" lon="3.45669">
        <ele>48.2</ele>
        <time>2012-04-15T09:25:11Z</time>
      </trkpt>
      <trkpt lat="43.43625" lon="3.45682">
        <ele>48.2</ele>
        <time>2012-04-15T09:25:14Z</time>
      </trkpt>
      <trkpt lat="43.43629" lon="3.45695">
        <ele>48.2</ele>
        <time>2012-04-15T09:25:17Z</time>
      </trkpt>
      <trkpt lat="43.43633" lon="3.45711">
        <ele>48.2</ele>
        <time>2012-04-15T09:25:20Z</time>
      </trkpt>
      <trkpt lat="43.43635" lon="3.45725">
        <ele>48.68</ele>
        <time>2012-04-15T09:25:22Z</time>
      </trkpt>
      <trkpt lat="43.43637" lon="3.4574">
        <ele>49.65</ele>
        <time>2012-04-15T09:25:24Z</time>
      </trkpt>
      <trkpt lat="43.43636" lon="3.45753">
        <ele>50.61</ele>
        <time>2012-04-15T09:25:26Z</time>
      </trkpt>
      <trkpt lat="43.43635" lon="3.4577">
        <ele>51.57</ele>
        <time>2012-04-15T09:25:29Z</time>
      </trkpt>
      <trkpt lat="43.43633" lon="3.45786">
        <ele>53.01</ele>
        <time>2012-04-15T09:25:33Z</time>
      </trkpt>
      <trkpt lat="43.43631" lon="3.45802">
        <ele>54.45</ele>
        <time>2012-04-15T09:25:37Z</time>
      </trkpt>
      <trkpt lat="43.43627" lon="3.45817">
        <ele>56.86</ele>
        <time>2012-04-15T09:25:41Z</time>
      </trkpt>
      <trkpt lat="43.43619" lon="3.45843">
        <ele>74.16</ele>
        <time>2012-04-15T09:26:10Z</time>
      </trkpt>
      <trkpt lat="43.4362" lon="3.45845">
        <ele>69.83</ele>
        <time>2012-04-15T09:28:00Z</time>
      </trkpt>
      <trkpt lat="43.4362" lon="3.45855">
        <ele>63.1</ele>
        <time>2012-04-15T09:28:04Z</time>
      </trkpt>
      <trkpt lat="43.43615" lon="3.45866">
        <ele>60.7</ele>
        <time>2012-04-15T09:28:08Z</time>
      </trkpt>
      <trkpt lat="43.43622" lon="3.45867">
        <ele>57.34</ele>
        <time>2012-04-15T09:28:12Z</time>
      </trkpt>
      <trkpt lat="43.43632" lon="3.45862">
        <ele>55.41</ele>
        <time>2012-04-15T09:28:19Z</time>
      </trkpt>
      <trkpt lat="43.43642" lon="3.45861">
        <ele>53.97</ele>
        <time>2012-04-15T09:28:24Z</time>
      </trkpt>
      <trkpt lat="43.43651" lon="3.45863">
        <ele>53.97</ele>
        <time>2012-04-15T09:28:31Z</time>
      </trkpt>
      <trkpt lat="43.4366" lon="3.45866">
        <ele>54.45</ele>
        <time>2012-04-15T09:28:39Z</time>
      </trkpt>
      <trkpt lat="43.43669" lon="3.45862">
        <ele>54.93</ele>
        <time>2012-04-15T09:28:46Z</time>
      </trkpt>
      <trkpt lat="43.43675" lon="3.45865">
        <ele>55.89</ele>
        <time>2012-04-15T09:29:00Z</time>
      </trkpt>
      <trkpt lat="43.4368" lon="3.45872">
        <ele>56.86</ele>
        <time>2012-04-15T09:29:15Z</time>
      </trkpt>
      <trkpt lat="43.43685" lon="3.45886">
        <ele>56.86</ele>
        <time>2012-04-15T09:29:24Z</time>
      </trkpt>
      <trkpt lat="43.43691" lon="3.45899">
        <ele>57.34</ele>
        <time>2012-04-15T09:29:28Z</time>
      </trkpt>
      <trkpt lat="43.43695" lon="3.45912">
        <ele>57.34</ele>
        <time>2012-04-15T09:29:32Z</time>
      </trkpt>
      <trkpt lat="43.43699" lon="3.45926">
        <ele>57.82</ele>
        <time>2012-04-15T09:29:36Z</time>
      </trkpt>
      <trkpt lat="43.43703" lon="3.45941">
        <ele>58.78</ele>
        <time>2012-04-15T09:29:40Z</time>
      </trkpt>
      <trkpt lat="43.43707" lon="3.45956">
        <ele>59.26</ele>
        <time>2012-04-15T09:29:44Z</time>
      </trkpt>
      <trkpt lat="43.43711" lon="3.4597">
        <ele>59.26</ele>
        <time>2012-04-15T09:29:47Z</time>
      </trkpt>
      <trkpt lat="43.43715" lon="3.45983">
        <ele>59.74</ele>
        <time>2012-04-15T09:29:50Z</time>
      </trkpt>
      <trkpt lat="43.4372" lon="3.45998">
        <ele>59.74</ele>
        <time>2012-04-15T09:29:54Z</time>
      </trkpt>
      <trkpt lat="43.43723" lon="3.46012">
        <ele>59.74</ele>
        <time>2012-04-15T09:29:57Z</time>
      </trkpt>
      <trkpt lat="43.43723" lon="3.46026">
        <ele>59.26</ele>
        <time>2012-04-15T09:30:00Z</time>
      </trkpt>
      <trkpt lat="43.43725" lon="3.46039">
        <ele>58.78</ele>
        <time>2012-04-15T09:30:02Z</time>
      </trkpt>
      <trkpt lat="43.43726" lon="3.46054">
        <ele>58.3</ele>
        <time>2012-04-15T09:30:04Z</time>
      </trkpt>
      <trkpt lat="43.43727" lon="3.46069">
        <ele>57.34</ele>
        <time>2012-04-15T09:30:06Z</time>
      </trkpt>
      <trkpt lat="43.43727" lon="3.46084">
        <ele>56.86</ele>
        <time>2012-04-15T09:30:08Z</time>
      </trkpt>
      <trkpt lat="43.43721" lon="3.46097">
        <ele>56.86</ele>
        <time>2012-04-15T09:30:12Z</time>
      </trkpt>
      <trkpt lat="43.43725" lon="3.46111">
        <ele>57.34</ele>
        <time>2012-04-15T09:30:16Z</time>
      </trkpt>
      <trkpt lat="43.43731" lon="3.46122">
        <ele>57.82</ele>
        <time>2012-04-15T09:30:21Z</time>
      </trkpt>
      <trkpt lat="43.43739" lon="3.46131">
        <ele>58.78</ele>
        <time>2012-04-15T09:30:25Z</time>
      </trkpt>
      <trkpt lat="43.43743" lon="3.46141">
        <ele>58.78</ele>
        <time>2012-04-15T09:30:30Z</time>
      </trkpt>
      <trkpt lat="43.43747" lon="3.46153">
        <ele>58.3</ele>
        <time>2012-04-15T09:30:35Z</time>
      </trkpt>
      <trkpt lat="43.43751" lon="3.46165">
        <ele>58.3</ele>
        <time>2012-04-15T09:30:39Z</time>
      </trkpt>
      <trkpt lat="43.43756" lon="3.46176">
        <ele>58.3</ele>
        <time>2012-04-15T09:30:43Z</time>
      </trkpt>
      <trkpt lat="43.43761" lon="3.46189">
        <ele>57.82</ele>
        <time>2012-04-15T09:30:47Z</time>
      </trkpt>
      <trkpt lat="43.43766" lon="3.46202">
        <ele>57.34</ele>
        <time>2012-04-15T09:30:50Z</time>
      </trkpt>
      <trkpt lat="43.43773" lon="3.46215">
        <ele>57.34</ele>
        <time>2012-04-15T09:30:53Z</time>
      </trkpt>
      <trkpt lat="43.43779" lon="3.46227">
        <ele>57.34</ele>
        <time>2012-04-15T09:30:56Z</time>
      </trkpt>
      <trkpt lat="43.43784" lon="3.46238">
        <ele>57.82</ele>
        <time>2012-04-15T09:30:59Z</time>
      </trkpt>
      <trkpt lat="43.4379" lon="3.46249">
        <ele>58.3</ele>
        <time>2012-04-15T09:31:02Z</time>
      </trkpt>
      <trkpt lat="43.43796" lon="3.4626">
        <ele>58.3</ele>
        <time>2012-04-15T09:31:05Z</time>
      </trkpt>
      <trkpt lat="43.43803" lon="3.4627">
        <ele>58.3</ele>
        <time>2012-04-15T09:31:08Z</time>
      </trkpt>
      <trkpt lat="43.43811" lon="3.4628">
        <ele>59.26</ele>
        <time>2012-04-15T09:31:12Z</time>
      </trkpt>
      <trkpt lat="43.43819" lon="3.46294">
        <ele>59.26</ele>
        <time>2012-04-15T09:31:16Z</time>
      </trkpt>
      <trkpt lat="43.43826" lon="3.46307">
        <ele>58.78</ele>
        <time>2012-04-15T09:31:20Z</time>
      </trkpt>
      <trkpt lat="43.43832" lon="3.46318">
        <ele>58.3</ele>
        <time>2012-04-15T09:31:23Z</time>
      </trkpt>
      <trkpt lat="43.43838" lon="3.46328">
        <ele>58.3</ele>
        <time>2012-04-15T09:31:26Z</time>
      </trkpt>
      <trkpt lat="43.43842" lon="3.46339">
        <ele>58.3</ele>
        <time>2012-04-15T09:31:29Z</time>
      </trkpt>
      <trkpt lat="43.43848" lon="3.46351">
        <ele>57.82</ele>
        <time>2012-04-15T09:31:32Z</time>
      </trkpt>
      <trkpt lat="43.43855" lon="3.46364">
        <ele>58.3</ele>
        <time>2012-04-15T09:31:36Z</time>
      </trkpt>
      <trkpt lat="43.43854" lon="3.46377">
        <ele>58.78</ele>
        <time>2012-04-15T09:31:40Z</time>
      </trkpt>
      <trkpt lat="43.43853" lon="3.46393">
        <ele>58.78</ele>
        <time>2012-04-15T09:31:44Z</time>
      </trkpt>
      <trkpt lat="43.43857" lon="3.46407">
        <ele>58.3</ele>
        <time>2012-04-15T09:31:47Z</time>
      </trkpt>
      <trkpt lat="43.43862" lon="3.46418">
        <ele>58.3</ele>
        <time>2012-04-15T09:31:50Z</time>
      </trkpt>
      <trkpt lat="43.43865" lon="3.46432">
        <ele>58.3</ele>
        <time>2012-04-15T09:31:53Z</time>
      </trkpt>
      <trkpt lat="43.43863" lon="3.46447">
        <ele>58.3</ele>
        <time>2012-04-15T09:31:56Z</time>
      </trkpt>
      <trkpt lat="43.43864" lon="3.46459">
        <ele>58.3</ele>
        <time>2012-04-15T09:31:59Z</time>
      </trkpt>
      <trkpt lat="43.43867" lon="3.46472">
        <ele>59.26</ele>
        <time>2012-04-15T09:32:03Z</time>
      </trkpt>
      <trkpt lat="43.43874" lon="3.46483">
        <ele>60.22</ele>
        <time>2012-04-15T09:32:07Z</time>
      </trkpt>
      <trkpt lat="43.4388" lon="3.46493">
        <ele>60.22</ele>
        <time>2012-04-15T09:32:10Z</time>
      </trkpt>
      <trkpt lat="43.43888" lon="3.46504">
        <ele>60.7</ele>
        <time>2012-04-15T09:32:14Z</time>
      </trkpt>
      <trkpt lat="43.43898" lon="3.46511">
        <ele>61.66</ele>
        <time>2012-04-15T09:32:18Z</time>
      </trkpt>
      <trkpt lat="43.43906" lon="3.46517">
        <ele>62.62</ele>
        <time>2012-04-15T09:32:22Z</time>
      </trkpt>
      <trkpt lat="43.43916" lon="3.4652">
        <ele>62.62</ele>
        <time>2012-04-15T09:33:27Z</time>
      </trkpt>
      <trkpt lat="43.43926" lon="3.46518">
        <ele>62.62</ele>
        <time>2012-04-15T09:33:30Z</time>
      </trkpt>
      <trkpt lat="43.43938" lon="3.46517">
        <ele>62.62</ele>
        <time>2012-04-15T09:33:33Z</time>
      </trkpt>
      <trkpt lat="43.43948" lon="3.46515">
        <ele>62.62</ele>
        <time>2012-04-15T09:33:36Z</time>
      </trkpt>
      <trkpt lat="43.43957" lon="3.46511">
        <ele>63.58</ele>
        <time>2012-04-15T09:33:39Z</time>
      </trkpt>
      <trkpt lat="43.43969" lon="3.46508">
        <ele>64.07</ele>
        <time>2012-04-15T09:33:43Z</time>
      </trkpt>
      <trkpt lat="43.43979" lon="3.46506">
        <ele>64.07</ele>
        <time>2012-04-15T09:33:47Z</time>
      </trkpt>
      <trkpt lat="43.43989" lon="3.4651">
        <ele>65.03</ele>
        <time>2012-04-15T09:33:52Z</time>
      </trkpt>
      <trkpt lat="43.43999" lon="3.46511">
        <ele>66.47</ele>
        <time>2012-04-15T09:33:56Z</time>
      </trkpt>
      <trkpt lat="43.44012" lon="3.46513">
        <ele>65.99</ele>
        <time>2012-04-15T09:34:00Z</time>
      </trkpt>
      <trkpt lat="43.44022" lon="3.46521">
        <ele>65.51</ele>
        <time>2012-04-15T09:34:03Z</time>
      </trkpt>
      <trkpt lat="43.44029" lon="3.46533">
        <ele>65.51</ele>
        <time>2012-04-15T09:34:06Z</time>
      </trkpt>
      <trkpt lat="43.44033" lon="3.46549">
        <ele>65.03</ele>
        <time>2012-04-15T09:34:09Z</time>
      </trkpt>
      <trkpt lat="43.4403" lon="3.46563">
        <ele>64.55</ele>
        <time>2012-04-15T09:34:12Z</time>
      </trkpt>
      <trkpt lat="43.44026" lon="3.46574">
        <ele>64.55</ele>
        <time>2012-04-15T09:34:16Z</time>
      </trkpt>
      <trkpt lat="43.44028" lon="3.46591">
        <ele>65.51</ele>
        <time>2012-04-15T09:34:20Z</time>
      </trkpt>
      <trkpt lat="43.44026" lon="3.46604">
        <ele>65.99</ele>
        <time>2012-04-15T09:34:24Z</time>
      </trkpt>
      <trkpt lat="43.4403" lon="3.46619">
        <ele>66.47</ele>
        <time>2012-04-15T09:34:28Z</time>
      </trkpt>
      <trkpt lat="43.44039" lon="3.46623">
        <ele>66.95</ele>
        <time>2012-04-15T09:34:32Z</time>
      </trkpt>
      <trkpt lat="43.44049" lon="3.46619">
        <ele>67.43</ele>
        <time>2012-04-15T09:34:36Z</time>
      </trkpt>
      <trkpt lat="43.44059" lon="3.46616">
        <ele>67.91</ele>
        <time>2012-04-15T09:34:40Z</time>
      </trkpt>
      <trkpt lat="43.44068" lon="3.46616">
        <ele>69.35</ele>
        <time>2012-04-15T09:34:44Z</time>
      </trkpt>
      <trkpt lat="43.4408" lon="3.46617">
        <ele>70.79</ele>
        <time>2012-04-15T09:34:49Z</time>
      </trkpt>
      <trkpt lat="43.44087" lon="3.46624">
        <ele>71.27</ele>
        <time>2012-04-15T09:34:53Z</time>
      </trkpt>
      <trkpt lat="43.44092" lon="3.46634">
        <ele>71.76</ele>
        <time>2012-04-15T09:34:57Z</time>
      </trkpt>
      <trkpt lat="43.44095" lon="3.46649">
        <ele>72.72</ele>
        <time>2012-04-15T09:35:02Z</time>
      </trkpt>
      <trkpt lat="43.44096" lon="3.46663">
        <ele>73.2</ele>
        <time>2012-04-15T09:35:06Z</time>
      </trkpt>
      <trkpt lat="43.441" lon="3.46677">
        <ele>74.16</ele>
        <time>2012-04-15T09:35:10Z</time>
      </trkpt>
      <trkpt lat="43.44099" lon="3.46692">
        <ele>74.64</ele>
        <time>2012-04-15T09:35:14Z</time>
      </trkpt>
      <trkpt lat="43.44099" lon="3.46707">
        <ele>75.12</ele>
        <time>2012-04-15T09:35:19Z</time>
      </trkpt>
      <trkpt lat="43.44104" lon="3.46723">
        <ele>74.64</ele>
        <time>2012-04-15T09:35:23Z</time>
      </trkpt>
      <trkpt lat="43.44106" lon="3.46738">
        <ele>74.16</ele>
        <time>2012-04-15T09:35:26Z</time>
      </trkpt>
      <trkpt lat="43.44108" lon="3.46751">
        <ele>73.68</ele>
        <time>2012-04-15T09:35:29Z</time>
      </trkpt>
      <trkpt lat="43.44112" lon="3.46766">
        <ele>73.2</ele>
        <time>2012-04-15T09:35:32Z</time>
      </trkpt>
      <trkpt lat="43.44114" lon="3.4678">
        <ele>72.72</ele>
        <time>2012-04-15T09:35:35Z</time>
      </trkpt>
      <trkpt lat="43.44113" lon="3.468">
        <ele>71.76</ele>
        <time>2012-04-15T09:35:38Z</time>
      </trkpt>
      <trkpt lat="43.44113" lon="3.46815">
        <ele>71.27</ele>
        <time>2012-04-15T09:35:40Z</time>
      </trkpt>
      <trkpt lat="43.44113" lon="3.46827">
        <ele>70.79</ele>
        <time>2012-04-15T09:35:42Z</time>
      </trkpt>
      <trkpt lat="43.44113" lon="3.4684">
        <ele>70.31</ele>
        <time>2012-04-15T09:35:45Z</time>
      </trkpt>
      <trkpt lat="43.44121" lon="3.46848">
        <ele>69.83</ele>
        <time>2012-04-15T09:35:49Z</time>
      </trkpt>
      <trkpt lat="43.44123" lon="3.46858">
        <ele>70.79</ele>
        <time>2012-04-15T09:35:57Z</time>
      </trkpt>
      <trkpt lat="43.44118" lon="3.46865">
        <ele>71.27</ele>
        <time>2012-04-15T09:36:27Z</time>
      </trkpt>
      <trkpt lat="43.44117" lon="3.46879">
        <ele>71.76</ele>
        <time>2012-04-15T09:36:32Z</time>
      </trkpt>
      <trkpt lat="43.44117" lon="3.46891">
        <ele>69.35</ele>
        <time>2012-04-15T09:36:47Z</time>
      </trkpt>
      <trkpt lat="43.4411" lon="3.46894">
        <ele>68.39</ele>
        <time>2012-04-15T09:37:25Z</time>
      </trkpt>
      <trkpt lat="43.44102" lon="3.46901">
        <ele>69.83</ele>
        <time>2012-04-15T09:37:31Z</time>
      </trkpt>
      <trkpt lat="43.441" lon="3.46908">
        <ele>69.83</ele>
        <time>2012-04-15T09:37:40Z</time>
      </trkpt>
      <trkpt lat="43.44109" lon="3.46917">
        <ele>70.31</ele>
        <time>2012-04-15T09:37:47Z</time>
      </trkpt>
      <trkpt lat="43.44111" lon="3.4693">
        <ele>68.87</ele>
        <time>2012-04-15T09:37:52Z</time>
      </trkpt>
      <trkpt lat="43.44104" lon="3.4694">
        <ele>69.35</ele>
        <time>2012-04-15T09:37:59Z</time>
      </trkpt>
      <trkpt lat="43.44102" lon="3.46953">
        <ele>70.31</ele>
        <time>2012-04-15T09:38:06Z</time>
      </trkpt>
      <trkpt lat="43.4411" lon="3.46964">
        <ele>70.31</ele>
        <time>2012-04-15T09:38:11Z</time>
      </trkpt>
      <trkpt lat="43.44112" lon="3.46977">
        <ele>70.31</ele>
        <time>2012-04-15T09:38:16Z</time>
      </trkpt>
      <trkpt lat="43.44116" lon="3.46988">
        <ele>70.31</ele>
        <time>2012-04-15T09:38:20Z</time>
      </trkpt>
      <trkpt lat="43.44118" lon="3.47001">
        <ele>70.79</ele>
        <time>2012-04-15T09:38:25Z</time>
      </trkpt>
      <trkpt lat="43.44127" lon="3.4701">
        <ele>71.27</ele>
        <time>2012-04-15T09:38:30Z</time>
      </trkpt>
      <trkpt lat="43.44137" lon="3.47013">
        <ele>71.76</ele>
        <time>2012-04-15T09:38:34Z</time>
      </trkpt>
      <trkpt lat="43.44147" lon="3.47014">
        <ele>71.76</ele>
        <time>2012-04-15T09:38:38Z</time>
      </trkpt>
      <trkpt lat="43.44157" lon="3.4701">
        <ele>71.76</ele>
        <time>2012-04-15T09:38:42Z</time>
      </trkpt>
      <trkpt lat="43.44165" lon="3.47004">
        <ele>70.31</ele>
        <time>2012-04-15T09:38:56Z</time>
      </trkpt>
      <trkpt lat="43.44157" lon="3.47009">
        <ele>70.31</ele>
        <time>2012-04-15T09:39:04Z</time>
      </trkpt>
      <trkpt lat="43.44148" lon="3.47012">
        <ele>70.79</ele>
        <time>2012-04-15T09:39:09Z</time>
      </trkpt>
      <trkpt lat="43.44138" lon="3.4701">
        <ele>70.31</ele>
        <time>2012-04-15T09:39:14Z</time>
      </trkpt>
      <trkpt lat="43.44129" lon="3.47008">
        <ele>70.31</ele>
        <time>2012-04-15T09:39:19Z</time>
      </trkpt>
      <trkpt lat="43.44122" lon="3.47002">
        <ele>70.79</ele>
        <time>2012-04-15T09:39:23Z</time>
      </trkpt>
      <trkpt lat="43.44118" lon="3.4699">
        <ele>70.31</ele>
        <time>2012-04-15T09:39:27Z</time>
      </trkpt>
      <trkpt lat="43.44115" lon="3.46977">
        <ele>69.83</ele>
        <time>2012-04-15T09:39:30Z</time>
      </trkpt>
      <trkpt lat="43.44112" lon="3.46965">
        <ele>69.83</ele>
        <time>2012-04-15T09:39:33Z</time>
      </trkpt>
      <trkpt lat="43.44105" lon="3.46957">
        <ele>69.35</ele>
        <time>2012-04-15T09:39:37Z</time>
      </trkpt>
      <trkpt lat="43.44096" lon="3.4695">
        <ele>69.35</ele>
        <time>2012-04-15T09:39:42Z</time>
      </trkpt>
      <trkpt lat="43.44089" lon="3.46939">
        <ele>69.35</ele>
        <time>2012-04-15T09:39:46Z</time>
      </trkpt>
      <trkpt lat="43.4408" lon="3.46938">
        <ele>69.83</ele>
        <time>2012-04-15T09:39:50Z</time>
      </trkpt>
      <trkpt lat="43.4407" lon="3.46944">
        <ele>69.83</ele>
        <time>2012-04-15T09:39:54Z</time>
      </trkpt>
      <trkpt lat="43.44061" lon="3.46949">
        <ele>70.31</ele>
        <time>2012-04-15T09:39:58Z</time>
      </trkpt>
      <trkpt lat="43.44052" lon="3.46955">
        <ele>70.79</ele>
        <time>2012-04-15T09:40:02Z</time>
      </trkpt>
      <trkpt lat="43.44044" lon="3.46961">
        <ele>71.27</ele>
        <time>2012-04-15T09:40:06Z</time>
      </trkpt>
      <trkpt lat="43.44033" lon="3.46963">
        <ele>72.24</ele>
        <time>2012-04-15T09:40:11Z</time>
      </trkpt>
      <trkpt lat="43.44023" lon="3.46967">
        <ele>72.72</ele>
        <time>2012-04-15T09:40:15Z</time>
      </trkpt>
      <trkpt lat="43.44013" lon="3.46967">
        <ele>73.68</ele>
        <time>2012-04-15T09:40:20Z</time>
      </trkpt>
      <trkpt lat="43.44012" lon="3.46975">
        <ele>74.16</ele>
        <time>2012-04-15T09:40:26Z</time>
      </trkpt>
      <trkpt lat="43.44019" lon="3.46987">
        <ele>74.16</ele>
        <time>2012-04-15T09:40:30Z</time>
      </trkpt>
      <trkpt lat="43.44027" lon="3.46998">
        <ele>74.64</ele>
        <time>2012-04-15T09:40:34Z</time>
      </trkpt>
      <trkpt lat="43.44037" lon="3.47008">
        <ele>75.12</ele>
        <time>2012-04-15T09:40:38Z</time>
      </trkpt>
      <trkpt lat="43.44045" lon="3.47014">
        <ele>75.6</ele>
        <time>2012-04-15T09:40:41Z</time>
      </trkpt>
      <trkpt lat="43.44054" lon="3.4702">
        <ele>75.6</ele>
        <time>2012-04-15T09:40:44Z</time>
      </trkpt>
      <trkpt lat="43.44063" lon="3.47026">
        <ele>75.6</ele>
        <time>2012-04-15T09:40:47Z</time>
      </trkpt>
      <trkpt lat="43.44072" lon="3.47032">
        <ele>75.6</ele>
        <time>2012-04-15T09:40:50Z</time>
      </trkpt>
      <trkpt lat="43.44081" lon="3.47038">
        <ele>76.08</ele>
        <time>2012-04-15T09:40:53Z</time>
      </trkpt>
      <trkpt lat="43.44089" lon="3.47045">
        <ele>76.56</ele>
        <time>2012-04-15T09:40:56Z</time>
      </trkpt>
      <trkpt lat="43.44097" lon="3.47052">
        <ele>77.04</ele>
        <time>2012-04-15T09:40:59Z</time>
      </trkpt>
      <trkpt lat="43.44105" lon="3.47059">
        <ele>77.04</ele>
        <time>2012-04-15T09:41:02Z</time>
      </trkpt>
      <trkpt lat="43.44113" lon="3.47067">
        <ele>77.52</ele>
        <time>2012-04-15T09:41:05Z</time>
      </trkpt>
      <trkpt lat="43.4412" lon="3.47076">
        <ele>78</ele>
        <time>2012-04-15T09:41:08Z</time>
      </trkpt>
      <trkpt lat="43.44126" lon="3.47087">
        <ele>78</ele>
        <time>2012-04-15T09:41:11Z</time>
      </trkpt>
      <trkpt lat="43.44127" lon="3.47099">
        <ele>78</ele>
        <time>2012-04-15T09:41:14Z</time>
      </trkpt>
      <trkpt lat="43.44129" lon="3.4711">
        <ele>78</ele>
        <time>2012-04-15T09:42:00Z</time>
      </trkpt>
      <trkpt lat="43.44135" lon="3.47122">
        <ele>78</ele>
        <time>2012-04-15T09:42:03Z</time>
      </trkpt>
      <trkpt lat="43.44147" lon="3.47133">
        <ele>78</ele>
        <time>2012-04-15T09:42:06Z</time>
      </trkpt>
      <trkpt lat="43.44157" lon="3.47143">
        <ele>78.48</ele>
        <time>2012-04-15T09:42:09Z</time>
      </trkpt>
      <trkpt lat="43.44164" lon="3.47153">
        <ele>78.48</ele>
        <time>2012-04-15T09:42:12Z</time>
      </trkpt>
      <trkpt lat="43.44169" lon="3.47165">
        <ele>78.97</ele>
        <time>2012-04-15T09:42:16Z</time>
      </trkpt>
      <trkpt lat="43.44176" lon="3.47177">
        <ele>79.45</ele>
        <time>2012-04-15T09:42:21Z</time>
      </trkpt>
      <trkpt lat="43.44183" lon="3.47188">
        <ele>79.93</ele>
        <time>2012-04-15T09:42:25Z</time>
      </trkpt>
      <trkpt lat="43.44191" lon="3.47197">
        <ele>80.89</ele>
        <time>2012-04-15T09:42:29Z</time>
      </trkpt>
      <trkpt lat="43.442" lon="3.47206">
        <ele>81.37</ele>
        <time>2012-04-15T09:42:33Z</time>
      </trkpt>
      <trkpt lat="43.4421" lon="3.47213">
        <ele>81.85</ele>
        <time>2012-04-15T09:42:37Z</time>
      </trkpt>
      <trkpt lat="43.44217" lon="3.47219">
        <ele>82.33</ele>
        <time>2012-04-15T09:42:43Z</time>
      </trkpt>
      <trkpt lat="43.44211" lon="3.47219">
        <ele>79.45</ele>
        <time>2012-04-15T09:43:22Z</time>
      </trkpt>
      <trkpt lat="43.44205" lon="3.47233">
        <ele>78.97</ele>
        <time>2012-04-15T09:43:27Z</time>
      </trkpt>
      <trkpt lat="43.44205" lon="3.47248">
        <ele>78.48</ele>
        <time>2012-04-15T09:43:30Z</time>
      </trkpt>
      <trkpt lat="43.44204" lon="3.47262">
        <ele>78</ele>
        <time>2012-04-15T09:43:33Z</time>
      </trkpt>
      <trkpt lat="43.44204" lon="3.47274">
        <ele>78</ele>
        <time>2012-04-15T09:43:36Z</time>
      </trkpt>
      <trkpt lat="43.44202" lon="3.47287">
        <ele>78.48</ele>
        <time>2012-04-15T09:43:39Z</time>
      </trkpt>
      <trkpt lat="43.44201" lon="3.47299">
        <ele>78</ele>
        <time>2012-04-15T09:43:42Z</time>
      </trkpt>
      <trkpt lat="43.442" lon="3.47312">
        <ele>78</ele>
        <time>2012-04-15T09:43:45Z</time>
      </trkpt>
      <trkpt lat="43.44198" lon="3.47323">
        <ele>78.48</ele>
        <time>2012-04-15T09:43:49Z</time>
      </trkpt>
      <trkpt lat="43.44195" lon="3.47335">
        <ele>79.45</ele>
        <time>2012-04-15T09:43:54Z</time>
      </trkpt>
      <trkpt lat="43.44197" lon="3.47349">
        <ele>80.89</ele>
        <time>2012-04-15T09:43:58Z</time>
      </trkpt>
      <trkpt lat="43.44202" lon="3.47362">
        <ele>82.33</ele>
        <time>2012-04-15T09:44:02Z</time>
      </trkpt>
      <trkpt lat="43.44205" lon="3.47374">
        <ele>83.29</ele>
        <time>2012-04-15T09:44:07Z</time>
      </trkpt>
      <trkpt lat="43.44202" lon="3.47388">
        <ele>83.77</ele>
        <time>2012-04-15T09:44:12Z</time>
      </trkpt>
      <trkpt lat="43.44201" lon="3.47402">
        <ele>83.77</ele>
        <time>2012-04-15T09:44:16Z</time>
      </trkpt>
      <trkpt lat="43.44203" lon="3.47416">
        <ele>84.25</ele>
        <time>2012-04-15T09:44:21Z</time>
      </trkpt>
      <trkpt lat="43.442" lon="3.47428">
        <ele>83.29</ele>
        <time>2012-04-15T09:44:24Z</time>
      </trkpt>
      <trkpt lat="43.44198" lon="3.47444">
        <ele>82.81</ele>
        <time>2012-04-15T09:44:27Z</time>
      </trkpt>
      <trkpt lat="43.442" lon="3.47458">
        <ele>82.81</ele>
        <time>2012-04-15T09:44:30Z</time>
      </trkpt>
      <trkpt lat="43.44203" lon="3.47472">
        <ele>82.33</ele>
        <time>2012-04-15T09:44:33Z</time>
      </trkpt>
      <trkpt lat="43.44201" lon="3.47485">
        <ele>81.85</ele>
        <time>2012-04-15T09:44:36Z</time>
      </trkpt>
      <trkpt lat="43.442" lon="3.47499">
        <ele>80.89</ele>
        <time>2012-04-15T09:44:39Z</time>
      </trkpt>
      <trkpt lat="43.44193" lon="3.47513">
        <ele>80.41</ele>
        <time>2012-04-15T09:44:42Z</time>
      </trkpt>
      <trkpt lat="43.44186" lon="3.47524">
        <ele>79.93</ele>
        <time>2012-04-15T09:44:45Z</time>
      </trkpt>
      <trkpt lat="43.44177" lon="3.47534">
        <ele>79.45</ele>
        <time>2012-04-15T09:44:48Z</time>
      </trkpt>
      <trkpt lat="43.4417" lon="3.47549">
        <ele>78.48</ele>
        <time>2012-04-15T09:44:51Z</time>
      </trkpt>
      <trkpt lat="43.44165" lon="3.47565">
        <ele>78.48</ele>
        <time>2012-04-15T09:44:54Z</time>
      </trkpt>
      <trkpt lat="43.4416" lon="3.47579">
        <ele>78.48</ele>
        <time>2012-04-15T09:44:57Z</time>
      </trkpt>
      <trkpt lat="43.44157" lon="3.47594">
        <ele>78.97</ele>
        <time>2012-04-15T09:45:00Z</time>
      </trkpt>
      <trkpt lat="43.44152" lon="3.47609">
        <ele>78.97</ele>
        <time>2012-04-15T09:45:03Z</time>
      </trkpt>
      <trkpt lat="43.44144" lon="3.4762">
        <ele>78.48</ele>
        <time>2012-04-15T09:45:06Z</time>
      </trkpt>
      <trkpt lat="43.44139" lon="3.47636">
        <ele>78.48</ele>
        <time>2012-04-15T09:45:09Z</time>
      </trkpt>
      <trkpt lat="43.44136" lon="3.47653">
        <ele>78</ele>
        <time>2012-04-15T09:45:12Z</time>
      </trkpt>
      <trkpt lat="43.44136" lon="3.47669">
        <ele>78.48</ele>
        <time>2012-04-15T09:45:15Z</time>
      </trkpt>
      <trkpt lat="43.44134" lon="3.47686">
        <ele>78.48</ele>
        <time>2012-04-15T09:45:18Z</time>
      </trkpt>
      <trkpt lat="43.44134" lon="3.47703">
        <ele>78.48</ele>
        <time>2012-04-15T09:45:21Z</time>
      </trkpt>
      <trkpt lat="43.44137" lon="3.47716">
        <ele>78.97</ele>
        <time>2012-04-15T09:45:24Z</time>
      </trkpt>
      <trkpt lat="43.44134" lon="3.47731">
        <ele>78.97</ele>
        <time>2012-04-15T09:45:28Z</time>
      </trkpt>
      <trkpt lat="43.44127" lon="3.4774">
        <ele>78.97</ele>
        <time>2012-04-15T09:45:31Z</time>
      </trkpt>
      <trkpt lat="43.4412" lon="3.47751">
        <ele>78.97</ele>
        <time>2012-04-15T09:45:34Z</time>
      </trkpt>
      <trkpt lat="43.44115" lon="3.47765">
        <ele>79.45</ele>
        <time>2012-04-15T09:45:37Z</time>
      </trkpt>
      <trkpt lat="43.44112" lon="3.47781">
        <ele>79.45</ele>
        <time>2012-04-15T09:45:40Z</time>
      </trkpt>
      <trkpt lat="43.44114" lon="3.47795">
        <ele>79.93</ele>
        <time>2012-04-15T09:45:43Z</time>
      </trkpt>
      <trkpt lat="43.44118" lon="3.47807">
        <ele>80.89</ele>
        <time>2012-04-15T09:45:46Z</time>
      </trkpt>
      <trkpt lat="43.44123" lon="3.47821">
        <ele>81.85</ele>
        <time>2012-04-15T09:45:49Z</time>
      </trkpt>
      <trkpt lat="43.44126" lon="3.47835">
        <ele>83.29</ele>
        <time>2012-04-15T09:45:53Z</time>
      </trkpt>
      <trkpt lat="43.44131" lon="3.47845">
        <ele>84.25</ele>
        <time>2012-04-15T09:45:56Z</time>
      </trkpt>
      <trkpt lat="43.44139" lon="3.47858">
        <ele>85.69</ele>
        <time>2012-04-15T09:46:00Z</time>
      </trkpt>
      <trkpt lat="43.44141" lon="3.47874">
        <ele>87.62</ele>
        <time>2012-04-15T09:46:04Z</time>
      </trkpt>
      <trkpt lat="43.4414" lon="3.47891">
        <ele>89.54</ele>
        <time>2012-04-15T09:46:08Z</time>
      </trkpt>
      <trkpt lat="43.4414" lon="3.47905">
        <ele>90.5</ele>
        <time>2012-04-15T09:46:14Z</time>
      </trkpt>
      <trkpt lat="43.44143" lon="3.47923">
        <ele>90.5</ele>
        <time>2012-04-15T09:46:42Z</time>
      </trkpt>
      <trkpt lat="43.44138" lon="3.47938">
        <ele>89.06</ele>
        <time>2012-04-15T09:46:47Z</time>
      </trkpt>
      <trkpt lat="43.44131" lon="3.47948">
        <ele>88.58</ele>
        <time>2012-04-15T09:46:50Z</time>
      </trkpt>
      <trkpt lat="43.44123" lon="3.4796">
        <ele>89.06</ele>
        <time>2012-04-15T09:46:55Z</time>
      </trkpt>
      <trkpt lat="43.44119" lon="3.47972">
        <ele>90.02</ele>
        <time>2012-04-15T09:47:00Z</time>
      </trkpt>
      <trkpt lat="43.44112" lon="3.47982">
        <ele>91.94</ele>
        <time>2012-04-15T09:47:06Z</time>
      </trkpt>
      <trkpt lat="43.44104" lon="3.47989">
        <ele>94.35</ele>
        <time>2012-04-15T09:47:15Z</time>
      </trkpt>
      <trkpt lat="43.44097" lon="3.48">
        <ele>95.31</ele>
        <time>2012-04-15T09:47:20Z</time>
      </trkpt>
      <trkpt lat="43.44094" lon="3.48014">
        <ele>94.83</ele>
        <time>2012-04-15T09:47:24Z</time>
      </trkpt>
      <trkpt lat="43.44088" lon="3.48029">
        <ele>94.83</ele>
        <time>2012-04-15T09:47:28Z</time>
      </trkpt>
      <trkpt lat="43.44089" lon="3.4804">
        <ele>94.83</ele>
        <time>2012-04-15T09:47:31Z</time>
      </trkpt>
      <trkpt lat="43.44098" lon="3.48051">
        <ele>94.83</ele>
        <time>2012-04-15T09:47:35Z</time>
      </trkpt>
      <trkpt lat="43.44105" lon="3.48061">
        <ele>94.83</ele>
        <time>2012-04-15T09:47:38Z</time>
      </trkpt>
      <trkpt lat="43.44109" lon="3.48072">
        <ele>94.83</ele>
        <time>2012-04-15T09:47:41Z</time>
      </trkpt>
      <trkpt lat="43.44112" lon="3.48085">
        <ele>95.31</ele>
        <time>2012-04-15T09:47:44Z</time>
      </trkpt>
      <trkpt lat="43.44118" lon="3.48096">
        <ele>95.31</ele>
        <time>2012-04-15T09:47:47Z</time>
      </trkpt>
      <trkpt lat="43.44124" lon="3.48106">
        <ele>96.27</ele>
        <time>2012-04-15T09:47:50Z</time>
      </trkpt>
      <trkpt lat="43.44131" lon="3.48118">
        <ele>96.75</ele>
        <time>2012-04-15T09:47:54Z</time>
      </trkpt>
      <trkpt lat="43.44134" lon="3.48132">
        <ele>97.71</ele>
        <time>2012-04-15T09:47:58Z</time>
      </trkpt>
      <trkpt lat="43.44134" lon="3.48145">
        <ele>98.19</ele>
        <time>2012-04-15T09:48:01Z</time>
      </trkpt>
      <trkpt lat="43.44132" lon="3.48158">
        <ele>98.19</ele>
        <time>2012-04-15T09:48:04Z</time>
      </trkpt>
      <trkpt lat="43.44128" lon="3.48173">
        <ele>98.19</ele>
        <time>2012-04-15T09:48:07Z</time>
      </trkpt>
      <trkpt lat="43.44123" lon="3.48183">
        <ele>98.19</ele>
        <time>2012-04-15T09:48:10Z</time>
      </trkpt>
      <trkpt lat="43.44116" lon="3.48194">
        <ele>98.67</ele>
        <time>2012-04-15T09:48:14Z</time>
      </trkpt>
      <trkpt lat="43.4411" lon="3.48204">
        <ele>98.19</ele>
        <time>2012-04-15T09:48:16Z</time>
      </trkpt>
      <trkpt lat="43.44101" lon="3.48213">
        <ele>98.19</ele>
        <time>2012-04-15T09:48:18Z</time>
      </trkpt>
      <trkpt lat="43.44096" lon="3.48226">
        <ele>98.19</ele>
        <time>2012-04-15T09:48:20Z</time>
      </trkpt>
      <trkpt lat="43.44093" lon="3.48243">
        <ele>98.19</ele>
        <time>2012-04-15T09:48:23Z</time>
      </trkpt>
      <trkpt lat="43.44087" lon="3.48256">
        <ele>98.67</ele>
        <time>2012-04-15T09:48:26Z</time>
      </trkpt>
      <trkpt lat="43.44077" lon="3.48267">
        <ele>99.63</ele>
        <time>2012-04-15T09:48:29Z</time>
      </trkpt>
      <trkpt lat="43.44069" lon="3.48278">
        <ele>99.63</ele>
        <time>2012-04-15T09:48:31Z</time>
      </trkpt>
      <trkpt lat="43.44061" lon="3.48289">
        <ele>99.63</ele>
        <time>2012-04-15T09:48:33Z</time>
      </trkpt>
      <trkpt lat="43.44053" lon="3.48302">
        <ele>99.15</ele>
        <time>2012-04-15T09:48:35Z</time>
      </trkpt>
      <trkpt lat="43.44047" lon="3.48317">
        <ele>98.67</ele>
        <time>2012-04-15T09:48:37Z</time>
      </trkpt>
      <trkpt lat="43.44045" lon="3.48335">
        <ele>97.71</ele>
        <time>2012-04-15T09:48:39Z</time>
      </trkpt>
      <trkpt lat="43.44041" lon="3.48353">
        <ele>96.75</ele>
        <time>2012-04-15T09:48:41Z</time>
      </trkpt>
      <trkpt lat="43.44038" lon="3.4837">
        <ele>95.79</ele>
        <time>2012-04-15T09:48:43Z</time>
      </trkpt>
      <trkpt lat="43.44035" lon="3.48388">
        <ele>95.31</ele>
        <time>2012-04-15T09:48:45Z</time>
      </trkpt>
      <trkpt lat="43.44032" lon="3.48405">
        <ele>94.35</ele>
        <time>2012-04-15T09:48:47Z</time>
      </trkpt>
      <trkpt lat="43.44028" lon="3.48416">
        <ele>93.39</ele>
        <time>2012-04-15T09:48:49Z</time>
      </trkpt>
      <trkpt lat="43.44023" lon="3.48426">
        <ele>92.42</ele>
        <time>2012-04-15T09:48:51Z</time>
      </trkpt>
      <trkpt lat="43.44016" lon="3.48439">
        <ele>91.46</ele>
        <time>2012-04-15T09:48:53Z</time>
      </trkpt>
      <trkpt lat="43.44008" lon="3.48452">
        <ele>90.98</ele>
        <time>2012-04-15T09:48:55Z</time>
      </trkpt>
      <trkpt lat="43.43999" lon="3.48463">
        <ele>90.02</ele>
        <time>2012-04-15T09:48:57Z</time>
      </trkpt>
      <trkpt lat="43.43991" lon="3.48474">
        <ele>89.06</ele>
        <time>2012-04-15T09:48:59Z</time>
      </trkpt>
      <trkpt lat="43.43984" lon="3.48484">
        <ele>88.58</ele>
        <time>2012-04-15T09:49:01Z</time>
      </trkpt>
      <trkpt lat="43.43978" lon="3.48496">
        <ele>87.62</ele>
        <time>2012-04-15T09:49:03Z</time>
      </trkpt>
      <trkpt lat="43.43978" lon="3.48509">
        <ele>87.14</ele>
        <time>2012-04-15T09:49:05Z</time>
      </trkpt>
      <trkpt lat="43.43978" lon="3.48523">
        <ele>86.66</ele>
        <time>2012-04-15T09:49:07Z</time>
      </trkpt>
      <trkpt lat="43.43978" lon="3.48535">
        <ele>86.18</ele>
        <time>2012-04-15T09:49:09Z</time>
      </trkpt>
      <trkpt lat="43.43975" lon="3.48547">
        <ele>85.21</ele>
        <time>2012-04-15T09:49:11Z</time>
      </trkpt>
      <trkpt lat="43.43969" lon="3.48562">
        <ele>84.73</ele>
        <time>2012-04-15T09:49:14Z</time>
      </trkpt>
      <trkpt lat="43.43963" lon="3.48576">
        <ele>85.21</ele>
        <time>2012-04-15T09:49:17Z</time>
      </trkpt>
      <trkpt lat="43.43958" lon="3.4859">
        <ele>84.73</ele>
        <time>2012-04-15T09:49:20Z</time>
      </trkpt>
      <trkpt lat="43.43955" lon="3.48606">
        <ele>84.25</ele>
        <time>2012-04-15T09:49:23Z</time>
      </trkpt>
      <trkpt lat="43.43951" lon="3.48618">
        <ele>83.77</ele>
        <time>2012-04-15T09:49:25Z</time>
      </trkpt>
      <trkpt lat="43.43944" lon="3.48632">
        <ele>83.77</ele>
        <time>2012-04-15T09:49:28Z</time>
      </trkpt>
      <trkpt lat="43.43937" lon="3.48642">
        <ele>83.77</ele>
        <time>2012-04-15T09:49:31Z</time>
      </trkpt>
      <trkpt lat="43.43925" lon="3.4865">
        <ele>82.81</ele>
        <time>2012-04-15T09:49:34Z</time>
      </trkpt>
      <trkpt lat="43.43919" lon="3.4866">
        <ele>82.33</ele>
        <time>2012-04-15T09:49:36Z</time>
      </trkpt>
      <trkpt lat="43.43913" lon="3.48671">
        <ele>81.85</ele>
        <time>2012-04-15T09:49:38Z</time>
      </trkpt>
      <trkpt lat="43.43905" lon="3.48681">
        <ele>81.37</ele>
        <time>2012-04-15T09:49:40Z</time>
      </trkpt>
      <trkpt lat="43.439" lon="3.48695">
        <ele>81.37</ele>
        <time>2012-04-15T09:49:42Z</time>
      </trkpt>
      <trkpt lat="43.43898" lon="3.48711">
        <ele>80.89</ele>
        <time>2012-04-15T09:49:44Z</time>
      </trkpt>
      <trkpt lat="43.43894" lon="3.48726">
        <ele>80.89</ele>
        <time>2012-04-15T09:49:46Z</time>
      </trkpt>
      <trkpt lat="43.43889" lon="3.4874">
        <ele>80.41</ele>
        <time>2012-04-15T09:49:48Z</time>
      </trkpt>
      <trkpt lat="43.43886" lon="3.48755">
        <ele>79.93</ele>
        <time>2012-04-15T09:49:50Z</time>
      </trkpt>
      <trkpt lat="43.43885" lon="3.4877">
        <ele>79.93</ele>
        <time>2012-04-15T09:49:52Z</time>
      </trkpt>
      <trkpt lat="43.43884" lon="3.48787">
        <ele>80.41</ele>
        <time>2012-04-15T09:49:54Z</time>
      </trkpt>
      <trkpt lat="43.43885" lon="3.48803">
        <ele>80.41</ele>
        <time>2012-04-15T09:49:56Z</time>
      </trkpt>
      <trkpt lat="43.43889" lon="3.48819">
        <ele>80.41</ele>
        <time>2012-04-15T09:49:58Z</time>
      </trkpt>
      <trkpt lat="43.43894" lon="3.48834">
        <ele>80.41</ele>
        <time>2012-04-15T09:50:00Z</time>
      </trkpt>
      <trkpt lat="43.43901" lon="3.48848">
        <ele>80.41</ele>
        <time>2012-04-15T09:50:02Z</time>
      </trkpt>
      <trkpt lat="43.4391" lon="3.48862">
        <ele>79.93</ele>
        <time>2012-04-15T09:50:04Z</time>
      </trkpt>
      <trkpt lat="43.43915" lon="3.48878">
        <ele>79.93</ele>
        <time>2012-04-15T09:50:06Z</time>
      </trkpt>
      <trkpt lat="43.43918" lon="3.48895">
        <ele>79.45</ele>
        <time>2012-04-15T09:50:08Z</time>
      </trkpt>
      <trkpt lat="43.43918" lon="3.48912">
        <ele>78.97</ele>
        <time>2012-04-15T09:50:10Z</time>
      </trkpt>
      <trkpt lat="43.43915" lon="3.4893">
        <ele>78.97</ele>
        <time>2012-04-15T09:50:12Z</time>
      </trkpt>
      <trkpt lat="43.4391" lon="3.48947">
        <ele>78.48</ele>
        <time>2012-04-15T09:50:14Z</time>
      </trkpt>
      <trkpt lat="43.43905" lon="3.48963">
        <ele>78</ele>
        <time>2012-04-15T09:50:16Z</time>
      </trkpt>
      <trkpt lat="43.43899" lon="3.48978">
        <ele>78</ele>
        <time>2012-04-15T09:50:18Z</time>
      </trkpt>
      <trkpt lat="43.43893" lon="3.48991">
        <ele>78</ele>
        <time>2012-04-15T09:50:20Z</time>
      </trkpt>
      <trkpt lat="43.43887" lon="3.49005">
        <ele>78</ele>
        <time>2012-04-15T09:50:22Z</time>
      </trkpt>
      <trkpt lat="43.43879" lon="3.49016">
        <ele>78</ele>
        <time>2012-04-15T09:50:24Z</time>
      </trkpt>
      <trkpt lat="43.43872" lon="3.49028">
        <ele>77.52</ele>
        <time>2012-04-15T09:50:26Z</time>
      </trkpt>
      <trkpt lat="43.43863" lon="3.49036">
        <ele>78</ele>
        <time>2012-04-15T09:50:28Z</time>
      </trkpt>
      <trkpt lat="43.43854" lon="3.49041">
        <ele>78</ele>
        <time>2012-04-15T09:50:30Z</time>
      </trkpt>
      <trkpt lat="43.43846" lon="3.49047">
        <ele>78.48</ele>
        <time>2012-04-15T09:50:32Z</time>
      </trkpt>
      <trkpt lat="43.43839" lon="3.49056">
        <ele>78.97</ele>
        <time>2012-04-15T09:50:34Z</time>
      </trkpt>
      <trkpt lat="43.43836" lon="3.49068">
        <ele>78.97</ele>
        <time>2012-04-15T09:50:36Z</time>
      </trkpt>
      <trkpt lat="43.43834" lon="3.4908">
        <ele>79.45</ele>
        <time>2012-04-15T09:50:38Z</time>
      </trkpt>
      <trkpt lat="43.43829" lon="3.49092">
        <ele>79.93</ele>
        <time>2012-04-15T09:50:40Z</time>
      </trkpt>
      <trkpt lat="43.43826" lon="3.49104">
        <ele>80.41</ele>
        <time>2012-04-15T09:50:42Z</time>
      </trkpt>
      <trkpt lat="43.43822" lon="3.49122">
        <ele>80.41</ele>
        <time>2012-04-15T09:50:45Z</time>
      </trkpt>
      <trkpt lat="43.43815" lon="3.49138">
        <ele>80.41</ele>
        <time>2012-04-15T09:50:48Z</time>
      </trkpt>
      <trkpt lat="43.43808" lon="3.49148">
        <ele>80.89</ele>
        <time>2012-04-15T09:50:51Z</time>
      </trkpt>
      <trkpt lat="43.43801" lon="3.49161">
        <ele>80.89</ele>
        <time>2012-04-15T09:50:54Z</time>
      </trkpt>
      <trkpt lat="43.43797" lon="3.49175">
        <ele>80.41</ele>
        <time>2012-04-15T09:50:56Z</time>
      </trkpt>
      <trkpt lat="43.43792" lon="3.49192">
        <ele>79.45</ele>
        <time>2012-04-15T09:50:58Z</time>
      </trkpt>
      <trkpt lat="43.43786" lon="3.49206">
        <ele>78.48</ele>
        <time>2012-04-15T09:51:00Z</time>
      </trkpt>
      <trkpt lat="43.43779" lon="3.49215">
        <ele>77.52</ele>
        <time>2012-04-15T09:51:03Z</time>
      </trkpt>
      <trkpt lat="43.43771" lon="3.49218">
        <ele>77.52</ele>
        <time>2012-04-15T09:51:07Z</time>
      </trkpt>
      <trkpt lat="43.4376" lon="3.49223">
        <ele>78</ele>
        <time>2012-04-15T09:51:13Z</time>
      </trkpt>
      <trkpt lat="43.4375" lon="3.4923">
        <ele>77.52</ele>
        <time>2012-04-15T09:51:19Z</time>
      </trkpt>
      <trkpt lat="43.43741" lon="3.49233">
        <ele>76.56</ele>
        <time>2012-04-15T09:52:46Z</time>
      </trkpt>
      <trkpt lat="43.4373" lon="3.49237">
        <ele>77.52</ele>
        <time>2012-04-15T09:52:51Z</time>
      </trkpt>
      <trkpt lat="43.43717" lon="3.49236">
        <ele>77.52</ele>
        <time>2012-04-15T09:52:55Z</time>
      </trkpt>
      <trkpt lat="43.43706" lon="3.49233">
        <ele>76.08</ele>
        <time>2012-04-15T09:52:59Z</time>
      </trkpt>
      <trkpt lat="43.43694" lon="3.49227">
        <ele>76.56</ele>
        <time>2012-04-15T09:53:03Z</time>
      </trkpt>
      <trkpt lat="43.43685" lon="3.49221">
        <ele>76.08</ele>
        <time>2012-04-15T09:53:06Z</time>
      </trkpt>
      <trkpt lat="43.43675" lon="3.49214">
        <ele>76.08</ele>
        <time>2012-04-15T09:53:09Z</time>
      </trkpt>
      <trkpt lat="43.43664" lon="3.49206">
        <ele>75.6</ele>
        <time>2012-04-15T09:53:12Z</time>
      </trkpt>
      <trkpt lat="43.43654" lon="3.49198">
        <ele>75.6</ele>
        <time>2012-04-15T09:53:15Z</time>
      </trkpt>
      <trkpt lat="43.43643" lon="3.4919">
        <ele>76.08</ele>
        <time>2012-04-15T09:53:18Z</time>
      </trkpt>
      <trkpt lat="43.43632" lon="3.49184">
        <ele>75.6</ele>
        <time>2012-04-15T09:53:21Z</time>
      </trkpt>
      <trkpt lat="43.4362" lon="3.4918">
        <ele>75.6</ele>
        <time>2012-04-15T09:53:24Z</time>
      </trkpt>
      <trkpt lat="43.4361" lon="3.49174">
        <ele>75.6</ele>
        <time>2012-04-15T09:53:27Z</time>
      </trkpt>
      <trkpt lat="43.43601" lon="3.49164">
        <ele>75.6</ele>
        <time>2012-04-15T09:53:30Z</time>
      </trkpt>
      <trkpt lat="43.43595" lon="3.49149">
        <ele>75.6</ele>
        <time>2012-04-15T09:53:33Z</time>
      </trkpt>
      <trkpt lat="43.43589" lon="3.49135">
        <ele>76.08</ele>
        <time>2012-04-15T09:53:36Z</time>
      </trkpt>
      <trkpt lat="43.43578" lon="3.49129">
        <ele>76.56</ele>
        <time>2012-04-15T09:53:39Z</time>
      </trkpt>
      <trkpt lat="43.43566" lon="3.4913">
        <ele>77.04</ele>
        <time>2012-04-15T09:53:42Z</time>
      </trkpt>
      <trkpt lat="43.43557" lon="3.49133">
        <ele>77.04</ele>
        <time>2012-04-15T09:53:44Z</time>
      </trkpt>
      <trkpt lat="43.43548" lon="3.49138">
        <ele>77.04</ele>
        <time>2012-04-15T09:53:46Z</time>
      </trkpt>
      <trkpt lat="43.43537" lon="3.49138">
        <ele>77.04</ele>
        <time>2012-04-15T09:53:48Z</time>
      </trkpt>
      <trkpt lat="43.43527" lon="3.49132">
        <ele>76.56</ele>
        <time>2012-04-15T09:53:50Z</time>
      </trkpt>
      <trkpt lat="43.43519" lon="3.49123">
        <ele>76.56</ele>
        <time>2012-04-15T09:53:52Z</time>
      </trkpt>
      <trkpt lat="43.43512" lon="3.49112">
        <ele>76.56</ele>
        <time>2012-04-15T09:53:54Z</time>
      </trkpt>
      <trkpt lat="43.43504" lon="3.49101">
        <ele>76.08</ele>
        <time>2012-04-15T09:53:56Z</time>
      </trkpt>
      <trkpt lat="43.43494" lon="3.49095">
        <ele>76.08</ele>
        <time>2012-04-15T09:53:58Z</time>
      </trkpt>
      <trkpt lat="43.43484" lon="3.49092">
        <ele>76.08</ele>
        <time>2012-04-15T09:54:00Z</time>
      </trkpt>
      <trkpt lat="43.43474" lon="3.49092">
        <ele>76.56</ele>
        <time>2012-04-15T09:54:02Z</time>
      </trkpt>
      <trkpt lat="43.43464" lon="3.49093">
        <ele>77.04</ele>
        <time>2012-04-15T09:54:04Z</time>
      </trkpt>
      <trkpt lat="43.43453" lon="3.49097">
        <ele>77.52</ele>
        <time>2012-04-15T09:54:06Z</time>
      </trkpt>
      <trkpt lat="43.43443" lon="3.49102">
        <ele>77.04</ele>
        <time>2012-04-15T09:54:08Z</time>
      </trkpt>
      <trkpt lat="43.43433" lon="3.49107">
        <ele>77.52</ele>
        <time>2012-04-15T09:54:10Z</time>
      </trkpt>
      <trkpt lat="43.43423" lon="3.49111">
        <ele>77.04</ele>
        <time>2012-04-15T09:54:12Z</time>
      </trkpt>
      <trkpt lat="43.43411" lon="3.49113">
        <ele>77.04</ele>
        <time>2012-04-15T09:54:14Z</time>
      </trkpt>
      <trkpt lat="43.43401" lon="3.49111">
        <ele>77.04</ele>
        <time>2012-04-15T09:54:16Z</time>
      </trkpt>
      <trkpt lat="43.43389" lon="3.49105">
        <ele>76.56</ele>
        <time>2012-04-15T09:54:19Z</time>
      </trkpt>
      <trkpt lat="43.43379" lon="3.49102">
        <ele>76.56</ele>
        <time>2012-04-15T09:54:22Z</time>
      </trkpt>
      <trkpt lat="43.4337" lon="3.49108">
        <ele>76.56</ele>
        <time>2012-04-15T09:54:27Z</time>
      </trkpt>
      <trkpt lat="43.43368" lon="3.49123">
        <ele>76.56</ele>
        <time>2012-04-15T09:54:30Z</time>
      </trkpt>
      <trkpt lat="43.43365" lon="3.49142">
        <ele>76.56</ele>
        <time>2012-04-15T09:54:33Z</time>
      </trkpt>
      <trkpt lat="43.43364" lon="3.49155">
        <ele>76.56</ele>
        <time>2012-04-15T09:54:35Z</time>
      </trkpt>
      <trkpt lat="43.43364" lon="3.49169">
        <ele>76.08</ele>
        <time>2012-04-15T09:54:37Z</time>
      </trkpt>
      <trkpt lat="43.43361" lon="3.49183">
        <ele>76.08</ele>
        <time>2012-04-15T09:54:39Z</time>
      </trkpt>
      <trkpt lat="43.43358" lon="3.492">
        <ele>75.6</ele>
        <time>2012-04-15T09:54:41Z</time>
      </trkpt>
      <trkpt lat="43.43357" lon="3.49219">
        <ele>75.12</ele>
        <time>2012-04-15T09:54:43Z</time>
      </trkpt>
      <trkpt lat="43.43359" lon="3.49237">
        <ele>75.12</ele>
        <time>2012-04-15T09:54:45Z</time>
      </trkpt>
      <trkpt lat="43.43363" lon="3.49255">
        <ele>74.64</ele>
        <time>2012-04-15T09:54:47Z</time>
      </trkpt>
      <trkpt lat="43.43367" lon="3.49271">
        <ele>73.68</ele>
        <time>2012-04-15T09:54:49Z</time>
      </trkpt>
      <trkpt lat="43.4337" lon="3.49287">
        <ele>72.72</ele>
        <time>2012-04-15T09:54:51Z</time>
      </trkpt>
      <trkpt lat="43.43373" lon="3.49303">
        <ele>71.76</ele>
        <time>2012-04-15T09:54:53Z</time>
      </trkpt>
      <trkpt lat="43.43376" lon="3.49319">
        <ele>71.76</ele>
        <time>2012-04-15T09:54:55Z</time>
      </trkpt>
      <trkpt lat="43.43379" lon="3.49335">
        <ele>71.27</ele>
        <time>2012-04-15T09:54:57Z</time>
      </trkpt>
      <trkpt lat="43.43382" lon="3.4935">
        <ele>71.27</ele>
        <time>2012-04-15T09:54:59Z</time>
      </trkpt>
      <trkpt lat="43.43386" lon="3.49365">
        <ele>70.79</ele>
        <time>2012-04-15T09:55:01Z</time>
      </trkpt>
      <trkpt lat="43.4339" lon="3.49378">
        <ele>70.31</ele>
        <time>2012-04-15T09:55:03Z</time>
      </trkpt>
      <trkpt lat="43.43394" lon="3.49391">
        <ele>69.83</ele>
        <time>2012-04-15T09:55:05Z</time>
      </trkpt>
      <trkpt lat="43.43398" lon="3.49404">
        <ele>69.83</ele>
        <time>2012-04-15T09:55:07Z</time>
      </trkpt>
      <trkpt lat="43.43398" lon="3.49417">
        <ele>69.35</ele>
        <time>2012-04-15T09:55:09Z</time>
      </trkpt>
      <trkpt lat="43.43397" lon="3.49433">
        <ele>69.83</ele>
        <time>2012-04-15T09:55:11Z</time>
      </trkpt>
      <trkpt lat="43.43391" lon="3.49447">
        <ele>69.83</ele>
        <time>2012-04-15T09:55:13Z</time>
      </trkpt>
      <trkpt lat="43.43386" lon="3.49459">
        <ele>69.83</ele>
        <time>2012-04-15T09:55:15Z</time>
      </trkpt>
      <trkpt lat="43.4338" lon="3.49468">
        <ele>70.31</ele>
        <time>2012-04-15T09:55:17Z</time>
      </trkpt>
      <trkpt lat="43.43371" lon="3.49475">
        <ele>70.79</ele>
        <time>2012-04-15T09:55:19Z</time>
      </trkpt>
      <trkpt lat="43.43361" lon="3.49486">
        <ele>70.79</ele>
        <time>2012-04-15T09:55:21Z</time>
      </trkpt>
      <trkpt lat="43.43352" lon="3.49498">
        <ele>71.27</ele>
        <time>2012-04-15T09:55:23Z</time>
      </trkpt>
      <trkpt lat="43.43343" lon="3.49511">
        <ele>70.79</ele>
        <time>2012-04-15T09:55:25Z</time>
      </trkpt>
      <trkpt lat="43.43332" lon="3.49522">
        <ele>70.79</ele>
        <time>2012-04-15T09:55:27Z</time>
      </trkpt>
      <trkpt lat="43.43324" lon="3.49533">
        <ele>70.79</ele>
        <time>2012-04-15T09:55:29Z</time>
      </trkpt>
      <trkpt lat="43.43316" lon="3.49544">
        <ele>70.31</ele>
        <time>2012-04-15T09:55:31Z</time>
      </trkpt>
      <trkpt lat="43.4331" lon="3.49555">
        <ele>70.31</ele>
        <time>2012-04-15T09:55:33Z</time>
      </trkpt>
      <trkpt lat="43.43308" lon="3.49569">
        <ele>69.35</ele>
        <time>2012-04-15T09:55:35Z</time>
      </trkpt>
      <trkpt lat="43.43311" lon="3.49583">
        <ele>68.87</ele>
        <time>2012-04-15T09:55:37Z</time>
      </trkpt>
      <trkpt lat="43.43312" lon="3.496">
        <ele>68.39</ele>
        <time>2012-04-15T09:55:39Z</time>
      </trkpt>
      <trkpt lat="43.43307" lon="3.49616">
        <ele>67.91</ele>
        <time>2012-04-15T09:55:41Z</time>
      </trkpt>
      <trkpt lat="43.43301" lon="3.49633">
        <ele>67.43</ele>
        <time>2012-04-15T09:55:43Z</time>
      </trkpt>
      <trkpt lat="43.43296" lon="3.49649">
        <ele>66.95</ele>
        <time>2012-04-15T09:55:45Z</time>
      </trkpt>
      <trkpt lat="43.43294" lon="3.49667">
        <ele>65.99</ele>
        <time>2012-04-15T09:55:47Z</time>
      </trkpt>
      <trkpt lat="43.43294" lon="3.49683">
        <ele>65.51</ele>
        <time>2012-04-15T09:55:49Z</time>
      </trkpt>
      <trkpt lat="43.433" lon="3.49701">
        <ele>64.55</ele>
        <time>2012-04-15T09:55:51Z</time>
      </trkpt>
      <trkpt lat="43.43307" lon="3.49719">
        <ele>63.1</ele>
        <time>2012-04-15T09:55:53Z</time>
      </trkpt>
      <trkpt lat="43.43314" lon="3.49739">
        <ele>62.14</ele>
        <time>2012-04-15T09:55:55Z</time>
      </trkpt>
      <trkpt lat="43.43319" lon="3.49758">
        <ele>60.7</ele>
        <time>2012-04-15T09:55:57Z</time>
      </trkpt>
      <trkpt lat="43.43324" lon="3.49773">
        <ele>59.74</ele>
        <time>2012-04-15T09:56:00Z</time>
      </trkpt>
      <trkpt lat="43.43317" lon="3.49783">
        <ele>59.26</ele>
        <time>2012-04-15T09:56:06Z</time>
      </trkpt>
      <trkpt lat="43.43308" lon="3.49789">
        <ele>59.26</ele>
        <time>2012-04-15T09:56:09Z</time>
      </trkpt>
      <trkpt lat="43.43298" lon="3.49795">
        <ele>59.26</ele>
        <time>2012-04-15T09:56:12Z</time>
      </trkpt>
      <trkpt lat="43.43286" lon="3.49801">
        <ele>58.3</ele>
        <time>2012-04-15T09:56:15Z</time>
      </trkpt>
      <trkpt lat="43.43277" lon="3.49805">
        <ele>57.82</ele>
        <time>2012-04-15T09:56:17Z</time>
      </trkpt>
      <trkpt lat="43.43268" lon="3.49809">
        <ele>57.82</ele>
        <time>2012-04-15T09:56:19Z</time>
      </trkpt>
      <trkpt lat="43.43256" lon="3.49816">
        <ele>57.82</ele>
        <time>2012-04-15T09:56:22Z</time>
      </trkpt>
      <trkpt lat="43.43249" lon="3.49823">
        <ele>57.82</ele>
        <time>2012-04-15T09:56:24Z</time>
      </trkpt>
      <trkpt lat="43.43241" lon="3.49831">
        <ele>58.3</ele>
        <time>2012-04-15T09:56:26Z</time>
      </trkpt>
      <trkpt lat="43.43233" lon="3.49838">
        <ele>58.3</ele>
        <time>2012-04-15T09:56:28Z</time>
      </trkpt>
      <trkpt lat="43.43225" lon="3.49846">
        <ele>58.3</ele>
        <time>2012-04-15T09:56:30Z</time>
      </trkpt>
      <trkpt lat="43.43216" lon="3.49854">
        <ele>58.3</ele>
        <time>2012-04-15T09:56:32Z</time>
      </trkpt>
      <trkpt lat="43.43207" lon="3.4986">
        <ele>57.82</ele>
        <time>2012-04-15T09:56:34Z</time>
      </trkpt>
      <trkpt lat="43.43197" lon="3.49865">
        <ele>57.82</ele>
        <time>2012-04-15T09:56:36Z</time>
      </trkpt>
      <trkpt lat="43.43187" lon="3.4987">
        <ele>57.34</ele>
        <time>2012-04-15T09:56:38Z</time>
      </trkpt>
      <trkpt lat="43.43177" lon="3.49875">
        <ele>56.86</ele>
        <time>2012-04-15T09:56:40Z</time>
      </trkpt>
      <trkpt lat="43.43165" lon="3.49879">
        <ele>56.37</ele>
        <time>2012-04-15T09:56:42Z</time>
      </trkpt>
      <trkpt lat="43.43153" lon="3.49882">
        <ele>56.37</ele>
        <time>2012-04-15T09:56:44Z</time>
      </trkpt>
      <trkpt lat="43.43141" lon="3.49885">
        <ele>55.89</ele>
        <time>2012-04-15T09:56:46Z</time>
      </trkpt>
      <trkpt lat="43.43129" lon="3.49886">
        <ele>55.41</ele>
        <time>2012-04-15T09:56:48Z</time>
      </trkpt>
      <trkpt lat="43.43117" lon="3.49883">
        <ele>55.41</ele>
        <time>2012-04-15T09:56:50Z</time>
      </trkpt>
      <trkpt lat="43.43105" lon="3.49883">
        <ele>55.41</ele>
        <time>2012-04-15T09:56:52Z</time>
      </trkpt>
      <trkpt lat="43.43092" lon="3.49886">
        <ele>54.93</ele>
        <time>2012-04-15T09:56:54Z</time>
      </trkpt>
      <trkpt lat="43.43081" lon="3.49891">
        <ele>54.45</ele>
        <time>2012-04-15T09:56:56Z</time>
      </trkpt>
      <trkpt lat="43.43071" lon="3.49895">
        <ele>53.97</ele>
        <time>2012-04-15T09:56:58Z</time>
      </trkpt>
      <trkpt lat="43.4306" lon="3.49902">
        <ele>53.97</ele>
        <time>2012-04-15T09:57:00Z</time>
      </trkpt>
      <trkpt lat="43.43049" lon="3.49908">
        <ele>53.49</ele>
        <time>2012-04-15T09:57:02Z</time>
      </trkpt>
      <trkpt lat="43.43037" lon="3.49913">
        <ele>53.49</ele>
        <time>2012-04-15T09:57:04Z</time>
      </trkpt>
      <trkpt lat="43.43024" lon="3.49917">
        <ele>53.97</ele>
        <time>2012-04-15T09:57:06Z</time>
      </trkpt>
      <trkpt lat="43.43012" lon="3.49922">
        <ele>53.97</ele>
        <time>2012-04-15T09:57:08Z</time>
      </trkpt>
      <trkpt lat="43.42999" lon="3.49926">
        <ele>53.97</ele>
        <time>2012-04-15T09:57:10Z</time>
      </trkpt>
      <trkpt lat="43.42986" lon="3.49931">
        <ele>53.97</ele>
        <time>2012-04-15T09:57:12Z</time>
      </trkpt>
      <trkpt lat="43.42973" lon="3.49936">
        <ele>53.97</ele>
        <time>2012-04-15T09:57:14Z</time>
      </trkpt>
      <trkpt lat="43.4296" lon="3.49941">
        <ele>53.49</ele>
        <time>2012-04-15T09:57:16Z</time>
      </trkpt>
      <trkpt lat="43.42948" lon="3.49946">
        <ele>53.49</ele>
        <time>2012-04-15T09:57:18Z</time>
      </trkpt>
      <trkpt lat="43.42936" lon="3.49953">
        <ele>53.49</ele>
        <time>2012-04-15T09:57:20Z</time>
      </trkpt>
      <trkpt lat="43.42924" lon="3.49961">
        <ele>53.49</ele>
        <time>2012-04-15T09:57:22Z</time>
      </trkpt>
      <trkpt lat="43.42912" lon="3.49969">
        <ele>53.49</ele>
        <time>2012-04-15T09:57:24Z</time>
      </trkpt>
      <trkpt lat="43.429" lon="3.49975">
        <ele>53.49</ele>
        <time>2012-04-15T09:57:26Z</time>
      </trkpt>
      <trkpt lat="43.42888" lon="3.49971">
        <ele>53.49</ele>
        <time>2012-04-15T09:57:28Z</time>
      </trkpt>
      <trkpt lat="43.42876" lon="3.49965">
        <ele>53.49</ele>
        <time>2012-04-15T09:57:30Z</time>
      </trkpt>
      <trkpt lat="43.42864" lon="3.49958">
        <ele>53.49</ele>
        <time>2012-04-15T09:57:32Z</time>
      </trkpt>
      <trkpt lat="43.42852" lon="3.49952">
        <ele>53.01</ele>
        <time>2012-04-15T09:57:34Z</time>
      </trkpt>
      <trkpt lat="43.42841" lon="3.49951">
        <ele>53.01</ele>
        <time>2012-04-15T09:57:36Z</time>
      </trkpt>
      <trkpt lat="43.42828" lon="3.49954">
        <ele>53.01</ele>
        <time>2012-04-15T09:57:38Z</time>
      </trkpt>
      <trkpt lat="43.42815" lon="3.49958">
        <ele>53.01</ele>
        <time>2012-04-15T09:57:40Z</time>
      </trkpt>
      <trkpt lat="43.42802" lon="3.49963">
        <ele>52.53</ele>
        <time>2012-04-15T09:57:42Z</time>
      </trkpt>
      <trkpt lat="43.42789" lon="3.49968">
        <ele>52.53</ele>
        <time>2012-04-15T09:57:44Z</time>
      </trkpt>
      <trkpt lat="43.42776" lon="3.49974">
        <ele>52.53</ele>
        <time>2012-04-15T09:57:46Z</time>
      </trkpt>
      <trkpt lat="43.42763" lon="3.49979">
        <ele>52.53</ele>
        <time>2012-04-15T09:57:48Z</time>
      </trkpt>
      <trkpt lat="43.42751" lon="3.49987">
        <ele>52.05</ele>
        <time>2012-04-15T09:57:50Z</time>
      </trkpt>
      <trkpt lat="43.42737" lon="3.49992">
        <ele>52.05</ele>
        <time>2012-04-15T09:57:52Z</time>
      </trkpt>
      <trkpt lat="43.42724" lon="3.49997">
        <ele>52.05</ele>
        <time>2012-04-15T09:57:54Z</time>
      </trkpt>
      <trkpt lat="43.42711" lon="3.50002">
        <ele>52.05</ele>
        <time>2012-04-15T09:57:56Z</time>
      </trkpt>
      <trkpt lat="43.42697" lon="3.50006">
        <ele>52.05</ele>
        <time>2012-04-15T09:57:58Z</time>
      </trkpt>
      <trkpt lat="43.42684" lon="3.50011">
        <ele>52.05</ele>
        <time>2012-04-15T09:58:00Z</time>
      </trkpt>
      <trkpt lat="43.42671" lon="3.50015">
        <ele>52.05</ele>
        <time>2012-04-15T09:58:02Z</time>
      </trkpt>
      <trkpt lat="43.42658" lon="3.5002">
        <ele>51.57</ele>
        <time>2012-04-15T09:58:04Z</time>
      </trkpt>
      <trkpt lat="43.42644" lon="3.50025">
        <ele>51.57</ele>
        <time>2012-04-15T09:58:06Z</time>
      </trkpt>
      <trkpt lat="43.42631" lon="3.50032">
        <ele>52.05</ele>
        <time>2012-04-15T09:58:08Z</time>
      </trkpt>
      <trkpt lat="43.42618" lon="3.50039">
        <ele>51.57</ele>
        <time>2012-04-15T09:58:10Z</time>
      </trkpt>
      <trkpt lat="43.42605" lon="3.50047">
        <ele>52.05</ele>
        <time>2012-04-15T09:58:12Z</time>
      </trkpt>
      <trkpt lat="43.42592" lon="3.50052">
        <ele>52.05</ele>
        <time>2012-04-15T09:58:14Z</time>
      </trkpt>
      <trkpt lat="43.42579" lon="3.50053">
        <ele>52.05</ele>
        <time>2012-04-15T09:58:16Z</time>
      </trkpt>
      <trkpt lat="43.42566" lon="3.50058">
        <ele>51.57</ele>
        <time>2012-04-15T09:58:18Z</time>
      </trkpt>
      <trkpt lat="43.42552" lon="3.50062">
        <ele>51.57</ele>
        <time>2012-04-15T09:58:20Z</time>
      </trkpt>
      <trkpt lat="43.42539" lon="3.50072">
        <ele>51.09</ele>
        <time>2012-04-15T09:58:22Z</time>
      </trkpt>
      <trkpt lat="43.42525" lon="3.50081">
        <ele>51.09</ele>
        <time>2012-04-15T09:58:24Z</time>
      </trkpt>
      <trkpt lat="43.42511" lon="3.50091">
        <ele>50.61</ele>
        <time>2012-04-15T09:58:26Z</time>
      </trkpt>
      <trkpt lat="43.42498" lon="3.50102">
        <ele>50.61</ele>
        <time>2012-04-15T09:58:28Z</time>
      </trkpt>
      <trkpt lat="43.42484" lon="3.50111">
        <ele>50.13</ele>
        <time>2012-04-15T09:58:30Z</time>
      </trkpt>
      <trkpt lat="43.4247" lon="3.50118">
        <ele>49.65</ele>
        <time>2012-04-15T09:58:32Z</time>
      </trkpt>
      <trkpt lat="43.42456" lon="3.50125">
        <ele>49.65</ele>
        <time>2012-04-15T09:58:34Z</time>
      </trkpt>
      <trkpt lat="43.42444" lon="3.50137">
        <ele>49.16</ele>
        <time>2012-04-15T09:58:36Z</time>
      </trkpt>
      <trkpt lat="43.42433" lon="3.50153">
        <ele>48.68</ele>
        <time>2012-04-15T09:58:38Z</time>
      </trkpt>
      <trkpt lat="43.4242" lon="3.50166">
        <ele>48.2</ele>
        <time>2012-04-15T09:58:40Z</time>
      </trkpt>
      <trkpt lat="43.42407" lon="3.50177">
        <ele>47.72</ele>
        <time>2012-04-15T09:58:42Z</time>
      </trkpt>
      <trkpt lat="43.42393" lon="3.5018">
        <ele>47.24</ele>
        <time>2012-04-15T09:58:44Z</time>
      </trkpt>
      <trkpt lat="43.42382" lon="3.50177">
        <ele>46.76</ele>
        <time>2012-04-15T09:58:46Z</time>
      </trkpt>
      <trkpt lat="43.42374" lon="3.50176">
        <ele>45.8</ele>
        <time>2012-04-15T09:58:54Z</time>
      </trkpt>
      <trkpt lat="43.42366" lon="3.50185">
        <ele>46.28</ele>
        <time>2012-04-15T09:59:35Z</time>
      </trkpt>
      <trkpt lat="43.42358" lon="3.50195">
        <ele>46.28</ele>
        <time>2012-04-15T09:59:38Z</time>
      </trkpt>
      <trkpt lat="43.42353" lon="3.50209">
        <ele>45.8</ele>
        <time>2012-04-15T09:59:41Z</time>
      </trkpt>
      <trkpt lat="43.42351" lon="3.50224">
        <ele>45.32</ele>
        <time>2012-04-15T09:59:46Z</time>
      </trkpt>
      <trkpt lat="43.42358" lon="3.50232">
        <ele>45.32</ele>
        <time>2012-04-15T09:59:51Z</time>
      </trkpt>
      <trkpt lat="43.42368" lon="3.50239">
        <ele>44.84</ele>
        <time>2012-04-15T09:59:57Z</time>
      </trkpt>
      <trkpt lat="43.42377" lon="3.50242">
        <ele>45.8</ele>
        <time>2012-04-15T10:00:02Z</time>
      </trkpt>
      <trkpt lat="43.42369" lon="3.50236">
        <ele>45.8</ele>
        <time>2012-04-15T10:00:07Z</time>
      </trkpt>
      <trkpt lat="43.42359" lon="3.50229">
        <ele>45.8</ele>
        <time>2012-04-15T10:00:10Z</time>
      </trkpt>
      <trkpt lat="43.42354" lon="3.50218">
        <ele>45.8</ele>
        <time>2012-04-15T10:00:13Z</time>
      </trkpt>
      <trkpt lat="43.42357" lon="3.50207">
        <ele>45.8</ele>
        <time>2012-04-15T10:00:16Z</time>
      </trkpt>
      <trkpt lat="43.42362" lon="3.50196">
        <ele>45.8</ele>
        <time>2012-04-15T10:00:19Z</time>
      </trkpt>
      <trkpt lat="43.42368" lon="3.50185">
        <ele>46.28</ele>
        <time>2012-04-15T10:00:22Z</time>
      </trkpt>
      <trkpt lat="43.42373" lon="3.50174">
        <ele>47.24</ele>
        <time>2012-04-15T10:00:25Z</time>
      </trkpt>
      <trkpt lat="43.42373" lon="3.50161">
        <ele>46.76</ele>
        <time>2012-04-15T10:00:28Z</time>
      </trkpt>
      <trkpt lat="43.42375" lon="3.50147">
        <ele>45.8</ele>
        <time>2012-04-15T10:00:31Z</time>
      </trkpt>
      <trkpt lat="43.4237" lon="3.50131">
        <ele>45.32</ele>
        <time>2012-04-15T10:00:34Z</time>
      </trkpt>
      <trkpt lat="43.42359" lon="3.50122">
        <ele>44.84</ele>
        <time>2012-04-15T10:00:37Z</time>
      </trkpt>
      <trkpt lat="43.4235" lon="3.50116">
        <ele>44.36</ele>
        <time>2012-04-15T10:00:39Z</time>
      </trkpt>
      <trkpt lat="43.42341" lon="3.50111">
        <ele>44.36</ele>
        <time>2012-04-15T10:00:41Z</time>
      </trkpt>
      <trkpt lat="43.42332" lon="3.50105">
        <ele>43.88</ele>
        <time>2012-04-15T10:00:43Z</time>
      </trkpt>
      <trkpt lat="43.42324" lon="3.50098">
        <ele>44.36</ele>
        <time>2012-04-15T10:00:45Z</time>
      </trkpt>
      <trkpt lat="43.42315" lon="3.5009">
        <ele>44.36</ele>
        <time>2012-04-15T10:00:47Z</time>
      </trkpt>
      <trkpt lat="43.42306" lon="3.5008">
        <ele>43.88</ele>
        <time>2012-04-15T10:00:49Z</time>
      </trkpt>
      <trkpt lat="43.42297" lon="3.50071">
        <ele>43.88</ele>
        <time>2012-04-15T10:00:51Z</time>
      </trkpt>
      <trkpt lat="43.42287" lon="3.50062">
        <ele>43.88</ele>
        <time>2012-04-15T10:00:53Z</time>
      </trkpt>
      <trkpt lat="43.42276" lon="3.50056">
        <ele>43.88</ele>
        <time>2012-04-15T10:00:55Z</time>
      </trkpt>
      <trkpt lat="43.42264" lon="3.50052">
        <ele>43.88</ele>
        <time>2012-04-15T10:00:57Z</time>
      </trkpt>
      <trkpt lat="43.42253" lon="3.50047">
        <ele>43.88</ele>
        <time>2012-04-15T10:00:59Z</time>
      </trkpt>
      <trkpt lat="43.42242" lon="3.50043">
        <ele>43.88</ele>
        <time>2012-04-15T10:01:01Z</time>
      </trkpt>
      <trkpt lat="43.42231" lon="3.50039">
        <ele>44.36</ele>
        <time>2012-04-15T10:01:03Z</time>
      </trkpt>
      <trkpt lat="43.4222" lon="3.50039">
        <ele>44.36</ele>
        <time>2012-04-15T10:01:05Z</time>
      </trkpt>
      <trkpt lat="43.42209" lon="3.50041">
        <ele>44.36</ele>
        <time>2012-04-15T10:01:07Z</time>
      </trkpt>
      <trkpt lat="43.42198" lon="3.50043">
        <ele>44.36</ele>
        <time>2012-04-15T10:01:09Z</time>
      </trkpt>
      <trkpt lat="43.42186" lon="3.50044">
        <ele>44.36</ele>
        <time>2012-04-15T10:01:11Z</time>
      </trkpt>
      <trkpt lat="43.42175" lon="3.50045">
        <ele>44.36</ele>
        <time>2012-04-15T10:01:13Z</time>
      </trkpt>
      <trkpt lat="43.42164" lon="3.50047">
        <ele>44.36</ele>
        <time>2012-04-15T10:01:15Z</time>
      </trkpt>
      <trkpt lat="43.42154" lon="3.50048">
        <ele>43.88</ele>
        <time>2012-04-15T10:01:17Z</time>
      </trkpt>
      <trkpt lat="43.42145" lon="3.50044">
        <ele>43.88</ele>
        <time>2012-04-15T10:01:19Z</time>
      </trkpt>
      <trkpt lat="43.42139" lon="3.50034">
        <ele>43.88</ele>
        <time>2012-04-15T10:01:21Z</time>
      </trkpt>
      <trkpt lat="43.42132" lon="3.50024">
        <ele>43.88</ele>
        <time>2012-04-15T10:01:23Z</time>
      </trkpt>
      <trkpt lat="43.42126" lon="3.50014">
        <ele>43.88</ele>
        <time>2012-04-15T10:01:25Z</time>
      </trkpt>
      <trkpt lat="43.4212" lon="3.50004">
        <ele>43.88</ele>
        <time>2012-04-15T10:01:27Z</time>
      </trkpt>
      <trkpt lat="43.42114" lon="3.49995">
        <ele>44.36</ele>
        <time>2012-04-15T10:01:29Z</time>
      </trkpt>
      <trkpt lat="43.42107" lon="3.49986">
        <ele>44.36</ele>
        <time>2012-04-15T10:01:31Z</time>
      </trkpt>
      <trkpt lat="43.42101" lon="3.49976">
        <ele>44.36</ele>
        <time>2012-04-15T10:01:33Z</time>
      </trkpt>
      <trkpt lat="43.42095" lon="3.49966">
        <ele>44.36</ele>
        <time>2012-04-15T10:01:35Z</time>
      </trkpt>
      <trkpt lat="43.42088" lon="3.49957">
        <ele>44.36</ele>
        <time>2012-04-15T10:01:37Z</time>
      </trkpt>
      <trkpt lat="43.42081" lon="3.49949">
        <ele>44.36</ele>
        <time>2012-04-15T10:01:39Z</time>
      </trkpt>
      <trkpt lat="43.42074" lon="3.4994">
        <ele>44.36</ele>
        <time>2012-04-15T10:01:41Z</time>
      </trkpt>
      <trkpt lat="43.42068" lon="3.49931">
        <ele>44.36</ele>
        <time>2012-04-15T10:01:43Z</time>
      </trkpt>
      <trkpt lat="43.42057" lon="3.4992">
        <ele>44.84</ele>
        <time>2012-04-15T10:01:46Z</time>
      </trkpt>
      <trkpt lat="43.42045" lon="3.49919">
        <ele>45.32</ele>
        <time>2012-04-15T10:01:49Z</time>
      </trkpt>
      <trkpt lat="43.42036" lon="3.49923">
        <ele>45.32</ele>
        <time>2012-04-15T10:01:52Z</time>
      </trkpt>
      <trkpt lat="43.42025" lon="3.49931">
        <ele>45.32</ele>
        <time>2012-04-15T10:01:55Z</time>
      </trkpt>
      <trkpt lat="43.42017" lon="3.49938">
        <ele>45.32</ele>
        <time>2012-04-15T10:01:57Z</time>
      </trkpt>
      <trkpt lat="43.42009" lon="3.49945">
        <ele>45.8</ele>
        <time>2012-04-15T10:01:59Z</time>
      </trkpt>
      <trkpt lat="43.42" lon="3.49953">
        <ele>45.8</ele>
        <time>2012-04-15T10:02:01Z</time>
      </trkpt>
      <trkpt lat="43.41992" lon="3.49961">
        <ele>45.8</ele>
        <time>2012-04-15T10:02:03Z</time>
      </trkpt>
      <trkpt lat="43.41982" lon="3.4997">
        <ele>45.8</ele>
        <time>2012-04-15T10:02:05Z</time>
      </trkpt>
      <trkpt lat="43.41973" lon="3.49979">
        <ele>45.32</ele>
        <time>2012-04-15T10:02:07Z</time>
      </trkpt>
      <trkpt lat="43.41963" lon="3.49987">
        <ele>44.84</ele>
        <time>2012-04-15T10:02:09Z</time>
      </trkpt>
      <trkpt lat="43.41953" lon="3.49996">
        <ele>44.84</ele>
        <time>2012-04-15T10:02:11Z</time>
      </trkpt>
      <trkpt lat="43.41942" lon="3.50003">
        <ele>44.36</ele>
        <time>2012-04-15T10:02:13Z</time>
      </trkpt>
      <trkpt lat="43.41931" lon="3.50011">
        <ele>44.36</ele>
        <time>2012-04-15T10:02:15Z</time>
      </trkpt>
      <trkpt lat="43.4192" lon="3.50019">
        <ele>44.36</ele>
        <time>2012-04-15T10:02:17Z</time>
      </trkpt>
      <trkpt lat="43.41909" lon="3.50027">
        <ele>43.88</ele>
        <time>2012-04-15T10:02:19Z</time>
      </trkpt>
      <trkpt lat="43.41898" lon="3.50033">
        <ele>43.88</ele>
        <time>2012-04-15T10:02:21Z</time>
      </trkpt>
      <trkpt lat="43.41887" lon="3.5004">
        <ele>43.88</ele>
        <time>2012-04-15T10:02:23Z</time>
      </trkpt>
      <trkpt lat="43.41877" lon="3.50047">
        <ele>43.88</ele>
        <time>2012-04-15T10:02:25Z</time>
      </trkpt>
      <trkpt lat="43.41867" lon="3.50055">
        <ele>43.88</ele>
        <time>2012-04-15T10:02:27Z</time>
      </trkpt>
      <trkpt lat="43.41857" lon="3.50062">
        <ele>44.36</ele>
        <time>2012-04-15T10:02:29Z</time>
      </trkpt>
      <trkpt lat="43.41847" lon="3.50069">
        <ele>44.36</ele>
        <time>2012-04-15T10:02:31Z</time>
      </trkpt>
      <trkpt lat="43.41837" lon="3.50075">
        <ele>44.84</ele>
        <time>2012-04-15T10:02:33Z</time>
      </trkpt>
      <trkpt lat="43.41828" lon="3.5008">
        <ele>45.32</ele>
        <time>2012-04-15T10:02:35Z</time>
      </trkpt>
      <trkpt lat="43.41819" lon="3.50083">
        <ele>45.8</ele>
        <time>2012-04-15T10:02:37Z</time>
      </trkpt>
      <trkpt lat="43.4181" lon="3.50085">
        <ele>46.76</ele>
        <time>2012-04-15T10:02:39Z</time>
      </trkpt>
      <trkpt lat="43.41801" lon="3.50087">
        <ele>47.24</ele>
        <time>2012-04-15T10:02:41Z</time>
      </trkpt>
      <trkpt lat="43.41791" lon="3.50089">
        <ele>47.24</ele>
        <time>2012-04-15T10:02:43Z</time>
      </trkpt>
      <trkpt lat="43.41782" lon="3.50094">
        <ele>47.72</ele>
        <time>2012-04-15T10:02:45Z</time>
      </trkpt>
      <trkpt lat="43.41773" lon="3.50097">
        <ele>48.2</ele>
        <time>2012-04-15T10:02:47Z</time>
      </trkpt>
      <trkpt lat="43.41763" lon="3.50101">
        <ele>48.2</ele>
        <time>2012-04-15T10:02:49Z</time>
      </trkpt>
      <trkpt lat="43.41755" lon="3.50105">
        <ele>48.2</ele>
        <time>2012-04-15T10:02:51Z</time>
      </trkpt>
      <trkpt lat="43.41746" lon="3.50108">
        <ele>48.2</ele>
        <time>2012-04-15T10:02:53Z</time>
      </trkpt>
      <trkpt lat="43.41733" lon="3.50111">
        <ele>48.68</ele>
        <time>2012-04-15T10:02:56Z</time>
      </trkpt>
      <trkpt lat="43.41722" lon="3.50111">
        <ele>48.68</ele>
        <time>2012-04-15T10:02:58Z</time>
      </trkpt>
      <trkpt lat="43.41711" lon="3.50111">
        <ele>49.16</ele>
        <time>2012-04-15T10:03:00Z</time>
      </trkpt>
      <trkpt lat="43.417" lon="3.50111">
        <ele>49.16</ele>
        <time>2012-04-15T10:03:02Z</time>
      </trkpt>
      <trkpt lat="43.41688" lon="3.5011">
        <ele>49.16</ele>
        <time>2012-04-15T10:03:04Z</time>
      </trkpt>
      <trkpt lat="43.41676" lon="3.5011">
        <ele>48.68</ele>
        <time>2012-04-15T10:03:06Z</time>
      </trkpt>
      <trkpt lat="43.41664" lon="3.5011">
        <ele>48.68</ele>
        <time>2012-04-15T10:03:08Z</time>
      </trkpt>
      <trkpt lat="43.41653" lon="3.50109">
        <ele>48.68</ele>
        <time>2012-04-15T10:03:10Z</time>
      </trkpt>
      <trkpt lat="43.41641" lon="3.50109">
        <ele>49.16</ele>
        <time>2012-04-15T10:03:12Z</time>
      </trkpt>
      <trkpt lat="43.41629" lon="3.50109">
        <ele>49.16</ele>
        <time>2012-04-15T10:03:14Z</time>
      </trkpt>
      <trkpt lat="43.41617" lon="3.50109">
        <ele>49.16</ele>
        <time>2012-04-15T10:03:16Z</time>
      </trkpt>
      <trkpt lat="43.41605" lon="3.50108">
        <ele>49.16</ele>
        <time>2012-04-15T10:03:18Z</time>
      </trkpt>
      <trkpt lat="43.41594" lon="3.50107">
        <ele>49.65</ele>
        <time>2012-04-15T10:03:20Z</time>
      </trkpt>
      <trkpt lat="43.41583" lon="3.50105">
        <ele>50.13</ele>
        <time>2012-04-15T10:03:22Z</time>
      </trkpt>
      <trkpt lat="43.41573" lon="3.50102">
        <ele>50.61</ele>
        <time>2012-04-15T10:03:24Z</time>
      </trkpt>
      <trkpt lat="43.41563" lon="3.501">
        <ele>51.09</ele>
        <time>2012-04-15T10:03:26Z</time>
      </trkpt>
      <trkpt lat="43.4155" lon="3.50096">
        <ele>52.05</ele>
        <time>2012-04-15T10:03:29Z</time>
      </trkpt>
      <trkpt lat="43.41541" lon="3.50093">
        <ele>51.57</ele>
        <time>2012-04-15T10:03:31Z</time>
      </trkpt>
      <trkpt lat="43.41532" lon="3.50091">
        <ele>51.09</ele>
        <time>2012-04-15T10:03:33Z</time>
      </trkpt>
      <trkpt lat="43.41521" lon="3.50088">
        <ele>50.61</ele>
        <time>2012-04-15T10:03:35Z</time>
      </trkpt>
      <trkpt lat="43.4151" lon="3.50086">
        <ele>50.61</ele>
        <time>2012-04-15T10:03:37Z</time>
      </trkpt>
      <trkpt lat="43.41498" lon="3.50083">
        <ele>50.13</ele>
        <time>2012-04-15T10:03:39Z</time>
      </trkpt>
      <trkpt lat="43.41486" lon="3.5008">
        <ele>49.65</ele>
        <time>2012-04-15T10:03:41Z</time>
      </trkpt>
      <trkpt lat="43.41474" lon="3.50076">
        <ele>49.16</ele>
        <time>2012-04-15T10:03:43Z</time>
      </trkpt>
      <trkpt lat="43.41462" lon="3.50072">
        <ele>48.68</ele>
        <time>2012-04-15T10:03:45Z</time>
      </trkpt>
      <trkpt lat="43.4145" lon="3.50069">
        <ele>48.2</ele>
        <time>2012-04-15T10:03:47Z</time>
      </trkpt>
      <trkpt lat="43.41437" lon="3.50065">
        <ele>47.72</ele>
        <time>2012-04-15T10:03:49Z</time>
      </trkpt>
      <trkpt lat="43.41424" lon="3.50062">
        <ele>47.24</ele>
        <time>2012-04-15T10:03:51Z</time>
      </trkpt>
      <trkpt lat="43.4141" lon="3.50059">
        <ele>46.76</ele>
        <time>2012-04-15T10:03:53Z</time>
      </trkpt>
      <trkpt lat="43.41397" lon="3.50056">
        <ele>46.28</ele>
        <time>2012-04-15T10:03:55Z</time>
      </trkpt>
      <trkpt lat="43.41383" lon="3.50054">
        <ele>45.8</ele>
        <time>2012-04-15T10:03:57Z</time>
      </trkpt>
      <trkpt lat="43.41369" lon="3.50053">
        <ele>45.8</ele>
        <time>2012-04-15T10:03:59Z</time>
      </trkpt>
      <trkpt lat="43.4136" lon="3.50056">
        <ele>45.32</ele>
        <time>2012-04-15T10:04:01Z</time>
      </trkpt>
      <trkpt lat="43.41357" lon="3.50072">
        <ele>45.32</ele>
        <time>2012-04-15T10:04:04Z</time>
      </trkpt>
      <trkpt lat="43.41358" lon="3.50084">
        <ele>45.32</ele>
        <time>2012-04-15T10:04:06Z</time>
      </trkpt>
      <trkpt lat="43.4136" lon="3.50099">
        <ele>45.8</ele>
        <time>2012-04-15T10:04:08Z</time>
      </trkpt>
      <trkpt lat="43.41362" lon="3.50115">
        <ele>45.8</ele>
        <time>2012-04-15T10:04:10Z</time>
      </trkpt>
      <trkpt lat="43.41365" lon="3.50132">
        <ele>45.8</ele>
        <time>2012-04-15T10:04:12Z</time>
      </trkpt>
      <trkpt lat="43.41368" lon="3.50149">
        <ele>45.8</ele>
        <time>2012-04-15T10:04:14Z</time>
      </trkpt>
      <trkpt lat="43.41372" lon="3.50166">
        <ele>45.8</ele>
        <time>2012-04-15T10:04:16Z</time>
      </trkpt>
      <trkpt lat="43.41374" lon="3.50183">
        <ele>46.28</ele>
        <time>2012-04-15T10:04:18Z</time>
      </trkpt>
      <trkpt lat="43.41376" lon="3.502">
        <ele>46.28</ele>
        <time>2012-04-15T10:04:20Z</time>
      </trkpt>
      <trkpt lat="43.41377" lon="3.50217">
        <ele>46.28</ele>
        <time>2012-04-15T10:04:22Z</time>
      </trkpt>
      <trkpt lat="43.41379" lon="3.50233">
        <ele>46.76</ele>
        <time>2012-04-15T10:04:24Z</time>
      </trkpt>
      <trkpt lat="43.41379" lon="3.5025">
        <ele>46.76</ele>
        <time>2012-04-15T10:04:26Z</time>
      </trkpt>
      <trkpt lat="43.4138" lon="3.50268">
        <ele>46.76</ele>
        <time>2012-04-15T10:04:28Z</time>
      </trkpt>
      <trkpt lat="43.41381" lon="3.50287">
        <ele>46.28</ele>
        <time>2012-04-15T10:04:30Z</time>
      </trkpt>
      <trkpt lat="43.41382" lon="3.50307">
        <ele>45.8</ele>
        <time>2012-04-15T10:04:32Z</time>
      </trkpt>
      <trkpt lat="43.41383" lon="3.50328">
        <ele>45.32</ele>
        <time>2012-04-15T10:04:34Z</time>
      </trkpt>
      <trkpt lat="43.41384" lon="3.5035">
        <ele>45.32</ele>
        <time>2012-04-15T10:04:36Z</time>
      </trkpt>
      <trkpt lat="43.41385" lon="3.50372">
        <ele>43.88</ele>
        <time>2012-04-15T10:04:38Z</time>
      </trkpt>
      <trkpt lat="43.41387" lon="3.50397">
        <ele>42.44</ele>
        <time>2012-04-15T10:04:40Z</time>
      </trkpt>
      <trkpt lat="43.41388" lon="3.5041">
        <ele>41.95</ele>
        <time>2012-04-15T10:04:41Z</time>
      </trkpt>
      <trkpt lat="43.41389" lon="3.50424">
        <ele>41.47</ele>
        <time>2012-04-15T10:04:42Z</time>
      </trkpt>
      <trkpt lat="43.41391" lon="3.50438">
        <ele>40.51</ele>
        <time>2012-04-15T10:04:43Z</time>
      </trkpt>
      <trkpt lat="43.41392" lon="3.50452">
        <ele>39.55</ele>
        <time>2012-04-15T10:04:44Z</time>
      </trkpt>
      <trkpt lat="43.41394" lon="3.50466">
        <ele>38.59</ele>
        <time>2012-04-15T10:04:45Z</time>
      </trkpt>
      <trkpt lat="43.41395" lon="3.5048">
        <ele>38.11</ele>
        <time>2012-04-15T10:04:46Z</time>
      </trkpt>
      <trkpt lat="43.41395" lon="3.50494">
        <ele>37.15</ele>
        <time>2012-04-15T10:04:47Z</time>
      </trkpt>
      <trkpt lat="43.41396" lon="3.50509">
        <ele>36.67</ele>
        <time>2012-04-15T10:04:48Z</time>
      </trkpt>
      <trkpt lat="43.41396" lon="3.50523">
        <ele>36.19</ele>
        <time>2012-04-15T10:04:49Z</time>
      </trkpt>
      <trkpt lat="43.41396" lon="3.50537">
        <ele>35.71</ele>
        <time>2012-04-15T10:04:50Z</time>
      </trkpt>
      <trkpt lat="43.41396" lon="3.50552">
        <ele>35.23</ele>
        <time>2012-04-15T10:04:51Z</time>
      </trkpt>
      <trkpt lat="43.41396" lon="3.50566">
        <ele>34.74</ele>
        <time>2012-04-15T10:04:52Z</time>
      </trkpt>
      <trkpt lat="43.41396" lon="3.5058">
        <ele>34.26</ele>
        <time>2012-04-15T10:04:53Z</time>
      </trkpt>
      <trkpt lat="43.41396" lon="3.50595">
        <ele>33.78</ele>
        <time>2012-04-15T10:04:54Z</time>
      </trkpt>
      <trkpt lat="43.41396" lon="3.5061">
        <ele>33.3</ele>
        <time>2012-04-15T10:04:55Z</time>
      </trkpt>
      <trkpt lat="43.41397" lon="3.50625">
        <ele>32.82</ele>
        <time>2012-04-15T10:04:56Z</time>
      </trkpt>
      <trkpt lat="43.41397" lon="3.50641">
        <ele>32.34</ele>
        <time>2012-04-15T10:04:57Z</time>
      </trkpt>
      <trkpt lat="43.41398" lon="3.50656">
        <ele>31.86</ele>
        <time>2012-04-15T10:04:58Z</time>
      </trkpt>
      <trkpt lat="43.41399" lon="3.5067">
        <ele>31.38</ele>
        <time>2012-04-15T10:04:59Z</time>
      </trkpt>
      <trkpt lat="43.414" lon="3.50684">
        <ele>30.9</ele>
        <time>2012-04-15T10:05:00Z</time>
      </trkpt>
      <trkpt lat="43.41399" lon="3.50698">
        <ele>30.42</ele>
        <time>2012-04-15T10:05:01Z</time>
      </trkpt>
      <trkpt lat="43.41398" lon="3.50711">
        <ele>30.42</ele>
        <time>2012-04-15T10:05:02Z</time>
      </trkpt>
      <trkpt lat="43.41397" lon="3.50723">
        <ele>29.94</ele>
        <time>2012-04-15T10:05:03Z</time>
      </trkpt>
      <trkpt lat="43.41394" lon="3.50748">
        <ele>30.42</ele>
        <time>2012-04-15T10:05:05Z</time>
      </trkpt>
      <trkpt lat="43.41392" lon="3.50771">
        <ele>30.9</ele>
        <time>2012-04-15T10:05:07Z</time>
      </trkpt>
      <trkpt lat="43.4139" lon="3.50793">
        <ele>31.38</ele>
        <time>2012-04-15T10:05:09Z</time>
      </trkpt>
      <trkpt lat="43.41388" lon="3.50815">
        <ele>31.86</ele>
        <time>2012-04-15T10:05:11Z</time>
      </trkpt>
      <trkpt lat="43.41386" lon="3.50836">
        <ele>32.34</ele>
        <time>2012-04-15T10:05:13Z</time>
      </trkpt>
      <trkpt lat="43.41385" lon="3.50856">
        <ele>32.82</ele>
        <time>2012-04-15T10:05:15Z</time>
      </trkpt>
      <trkpt lat="43.41384" lon="3.50877">
        <ele>33.3</ele>
        <time>2012-04-15T10:05:17Z</time>
      </trkpt>
      <trkpt lat="43.41384" lon="3.50897">
        <ele>33.78</ele>
        <time>2012-04-15T10:05:19Z</time>
      </trkpt>
      <trkpt lat="43.41385" lon="3.50916">
        <ele>34.26</ele>
        <time>2012-04-15T10:05:21Z</time>
      </trkpt>
      <trkpt lat="43.41387" lon="3.50934">
        <ele>34.74</ele>
        <time>2012-04-15T10:05:23Z</time>
      </trkpt>
      <trkpt lat="43.41388" lon="3.50952">
        <ele>35.71</ele>
        <time>2012-04-15T10:05:25Z</time>
      </trkpt>
      <trkpt lat="43.41389" lon="3.5097">
        <ele>36.19</ele>
        <time>2012-04-15T10:05:27Z</time>
      </trkpt>
      <trkpt lat="43.41391" lon="3.50988">
        <ele>36.67</ele>
        <time>2012-04-15T10:05:29Z</time>
      </trkpt>
      <trkpt lat="43.41392" lon="3.51006">
        <ele>37.15</ele>
        <time>2012-04-15T10:05:31Z</time>
      </trkpt>
      <trkpt lat="43.41395" lon="3.51024">
        <ele>37.63</ele>
        <time>2012-04-15T10:05:33Z</time>
      </trkpt>
      <trkpt lat="43.41397" lon="3.51042">
        <ele>38.11</ele>
        <time>2012-04-15T10:05:35Z</time>
      </trkpt>
      <trkpt lat="43.41399" lon="3.51059">
        <ele>38.59</ele>
        <time>2012-04-15T10:05:37Z</time>
      </trkpt>
      <trkpt lat="43.41401" lon="3.51076">
        <ele>39.07</ele>
        <time>2012-04-15T10:05:39Z</time>
      </trkpt>
      <trkpt lat="43.41402" lon="3.51094">
        <ele>39.55</ele>
        <time>2012-04-15T10:05:41Z</time>
      </trkpt>
      <trkpt lat="43.41404" lon="3.51112">
        <ele>39.55</ele>
        <time>2012-04-15T10:05:43Z</time>
      </trkpt>
      <trkpt lat="43.41405" lon="3.5113">
        <ele>39.55</ele>
        <time>2012-04-15T10:05:45Z</time>
      </trkpt>
      <trkpt lat="43.41406" lon="3.51148">
        <ele>39.55</ele>
        <time>2012-04-15T10:05:47Z</time>
      </trkpt>
      <trkpt lat="43.41406" lon="3.51166">
        <ele>39.55</ele>
        <time>2012-04-15T10:05:49Z</time>
      </trkpt>
      <trkpt lat="43.41407" lon="3.51185">
        <ele>39.07</ele>
        <time>2012-04-15T10:05:51Z</time>
      </trkpt>
      <trkpt lat="43.41407" lon="3.51201">
        <ele>39.07</ele>
        <time>2012-04-15T10:05:53Z</time>
      </trkpt>
      <trkpt lat="43.41405" lon="3.51215">
        <ele>38.59</ele>
        <time>2012-04-15T10:05:55Z</time>
      </trkpt>
      <trkpt lat="43.41402" lon="3.51231">
        <ele>38.59</ele>
        <time>2012-04-15T10:05:57Z</time>
      </trkpt>
      <trkpt lat="43.41403" lon="3.51247">
        <ele>38.59</ele>
        <time>2012-04-15T10:05:59Z</time>
      </trkpt>
      <trkpt lat="43.41404" lon="3.51265">
        <ele>38.11</ele>
        <time>2012-04-15T10:06:01Z</time>
      </trkpt>
      <trkpt lat="43.41406" lon="3.51282">
        <ele>38.59</ele>
        <time>2012-04-15T10:06:03Z</time>
      </trkpt>
      <trkpt lat="43.41408" lon="3.51299">
        <ele>38.59</ele>
        <time>2012-04-15T10:06:05Z</time>
      </trkpt>
      <trkpt lat="43.4141" lon="3.51318">
        <ele>38.59</ele>
        <time>2012-04-15T10:06:07Z</time>
      </trkpt>
      <trkpt lat="43.41411" lon="3.51336">
        <ele>38.59</ele>
        <time>2012-04-15T10:06:09Z</time>
      </trkpt>
      <trkpt lat="43.41412" lon="3.51355">
        <ele>38.59</ele>
        <time>2012-04-15T10:06:11Z</time>
      </trkpt>
      <trkpt lat="43.41414" lon="3.51374">
        <ele>38.59</ele>
        <time>2012-04-15T10:06:13Z</time>
      </trkpt>
      <trkpt lat="43.41416" lon="3.51392">
        <ele>38.59</ele>
        <time>2012-04-15T10:06:15Z</time>
      </trkpt>
      <trkpt lat="43.41418" lon="3.5141">
        <ele>38.59</ele>
        <time>2012-04-15T10:06:17Z</time>
      </trkpt>
      <trkpt lat="43.41421" lon="3.51428">
        <ele>39.07</ele>
        <time>2012-04-15T10:06:19Z</time>
      </trkpt>
      <trkpt lat="43.41426" lon="3.51446">
        <ele>39.07</ele>
        <time>2012-04-15T10:06:21Z</time>
      </trkpt>
      <trkpt lat="43.41431" lon="3.51463">
        <ele>39.07</ele>
        <time>2012-04-15T10:06:23Z</time>
      </trkpt>
      <trkpt lat="43.41438" lon="3.51479">
        <ele>39.55</ele>
        <time>2012-04-15T10:06:25Z</time>
      </trkpt>
      <trkpt lat="43.41444" lon="3.51495">
        <ele>39.55</ele>
        <time>2012-04-15T10:06:27Z</time>
      </trkpt>
      <trkpt lat="43.41451" lon="3.5151">
        <ele>40.03</ele>
        <time>2012-04-15T10:06:29Z</time>
      </trkpt>
      <trkpt lat="43.41458" lon="3.51526">
        <ele>40.03</ele>
        <time>2012-04-15T10:06:31Z</time>
      </trkpt>
      <trkpt lat="43.41464" lon="3.51542">
        <ele>40.51</ele>
        <time>2012-04-15T10:06:33Z</time>
      </trkpt>
      <trkpt lat="43.41471" lon="3.51558">
        <ele>40.51</ele>
        <time>2012-04-15T10:06:35Z</time>
      </trkpt>
      <trkpt lat="43.41476" lon="3.51574">
        <ele>40.99</ele>
        <time>2012-04-15T10:06:37Z</time>
      </trkpt>
      <trkpt lat="43.41481" lon="3.5159">
        <ele>40.99</ele>
        <time>2012-04-15T10:06:39Z</time>
      </trkpt>
      <trkpt lat="43.41486" lon="3.51607">
        <ele>40.99</ele>
        <time>2012-04-15T10:06:41Z</time>
      </trkpt>
      <trkpt lat="43.41491" lon="3.51623">
        <ele>40.99</ele>
        <time>2012-04-15T10:06:43Z</time>
      </trkpt>
      <trkpt lat="43.41496" lon="3.51639">
        <ele>41.47</ele>
        <time>2012-04-15T10:06:45Z</time>
      </trkpt>
      <trkpt lat="43.41501" lon="3.51656">
        <ele>41.47</ele>
        <time>2012-04-15T10:06:47Z</time>
      </trkpt>
      <trkpt lat="43.41507" lon="3.51672">
        <ele>41.95</ele>
        <time>2012-04-15T10:06:49Z</time>
      </trkpt>
      <trkpt lat="43.41512" lon="3.51689">
        <ele>41.95</ele>
        <time>2012-04-15T10:06:51Z</time>
      </trkpt>
      <trkpt lat="43.41517" lon="3.51706">
        <ele>41.47</ele>
        <time>2012-04-15T10:06:53Z</time>
      </trkpt>
      <trkpt lat="43.41523" lon="3.51724">
        <ele>41.47</ele>
        <time>2012-04-15T10:06:55Z</time>
      </trkpt>
      <trkpt lat="43.41528" lon="3.51742">
        <ele>41.47</ele>
        <time>2012-04-15T10:06:57Z</time>
      </trkpt>
      <trkpt lat="43.41534" lon="3.51761">
        <ele>41.47</ele>
        <time>2012-04-15T10:06:59Z</time>
      </trkpt>
      <trkpt lat="43.4154" lon="3.5178">
        <ele>41.47</ele>
        <time>2012-04-15T10:07:01Z</time>
      </trkpt>
      <trkpt lat="43.41545" lon="3.51798">
        <ele>40.99</ele>
        <time>2012-04-15T10:07:03Z</time>
      </trkpt>
      <trkpt lat="43.41551" lon="3.51815">
        <ele>41.47</ele>
        <time>2012-04-15T10:07:05Z</time>
      </trkpt>
      <trkpt lat="43.41557" lon="3.51831">
        <ele>41.47</ele>
        <time>2012-04-15T10:07:07Z</time>
      </trkpt>
      <trkpt lat="43.41563" lon="3.51847">
        <ele>41.95</ele>
        <time>2012-04-15T10:07:09Z</time>
      </trkpt>
      <trkpt lat="43.41568" lon="3.51862">
        <ele>42.44</ele>
        <time>2012-04-15T10:07:11Z</time>
      </trkpt>
      <trkpt lat="43.41573" lon="3.51875">
        <ele>42.92</ele>
        <time>2012-04-15T10:07:13Z</time>
      </trkpt>
      <trkpt lat="43.41578" lon="3.51888">
        <ele>43.4</ele>
        <time>2012-04-15T10:07:15Z</time>
      </trkpt>
      <trkpt lat="43.41582" lon="3.519">
        <ele>44.36</ele>
        <time>2012-04-15T10:07:17Z</time>
      </trkpt>
      <trkpt lat="43.41586" lon="3.51912">
        <ele>44.84</ele>
        <time>2012-04-15T10:07:19Z</time>
      </trkpt>
      <trkpt lat="43.41591" lon="3.51922">
        <ele>45.32</ele>
        <time>2012-04-15T10:07:21Z</time>
      </trkpt>
      <trkpt lat="43.41597" lon="3.51938">
        <ele>46.76</ele>
        <time>2012-04-15T10:07:24Z</time>
      </trkpt>
      <trkpt lat="43.41603" lon="3.51953">
        <ele>47.24</ele>
        <time>2012-04-15T10:07:27Z</time>
      </trkpt>
      <trkpt lat="43.41609" lon="3.5197">
        <ele>47.72</ele>
        <time>2012-04-15T10:07:30Z</time>
      </trkpt>
      <trkpt lat="43.41614" lon="3.51986">
        <ele>48.2</ele>
        <time>2012-04-15T10:07:33Z</time>
      </trkpt>
      <trkpt lat="43.41621" lon="3.52003">
        <ele>48.68</ele>
        <time>2012-04-15T10:07:36Z</time>
      </trkpt>
      <trkpt lat="43.41627" lon="3.52019">
        <ele>48.68</ele>
        <time>2012-04-15T10:07:39Z</time>
      </trkpt>
      <trkpt lat="43.41632" lon="3.52036">
        <ele>49.16</ele>
        <time>2012-04-15T10:07:42Z</time>
      </trkpt>
      <trkpt lat="43.41637" lon="3.52049">
        <ele>50.13</ele>
        <time>2012-04-15T10:07:45Z</time>
      </trkpt>
      <trkpt lat="43.41642" lon="3.52062">
        <ele>51.09</ele>
        <time>2012-04-15T10:07:48Z</time>
      </trkpt>
      <trkpt lat="43.41649" lon="3.52075">
        <ele>52.53</ele>
        <time>2012-04-15T10:07:52Z</time>
      </trkpt>
      <trkpt lat="43.41655" lon="3.52089">
        <ele>53.97</ele>
        <time>2012-04-15T10:07:55Z</time>
      </trkpt>
      <trkpt lat="43.41662" lon="3.52101">
        <ele>54.93</ele>
        <time>2012-04-15T10:07:58Z</time>
      </trkpt>
      <trkpt lat="43.41668" lon="3.52114">
        <ele>55.41</ele>
        <time>2012-04-15T10:08:01Z</time>
      </trkpt>
      <trkpt lat="43.41674" lon="3.52127">
        <ele>55.89</ele>
        <time>2012-04-15T10:08:04Z</time>
      </trkpt>
      <trkpt lat="43.4168" lon="3.52138">
        <ele>56.86</ele>
        <time>2012-04-15T10:08:07Z</time>
      </trkpt>
      <trkpt lat="43.41686" lon="3.5215">
        <ele>57.34</ele>
        <time>2012-04-15T10:08:10Z</time>
      </trkpt>
      <trkpt lat="43.41692" lon="3.52162">
        <ele>57.34</ele>
        <time>2012-04-15T10:08:13Z</time>
      </trkpt>
      <trkpt lat="43.41697" lon="3.52175">
        <ele>57.34</ele>
        <time>2012-04-15T10:08:16Z</time>
      </trkpt>
      <trkpt lat="43.41703" lon="3.52187">
        <ele>57.34</ele>
        <time>2012-04-15T10:08:19Z</time>
      </trkpt>
      <trkpt lat="43.41709" lon="3.522">
        <ele>57.34</ele>
        <time>2012-04-15T10:08:22Z</time>
      </trkpt>
      <trkpt lat="43.41715" lon="3.52214">
        <ele>57.34</ele>
        <time>2012-04-15T10:08:25Z</time>
      </trkpt>
      <trkpt lat="43.4172" lon="3.52226">
        <ele>57.34</ele>
        <time>2012-04-15T10:08:28Z</time>
      </trkpt>
      <trkpt lat="43.41726" lon="3.52239">
        <ele>56.86</ele>
        <time>2012-04-15T10:08:31Z</time>
      </trkpt>
      <trkpt lat="43.41732" lon="3.52253">
        <ele>56.37</ele>
        <time>2012-04-15T10:08:34Z</time>
      </trkpt>
      <trkpt lat="43.41738" lon="3.52267">
        <ele>56.37</ele>
        <time>2012-04-15T10:08:37Z</time>
      </trkpt>
      <trkpt lat="43.41745" lon="3.52283">
        <ele>55.89</ele>
        <time>2012-04-15T10:08:40Z</time>
      </trkpt>
      <trkpt lat="43.41751" lon="3.52294">
        <ele>55.41</ele>
        <time>2012-04-15T10:08:42Z</time>
      </trkpt>
      <trkpt lat="43.41756" lon="3.52306">
        <ele>55.41</ele>
        <time>2012-04-15T10:08:44Z</time>
      </trkpt>
      <trkpt lat="43.41762" lon="3.52318">
        <ele>54.93</ele>
        <time>2012-04-15T10:08:46Z</time>
      </trkpt>
      <trkpt lat="43.41767" lon="3.5233">
        <ele>54.93</ele>
        <time>2012-04-15T10:08:48Z</time>
      </trkpt>
      <trkpt lat="43.41773" lon="3.52341">
        <ele>54.93</ele>
        <time>2012-04-15T10:08:50Z</time>
      </trkpt>
      <trkpt lat="43.41779" lon="3.52354">
        <ele>54.93</ele>
        <time>2012-04-15T10:08:52Z</time>
      </trkpt>
      <trkpt lat="43.41784" lon="3.52366">
        <ele>54.45</ele>
        <time>2012-04-15T10:08:54Z</time>
      </trkpt>
      <trkpt lat="43.4179" lon="3.52378">
        <ele>54.45</ele>
        <time>2012-04-15T10:08:56Z</time>
      </trkpt>
      <trkpt lat="43.41796" lon="3.52391">
        <ele>54.45</ele>
        <time>2012-04-15T10:08:58Z</time>
      </trkpt>
      <trkpt lat="43.41802" lon="3.52403">
        <ele>54.45</ele>
        <time>2012-04-15T10:09:00Z</time>
      </trkpt>
      <trkpt lat="43.41807" lon="3.52415">
        <ele>54.45</ele>
        <time>2012-04-15T10:09:02Z</time>
      </trkpt>
      <trkpt lat="43.41812" lon="3.52426">
        <ele>54.45</ele>
        <time>2012-04-15T10:09:04Z</time>
      </trkpt>
      <trkpt lat="43.41816" lon="3.52438">
        <ele>54.45</ele>
        <time>2012-04-15T10:09:06Z</time>
      </trkpt>
      <trkpt lat="43.41821" lon="3.52451">
        <ele>54.45</ele>
        <time>2012-04-15T10:09:08Z</time>
      </trkpt>
      <trkpt lat="43.41825" lon="3.52464">
        <ele>54.45</ele>
        <time>2012-04-15T10:09:10Z</time>
      </trkpt>
      <trkpt lat="43.4183" lon="3.52477">
        <ele>54.45</ele>
        <time>2012-04-15T10:09:12Z</time>
      </trkpt>
      <trkpt lat="43.41836" lon="3.52491">
        <ele>54.45</ele>
        <time>2012-04-15T10:09:14Z</time>
      </trkpt>
      <trkpt lat="43.41842" lon="3.52506">
        <ele>54.45</ele>
        <time>2012-04-15T10:09:16Z</time>
      </trkpt>
      <trkpt lat="43.41848" lon="3.52521">
        <ele>54.45</ele>
        <time>2012-04-15T10:09:18Z</time>
      </trkpt>
      <trkpt lat="43.41855" lon="3.52536">
        <ele>53.49</ele>
        <time>2012-04-15T10:09:20Z</time>
      </trkpt>
      <trkpt lat="43.41861" lon="3.52552">
        <ele>53.49</ele>
        <time>2012-04-15T10:09:22Z</time>
      </trkpt>
      <trkpt lat="43.41867" lon="3.52567">
        <ele>53.01</ele>
        <time>2012-04-15T10:09:24Z</time>
      </trkpt>
      <trkpt lat="43.41874" lon="3.52583">
        <ele>53.01</ele>
        <time>2012-04-15T10:09:26Z</time>
      </trkpt>
      <trkpt lat="43.41881" lon="3.52597">
        <ele>53.01</ele>
        <time>2012-04-15T10:09:28Z</time>
      </trkpt>
      <trkpt lat="43.41887" lon="3.52612">
        <ele>53.01</ele>
        <time>2012-04-15T10:09:30Z</time>
      </trkpt>
      <trkpt lat="43.41894" lon="3.52628">
        <ele>53.01</ele>
        <time>2012-04-15T10:09:32Z</time>
      </trkpt>
      <trkpt lat="43.41901" lon="3.52643">
        <ele>52.53</ele>
        <time>2012-04-15T10:09:34Z</time>
      </trkpt>
      <trkpt lat="43.41908" lon="3.52659">
        <ele>52.53</ele>
        <time>2012-04-15T10:09:36Z</time>
      </trkpt>
      <trkpt lat="43.41915" lon="3.52674">
        <ele>52.05</ele>
        <time>2012-04-15T10:09:38Z</time>
      </trkpt>
      <trkpt lat="43.41922" lon="3.52689">
        <ele>52.05</ele>
        <time>2012-04-15T10:09:40Z</time>
      </trkpt>
      <trkpt lat="43.41928" lon="3.52706">
        <ele>52.05</ele>
        <time>2012-04-15T10:09:42Z</time>
      </trkpt>
      <trkpt lat="43.41934" lon="3.52722">
        <ele>52.05</ele>
        <time>2012-04-15T10:09:44Z</time>
      </trkpt>
      <trkpt lat="43.4194" lon="3.52738">
        <ele>51.57</ele>
        <time>2012-04-15T10:09:46Z</time>
      </trkpt>
      <trkpt lat="43.41946" lon="3.52752">
        <ele>51.57</ele>
        <time>2012-04-15T10:09:48Z</time>
      </trkpt>
      <trkpt lat="43.41953" lon="3.52765">
        <ele>51.57</ele>
        <time>2012-04-15T10:09:50Z</time>
      </trkpt>
      <trkpt lat="43.41959" lon="3.52778">
        <ele>51.57</ele>
        <time>2012-04-15T10:09:52Z</time>
      </trkpt>
      <trkpt lat="43.41965" lon="3.52792">
        <ele>51.57</ele>
        <time>2012-04-15T10:09:54Z</time>
      </trkpt>
      <trkpt lat="43.4197" lon="3.52809">
        <ele>51.09</ele>
        <time>2012-04-15T10:09:56Z</time>
      </trkpt>
      <trkpt lat="43.41973" lon="3.52827">
        <ele>51.09</ele>
        <time>2012-04-15T10:09:58Z</time>
      </trkpt>
      <trkpt lat="43.41976" lon="3.52845">
        <ele>50.61</ele>
        <time>2012-04-15T10:10:00Z</time>
      </trkpt>
      <trkpt lat="43.4198" lon="3.52863">
        <ele>50.13</ele>
        <time>2012-04-15T10:10:02Z</time>
      </trkpt>
      <trkpt lat="43.41984" lon="3.5288">
        <ele>50.13</ele>
        <time>2012-04-15T10:10:04Z</time>
      </trkpt>
      <trkpt lat="43.41989" lon="3.52898">
        <ele>49.65</ele>
        <time>2012-04-15T10:10:06Z</time>
      </trkpt>
      <trkpt lat="43.41994" lon="3.52915">
        <ele>49.16</ele>
        <time>2012-04-15T10:10:08Z</time>
      </trkpt>
      <trkpt lat="43.41997" lon="3.52932">
        <ele>48.68</ele>
        <time>2012-04-15T10:10:10Z</time>
      </trkpt>
      <trkpt lat="43.42" lon="3.52949">
        <ele>48.2</ele>
        <time>2012-04-15T10:10:12Z</time>
      </trkpt>
      <trkpt lat="43.42003" lon="3.52966">
        <ele>47.72</ele>
        <time>2012-04-15T10:10:14Z</time>
      </trkpt>
      <trkpt lat="43.42006" lon="3.52983">
        <ele>47.24</ele>
        <time>2012-04-15T10:10:16Z</time>
      </trkpt>
      <trkpt lat="43.42008" lon="3.53">
        <ele>46.76</ele>
        <time>2012-04-15T10:10:18Z</time>
      </trkpt>
      <trkpt lat="43.42012" lon="3.53017">
        <ele>46.76</ele>
        <time>2012-04-15T10:10:20Z</time>
      </trkpt>
      <trkpt lat="43.42015" lon="3.53034">
        <ele>46.28</ele>
        <time>2012-04-15T10:10:22Z</time>
      </trkpt>
      <trkpt lat="43.4202" lon="3.5305">
        <ele>45.8</ele>
        <time>2012-04-15T10:10:24Z</time>
      </trkpt>
      <trkpt lat="43.42024" lon="3.53067">
        <ele>44.84</ele>
        <time>2012-04-15T10:10:26Z</time>
      </trkpt>
      <trkpt lat="43.42029" lon="3.53083">
        <ele>44.84</ele>
        <time>2012-04-15T10:10:28Z</time>
      </trkpt>
      <trkpt lat="43.42033" lon="3.53099">
        <ele>44.84</ele>
        <time>2012-04-15T10:10:30Z</time>
      </trkpt>
      <trkpt lat="43.42038" lon="3.53115">
        <ele>44.84</ele>
        <time>2012-04-15T10:10:32Z</time>
      </trkpt>
      <trkpt lat="43.42042" lon="3.53131">
        <ele>45.32</ele>
        <time>2012-04-15T10:10:34Z</time>
      </trkpt>
      <trkpt lat="43.42046" lon="3.53146">
        <ele>45.32</ele>
        <time>2012-04-15T10:10:36Z</time>
      </trkpt>
      <trkpt lat="43.4205" lon="3.53163">
        <ele>44.84</ele>
        <time>2012-04-15T10:10:38Z</time>
      </trkpt>
      <trkpt lat="43.42055" lon="3.5318">
        <ele>45.32</ele>
        <time>2012-04-15T10:10:40Z</time>
      </trkpt>
      <trkpt lat="43.42061" lon="3.53197">
        <ele>45.32</ele>
        <time>2012-04-15T10:10:42Z</time>
      </trkpt>
      <trkpt lat="43.42066" lon="3.53215">
        <ele>45.32</ele>
        <time>2012-04-15T10:10:44Z</time>
      </trkpt>
      <trkpt lat="43.4207" lon="3.53233">
        <ele>45.32</ele>
        <time>2012-04-15T10:10:46Z</time>
      </trkpt>
      <trkpt lat="43.42075" lon="3.53251">
        <ele>45.32</ele>
        <time>2012-04-15T10:10:48Z</time>
      </trkpt>
      <trkpt lat="43.42079" lon="3.5327">
        <ele>44.84</ele>
        <time>2012-04-15T10:10:50Z</time>
      </trkpt>
      <trkpt lat="43.42084" lon="3.53288">
        <ele>45.32</ele>
        <time>2012-04-15T10:10:52Z</time>
      </trkpt>
      <trkpt lat="43.42088" lon="3.53305">
        <ele>45.32</ele>
        <time>2012-04-15T10:10:54Z</time>
      </trkpt>
      <trkpt lat="43.42092" lon="3.53322">
        <ele>45.32</ele>
        <time>2012-04-15T10:10:56Z</time>
      </trkpt>
      <trkpt lat="43.42096" lon="3.53338">
        <ele>45.8</ele>
        <time>2012-04-15T10:10:58Z</time>
      </trkpt>
      <trkpt lat="43.421" lon="3.53353">
        <ele>45.8</ele>
        <time>2012-04-15T10:11:00Z</time>
      </trkpt>
      <trkpt lat="43.42103" lon="3.53368">
        <ele>45.8</ele>
        <time>2012-04-15T10:11:02Z</time>
      </trkpt>
      <trkpt lat="43.42106" lon="3.53383">
        <ele>46.28</ele>
        <time>2012-04-15T10:11:04Z</time>
      </trkpt>
      <trkpt lat="43.42108" lon="3.53399">
        <ele>46.76</ele>
        <time>2012-04-15T10:11:06Z</time>
      </trkpt>
      <trkpt lat="43.42111" lon="3.53414">
        <ele>46.76</ele>
        <time>2012-04-15T10:11:08Z</time>
      </trkpt>
      <trkpt lat="43.42114" lon="3.5343">
        <ele>46.28</ele>
        <time>2012-04-15T10:11:10Z</time>
      </trkpt>
      <trkpt lat="43.42118" lon="3.53446">
        <ele>46.28</ele>
        <time>2012-04-15T10:11:12Z</time>
      </trkpt>
      <trkpt lat="43.42122" lon="3.53464">
        <ele>45.8</ele>
        <time>2012-04-15T10:11:14Z</time>
      </trkpt>
      <trkpt lat="43.42126" lon="3.53482">
        <ele>45.32</ele>
        <time>2012-04-15T10:11:16Z</time>
      </trkpt>
      <trkpt lat="43.42131" lon="3.53501">
        <ele>44.84</ele>
        <time>2012-04-15T10:11:18Z</time>
      </trkpt>
      <trkpt lat="43.42138" lon="3.53519">
        <ele>44.84</ele>
        <time>2012-04-15T10:11:20Z</time>
      </trkpt>
      <trkpt lat="43.42144" lon="3.53535">
        <ele>44.36</ele>
        <time>2012-04-15T10:11:22Z</time>
      </trkpt>
      <trkpt lat="43.4215" lon="3.53552">
        <ele>43.88</ele>
        <time>2012-04-15T10:11:24Z</time>
      </trkpt>
      <trkpt lat="43.42157" lon="3.53571">
        <ele>43.4</ele>
        <time>2012-04-15T10:11:26Z</time>
      </trkpt>
      <trkpt lat="43.42164" lon="3.53589">
        <ele>42.92</ele>
        <time>2012-04-15T10:11:28Z</time>
      </trkpt>
      <trkpt lat="43.42171" lon="3.53609">
        <ele>42.44</ele>
        <time>2012-04-15T10:11:30Z</time>
      </trkpt>
      <trkpt lat="43.42176" lon="3.5363">
        <ele>41.95</ele>
        <time>2012-04-15T10:11:32Z</time>
      </trkpt>
      <trkpt lat="43.42182" lon="3.53652">
        <ele>41.47</ele>
        <time>2012-04-15T10:11:34Z</time>
      </trkpt>
      <trkpt lat="43.42186" lon="3.53674">
        <ele>41.47</ele>
        <time>2012-04-15T10:11:36Z</time>
      </trkpt>
      <trkpt lat="43.4219" lon="3.53696">
        <ele>41.47</ele>
        <time>2012-04-15T10:11:38Z</time>
      </trkpt>
      <trkpt lat="43.42193" lon="3.53718">
        <ele>40.99</ele>
        <time>2012-04-15T10:11:40Z</time>
      </trkpt>
      <trkpt lat="43.42196" lon="3.53742">
        <ele>40.51</ele>
        <time>2012-04-15T10:11:42Z</time>
      </trkpt>
      <trkpt lat="43.42199" lon="3.53765">
        <ele>39.55</ele>
        <time>2012-04-15T10:11:44Z</time>
      </trkpt>
      <trkpt lat="43.422" lon="3.53789">
        <ele>39.07</ele>
        <time>2012-04-15T10:11:46Z</time>
      </trkpt>
      <trkpt lat="43.42203" lon="3.53812">
        <ele>38.11</ele>
        <time>2012-04-15T10:11:48Z</time>
      </trkpt>
      <trkpt lat="43.42208" lon="3.53834">
        <ele>38.11</ele>
        <time>2012-04-15T10:11:50Z</time>
      </trkpt>
      <trkpt lat="43.42213" lon="3.53855">
        <ele>37.63</ele>
        <time>2012-04-15T10:11:52Z</time>
      </trkpt>
      <trkpt lat="43.42218" lon="3.53875">
        <ele>37.15</ele>
        <time>2012-04-15T10:11:54Z</time>
      </trkpt>
      <trkpt lat="43.42224" lon="3.53895">
        <ele>36.67</ele>
        <time>2012-04-15T10:11:56Z</time>
      </trkpt>
      <trkpt lat="43.42229" lon="3.53913">
        <ele>37.15</ele>
        <time>2012-04-15T10:11:58Z</time>
      </trkpt>
      <trkpt lat="43.42235" lon="3.53932">
        <ele>37.15</ele>
        <time>2012-04-15T10:12:00Z</time>
      </trkpt>
      <trkpt lat="43.4224" lon="3.5395">
        <ele>37.63</ele>
        <time>2012-04-15T10:12:02Z</time>
      </trkpt>
      <trkpt lat="43.42246" lon="3.53967">
        <ele>38.11</ele>
        <time>2012-04-15T10:12:04Z</time>
      </trkpt>
      <trkpt lat="43.42251" lon="3.53984">
        <ele>38.11</ele>
        <time>2012-04-15T10:12:06Z</time>
      </trkpt>
      <trkpt lat="43.42256" lon="3.54001">
        <ele>38.59</ele>
        <time>2012-04-15T10:12:08Z</time>
      </trkpt>
      <trkpt lat="43.4226" lon="3.54017">
        <ele>39.55</ele>
        <time>2012-04-15T10:12:10Z</time>
      </trkpt>
      <trkpt lat="43.42264" lon="3.54032">
        <ele>40.03</ele>
        <time>2012-04-15T10:12:12Z</time>
      </trkpt>
      <trkpt lat="43.42268" lon="3.54046">
        <ele>40.51</ele>
        <time>2012-04-15T10:12:14Z</time>
      </trkpt>
      <trkpt lat="43.42271" lon="3.5406">
        <ele>41.47</ele>
        <time>2012-04-15T10:12:16Z</time>
      </trkpt>
      <trkpt lat="43.42273" lon="3.54075">
        <ele>41.95</ele>
        <time>2012-04-15T10:12:18Z</time>
      </trkpt>
      <trkpt lat="43.42274" lon="3.54089">
        <ele>42.44</ele>
        <time>2012-04-15T10:12:20Z</time>
      </trkpt>
      <trkpt lat="43.42275" lon="3.54103">
        <ele>42.92</ele>
        <time>2012-04-15T10:12:22Z</time>
      </trkpt>
      <trkpt lat="43.42276" lon="3.54118">
        <ele>43.4</ele>
        <time>2012-04-15T10:12:24Z</time>
      </trkpt>
      <trkpt lat="43.42277" lon="3.54135">
        <ele>42.92</ele>
        <time>2012-04-15T10:12:26Z</time>
      </trkpt>
      <trkpt lat="43.42279" lon="3.54153">
        <ele>42.44</ele>
        <time>2012-04-15T10:12:28Z</time>
      </trkpt>
      <trkpt lat="43.42281" lon="3.54172">
        <ele>41.47</ele>
        <time>2012-04-15T10:12:30Z</time>
      </trkpt>
      <trkpt lat="43.42283" lon="3.54193">
        <ele>40.51</ele>
        <time>2012-04-15T10:12:32Z</time>
      </trkpt>
      <trkpt lat="43.42286" lon="3.54213">
        <ele>39.55</ele>
        <time>2012-04-15T10:12:34Z</time>
      </trkpt>
      <trkpt lat="43.42289" lon="3.54235">
        <ele>39.07</ele>
        <time>2012-04-15T10:12:36Z</time>
      </trkpt>
      <trkpt lat="43.42292" lon="3.54257">
        <ele>38.11</ele>
        <time>2012-04-15T10:12:38Z</time>
      </trkpt>
      <trkpt lat="43.42296" lon="3.5428">
        <ele>37.15</ele>
        <time>2012-04-15T10:12:40Z</time>
      </trkpt>
      <trkpt lat="43.42299" lon="3.54303">
        <ele>35.71</ele>
        <time>2012-04-15T10:12:42Z</time>
      </trkpt>
      <trkpt lat="43.42302" lon="3.54327">
        <ele>34.74</ele>
        <time>2012-04-15T10:12:44Z</time>
      </trkpt>
      <trkpt lat="43.42304" lon="3.54352">
        <ele>33.78</ele>
        <time>2012-04-15T10:12:46Z</time>
      </trkpt>
      <trkpt lat="43.42308" lon="3.54376">
        <ele>33.3</ele>
        <time>2012-04-15T10:12:48Z</time>
      </trkpt>
      <trkpt lat="43.42311" lon="3.54387">
        <ele>32.82</ele>
        <time>2012-04-15T10:12:49Z</time>
      </trkpt>
      <trkpt lat="43.42315" lon="3.54398">
        <ele>32.34</ele>
        <time>2012-04-15T10:12:50Z</time>
      </trkpt>
      <trkpt lat="43.42326" lon="3.54419">
        <ele>31.38</ele>
        <time>2012-04-15T10:12:52Z</time>
      </trkpt>
      <trkpt lat="43.42331" lon="3.54429">
        <ele>30.42</ele>
        <time>2012-04-15T10:12:53Z</time>
      </trkpt>
      <trkpt lat="43.42337" lon="3.54439">
        <ele>29.94</ele>
        <time>2012-04-15T10:12:54Z</time>
      </trkpt>
      <trkpt lat="43.42348" lon="3.54458">
        <ele>28.98</ele>
        <time>2012-04-15T10:12:56Z</time>
      </trkpt>
      <trkpt lat="43.42359" lon="3.54476">
        <ele>28.5</ele>
        <time>2012-04-15T10:12:58Z</time>
      </trkpt>
      <trkpt lat="43.4237" lon="3.54494">
        <ele>27.53</ele>
        <time>2012-04-15T10:13:00Z</time>
      </trkpt>
      <trkpt lat="43.42381" lon="3.54511">
        <ele>27.05</ele>
        <time>2012-04-15T10:13:02Z</time>
      </trkpt>
      <trkpt lat="43.42391" lon="3.54527">
        <ele>26.57</ele>
        <time>2012-04-15T10:13:04Z</time>
      </trkpt>
      <trkpt lat="43.424" lon="3.54542">
        <ele>25.61</ele>
        <time>2012-04-15T10:13:06Z</time>
      </trkpt>
      <trkpt lat="43.42409" lon="3.54558">
        <ele>25.13</ele>
        <time>2012-04-15T10:13:08Z</time>
      </trkpt>
      <trkpt lat="43.42418" lon="3.54574">
        <ele>24.65</ele>
        <time>2012-04-15T10:13:10Z</time>
      </trkpt>
      <trkpt lat="43.42428" lon="3.5459">
        <ele>24.17</ele>
        <time>2012-04-15T10:13:12Z</time>
      </trkpt>
      <trkpt lat="43.42438" lon="3.54606">
        <ele>23.21</ele>
        <time>2012-04-15T10:13:14Z</time>
      </trkpt>
      <trkpt lat="43.42447" lon="3.54622">
        <ele>22.73</ele>
        <time>2012-04-15T10:13:16Z</time>
      </trkpt>
      <trkpt lat="43.42457" lon="3.54638">
        <ele>22.25</ele>
        <time>2012-04-15T10:13:18Z</time>
      </trkpt>
      <trkpt lat="43.42466" lon="3.54654">
        <ele>21.77</ele>
        <time>2012-04-15T10:13:20Z</time>
      </trkpt>
      <trkpt lat="43.42476" lon="3.54669">
        <ele>21.77</ele>
        <time>2012-04-15T10:13:22Z</time>
      </trkpt>
      <trkpt lat="43.42485" lon="3.54685">
        <ele>21.29</ele>
        <time>2012-04-15T10:13:24Z</time>
      </trkpt>
      <trkpt lat="43.42495" lon="3.547">
        <ele>21.29</ele>
        <time>2012-04-15T10:13:26Z</time>
      </trkpt>
      <trkpt lat="43.42504" lon="3.54715">
        <ele>20.81</ele>
        <time>2012-04-15T10:13:28Z</time>
      </trkpt>
      <trkpt lat="43.42512" lon="3.54731">
        <ele>20.32</ele>
        <time>2012-04-15T10:13:30Z</time>
      </trkpt>
      <trkpt lat="43.42521" lon="3.54745">
        <ele>19.36</ele>
        <time>2012-04-15T10:13:32Z</time>
      </trkpt>
      <trkpt lat="43.4253" lon="3.5476">
        <ele>19.36</ele>
        <time>2012-04-15T10:13:34Z</time>
      </trkpt>
      <trkpt lat="43.42539" lon="3.54774">
        <ele>18.88</ele>
        <time>2012-04-15T10:13:36Z</time>
      </trkpt>
      <trkpt lat="43.42548" lon="3.54789">
        <ele>18.88</ele>
        <time>2012-04-15T10:13:38Z</time>
      </trkpt>
      <trkpt lat="43.42557" lon="3.54805">
        <ele>18.4</ele>
        <time>2012-04-15T10:13:40Z</time>
      </trkpt>
      <trkpt lat="43.42566" lon="3.5482">
        <ele>18.4</ele>
        <time>2012-04-15T10:13:42Z</time>
      </trkpt>
      <trkpt lat="43.42574" lon="3.54835">
        <ele>18.4</ele>
        <time>2012-04-15T10:13:44Z</time>
      </trkpt>
      <trkpt lat="43.42584" lon="3.54851">
        <ele>17.92</ele>
        <time>2012-04-15T10:13:46Z</time>
      </trkpt>
      <trkpt lat="43.42593" lon="3.54866">
        <ele>17.92</ele>
        <time>2012-04-15T10:13:48Z</time>
      </trkpt>
      <trkpt lat="43.42602" lon="3.5488">
        <ele>17.92</ele>
        <time>2012-04-15T10:13:50Z</time>
      </trkpt>
      <trkpt lat="43.42611" lon="3.54895">
        <ele>17.92</ele>
        <time>2012-04-15T10:13:52Z</time>
      </trkpt>
      <trkpt lat="43.42619" lon="3.54909">
        <ele>18.4</ele>
        <time>2012-04-15T10:13:54Z</time>
      </trkpt>
      <trkpt lat="43.42628" lon="3.54923">
        <ele>18.4</ele>
        <time>2012-04-15T10:13:56Z</time>
      </trkpt>
      <trkpt lat="43.42636" lon="3.54937">
        <ele>18.4</ele>
        <time>2012-04-15T10:13:58Z</time>
      </trkpt>
      <trkpt lat="43.42643" lon="3.5495">
        <ele>18.4</ele>
        <time>2012-04-15T10:14:00Z</time>
      </trkpt>
      <trkpt lat="43.42649" lon="3.54963">
        <ele>18.88</ele>
        <time>2012-04-15T10:14:02Z</time>
      </trkpt>
      <trkpt lat="43.42655" lon="3.54977">
        <ele>19.36</ele>
        <time>2012-04-15T10:14:04Z</time>
      </trkpt>
      <trkpt lat="43.42661" lon="3.54992">
        <ele>19.84</ele>
        <time>2012-04-15T10:14:06Z</time>
      </trkpt>
      <trkpt lat="43.42666" lon="3.55007">
        <ele>20.81</ele>
        <time>2012-04-15T10:14:08Z</time>
      </trkpt>
      <trkpt lat="43.4267" lon="3.55022">
        <ele>20.81</ele>
        <time>2012-04-15T10:14:10Z</time>
      </trkpt>
      <trkpt lat="43.42673" lon="3.55037">
        <ele>21.77</ele>
        <time>2012-04-15T10:14:12Z</time>
      </trkpt>
      <trkpt lat="43.42676" lon="3.55053">
        <ele>22.25</ele>
        <time>2012-04-15T10:14:14Z</time>
      </trkpt>
      <trkpt lat="43.42678" lon="3.55069">
        <ele>22.73</ele>
        <time>2012-04-15T10:14:16Z</time>
      </trkpt>
      <trkpt lat="43.4268" lon="3.55085">
        <ele>22.73</ele>
        <time>2012-04-15T10:14:18Z</time>
      </trkpt>
      <trkpt lat="43.42682" lon="3.55102">
        <ele>22.25</ele>
        <time>2012-04-15T10:14:20Z</time>
      </trkpt>
      <trkpt lat="43.42684" lon="3.55119">
        <ele>22.25</ele>
        <time>2012-04-15T10:14:22Z</time>
      </trkpt>
      <trkpt lat="43.42685" lon="3.55135">
        <ele>22.25</ele>
        <time>2012-04-15T10:14:24Z</time>
      </trkpt>
      <trkpt lat="43.42686" lon="3.55153">
        <ele>22.25</ele>
        <time>2012-04-15T10:14:26Z</time>
      </trkpt>
      <trkpt lat="43.42685" lon="3.5517">
        <ele>22.25</ele>
        <time>2012-04-15T10:14:28Z</time>
      </trkpt>
      <trkpt lat="43.42683" lon="3.55187">
        <ele>22.25</ele>
        <time>2012-04-15T10:14:30Z</time>
      </trkpt>
      <trkpt lat="43.4268" lon="3.55204">
        <ele>22.25</ele>
        <time>2012-04-15T10:14:32Z</time>
      </trkpt>
      <trkpt lat="43.42677" lon="3.55221">
        <ele>22.25</ele>
        <time>2012-04-15T10:14:34Z</time>
      </trkpt>
      <trkpt lat="43.42674" lon="3.55237">
        <ele>22.73</ele>
        <time>2012-04-15T10:14:36Z</time>
      </trkpt>
      <trkpt lat="43.42671" lon="3.55253">
        <ele>23.21</ele>
        <time>2012-04-15T10:14:38Z</time>
      </trkpt>
      <trkpt lat="43.42668" lon="3.55271">
        <ele>23.21</ele>
        <time>2012-04-15T10:14:40Z</time>
      </trkpt>
      <trkpt lat="43.42666" lon="3.55288">
        <ele>23.69</ele>
        <time>2012-04-15T10:14:42Z</time>
      </trkpt>
      <trkpt lat="43.42663" lon="3.55307">
        <ele>23.69</ele>
        <time>2012-04-15T10:14:44Z</time>
      </trkpt>
      <trkpt lat="43.4266" lon="3.55325">
        <ele>23.69</ele>
        <time>2012-04-15T10:14:46Z</time>
      </trkpt>
      <trkpt lat="43.42657" lon="3.55343">
        <ele>23.69</ele>
        <time>2012-04-15T10:14:48Z</time>
      </trkpt>
      <trkpt lat="43.42654" lon="3.55361">
        <ele>23.69</ele>
        <time>2012-04-15T10:14:50Z</time>
      </trkpt>
      <trkpt lat="43.42651" lon="3.55379">
        <ele>23.69</ele>
        <time>2012-04-15T10:14:52Z</time>
      </trkpt>
      <trkpt lat="43.42648" lon="3.55397">
        <ele>23.69</ele>
        <time>2012-04-15T10:14:54Z</time>
      </trkpt>
      <trkpt lat="43.42645" lon="3.55414">
        <ele>23.69</ele>
        <time>2012-04-15T10:14:56Z</time>
      </trkpt>
      <trkpt lat="43.42641" lon="3.55432">
        <ele>23.69</ele>
        <time>2012-04-15T10:14:58Z</time>
      </trkpt>
      <trkpt lat="43.42638" lon="3.55449">
        <ele>24.17</ele>
        <time>2012-04-15T10:15:00Z</time>
      </trkpt>
      <trkpt lat="43.42635" lon="3.55466">
        <ele>24.17</ele>
        <time>2012-04-15T10:15:02Z</time>
      </trkpt>
      <trkpt lat="43.42633" lon="3.55484">
        <ele>24.17</ele>
        <time>2012-04-15T10:15:04Z</time>
      </trkpt>
      <trkpt lat="43.42634" lon="3.55501">
        <ele>24.17</ele>
        <time>2012-04-15T10:15:06Z</time>
      </trkpt>
      <trkpt lat="43.42638" lon="3.55517">
        <ele>24.17</ele>
        <time>2012-04-15T10:15:08Z</time>
      </trkpt>
      <trkpt lat="43.42644" lon="3.5553">
        <ele>24.65</ele>
        <time>2012-04-15T10:15:10Z</time>
      </trkpt>
      <trkpt lat="43.4265" lon="3.55543">
        <ele>25.13</ele>
        <time>2012-04-15T10:15:12Z</time>
      </trkpt>
      <trkpt lat="43.42655" lon="3.55556">
        <ele>25.61</ele>
        <time>2012-04-15T10:15:14Z</time>
      </trkpt>
      <trkpt lat="43.4266" lon="3.55568">
        <ele>25.61</ele>
        <time>2012-04-15T10:15:16Z</time>
      </trkpt>
      <trkpt lat="43.42659" lon="3.5558">
        <ele>26.09</ele>
        <time>2012-04-15T10:15:18Z</time>
      </trkpt>
      <trkpt lat="43.42652" lon="3.55595">
        <ele>26.57</ele>
        <time>2012-04-15T10:15:21Z</time>
      </trkpt>
      <trkpt lat="43.42643" lon="3.55606">
        <ele>27.53</ele>
        <time>2012-04-15T10:15:24Z</time>
      </trkpt>
      <trkpt lat="43.42634" lon="3.55618">
        <ele>28.02</ele>
        <time>2012-04-15T10:15:27Z</time>
      </trkpt>
      <trkpt lat="43.42625" lon="3.55629">
        <ele>28.02</ele>
        <time>2012-04-15T10:15:30Z</time>
      </trkpt>
      <trkpt lat="43.42615" lon="3.5564">
        <ele>27.53</ele>
        <time>2012-04-15T10:15:33Z</time>
      </trkpt>
      <trkpt lat="43.42609" lon="3.5565">
        <ele>27.53</ele>
        <time>2012-04-15T10:16:07Z</time>
      </trkpt>
      <trkpt lat="43.42611" lon="3.55661">
        <ele>28.02</ele>
        <time>2012-04-15T10:16:10Z</time>
      </trkpt>
      <trkpt lat="43.42613" lon="3.55675">
        <ele>28.02</ele>
        <time>2012-04-15T10:16:13Z</time>
      </trkpt>
      <trkpt lat="43.42606" lon="3.5569">
        <ele>27.53</ele>
        <time>2012-04-15T10:16:16Z</time>
      </trkpt>
      <trkpt lat="43.42601" lon="3.55703">
        <ele>27.05</ele>
        <time>2012-04-15T10:16:18Z</time>
      </trkpt>
      <trkpt lat="43.42597" lon="3.55717">
        <ele>27.05</ele>
        <time>2012-04-15T10:16:20Z</time>
      </trkpt>
      <trkpt lat="43.42594" lon="3.55731">
        <ele>27.05</ele>
        <time>2012-04-15T10:16:22Z</time>
      </trkpt>
      <trkpt lat="43.42593" lon="3.55745">
        <ele>27.05</ele>
        <time>2012-04-15T10:16:24Z</time>
      </trkpt>
      <trkpt lat="43.42591" lon="3.55759">
        <ele>27.53</ele>
        <time>2012-04-15T10:16:26Z</time>
      </trkpt>
      <trkpt lat="43.42589" lon="3.55774">
        <ele>27.53</ele>
        <time>2012-04-15T10:16:28Z</time>
      </trkpt>
      <trkpt lat="43.42587" lon="3.5579">
        <ele>28.02</ele>
        <time>2012-04-15T10:16:30Z</time>
      </trkpt>
      <trkpt lat="43.42583" lon="3.55806">
        <ele>28.5</ele>
        <time>2012-04-15T10:16:32Z</time>
      </trkpt>
      <trkpt lat="43.42577" lon="3.55822">
        <ele>28.5</ele>
        <time>2012-04-15T10:16:34Z</time>
      </trkpt>
      <trkpt lat="43.42573" lon="3.55839">
        <ele>28.02</ele>
        <time>2012-04-15T10:16:36Z</time>
      </trkpt>
      <trkpt lat="43.4257" lon="3.55856">
        <ele>27.53</ele>
        <time>2012-04-15T10:16:38Z</time>
      </trkpt>
      <trkpt lat="43.42567" lon="3.55874">
        <ele>26.57</ele>
        <time>2012-04-15T10:16:40Z</time>
      </trkpt>
      <trkpt lat="43.42564" lon="3.55891">
        <ele>26.09</ele>
        <time>2012-04-15T10:16:42Z</time>
      </trkpt>
      <trkpt lat="43.42561" lon="3.55909">
        <ele>25.13</ele>
        <time>2012-04-15T10:16:44Z</time>
      </trkpt>
      <trkpt lat="43.42558" lon="3.55926">
        <ele>24.65</ele>
        <time>2012-04-15T10:16:46Z</time>
      </trkpt>
      <trkpt lat="43.42555" lon="3.55944">
        <ele>24.65</ele>
        <time>2012-04-15T10:16:48Z</time>
      </trkpt>
      <trkpt lat="43.42551" lon="3.55961">
        <ele>23.69</ele>
        <time>2012-04-15T10:16:50Z</time>
      </trkpt>
      <trkpt lat="43.42548" lon="3.55978">
        <ele>22.73</ele>
        <time>2012-04-15T10:16:52Z</time>
      </trkpt>
      <trkpt lat="43.42544" lon="3.55994">
        <ele>22.25</ele>
        <time>2012-04-15T10:16:54Z</time>
      </trkpt>
      <trkpt lat="43.42543" lon="3.5601">
        <ele>21.77</ele>
        <time>2012-04-15T10:16:56Z</time>
      </trkpt>
      <trkpt lat="43.4254" lon="3.56027">
        <ele>21.77</ele>
        <time>2012-04-15T10:16:58Z</time>
      </trkpt>
      <trkpt lat="43.42534" lon="3.5604">
        <ele>21.29</ele>
        <time>2012-04-15T10:17:00Z</time>
      </trkpt>
      <trkpt lat="43.42527" lon="3.56054">
        <ele>21.29</ele>
        <time>2012-04-15T10:17:02Z</time>
      </trkpt>
      <trkpt lat="43.42522" lon="3.56068">
        <ele>21.29</ele>
        <time>2012-04-15T10:17:04Z</time>
      </trkpt>
      <trkpt lat="43.42517" lon="3.56081">
        <ele>21.29</ele>
        <time>2012-04-15T10:17:06Z</time>
      </trkpt>
      <trkpt lat="43.42512" lon="3.56092">
        <ele>21.77</ele>
        <time>2012-04-15T10:17:08Z</time>
      </trkpt>
      <trkpt lat="43.42506" lon="3.56107">
        <ele>22.73</ele>
        <time>2012-04-15T10:17:11Z</time>
      </trkpt>
      <trkpt lat="43.42501" lon="3.56122">
        <ele>23.21</ele>
        <time>2012-04-15T10:17:14Z</time>
      </trkpt>
      <trkpt lat="43.42497" lon="3.56138">
        <ele>23.69</ele>
        <time>2012-04-15T10:17:17Z</time>
      </trkpt>
      <trkpt lat="43.42497" lon="3.56153">
        <ele>24.17</ele>
        <time>2012-04-15T10:17:20Z</time>
      </trkpt>
      <trkpt lat="43.425" lon="3.56165">
        <ele>24.17</ele>
        <time>2012-04-15T10:17:23Z</time>
      </trkpt>
      <trkpt lat="43.42504" lon="3.56178">
        <ele>23.69</ele>
        <time>2012-04-15T10:17:26Z</time>
      </trkpt>
      <trkpt lat="43.42508" lon="3.56193">
        <ele>23.21</ele>
        <time>2012-04-15T10:17:29Z</time>
      </trkpt>
      <trkpt lat="43.42511" lon="3.56207">
        <ele>22.73</ele>
        <time>2012-04-15T10:17:32Z</time>
      </trkpt>
      <trkpt lat="43.42514" lon="3.56222">
        <ele>22.73</ele>
        <time>2012-04-15T10:17:35Z</time>
      </trkpt>
      <trkpt lat="43.42518" lon="3.56237">
        <ele>22.73</ele>
        <time>2012-04-15T10:17:38Z</time>
      </trkpt>
      <trkpt lat="43.42522" lon="3.56252">
        <ele>22.73</ele>
        <time>2012-04-15T10:17:41Z</time>
      </trkpt>
      <trkpt lat="43.42525" lon="3.56266">
        <ele>22.73</ele>
        <time>2012-04-15T10:17:44Z</time>
      </trkpt>
      <trkpt lat="43.42529" lon="3.56278">
        <ele>23.21</ele>
        <time>2012-04-15T10:17:47Z</time>
      </trkpt>
      <trkpt lat="43.42532" lon="3.56292">
        <ele>23.69</ele>
        <time>2012-04-15T10:17:50Z</time>
      </trkpt>
      <trkpt lat="43.42537" lon="3.56308">
        <ele>23.21</ele>
        <time>2012-04-15T10:17:53Z</time>
      </trkpt>
      <trkpt lat="43.42542" lon="3.56323">
        <ele>22.73</ele>
        <time>2012-04-15T10:17:56Z</time>
      </trkpt>
      <trkpt lat="43.42547" lon="3.5634">
        <ele>23.21</ele>
        <time>2012-04-15T10:17:59Z</time>
      </trkpt>
      <trkpt lat="43.42552" lon="3.56357">
        <ele>22.73</ele>
        <time>2012-04-15T10:18:02Z</time>
      </trkpt>
      <trkpt lat="43.42556" lon="3.56369">
        <ele>22.73</ele>
        <time>2012-04-15T10:18:04Z</time>
      </trkpt>
      <trkpt lat="43.4256" lon="3.5638">
        <ele>22.73</ele>
        <time>2012-04-15T10:18:06Z</time>
      </trkpt>
      <trkpt lat="43.42563" lon="3.56392">
        <ele>22.73</ele>
        <time>2012-04-15T10:18:08Z</time>
      </trkpt>
      <trkpt lat="43.42567" lon="3.56404">
        <ele>23.21</ele>
        <time>2012-04-15T10:18:10Z</time>
      </trkpt>
      <trkpt lat="43.4257" lon="3.56417">
        <ele>23.21</ele>
        <time>2012-04-15T10:18:12Z</time>
      </trkpt>
      <trkpt lat="43.42574" lon="3.56429">
        <ele>22.73</ele>
        <time>2012-04-15T10:18:14Z</time>
      </trkpt>
      <trkpt lat="43.42579" lon="3.56446">
        <ele>22.73</ele>
        <time>2012-04-15T10:18:17Z</time>
      </trkpt>
      <trkpt lat="43.42583" lon="3.56458">
        <ele>22.73</ele>
        <time>2012-04-15T10:18:19Z</time>
      </trkpt>
      <trkpt lat="43.42586" lon="3.56469">
        <ele>23.69</ele>
        <time>2012-04-15T10:18:21Z</time>
      </trkpt>
      <trkpt lat="43.4259" lon="3.56481">
        <ele>24.17</ele>
        <time>2012-04-15T10:18:23Z</time>
      </trkpt>
      <trkpt lat="43.42594" lon="3.56492">
        <ele>24.65</ele>
        <time>2012-04-15T10:18:25Z</time>
      </trkpt>
      <trkpt lat="43.42597" lon="3.56504">
        <ele>24.65</ele>
        <time>2012-04-15T10:18:27Z</time>
      </trkpt>
      <trkpt lat="43.42601" lon="3.56516">
        <ele>24.65</ele>
        <time>2012-04-15T10:18:29Z</time>
      </trkpt>
      <trkpt lat="43.42605" lon="3.56527">
        <ele>24.65</ele>
        <time>2012-04-15T10:18:31Z</time>
      </trkpt>
      <trkpt lat="43.42609" lon="3.56539">
        <ele>25.13</ele>
        <time>2012-04-15T10:18:33Z</time>
      </trkpt>
      <trkpt lat="43.42613" lon="3.5655">
        <ele>25.61</ele>
        <time>2012-04-15T10:18:35Z</time>
      </trkpt>
      <trkpt lat="43.42617" lon="3.56562">
        <ele>25.61</ele>
        <time>2012-04-15T10:18:37Z</time>
      </trkpt>
      <trkpt lat="43.42621" lon="3.56574">
        <ele>25.61</ele>
        <time>2012-04-15T10:18:39Z</time>
      </trkpt>
      <trkpt lat="43.42626" lon="3.5659">
        <ele>26.09</ele>
        <time>2012-04-15T10:18:42Z</time>
      </trkpt>
      <trkpt lat="43.4263" lon="3.56601">
        <ele>26.57</ele>
        <time>2012-04-15T10:18:44Z</time>
      </trkpt>
      <trkpt lat="43.42634" lon="3.56612">
        <ele>27.05</ele>
        <time>2012-04-15T10:18:46Z</time>
      </trkpt>
      <trkpt lat="43.4264" lon="3.56629">
        <ele>28.02</ele>
        <time>2012-04-15T10:18:49Z</time>
      </trkpt>
      <trkpt lat="43.42647" lon="3.56645">
        <ele>28.98</ele>
        <time>2012-04-15T10:18:52Z</time>
      </trkpt>
      <trkpt lat="43.42651" lon="3.56657">
        <ele>29.94</ele>
        <time>2012-04-15T10:18:54Z</time>
      </trkpt>
      <trkpt lat="43.42654" lon="3.56669">
        <ele>30.42</ele>
        <time>2012-04-15T10:18:56Z</time>
      </trkpt>
      <trkpt lat="43.4266" lon="3.56686">
        <ele>30.9</ele>
        <time>2012-04-15T10:18:59Z</time>
      </trkpt>
      <trkpt lat="43.42666" lon="3.56703">
        <ele>31.38</ele>
        <time>2012-04-15T10:19:02Z</time>
      </trkpt>
      <trkpt lat="43.4267" lon="3.56715">
        <ele>31.38</ele>
        <time>2012-04-15T10:19:04Z</time>
      </trkpt>
      <trkpt lat="43.42674" lon="3.56727">
        <ele>31.86</ele>
        <time>2012-04-15T10:19:06Z</time>
      </trkpt>
      <trkpt lat="43.42677" lon="3.56738">
        <ele>31.86</ele>
        <time>2012-04-15T10:19:08Z</time>
      </trkpt>
      <trkpt lat="43.42681" lon="3.5675">
        <ele>31.86</ele>
        <time>2012-04-15T10:19:10Z</time>
      </trkpt>
      <trkpt lat="43.42684" lon="3.56762">
        <ele>31.86</ele>
        <time>2012-04-15T10:19:12Z</time>
      </trkpt>
      <trkpt lat="43.42688" lon="3.56773">
        <ele>31.86</ele>
        <time>2012-04-15T10:19:14Z</time>
      </trkpt>
      <trkpt lat="43.42694" lon="3.5679">
        <ele>31.86</ele>
        <time>2012-04-15T10:19:17Z</time>
      </trkpt>
      <trkpt lat="43.42698" lon="3.56802">
        <ele>31.86</ele>
        <time>2012-04-15T10:19:19Z</time>
      </trkpt>
      <trkpt lat="43.42702" lon="3.56813">
        <ele>31.86</ele>
        <time>2012-04-15T10:19:21Z</time>
      </trkpt>
      <trkpt lat="43.42705" lon="3.56826">
        <ele>31.86</ele>
        <time>2012-04-15T10:19:23Z</time>
      </trkpt>
      <trkpt lat="43.42709" lon="3.56838">
        <ele>31.38</ele>
        <time>2012-04-15T10:19:25Z</time>
      </trkpt>
      <trkpt lat="43.42712" lon="3.56851">
        <ele>31.38</ele>
        <time>2012-04-15T10:19:27Z</time>
      </trkpt>
      <trkpt lat="43.42714" lon="3.56864">
        <ele>30.9</ele>
        <time>2012-04-15T10:19:29Z</time>
      </trkpt>
      <trkpt lat="43.42717" lon="3.56878">
        <ele>30.9</ele>
        <time>2012-04-15T10:19:31Z</time>
      </trkpt>
      <trkpt lat="43.4272" lon="3.56892">
        <ele>30.9</ele>
        <time>2012-04-15T10:19:33Z</time>
      </trkpt>
      <trkpt lat="43.42723" lon="3.56905">
        <ele>30.42</ele>
        <time>2012-04-15T10:19:35Z</time>
      </trkpt>
      <trkpt lat="43.42726" lon="3.5692">
        <ele>29.94</ele>
        <time>2012-04-15T10:19:37Z</time>
      </trkpt>
      <trkpt lat="43.42729" lon="3.56935">
        <ele>29.94</ele>
        <time>2012-04-15T10:19:39Z</time>
      </trkpt>
      <trkpt lat="43.42732" lon="3.56951">
        <ele>29.94</ele>
        <time>2012-04-15T10:19:41Z</time>
      </trkpt>
      <trkpt lat="43.42735" lon="3.56967">
        <ele>29.94</ele>
        <time>2012-04-15T10:19:43Z</time>
      </trkpt>
      <trkpt lat="43.42739" lon="3.56983">
        <ele>29.46</ele>
        <time>2012-04-15T10:19:45Z</time>
      </trkpt>
      <trkpt lat="43.42742" lon="3.56999">
        <ele>28.98</ele>
        <time>2012-04-15T10:19:47Z</time>
      </trkpt>
      <trkpt lat="43.42746" lon="3.57015">
        <ele>28.5</ele>
        <time>2012-04-15T10:19:49Z</time>
      </trkpt>
      <trkpt lat="43.4275" lon="3.57032">
        <ele>28.5</ele>
        <time>2012-04-15T10:19:51Z</time>
      </trkpt>
      <trkpt lat="43.42755" lon="3.5705">
        <ele>28.02</ele>
        <time>2012-04-15T10:19:53Z</time>
      </trkpt>
      <trkpt lat="43.42761" lon="3.57069">
        <ele>27.05</ele>
        <time>2012-04-15T10:19:55Z</time>
      </trkpt>
      <trkpt lat="43.42768" lon="3.57089">
        <ele>26.09</ele>
        <time>2012-04-15T10:19:57Z</time>
      </trkpt>
      <trkpt lat="43.42775" lon="3.57111">
        <ele>25.13</ele>
        <time>2012-04-15T10:19:59Z</time>
      </trkpt>
      <trkpt lat="43.42778" lon="3.57123">
        <ele>24.65</ele>
        <time>2012-04-15T10:20:00Z</time>
      </trkpt>
      <trkpt lat="43.42782" lon="3.57135">
        <ele>23.69</ele>
        <time>2012-04-15T10:20:01Z</time>
      </trkpt>
      <trkpt lat="43.42785" lon="3.57148">
        <ele>23.21</ele>
        <time>2012-04-15T10:20:02Z</time>
      </trkpt>
      <trkpt lat="43.42789" lon="3.57161">
        <ele>22.73</ele>
        <time>2012-04-15T10:20:03Z</time>
      </trkpt>
      <trkpt lat="43.42792" lon="3.57174">
        <ele>21.77</ele>
        <time>2012-04-15T10:20:04Z</time>
      </trkpt>
      <trkpt lat="43.42794" lon="3.57187">
        <ele>21.29</ele>
        <time>2012-04-15T10:20:05Z</time>
      </trkpt>
      <trkpt lat="43.42797" lon="3.57199">
        <ele>20.81</ele>
        <time>2012-04-15T10:20:06Z</time>
      </trkpt>
      <trkpt lat="43.428" lon="3.57212">
        <ele>20.32</ele>
        <time>2012-04-15T10:20:07Z</time>
      </trkpt>
      <trkpt lat="43.42803" lon="3.57225">
        <ele>19.84</ele>
        <time>2012-04-15T10:20:08Z</time>
      </trkpt>
      <trkpt lat="43.42806" lon="3.57238">
        <ele>19.36</ele>
        <time>2012-04-15T10:20:09Z</time>
      </trkpt>
      <trkpt lat="43.42809" lon="3.57251">
        <ele>18.88</ele>
        <time>2012-04-15T10:20:10Z</time>
      </trkpt>
      <trkpt lat="43.42811" lon="3.57263">
        <ele>18.4</ele>
        <time>2012-04-15T10:20:11Z</time>
      </trkpt>
      <trkpt lat="43.42814" lon="3.57276">
        <ele>18.4</ele>
        <time>2012-04-15T10:20:12Z</time>
      </trkpt>
      <trkpt lat="43.42817" lon="3.57288">
        <ele>17.92</ele>
        <time>2012-04-15T10:20:13Z</time>
      </trkpt>
      <trkpt lat="43.4282" lon="3.57301">
        <ele>17.44</ele>
        <time>2012-04-15T10:20:14Z</time>
      </trkpt>
      <trkpt lat="43.42823" lon="3.57314">
        <ele>16.96</ele>
        <time>2012-04-15T10:20:15Z</time>
      </trkpt>
      <trkpt lat="43.42827" lon="3.57326">
        <ele>16.48</ele>
        <time>2012-04-15T10:20:16Z</time>
      </trkpt>
      <trkpt lat="43.4283" lon="3.57338">
        <ele>16.48</ele>
        <time>2012-04-15T10:20:17Z</time>
      </trkpt>
      <trkpt lat="43.42833" lon="3.5735">
        <ele>16.48</ele>
        <time>2012-04-15T10:20:18Z</time>
      </trkpt>
      <trkpt lat="43.42839" lon="3.57374">
        <ele>16</ele>
        <time>2012-04-15T10:20:20Z</time>
      </trkpt>
      <trkpt lat="43.42842" lon="3.57386">
        <ele>16</ele>
        <time>2012-04-15T10:20:21Z</time>
      </trkpt>
      <trkpt lat="43.42845" lon="3.57398">
        <ele>15.52</ele>
        <time>2012-04-15T10:20:22Z</time>
      </trkpt>
      <trkpt lat="43.42848" lon="3.5741">
        <ele>15.52</ele>
        <time>2012-04-15T10:20:23Z</time>
      </trkpt>
      <trkpt lat="43.42851" lon="3.57422">
        <ele>15.04</ele>
        <time>2012-04-15T10:20:24Z</time>
      </trkpt>
      <trkpt lat="43.42853" lon="3.57434">
        <ele>15.04</ele>
        <time>2012-04-15T10:20:25Z</time>
      </trkpt>
      <trkpt lat="43.42856" lon="3.57446">
        <ele>15.04</ele>
        <time>2012-04-15T10:20:26Z</time>
      </trkpt>
      <trkpt lat="43.42859" lon="3.57457">
        <ele>14.56</ele>
        <time>2012-04-15T10:20:27Z</time>
      </trkpt>
      <trkpt lat="43.42865" lon="3.5748">
        <ele>14.56</ele>
        <time>2012-04-15T10:20:29Z</time>
      </trkpt>
      <trkpt lat="43.4287" lon="3.57502">
        <ele>14.56</ele>
        <time>2012-04-15T10:20:31Z</time>
      </trkpt>
      <trkpt lat="43.42877" lon="3.57524">
        <ele>14.56</ele>
        <time>2012-04-15T10:20:33Z</time>
      </trkpt>
      <trkpt lat="43.42883" lon="3.57545">
        <ele>14.56</ele>
        <time>2012-04-15T10:20:35Z</time>
      </trkpt>
      <trkpt lat="43.4289" lon="3.57565">
        <ele>14.08</ele>
        <time>2012-04-15T10:20:37Z</time>
      </trkpt>
      <trkpt lat="43.42898" lon="3.57586">
        <ele>14.08</ele>
        <time>2012-04-15T10:20:39Z</time>
      </trkpt>
      <trkpt lat="43.42904" lon="3.57606">
        <ele>14.08</ele>
        <time>2012-04-15T10:20:41Z</time>
      </trkpt>
      <trkpt lat="43.42911" lon="3.57626">
        <ele>14.08</ele>
        <time>2012-04-15T10:20:43Z</time>
      </trkpt>
      <trkpt lat="43.42917" lon="3.57646">
        <ele>14.08</ele>
        <time>2012-04-15T10:20:45Z</time>
      </trkpt>
      <trkpt lat="43.42923" lon="3.57665">
        <ele>13.12</ele>
        <time>2012-04-15T10:20:47Z</time>
      </trkpt>
      <trkpt lat="43.42929" lon="3.57684">
        <ele>12.15</ele>
        <time>2012-04-15T10:20:49Z</time>
      </trkpt>
      <trkpt lat="43.42935" lon="3.57703">
        <ele>11.67</ele>
        <time>2012-04-15T10:20:51Z</time>
      </trkpt>
      <trkpt lat="43.42941" lon="3.57722">
        <ele>11.67</ele>
        <time>2012-04-15T10:20:53Z</time>
      </trkpt>
      <trkpt lat="43.42948" lon="3.5774">
        <ele>11.67</ele>
        <time>2012-04-15T10:20:55Z</time>
      </trkpt>
      <trkpt lat="43.42955" lon="3.57759">
        <ele>11.19</ele>
        <time>2012-04-15T10:20:57Z</time>
      </trkpt>
      <trkpt lat="43.42963" lon="3.57777">
        <ele>10.23</ele>
        <time>2012-04-15T10:20:59Z</time>
      </trkpt>
      <trkpt lat="43.4297" lon="3.57795">
        <ele>10.23</ele>
        <time>2012-04-15T10:21:01Z</time>
      </trkpt>
      <trkpt lat="43.42978" lon="3.57813">
        <ele>9.75</ele>
        <time>2012-04-15T10:21:03Z</time>
      </trkpt>
      <trkpt lat="43.42985" lon="3.5783">
        <ele>9.27</ele>
        <time>2012-04-15T10:21:05Z</time>
      </trkpt>
      <trkpt lat="43.42993" lon="3.57847">
        <ele>9.27</ele>
        <time>2012-04-15T10:21:07Z</time>
      </trkpt>
      <trkpt lat="43.43" lon="3.57864">
        <ele>9.27</ele>
        <time>2012-04-15T10:21:09Z</time>
      </trkpt>
      <trkpt lat="43.43007" lon="3.57881">
        <ele>9.27</ele>
        <time>2012-04-15T10:21:11Z</time>
      </trkpt>
      <trkpt lat="43.43016" lon="3.57895">
        <ele>8.79</ele>
        <time>2012-04-15T10:21:13Z</time>
      </trkpt>
      <trkpt lat="43.43023" lon="3.5791">
        <ele>9.27</ele>
        <time>2012-04-15T10:21:15Z</time>
      </trkpt>
      <trkpt lat="43.43032" lon="3.57925">
        <ele>9.27</ele>
        <time>2012-04-15T10:21:17Z</time>
      </trkpt>
      <trkpt lat="43.43041" lon="3.57938">
        <ele>9.75</ele>
        <time>2012-04-15T10:21:19Z</time>
      </trkpt>
      <trkpt lat="43.4305" lon="3.57951">
        <ele>9.75</ele>
        <time>2012-04-15T10:21:21Z</time>
      </trkpt>
      <trkpt lat="43.4306" lon="3.57961">
        <ele>9.75</ele>
        <time>2012-04-15T10:21:23Z</time>
      </trkpt>
      <trkpt lat="43.4307" lon="3.5797">
        <ele>10.23</ele>
        <time>2012-04-15T10:21:25Z</time>
      </trkpt>
      <trkpt lat="43.4308" lon="3.57978">
        <ele>10.71</ele>
        <time>2012-04-15T10:21:27Z</time>
      </trkpt>
      <trkpt lat="43.43089" lon="3.57986">
        <ele>11.19</ele>
        <time>2012-04-15T10:21:29Z</time>
      </trkpt>
      <trkpt lat="43.43098" lon="3.57992">
        <ele>11.67</ele>
        <time>2012-04-15T10:21:31Z</time>
      </trkpt>
      <trkpt lat="43.43106" lon="3.57998">
        <ele>12.15</ele>
        <time>2012-04-15T10:21:33Z</time>
      </trkpt>
      <trkpt lat="43.43114" lon="3.58005">
        <ele>12.63</ele>
        <time>2012-04-15T10:21:35Z</time>
      </trkpt>
      <trkpt lat="43.43122" lon="3.58011">
        <ele>13.6</ele>
        <time>2012-04-15T10:21:37Z</time>
      </trkpt>
      <trkpt lat="43.43131" lon="3.58017">
        <ele>14.08</ele>
        <time>2012-04-15T10:21:39Z</time>
      </trkpt>
      <trkpt lat="43.43139" lon="3.58025">
        <ele>15.04</ele>
        <time>2012-04-15T10:21:41Z</time>
      </trkpt>
      <trkpt lat="43.43147" lon="3.58034">
        <ele>16</ele>
        <time>2012-04-15T10:21:43Z</time>
      </trkpt>
      <trkpt lat="43.43155" lon="3.58043">
        <ele>16.48</ele>
        <time>2012-04-15T10:21:45Z</time>
      </trkpt>
      <trkpt lat="43.43161" lon="3.58055">
        <ele>16.48</ele>
        <time>2012-04-15T10:21:47Z</time>
      </trkpt>
      <trkpt lat="43.43165" lon="3.58066">
        <ele>16.96</ele>
        <time>2012-04-15T10:21:49Z</time>
      </trkpt>
      <trkpt lat="43.43169" lon="3.58079">
        <ele>16.96</ele>
        <time>2012-04-15T10:21:51Z</time>
      </trkpt>
      <trkpt lat="43.43173" lon="3.58092">
        <ele>17.44</ele>
        <time>2012-04-15T10:21:53Z</time>
      </trkpt>
      <trkpt lat="43.43177" lon="3.58104">
        <ele>17.44</ele>
        <time>2012-04-15T10:21:55Z</time>
      </trkpt>
      <trkpt lat="43.43181" lon="3.58117">
        <ele>16.96</ele>
        <time>2012-04-15T10:21:57Z</time>
      </trkpt>
      <trkpt lat="43.43184" lon="3.5813">
        <ele>16</ele>
        <time>2012-04-15T10:21:59Z</time>
      </trkpt>
      <trkpt lat="43.43188" lon="3.58144">
        <ele>16</ele>
        <time>2012-04-15T10:22:01Z</time>
      </trkpt>
      <trkpt lat="43.43193" lon="3.58158">
        <ele>15.52</ele>
        <time>2012-04-15T10:22:03Z</time>
      </trkpt>
      <trkpt lat="43.43197" lon="3.58173">
        <ele>16</ele>
        <time>2012-04-15T10:22:05Z</time>
      </trkpt>
      <trkpt lat="43.432" lon="3.58187">
        <ele>15.52</ele>
        <time>2012-04-15T10:22:07Z</time>
      </trkpt>
      <trkpt lat="43.43204" lon="3.58202">
        <ele>15.04</ele>
        <time>2012-04-15T10:22:09Z</time>
      </trkpt>
      <trkpt lat="43.43206" lon="3.58219">
        <ele>15.04</ele>
        <time>2012-04-15T10:22:11Z</time>
      </trkpt>
      <trkpt lat="43.43208" lon="3.58237">
        <ele>15.04</ele>
        <time>2012-04-15T10:22:13Z</time>
      </trkpt>
      <trkpt lat="43.43209" lon="3.58256">
        <ele>15.04</ele>
        <time>2012-04-15T10:22:15Z</time>
      </trkpt>
      <trkpt lat="43.43211" lon="3.58276">
        <ele>15.04</ele>
        <time>2012-04-15T10:22:17Z</time>
      </trkpt>
      <trkpt lat="43.43212" lon="3.58296">
        <ele>15.04</ele>
        <time>2012-04-15T10:22:19Z</time>
      </trkpt>
      <trkpt lat="43.43214" lon="3.58317">
        <ele>14.56</ele>
        <time>2012-04-15T10:22:21Z</time>
      </trkpt>
      <trkpt lat="43.43216" lon="3.58336">
        <ele>14.08</ele>
        <time>2012-04-15T10:22:23Z</time>
      </trkpt>
      <trkpt lat="43.43218" lon="3.58355">
        <ele>13.6</ele>
        <time>2012-04-15T10:22:25Z</time>
      </trkpt>
      <trkpt lat="43.4322" lon="3.58374">
        <ele>13.6</ele>
        <time>2012-04-15T10:22:27Z</time>
      </trkpt>
      <trkpt lat="43.43221" lon="3.58394">
        <ele>13.6</ele>
        <time>2012-04-15T10:22:29Z</time>
      </trkpt>
      <trkpt lat="43.43223" lon="3.58412">
        <ele>14.08</ele>
        <time>2012-04-15T10:22:31Z</time>
      </trkpt>
      <trkpt lat="43.43225" lon="3.58429">
        <ele>14.56</ele>
        <time>2012-04-15T10:22:33Z</time>
      </trkpt>
      <trkpt lat="43.43226" lon="3.58444">
        <ele>15.04</ele>
        <time>2012-04-15T10:22:35Z</time>
      </trkpt>
      <trkpt lat="43.43227" lon="3.58459">
        <ele>15.04</ele>
        <time>2012-04-15T10:22:37Z</time>
      </trkpt>
      <trkpt lat="43.43229" lon="3.58476">
        <ele>15.04</ele>
        <time>2012-04-15T10:22:39Z</time>
      </trkpt>
      <trkpt lat="43.4323" lon="3.58492">
        <ele>15.04</ele>
        <time>2012-04-15T10:22:41Z</time>
      </trkpt>
      <trkpt lat="43.43232" lon="3.58508">
        <ele>15.04</ele>
        <time>2012-04-15T10:22:43Z</time>
      </trkpt>
      <trkpt lat="43.43238" lon="3.58519">
        <ele>15.04</ele>
        <time>2012-04-15T10:22:45Z</time>
      </trkpt>
      <trkpt lat="43.43245" lon="3.58529">
        <ele>15.52</ele>
        <time>2012-04-15T10:22:47Z</time>
      </trkpt>
      <trkpt lat="43.4325" lon="3.58539">
        <ele>16</ele>
        <time>2012-04-15T10:22:49Z</time>
      </trkpt>
      <trkpt lat="43.43254" lon="3.58551">
        <ele>16.48</ele>
        <time>2012-04-15T10:22:51Z</time>
      </trkpt>
      <trkpt lat="43.43259" lon="3.58563">
        <ele>16.96</ele>
        <time>2012-04-15T10:22:53Z</time>
      </trkpt>
      <trkpt lat="43.43263" lon="3.58576">
        <ele>16.48</ele>
        <time>2012-04-15T10:22:55Z</time>
      </trkpt>
      <trkpt lat="43.43268" lon="3.58589">
        <ele>16.48</ele>
        <time>2012-04-15T10:22:57Z</time>
      </trkpt>
      <trkpt lat="43.43272" lon="3.58601">
        <ele>16.48</ele>
        <time>2012-04-15T10:22:59Z</time>
      </trkpt>
      <trkpt lat="43.43277" lon="3.58613">
        <ele>16.48</ele>
        <time>2012-04-15T10:23:01Z</time>
      </trkpt>
      <trkpt lat="43.43281" lon="3.58625">
        <ele>16.96</ele>
        <time>2012-04-15T10:23:03Z</time>
      </trkpt>
      <trkpt lat="43.43286" lon="3.58637">
        <ele>16.96</ele>
        <time>2012-04-15T10:23:05Z</time>
      </trkpt>
      <trkpt lat="43.43291" lon="3.58648">
        <ele>16.96</ele>
        <time>2012-04-15T10:23:07Z</time>
      </trkpt>
      <trkpt lat="43.43297" lon="3.58659">
        <ele>16.48</ele>
        <time>2012-04-15T10:23:09Z</time>
      </trkpt>
      <trkpt lat="43.43306" lon="3.58672">
        <ele>16.96</ele>
        <time>2012-04-15T10:23:12Z</time>
      </trkpt>
      <trkpt lat="43.43313" lon="3.58681">
        <ele>18.4</ele>
        <time>2012-04-15T10:23:15Z</time>
      </trkpt>
      <trkpt lat="43.43322" lon="3.58691">
        <ele>20.32</ele>
        <time>2012-04-15T10:23:18Z</time>
      </trkpt>
      <trkpt lat="43.43331" lon="3.58704">
        <ele>21.77</ele>
        <time>2012-04-15T10:23:21Z</time>
      </trkpt>
      <trkpt lat="43.43339" lon="3.58717">
        <ele>22.73</ele>
        <time>2012-04-15T10:23:24Z</time>
      </trkpt>
      <trkpt lat="43.43348" lon="3.58731">
        <ele>24.17</ele>
        <time>2012-04-15T10:23:27Z</time>
      </trkpt>
      <trkpt lat="43.43356" lon="3.58745">
        <ele>24.65</ele>
        <time>2012-04-15T10:23:30Z</time>
      </trkpt>
      <trkpt lat="43.43364" lon="3.58759">
        <ele>24.65</ele>
        <time>2012-04-15T10:23:33Z</time>
      </trkpt>
      <trkpt lat="43.43372" lon="3.58773">
        <ele>25.13</ele>
        <time>2012-04-15T10:23:36Z</time>
      </trkpt>
      <trkpt lat="43.4338" lon="3.58786">
        <ele>25.61</ele>
        <time>2012-04-15T10:23:39Z</time>
      </trkpt>
      <trkpt lat="43.43387" lon="3.588">
        <ele>26.09</ele>
        <time>2012-04-15T10:23:42Z</time>
      </trkpt>
      <trkpt lat="43.43394" lon="3.58811">
        <ele>27.05</ele>
        <time>2012-04-15T10:23:45Z</time>
      </trkpt>
      <trkpt lat="43.43402" lon="3.58823">
        <ele>27.53</ele>
        <time>2012-04-15T10:23:48Z</time>
      </trkpt>
      <trkpt lat="43.4341" lon="3.58835">
        <ele>28.5</ele>
        <time>2012-04-15T10:23:51Z</time>
      </trkpt>
      <trkpt lat="43.43418" lon="3.58846">
        <ele>28.98</ele>
        <time>2012-04-15T10:23:54Z</time>
      </trkpt>
      <trkpt lat="43.43426" lon="3.58859">
        <ele>28.98</ele>
        <time>2012-04-15T10:23:57Z</time>
      </trkpt>
      <trkpt lat="43.43435" lon="3.58872">
        <ele>29.46</ele>
        <time>2012-04-15T10:24:00Z</time>
      </trkpt>
      <trkpt lat="43.43444" lon="3.58881">
        <ele>29.94</ele>
        <time>2012-04-15T10:24:03Z</time>
      </trkpt>
      <trkpt lat="43.43451" lon="3.58892">
        <ele>30.9</ele>
        <time>2012-04-15T10:24:06Z</time>
      </trkpt>
      <trkpt lat="43.43457" lon="3.589">
        <ele>31.38</ele>
        <time>2012-04-15T10:24:12Z</time>
      </trkpt>
      <trkpt lat="43.43454" lon="3.58911">
        <ele>29.46</ele>
        <time>2012-04-15T10:24:21Z</time>
      </trkpt>
      <trkpt lat="43.43453" lon="3.58918">
        <ele>28.02</ele>
        <time>2012-04-15T10:24:30Z</time>
      </trkpt>
      <trkpt lat="43.43462" lon="3.58922">
        <ele>27.05</ele>
        <time>2012-04-15T10:24:34Z</time>
      </trkpt>
      <trkpt lat="43.43472" lon="3.58929">
        <ele>27.05</ele>
        <time>2012-04-15T10:24:37Z</time>
      </trkpt>
      <trkpt lat="43.43481" lon="3.5894">
        <ele>27.05</ele>
        <time>2012-04-15T10:24:40Z</time>
      </trkpt>
      <trkpt lat="43.43489" lon="3.58952">
        <ele>26.57</ele>
        <time>2012-04-15T10:24:43Z</time>
      </trkpt>
      <trkpt lat="43.43497" lon="3.58963">
        <ele>27.05</ele>
        <time>2012-04-15T10:24:46Z</time>
      </trkpt>
      <trkpt lat="43.43503" lon="3.58974">
        <ele>27.05</ele>
        <time>2012-04-15T10:24:49Z</time>
      </trkpt>
      <trkpt lat="43.4351" lon="3.58985">
        <ele>27.53</ele>
        <time>2012-04-15T10:24:52Z</time>
      </trkpt>
      <trkpt lat="43.43516" lon="3.58997">
        <ele>27.53</ele>
        <time>2012-04-15T10:24:56Z</time>
      </trkpt>
      <trkpt lat="43.43521" lon="3.59007">
        <ele>27.53</ele>
        <time>2012-04-15T10:24:59Z</time>
      </trkpt>
      <trkpt lat="43.43526" lon="3.59018">
        <ele>27.53</ele>
        <time>2012-04-15T10:25:02Z</time>
      </trkpt>
      <trkpt lat="43.43532" lon="3.59033">
        <ele>27.53</ele>
        <time>2012-04-15T10:25:06Z</time>
      </trkpt>
      <trkpt lat="43.43536" lon="3.59044">
        <ele>28.5</ele>
        <time>2012-04-15T10:25:09Z</time>
      </trkpt>
      <trkpt lat="43.43542" lon="3.59056">
        <ele>29.46</ele>
        <time>2012-04-15T10:25:12Z</time>
      </trkpt>
      <trkpt lat="43.4355" lon="3.59068">
        <ele>28.98</ele>
        <time>2012-04-15T10:25:15Z</time>
      </trkpt>
      <trkpt lat="43.4356" lon="3.59082">
        <ele>28.5</ele>
        <time>2012-04-15T10:25:18Z</time>
      </trkpt>
      <trkpt lat="43.43565" lon="3.59095">
        <ele>28.02</ele>
        <time>2012-04-15T10:25:20Z</time>
      </trkpt>
      <trkpt lat="43.4357" lon="3.59109">
        <ele>27.05</ele>
        <time>2012-04-15T10:25:22Z</time>
      </trkpt>
      <trkpt lat="43.43573" lon="3.59125">
        <ele>25.61</ele>
        <time>2012-04-15T10:25:24Z</time>
      </trkpt>
      <trkpt lat="43.43574" lon="3.59143">
        <ele>23.69</ele>
        <time>2012-04-15T10:25:26Z</time>
      </trkpt>
      <trkpt lat="43.43575" lon="3.59161">
        <ele>22.25</ele>
        <time>2012-04-15T10:25:28Z</time>
      </trkpt>
      <trkpt lat="43.43576" lon="3.59178">
        <ele>20.81</ele>
        <time>2012-04-15T10:25:30Z</time>
      </trkpt>
      <trkpt lat="43.43577" lon="3.59192">
        <ele>19.84</ele>
        <time>2012-04-15T10:25:32Z</time>
      </trkpt>
      <trkpt lat="43.43578" lon="3.59209">
        <ele>18.4</ele>
        <time>2012-04-15T10:25:34Z</time>
      </trkpt>
      <trkpt lat="43.4358" lon="3.59227">
        <ele>17.44</ele>
        <time>2012-04-15T10:25:36Z</time>
      </trkpt>
      <trkpt lat="43.43581" lon="3.59245">
        <ele>16.96</ele>
        <time>2012-04-15T10:25:38Z</time>
      </trkpt>
      <trkpt lat="43.43584" lon="3.59262">
        <ele>16.96</ele>
        <time>2012-04-15T10:25:40Z</time>
      </trkpt>
      <trkpt lat="43.43588" lon="3.59277">
        <ele>16.48</ele>
        <time>2012-04-15T10:25:42Z</time>
      </trkpt>
      <trkpt lat="43.43593" lon="3.5929">
        <ele>16.48</ele>
        <time>2012-04-15T10:25:44Z</time>
      </trkpt>
      <trkpt lat="43.436" lon="3.59302">
        <ele>16.48</ele>
        <time>2012-04-15T10:25:46Z</time>
      </trkpt>
      <trkpt lat="43.43605" lon="3.59316">
        <ele>16.48</ele>
        <time>2012-04-15T10:25:48Z</time>
      </trkpt>
      <trkpt lat="43.43609" lon="3.5933">
        <ele>16.48</ele>
        <time>2012-04-15T10:25:50Z</time>
      </trkpt>
      <trkpt lat="43.43613" lon="3.59344">
        <ele>16.48</ele>
        <time>2012-04-15T10:25:52Z</time>
      </trkpt>
      <trkpt lat="43.43618" lon="3.59358">
        <ele>16.96</ele>
        <time>2012-04-15T10:25:54Z</time>
      </trkpt>
      <trkpt lat="43.43623" lon="3.59371">
        <ele>16.96</ele>
        <time>2012-04-15T10:25:56Z</time>
      </trkpt>
      <trkpt lat="43.43627" lon="3.59384">
        <ele>16.96</ele>
        <time>2012-04-15T10:25:58Z</time>
      </trkpt>
      <trkpt lat="43.43631" lon="3.59397">
        <ele>16.96</ele>
        <time>2012-04-15T10:26:00Z</time>
      </trkpt>
      <trkpt lat="43.43634" lon="3.5941">
        <ele>17.44</ele>
        <time>2012-04-15T10:26:02Z</time>
      </trkpt>
      <trkpt lat="43.43637" lon="3.59423">
        <ele>17.44</ele>
        <time>2012-04-15T10:26:04Z</time>
      </trkpt>
      <trkpt lat="43.43639" lon="3.59436">
        <ele>17.44</ele>
        <time>2012-04-15T10:26:06Z</time>
      </trkpt>
      <trkpt lat="43.43641" lon="3.59449">
        <ele>17.44</ele>
        <time>2012-04-15T10:26:08Z</time>
      </trkpt>
      <trkpt lat="43.43642" lon="3.59467">
        <ele>16.96</ele>
        <time>2012-04-15T10:26:11Z</time>
      </trkpt>
      <trkpt lat="43.43646" lon="3.59479">
        <ele>16.96</ele>
        <time>2012-04-15T10:26:13Z</time>
      </trkpt>
      <trkpt lat="43.43651" lon="3.5949">
        <ele>16.48</ele>
        <time>2012-04-15T10:26:15Z</time>
      </trkpt>
      <trkpt lat="43.43658" lon="3.59502">
        <ele>16</ele>
        <time>2012-04-15T10:26:17Z</time>
      </trkpt>
      <trkpt lat="43.43664" lon="3.59514">
        <ele>15.52</ele>
        <time>2012-04-15T10:26:19Z</time>
      </trkpt>
      <trkpt lat="43.4367" lon="3.59525">
        <ele>15.04</ele>
        <time>2012-04-15T10:26:21Z</time>
      </trkpt>
      <trkpt lat="43.43676" lon="3.59537">
        <ele>14.56</ele>
        <time>2012-04-15T10:26:23Z</time>
      </trkpt>
      <trkpt lat="43.43677" lon="3.59551">
        <ele>14.08</ele>
        <time>2012-04-15T10:26:25Z</time>
      </trkpt>
      <trkpt lat="43.43673" lon="3.59563">
        <ele>14.08</ele>
        <time>2012-04-15T10:26:27Z</time>
      </trkpt>
      <trkpt lat="43.43667" lon="3.59573">
        <ele>14.08</ele>
        <time>2012-04-15T10:26:29Z</time>
      </trkpt>
      <trkpt lat="43.43658" lon="3.59587">
        <ele>14.56</ele>
        <time>2012-04-15T10:26:32Z</time>
      </trkpt>
      <trkpt lat="43.43652" lon="3.59596">
        <ele>14.56</ele>
        <time>2012-04-15T10:26:34Z</time>
      </trkpt>
      <trkpt lat="43.43646" lon="3.59606">
        <ele>15.04</ele>
        <time>2012-04-15T10:26:36Z</time>
      </trkpt>
      <trkpt lat="43.4364" lon="3.59616">
        <ele>16</ele>
        <time>2012-04-15T10:26:38Z</time>
      </trkpt>
      <trkpt lat="43.43637" lon="3.59633">
        <ele>16</ele>
        <time>2012-04-15T10:26:41Z</time>
      </trkpt>
      <trkpt lat="43.43644" lon="3.59646">
        <ele>16.48</ele>
        <time>2012-04-15T10:26:44Z</time>
      </trkpt>
      <trkpt lat="43.43653" lon="3.59659">
        <ele>17.44</ele>
        <time>2012-04-15T10:26:47Z</time>
      </trkpt>
      <trkpt lat="43.43663" lon="3.5967">
        <ele>16.96</ele>
        <time>2012-04-15T10:26:50Z</time>
      </trkpt>
      <trkpt lat="43.43672" lon="3.59682">
        <ele>16.96</ele>
        <time>2012-04-15T10:26:53Z</time>
      </trkpt>
      <trkpt lat="43.4368" lon="3.59693">
        <ele>16.96</ele>
        <time>2012-04-15T10:26:56Z</time>
      </trkpt>
      <trkpt lat="43.43687" lon="3.59702">
        <ele>17.44</ele>
        <time>2012-04-15T10:26:59Z</time>
      </trkpt>
      <trkpt lat="43.43689" lon="3.59712">
        <ele>17.92</ele>
        <time>2012-04-15T10:27:19Z</time>
      </trkpt>
      <trkpt lat="43.43687" lon="3.59722">
        <ele>21.77</ele>
        <time>2012-04-15T10:29:17Z</time>
      </trkpt>
    </trkseg>
  </trk>
</gpx>